<?xml version="1.0" encoding="UTF-8" standalone="no" ?>
<gpx xmlns="http://www.topografix.com/GPX/1/1" xmlns:xsi="http://www.w3.org/2001/XMLSchema-instance" xsi:schemaLocation="http://www.topografix.com/GPX/1/1 http://www.topografix.com/GPX/1/1/gpx.xsd" version="1.1" creator="VisuGPX - https://www.visugpx.com">
  <metadata>
    <name>Pélasque - Tira Andréani - Lantosque</name>
    <desc><![CDATA[Le Suquet - Pélasque - Tira Andréani - Baisse de Cangelard - Lantosque - St Georges - Le Suquet
Relevé Terrain : + 1 100m / 26 Km
Rando ASCVTT du 18 Janvier 2025]]></desc>
  </metadata>
  <trk>
    <name><![CDATA[2025-01-18_091317--les-balcons-de-la-vesubie]]></name>
    <extensions>
      <line xmlns="http://www.topografix.com/GPX/gpx_style/0/2">
        <width>7</width>
      </line>
    </extensions>
    <trkseg>
      <trkpt lat="43.94215" lon="7.28292">
        <ele>337.5</ele>
        <time>2025-01-18T08:13:17.000Z</time>
      </trkpt>
      <trkpt lat="43.94215" lon="7.28292">
        <ele>337.5</ele>
        <time>2025-01-18T08:13:17.000Z</time>
      </trkpt>
      <trkpt lat="43.94215" lon="7.28292">
        <ele>337.5</ele>
        <time>2025-01-18T08:13:18.000Z</time>
      </trkpt>
      <trkpt lat="43.94216" lon="7.28292">
        <ele>337.6</ele>
        <time>2025-01-18T08:13:20.000Z</time>
      </trkpt>
      <trkpt lat="43.94216" lon="7.28292">
        <ele>337.6</ele>
        <time>2025-01-18T08:13:21.000Z</time>
      </trkpt>
      <trkpt lat="43.94218" lon="7.28285">
        <ele>337.6</ele>
        <time>2025-01-18T08:13:28.000Z</time>
      </trkpt>
      <trkpt lat="43.94214" lon="7.28289">
        <ele>338.1</ele>
        <time>2025-01-18T08:13:57.000Z</time>
      </trkpt>
      <trkpt lat="43.94218" lon="7.28282">
        <ele>338.1</ele>
        <time>2025-01-18T08:14:03.000Z</time>
      </trkpt>
      <trkpt lat="43.94223" lon="7.28282">
        <ele>338.1</ele>
        <time>2025-01-18T08:14:08.000Z</time>
      </trkpt>
      <trkpt lat="43.94225" lon="7.28281">
        <ele>338.2</ele>
        <time>2025-01-18T08:14:11.000Z</time>
      </trkpt>
      <trkpt lat="43.94225" lon="7.28281">
        <ele>338.2</ele>
        <time>2025-01-18T08:14:12.000Z</time>
      </trkpt>
      <trkpt lat="43.9423" lon="7.28284">
        <ele>338.2</ele>
        <time>2025-01-18T08:14:21.000Z</time>
      </trkpt>
      <trkpt lat="43.9423" lon="7.28286">
        <ele>338.3</ele>
        <time>2025-01-18T08:14:22.000Z</time>
      </trkpt>
      <trkpt lat="43.94232" lon="7.28288">
        <ele>338.3</ele>
        <time>2025-01-18T08:14:23.000Z</time>
      </trkpt>
      <trkpt lat="43.94238" lon="7.28285">
        <ele>338.3</ele>
        <time>2025-01-18T08:14:25.000Z</time>
      </trkpt>
      <trkpt lat="43.94246" lon="7.28282">
        <ele>338.3</ele>
        <time>2025-01-18T08:14:27.000Z</time>
      </trkpt>
      <trkpt lat="43.94254" lon="7.28281">
        <ele>338.4</ele>
        <time>2025-01-18T08:14:29.000Z</time>
      </trkpt>
      <trkpt lat="43.94261" lon="7.28282">
        <ele>338.4</ele>
        <time>2025-01-18T08:14:31.000Z</time>
      </trkpt>
      <trkpt lat="43.94269" lon="7.28279">
        <ele>338.4</ele>
        <time>2025-01-18T08:14:33.000Z</time>
      </trkpt>
      <trkpt lat="43.94277" lon="7.28278">
        <ele>338.5</ele>
        <time>2025-01-18T08:14:35.000Z</time>
      </trkpt>
      <trkpt lat="43.94283" lon="7.28278">
        <ele>338.6</ele>
        <time>2025-01-18T08:14:37.000Z</time>
      </trkpt>
      <trkpt lat="43.94289" lon="7.2828">
        <ele>338.7</ele>
        <time>2025-01-18T08:14:39.000Z</time>
      </trkpt>
      <trkpt lat="43.94296" lon="7.2828">
        <ele>338.8</ele>
        <time>2025-01-18T08:14:41.000Z</time>
      </trkpt>
      <trkpt lat="43.94303" lon="7.2828">
        <ele>338.9</ele>
        <time>2025-01-18T08:14:43.000Z</time>
      </trkpt>
      <trkpt lat="43.9431" lon="7.2828">
        <ele>339.1</ele>
        <time>2025-01-18T08:14:45.000Z</time>
      </trkpt>
      <trkpt lat="43.94316" lon="7.28283">
        <ele>339.2</ele>
        <time>2025-01-18T08:14:47.000Z</time>
      </trkpt>
      <trkpt lat="43.94322" lon="7.28286">
        <ele>339.4</ele>
        <time>2025-01-18T08:14:49.000Z</time>
      </trkpt>
      <trkpt lat="43.94327" lon="7.28287">
        <ele>339.5</ele>
        <time>2025-01-18T08:14:51.000Z</time>
      </trkpt>
      <trkpt lat="43.94334" lon="7.28288">
        <ele>339.6</ele>
        <time>2025-01-18T08:14:53.000Z</time>
      </trkpt>
      <trkpt lat="43.9434" lon="7.28284">
        <ele>339.8</ele>
        <time>2025-01-18T08:14:55.000Z</time>
      </trkpt>
      <trkpt lat="43.94343" lon="7.28276">
        <ele>340</ele>
        <time>2025-01-18T08:14:57.000Z</time>
      </trkpt>
      <trkpt lat="43.94344" lon="7.28269">
        <ele>340.2</ele>
        <time>2025-01-18T08:14:59.000Z</time>
      </trkpt>
      <trkpt lat="43.94343" lon="7.28261">
        <ele>340.5</ele>
        <time>2025-01-18T08:15:01.000Z</time>
      </trkpt>
      <trkpt lat="43.94341" lon="7.28255">
        <ele>340.8</ele>
        <time>2025-01-18T08:15:03.000Z</time>
      </trkpt>
      <trkpt lat="43.94338" lon="7.28247">
        <ele>341.3</ele>
        <time>2025-01-18T08:15:06.000Z</time>
      </trkpt>
      <trkpt lat="43.94335" lon="7.28241">
        <ele>341.6</ele>
        <time>2025-01-18T08:15:08.000Z</time>
      </trkpt>
      <trkpt lat="43.94332" lon="7.28236">
        <ele>341.9</ele>
        <time>2025-01-18T08:15:10.000Z</time>
      </trkpt>
      <trkpt lat="43.9433" lon="7.2823">
        <ele>342.3</ele>
        <time>2025-01-18T08:15:12.000Z</time>
      </trkpt>
      <trkpt lat="43.94328" lon="7.28224">
        <ele>342.7</ele>
        <time>2025-01-18T08:15:14.000Z</time>
      </trkpt>
      <trkpt lat="43.94327" lon="7.28216">
        <ele>343.3</ele>
        <time>2025-01-18T08:15:17.000Z</time>
      </trkpt>
      <trkpt lat="43.94326" lon="7.28207">
        <ele>343.8</ele>
        <time>2025-01-18T08:15:20.000Z</time>
      </trkpt>
      <trkpt lat="43.94326" lon="7.28198">
        <ele>344.3</ele>
        <time>2025-01-18T08:15:23.000Z</time>
      </trkpt>
      <trkpt lat="43.94328" lon="7.28191">
        <ele>344.9</ele>
        <time>2025-01-18T08:15:26.000Z</time>
      </trkpt>
      <trkpt lat="43.9433" lon="7.28183">
        <ele>345.3</ele>
        <time>2025-01-18T08:15:29.000Z</time>
      </trkpt>
      <trkpt lat="43.94331" lon="7.28174">
        <ele>345.7</ele>
        <time>2025-01-18T08:15:32.000Z</time>
      </trkpt>
      <trkpt lat="43.94333" lon="7.28166">
        <ele>346.1</ele>
        <time>2025-01-18T08:15:35.000Z</time>
      </trkpt>
      <trkpt lat="43.94334" lon="7.28159">
        <ele>346.5</ele>
        <time>2025-01-18T08:15:38.000Z</time>
      </trkpt>
      <trkpt lat="43.94336" lon="7.28152">
        <ele>347</ele>
        <time>2025-01-18T08:15:41.000Z</time>
      </trkpt>
      <trkpt lat="43.94338" lon="7.28144">
        <ele>347.3</ele>
        <time>2025-01-18T08:15:44.000Z</time>
      </trkpt>
      <trkpt lat="43.94339" lon="7.28136">
        <ele>347.7</ele>
        <time>2025-01-18T08:15:47.000Z</time>
      </trkpt>
      <trkpt lat="43.94342" lon="7.28128">
        <ele>348.1</ele>
        <time>2025-01-18T08:15:50.000Z</time>
      </trkpt>
      <trkpt lat="43.94343" lon="7.28121">
        <ele>348.6</ele>
        <time>2025-01-18T08:15:53.000Z</time>
      </trkpt>
      <trkpt lat="43.94345" lon="7.28114">
        <ele>349</ele>
        <time>2025-01-18T08:15:56.000Z</time>
      </trkpt>
      <trkpt lat="43.94347" lon="7.28106">
        <ele>349.4</ele>
        <time>2025-01-18T08:15:59.000Z</time>
      </trkpt>
      <trkpt lat="43.94347" lon="7.28099">
        <ele>349.8</ele>
        <time>2025-01-18T08:16:02.000Z</time>
      </trkpt>
      <trkpt lat="43.94348" lon="7.2809">
        <ele>350.1</ele>
        <time>2025-01-18T08:16:05.000Z</time>
      </trkpt>
      <trkpt lat="43.94345" lon="7.28082">
        <ele>350.4</ele>
        <time>2025-01-18T08:16:08.000Z</time>
      </trkpt>
      <trkpt lat="43.94344" lon="7.28075">
        <ele>350.8</ele>
        <time>2025-01-18T08:16:11.000Z</time>
      </trkpt>
      <trkpt lat="43.94345" lon="7.28068">
        <ele>351.2</ele>
        <time>2025-01-18T08:16:14.000Z</time>
      </trkpt>
      <trkpt lat="43.94346" lon="7.2806">
        <ele>351.9</ele>
        <time>2025-01-18T08:16:18.000Z</time>
      </trkpt>
      <trkpt lat="43.94348" lon="7.2805">
        <ele>352.3</ele>
        <time>2025-01-18T08:16:21.000Z</time>
      </trkpt>
      <trkpt lat="43.9435" lon="7.28044">
        <ele>352.6</ele>
        <time>2025-01-18T08:16:23.000Z</time>
      </trkpt>
      <trkpt lat="43.94351" lon="7.28037">
        <ele>352.8</ele>
        <time>2025-01-18T08:16:25.000Z</time>
      </trkpt>
      <trkpt lat="43.94353" lon="7.28029">
        <ele>353.2</ele>
        <time>2025-01-18T08:16:28.000Z</time>
      </trkpt>
      <trkpt lat="43.94355" lon="7.2802">
        <ele>353.5</ele>
        <time>2025-01-18T08:16:31.000Z</time>
      </trkpt>
      <trkpt lat="43.94357" lon="7.28014">
        <ele>353.6</ele>
        <time>2025-01-18T08:16:33.000Z</time>
      </trkpt>
      <trkpt lat="43.9436" lon="7.28007">
        <ele>353.9</ele>
        <time>2025-01-18T08:16:36.000Z</time>
      </trkpt>
      <trkpt lat="43.94363" lon="7.28002">
        <ele>354.1</ele>
        <time>2025-01-18T08:16:38.000Z</time>
      </trkpt>
      <trkpt lat="43.94365" lon="7.27996">
        <ele>354.2</ele>
        <time>2025-01-18T08:16:40.000Z</time>
      </trkpt>
      <trkpt lat="43.94368" lon="7.27989">
        <ele>354.5</ele>
        <time>2025-01-18T08:16:43.000Z</time>
      </trkpt>
      <trkpt lat="43.9437" lon="7.27981">
        <ele>354.9</ele>
        <time>2025-01-18T08:16:46.000Z</time>
      </trkpt>
      <trkpt lat="43.94374" lon="7.27976">
        <ele>355.2</ele>
        <time>2025-01-18T08:16:49.000Z</time>
      </trkpt>
      <trkpt lat="43.94379" lon="7.27972">
        <ele>355.6</ele>
        <time>2025-01-18T08:16:52.000Z</time>
      </trkpt>
      <trkpt lat="43.94382" lon="7.27966">
        <ele>355.8</ele>
        <time>2025-01-18T08:16:54.000Z</time>
      </trkpt>
      <trkpt lat="43.94386" lon="7.27958">
        <ele>356.3</ele>
        <time>2025-01-18T08:16:57.000Z</time>
      </trkpt>
      <trkpt lat="43.94388" lon="7.27952">
        <ele>356.6</ele>
        <time>2025-01-18T08:16:59.000Z</time>
      </trkpt>
      <trkpt lat="43.94391" lon="7.27947">
        <ele>357</ele>
        <time>2025-01-18T08:17:02.000Z</time>
      </trkpt>
      <trkpt lat="43.94395" lon="7.2794">
        <ele>357.5</ele>
        <time>2025-01-18T08:17:05.000Z</time>
      </trkpt>
      <trkpt lat="43.94399" lon="7.27935">
        <ele>358</ele>
        <time>2025-01-18T08:17:08.000Z</time>
      </trkpt>
      <trkpt lat="43.94403" lon="7.2793">
        <ele>358.6</ele>
        <time>2025-01-18T08:17:11.000Z</time>
      </trkpt>
      <trkpt lat="43.94406" lon="7.27925">
        <ele>359</ele>
        <time>2025-01-18T08:17:13.000Z</time>
      </trkpt>
      <trkpt lat="43.94409" lon="7.27916">
        <ele>359.6</ele>
        <time>2025-01-18T08:17:17.000Z</time>
      </trkpt>
      <trkpt lat="43.94413" lon="7.2791">
        <ele>360</ele>
        <time>2025-01-18T08:17:20.000Z</time>
      </trkpt>
      <trkpt lat="43.94417" lon="7.27907">
        <ele>360.2</ele>
        <time>2025-01-18T08:17:22.000Z</time>
      </trkpt>
      <trkpt lat="43.9442" lon="7.27901">
        <ele>360.5</ele>
        <time>2025-01-18T08:17:25.000Z</time>
      </trkpt>
      <trkpt lat="43.94424" lon="7.27894">
        <ele>360.8</ele>
        <time>2025-01-18T08:17:28.000Z</time>
      </trkpt>
      <trkpt lat="43.94427" lon="7.27888">
        <ele>361</ele>
        <time>2025-01-18T08:17:31.000Z</time>
      </trkpt>
      <trkpt lat="43.94431" lon="7.27881">
        <ele>361.4</ele>
        <time>2025-01-18T08:17:34.000Z</time>
      </trkpt>
      <trkpt lat="43.94434" lon="7.27874">
        <ele>361.7</ele>
        <time>2025-01-18T08:17:37.000Z</time>
      </trkpt>
      <trkpt lat="43.94438" lon="7.27869">
        <ele>361.9</ele>
        <time>2025-01-18T08:17:39.000Z</time>
      </trkpt>
      <trkpt lat="43.94442" lon="7.27863">
        <ele>362.3</ele>
        <time>2025-01-18T08:17:42.000Z</time>
      </trkpt>
      <trkpt lat="43.94445" lon="7.27857">
        <ele>362.7</ele>
        <time>2025-01-18T08:17:45.000Z</time>
      </trkpt>
      <trkpt lat="43.94449" lon="7.27851">
        <ele>363.4</ele>
        <time>2025-01-18T08:17:49.000Z</time>
      </trkpt>
      <trkpt lat="43.94453" lon="7.27846">
        <ele>364</ele>
        <time>2025-01-18T08:17:53.000Z</time>
      </trkpt>
      <trkpt lat="43.94455" lon="7.27837">
        <ele>364.5</ele>
        <time>2025-01-18T08:17:56.000Z</time>
      </trkpt>
      <trkpt lat="43.94457" lon="7.27831">
        <ele>364.9</ele>
        <time>2025-01-18T08:17:58.000Z</time>
      </trkpt>
      <trkpt lat="43.94459" lon="7.27824">
        <ele>365.2</ele>
        <time>2025-01-18T08:18:00.000Z</time>
      </trkpt>
      <trkpt lat="43.94461" lon="7.27819">
        <ele>365.5</ele>
        <time>2025-01-18T08:18:02.000Z</time>
      </trkpt>
      <trkpt lat="43.94465" lon="7.27814">
        <ele>365.8</ele>
        <time>2025-01-18T08:18:05.000Z</time>
      </trkpt>
      <trkpt lat="43.94468" lon="7.27809">
        <ele>366</ele>
        <time>2025-01-18T08:18:07.000Z</time>
      </trkpt>
      <trkpt lat="43.94471" lon="7.27803">
        <ele>366.3</ele>
        <time>2025-01-18T08:18:09.000Z</time>
      </trkpt>
      <trkpt lat="43.94474" lon="7.27796">
        <ele>366.8</ele>
        <time>2025-01-18T08:18:12.000Z</time>
      </trkpt>
      <trkpt lat="43.94477" lon="7.27791">
        <ele>367.2</ele>
        <time>2025-01-18T08:18:14.000Z</time>
      </trkpt>
      <trkpt lat="43.94482" lon="7.27785">
        <ele>367.6</ele>
        <time>2025-01-18T08:18:17.000Z</time>
      </trkpt>
      <trkpt lat="43.94486" lon="7.27778">
        <ele>368</ele>
        <time>2025-01-18T08:18:20.000Z</time>
      </trkpt>
      <trkpt lat="43.9449" lon="7.27771">
        <ele>368.4</ele>
        <time>2025-01-18T08:18:23.000Z</time>
      </trkpt>
      <trkpt lat="43.94494" lon="7.27767">
        <ele>369</ele>
        <time>2025-01-18T08:18:27.000Z</time>
      </trkpt>
      <trkpt lat="43.94499" lon="7.2776">
        <ele>369.5</ele>
        <time>2025-01-18T08:18:30.000Z</time>
      </trkpt>
      <trkpt lat="43.94501" lon="7.27754">
        <ele>369.8</ele>
        <time>2025-01-18T08:18:32.000Z</time>
      </trkpt>
      <trkpt lat="43.94505" lon="7.27748">
        <ele>370.4</ele>
        <time>2025-01-18T08:18:35.000Z</time>
      </trkpt>
      <trkpt lat="43.94507" lon="7.27741">
        <ele>370.9</ele>
        <time>2025-01-18T08:18:38.000Z</time>
      </trkpt>
      <trkpt lat="43.9451" lon="7.27735">
        <ele>371.2</ele>
        <time>2025-01-18T08:18:41.000Z</time>
      </trkpt>
      <trkpt lat="43.94514" lon="7.27729">
        <ele>371.6</ele>
        <time>2025-01-18T08:18:44.000Z</time>
      </trkpt>
      <trkpt lat="43.94518" lon="7.27723">
        <ele>371.9</ele>
        <time>2025-01-18T08:18:47.000Z</time>
      </trkpt>
      <trkpt lat="43.94521" lon="7.27717">
        <ele>372.3</ele>
        <time>2025-01-18T08:18:50.000Z</time>
      </trkpt>
      <trkpt lat="43.94525" lon="7.27713">
        <ele>372.5</ele>
        <time>2025-01-18T08:18:52.000Z</time>
      </trkpt>
      <trkpt lat="43.94529" lon="7.2771">
        <ele>372.8</ele>
        <time>2025-01-18T08:18:54.000Z</time>
      </trkpt>
      <trkpt lat="43.94534" lon="7.27708">
        <ele>373.1</ele>
        <time>2025-01-18T08:18:57.000Z</time>
      </trkpt>
      <trkpt lat="43.94538" lon="7.27702">
        <ele>373.6</ele>
        <time>2025-01-18T08:19:00.000Z</time>
      </trkpt>
      <trkpt lat="43.94543" lon="7.27699">
        <ele>374</ele>
        <time>2025-01-18T08:19:03.000Z</time>
      </trkpt>
      <trkpt lat="43.94548" lon="7.27696">
        <ele>374.3</ele>
        <time>2025-01-18T08:19:06.000Z</time>
      </trkpt>
      <trkpt lat="43.94551" lon="7.27692">
        <ele>374.6</ele>
        <time>2025-01-18T08:19:08.000Z</time>
      </trkpt>
      <trkpt lat="43.94557" lon="7.27688">
        <ele>374.9</ele>
        <time>2025-01-18T08:19:11.000Z</time>
      </trkpt>
      <trkpt lat="43.94563" lon="7.27682">
        <ele>375.2</ele>
        <time>2025-01-18T08:19:14.000Z</time>
      </trkpt>
      <trkpt lat="43.94568" lon="7.27677">
        <ele>375.6</ele>
        <time>2025-01-18T08:19:17.000Z</time>
      </trkpt>
      <trkpt lat="43.94573" lon="7.27671">
        <ele>376.1</ele>
        <time>2025-01-18T08:19:20.000Z</time>
      </trkpt>
      <trkpt lat="43.94578" lon="7.27668">
        <ele>376.7</ele>
        <time>2025-01-18T08:19:23.000Z</time>
      </trkpt>
      <trkpt lat="43.94583" lon="7.27666">
        <ele>377.3</ele>
        <time>2025-01-18T08:19:26.000Z</time>
      </trkpt>
      <trkpt lat="43.94587" lon="7.27661">
        <ele>377.8</ele>
        <time>2025-01-18T08:19:29.000Z</time>
      </trkpt>
      <trkpt lat="43.94591" lon="7.27658">
        <ele>378.2</ele>
        <time>2025-01-18T08:19:31.000Z</time>
      </trkpt>
      <trkpt lat="43.94596" lon="7.27653">
        <ele>378.6</ele>
        <time>2025-01-18T08:19:34.000Z</time>
      </trkpt>
      <trkpt lat="43.946" lon="7.27649">
        <ele>379</ele>
        <time>2025-01-18T08:19:37.000Z</time>
      </trkpt>
      <trkpt lat="43.94603" lon="7.27645">
        <ele>379.3</ele>
        <time>2025-01-18T08:19:39.000Z</time>
      </trkpt>
      <trkpt lat="43.94607" lon="7.2764">
        <ele>379.6</ele>
        <time>2025-01-18T08:19:41.000Z</time>
      </trkpt>
      <trkpt lat="43.9461" lon="7.27636">
        <ele>380</ele>
        <time>2025-01-18T08:19:43.000Z</time>
      </trkpt>
      <trkpt lat="43.94614" lon="7.27632">
        <ele>380.2</ele>
        <time>2025-01-18T08:19:45.000Z</time>
      </trkpt>
      <trkpt lat="43.94618" lon="7.27628">
        <ele>380.7</ele>
        <time>2025-01-18T08:19:48.000Z</time>
      </trkpt>
      <trkpt lat="43.94621" lon="7.2762">
        <ele>381</ele>
        <time>2025-01-18T08:19:51.000Z</time>
      </trkpt>
      <trkpt lat="43.94625" lon="7.27615">
        <ele>381.3</ele>
        <time>2025-01-18T08:19:53.000Z</time>
      </trkpt>
      <trkpt lat="43.94628" lon="7.2761">
        <ele>381.6</ele>
        <time>2025-01-18T08:19:55.000Z</time>
      </trkpt>
      <trkpt lat="43.94633" lon="7.27604">
        <ele>381.9</ele>
        <time>2025-01-18T08:19:58.000Z</time>
      </trkpt>
      <trkpt lat="43.94637" lon="7.27599">
        <ele>382.3</ele>
        <time>2025-01-18T08:20:01.000Z</time>
      </trkpt>
      <trkpt lat="43.94639" lon="7.27592">
        <ele>382.6</ele>
        <time>2025-01-18T08:20:04.000Z</time>
      </trkpt>
      <trkpt lat="43.94643" lon="7.27587">
        <ele>382.9</ele>
        <time>2025-01-18T08:20:07.000Z</time>
      </trkpt>
      <trkpt lat="43.94647" lon="7.27582">
        <ele>383.3</ele>
        <time>2025-01-18T08:20:10.000Z</time>
      </trkpt>
      <trkpt lat="43.9465" lon="7.27574">
        <ele>383.7</ele>
        <time>2025-01-18T08:20:13.000Z</time>
      </trkpt>
      <trkpt lat="43.94652" lon="7.27568">
        <ele>384.3</ele>
        <time>2025-01-18T08:20:17.000Z</time>
      </trkpt>
      <trkpt lat="43.94656" lon="7.2756">
        <ele>384.7</ele>
        <time>2025-01-18T08:20:20.000Z</time>
      </trkpt>
      <trkpt lat="43.94659" lon="7.27554">
        <ele>385</ele>
        <time>2025-01-18T08:20:22.000Z</time>
      </trkpt>
      <trkpt lat="43.94661" lon="7.27547">
        <ele>385.6</ele>
        <time>2025-01-18T08:20:25.000Z</time>
      </trkpt>
      <trkpt lat="43.94664" lon="7.2754">
        <ele>386</ele>
        <time>2025-01-18T08:20:28.000Z</time>
      </trkpt>
      <trkpt lat="43.94666" lon="7.27532">
        <ele>386.3</ele>
        <time>2025-01-18T08:20:30.000Z</time>
      </trkpt>
      <trkpt lat="43.94669" lon="7.27523">
        <ele>386.6</ele>
        <time>2025-01-18T08:20:32.000Z</time>
      </trkpt>
      <trkpt lat="43.94671" lon="7.27515">
        <ele>387.1</ele>
        <time>2025-01-18T08:20:35.000Z</time>
      </trkpt>
      <trkpt lat="43.94673" lon="7.27507">
        <ele>387.4</ele>
        <time>2025-01-18T08:20:38.000Z</time>
      </trkpt>
      <trkpt lat="43.94673" lon="7.27497">
        <ele>387.9</ele>
        <time>2025-01-18T08:20:41.000Z</time>
      </trkpt>
      <trkpt lat="43.94674" lon="7.27488">
        <ele>388.4</ele>
        <time>2025-01-18T08:20:44.000Z</time>
      </trkpt>
      <trkpt lat="43.94675" lon="7.2748">
        <ele>388.9</ele>
        <time>2025-01-18T08:20:47.000Z</time>
      </trkpt>
      <trkpt lat="43.94675" lon="7.27471">
        <ele>389.3</ele>
        <time>2025-01-18T08:20:50.000Z</time>
      </trkpt>
      <trkpt lat="43.94674" lon="7.27463">
        <ele>389.7</ele>
        <time>2025-01-18T08:20:53.000Z</time>
      </trkpt>
      <trkpt lat="43.9467" lon="7.27457">
        <ele>390.1</ele>
        <time>2025-01-18T08:20:56.000Z</time>
      </trkpt>
      <trkpt lat="43.94667" lon="7.2745">
        <ele>390.3</ele>
        <time>2025-01-18T08:20:59.000Z</time>
      </trkpt>
      <trkpt lat="43.94664" lon="7.27444">
        <ele>390.6</ele>
        <time>2025-01-18T08:21:02.000Z</time>
      </trkpt>
      <trkpt lat="43.94661" lon="7.27436">
        <ele>390.9</ele>
        <time>2025-01-18T08:21:05.000Z</time>
      </trkpt>
      <trkpt lat="43.94659" lon="7.2743">
        <ele>391.1</ele>
        <time>2025-01-18T08:21:07.000Z</time>
      </trkpt>
      <trkpt lat="43.94659" lon="7.27423">
        <ele>391.3</ele>
        <time>2025-01-18T08:21:09.000Z</time>
      </trkpt>
      <trkpt lat="43.9466" lon="7.27415">
        <ele>391.6</ele>
        <time>2025-01-18T08:21:12.000Z</time>
      </trkpt>
      <trkpt lat="43.94662" lon="7.2741">
        <ele>392</ele>
        <time>2025-01-18T08:21:15.000Z</time>
      </trkpt>
      <trkpt lat="43.94667" lon="7.27407">
        <ele>392.5</ele>
        <time>2025-01-18T08:21:18.000Z</time>
      </trkpt>
      <trkpt lat="43.94673" lon="7.27406">
        <ele>393.1</ele>
        <time>2025-01-18T08:21:21.000Z</time>
      </trkpt>
      <trkpt lat="43.94679" lon="7.27407">
        <ele>393.6</ele>
        <time>2025-01-18T08:21:24.000Z</time>
      </trkpt>
      <trkpt lat="43.94685" lon="7.27407">
        <ele>394.2</ele>
        <time>2025-01-18T08:21:27.000Z</time>
      </trkpt>
      <trkpt lat="43.94691" lon="7.27409">
        <ele>394.7</ele>
        <time>2025-01-18T08:21:30.000Z</time>
      </trkpt>
      <trkpt lat="43.94695" lon="7.27411">
        <ele>395</ele>
        <time>2025-01-18T08:21:32.000Z</time>
      </trkpt>
      <trkpt lat="43.94701" lon="7.27414">
        <ele>395.5</ele>
        <time>2025-01-18T08:21:35.000Z</time>
      </trkpt>
      <trkpt lat="43.94706" lon="7.27418">
        <ele>396</ele>
        <time>2025-01-18T08:21:38.000Z</time>
      </trkpt>
      <trkpt lat="43.9471" lon="7.27422">
        <ele>396.4</ele>
        <time>2025-01-18T08:21:41.000Z</time>
      </trkpt>
      <trkpt lat="43.94713" lon="7.27429">
        <ele>396.9</ele>
        <time>2025-01-18T08:21:44.000Z</time>
      </trkpt>
      <trkpt lat="43.94715" lon="7.27436">
        <ele>397.3</ele>
        <time>2025-01-18T08:21:47.000Z</time>
      </trkpt>
      <trkpt lat="43.94715" lon="7.27444">
        <ele>397.9</ele>
        <time>2025-01-18T08:21:50.000Z</time>
      </trkpt>
      <trkpt lat="43.94716" lon="7.27453">
        <ele>398.4</ele>
        <time>2025-01-18T08:21:53.000Z</time>
      </trkpt>
      <trkpt lat="43.94715" lon="7.2746">
        <ele>398.9</ele>
        <time>2025-01-18T08:21:56.000Z</time>
      </trkpt>
      <trkpt lat="43.94715" lon="7.27468">
        <ele>399.4</ele>
        <time>2025-01-18T08:21:59.000Z</time>
      </trkpt>
      <trkpt lat="43.94714" lon="7.27476">
        <ele>399.9</ele>
        <time>2025-01-18T08:22:02.000Z</time>
      </trkpt>
      <trkpt lat="43.94714" lon="7.27482">
        <ele>400.4</ele>
        <time>2025-01-18T08:22:05.000Z</time>
      </trkpt>
      <trkpt lat="43.94713" lon="7.27489">
        <ele>401</ele>
        <time>2025-01-18T08:22:08.000Z</time>
      </trkpt>
      <trkpt lat="43.94711" lon="7.27495">
        <ele>401.5</ele>
        <time>2025-01-18T08:22:11.000Z</time>
      </trkpt>
      <trkpt lat="43.94709" lon="7.27503">
        <ele>402.2</ele>
        <time>2025-01-18T08:22:15.000Z</time>
      </trkpt>
      <trkpt lat="43.94708" lon="7.2751">
        <ele>402.7</ele>
        <time>2025-01-18T08:22:18.000Z</time>
      </trkpt>
      <trkpt lat="43.94706" lon="7.27519">
        <ele>403.2</ele>
        <time>2025-01-18T08:22:21.000Z</time>
      </trkpt>
      <trkpt lat="43.94703" lon="7.27527">
        <ele>403.6</ele>
        <time>2025-01-18T08:22:24.000Z</time>
      </trkpt>
      <trkpt lat="43.94701" lon="7.27534">
        <ele>404</ele>
        <time>2025-01-18T08:22:27.000Z</time>
      </trkpt>
      <trkpt lat="43.94698" lon="7.27543">
        <ele>404.4</ele>
        <time>2025-01-18T08:22:30.000Z</time>
      </trkpt>
      <trkpt lat="43.94696" lon="7.27549">
        <ele>404.8</ele>
        <time>2025-01-18T08:22:33.000Z</time>
      </trkpt>
      <trkpt lat="43.94693" lon="7.27555">
        <ele>405.3</ele>
        <time>2025-01-18T08:22:36.000Z</time>
      </trkpt>
      <trkpt lat="43.94689" lon="7.27561">
        <ele>405.8</ele>
        <time>2025-01-18T08:22:40.000Z</time>
      </trkpt>
      <trkpt lat="43.94686" lon="7.27567">
        <ele>406.3</ele>
        <time>2025-01-18T08:22:43.000Z</time>
      </trkpt>
      <trkpt lat="43.94683" lon="7.27574">
        <ele>407.1</ele>
        <time>2025-01-18T08:22:47.000Z</time>
      </trkpt>
      <trkpt lat="43.9468" lon="7.27581">
        <ele>407.9</ele>
        <time>2025-01-18T08:22:51.000Z</time>
      </trkpt>
      <trkpt lat="43.94679" lon="7.27589">
        <ele>408.2</ele>
        <time>2025-01-18T08:22:54.000Z</time>
      </trkpt>
      <trkpt lat="43.94676" lon="7.27595">
        <ele>408.4</ele>
        <time>2025-01-18T08:22:56.000Z</time>
      </trkpt>
      <trkpt lat="43.94673" lon="7.276">
        <ele>408.8</ele>
        <time>2025-01-18T08:22:59.000Z</time>
      </trkpt>
      <trkpt lat="43.9467" lon="7.27606">
        <ele>409.4</ele>
        <time>2025-01-18T08:23:02.000Z</time>
      </trkpt>
      <trkpt lat="43.94668" lon="7.27614">
        <ele>410</ele>
        <time>2025-01-18T08:23:05.000Z</time>
      </trkpt>
      <trkpt lat="43.94666" lon="7.27622">
        <ele>410.4</ele>
        <time>2025-01-18T08:23:08.000Z</time>
      </trkpt>
      <trkpt lat="43.94664" lon="7.27627">
        <ele>410.7</ele>
        <time>2025-01-18T08:23:10.000Z</time>
      </trkpt>
      <trkpt lat="43.94663" lon="7.27635">
        <ele>411.2</ele>
        <time>2025-01-18T08:23:14.000Z</time>
      </trkpt>
      <trkpt lat="43.9466" lon="7.27643">
        <ele>411.7</ele>
        <time>2025-01-18T08:23:17.000Z</time>
      </trkpt>
      <trkpt lat="43.94657" lon="7.2765">
        <ele>412.2</ele>
        <time>2025-01-18T08:23:20.000Z</time>
      </trkpt>
      <trkpt lat="43.94655" lon="7.27658">
        <ele>412.8</ele>
        <time>2025-01-18T08:23:23.000Z</time>
      </trkpt>
      <trkpt lat="43.94653" lon="7.27666">
        <ele>413.3</ele>
        <time>2025-01-18T08:23:26.000Z</time>
      </trkpt>
      <trkpt lat="43.94652" lon="7.27673">
        <ele>413.7</ele>
        <time>2025-01-18T08:23:28.000Z</time>
      </trkpt>
      <trkpt lat="43.9465" lon="7.27679">
        <ele>414</ele>
        <time>2025-01-18T08:23:30.000Z</time>
      </trkpt>
      <trkpt lat="43.94647" lon="7.27686">
        <ele>414.7</ele>
        <time>2025-01-18T08:23:34.000Z</time>
      </trkpt>
      <trkpt lat="43.94644" lon="7.27693">
        <ele>415.2</ele>
        <time>2025-01-18T08:23:37.000Z</time>
      </trkpt>
      <trkpt lat="43.94641" lon="7.277">
        <ele>415.7</ele>
        <time>2025-01-18T08:23:40.000Z</time>
      </trkpt>
      <trkpt lat="43.94636" lon="7.27705">
        <ele>416.3</ele>
        <time>2025-01-18T08:23:43.000Z</time>
      </trkpt>
      <trkpt lat="43.94632" lon="7.2771">
        <ele>416.9</ele>
        <time>2025-01-18T08:23:47.000Z</time>
      </trkpt>
      <trkpt lat="43.94628" lon="7.27714">
        <ele>417.4</ele>
        <time>2025-01-18T08:23:51.000Z</time>
      </trkpt>
      <trkpt lat="43.94624" lon="7.27718">
        <ele>417.7</ele>
        <time>2025-01-18T08:23:54.000Z</time>
      </trkpt>
      <trkpt lat="43.9462" lon="7.27721">
        <ele>418.2</ele>
        <time>2025-01-18T08:23:57.000Z</time>
      </trkpt>
      <trkpt lat="43.94616" lon="7.27726">
        <ele>418.8</ele>
        <time>2025-01-18T08:24:00.000Z</time>
      </trkpt>
      <trkpt lat="43.94613" lon="7.27732">
        <ele>419.3</ele>
        <time>2025-01-18T08:24:03.000Z</time>
      </trkpt>
      <trkpt lat="43.94609" lon="7.27737">
        <ele>420</ele>
        <time>2025-01-18T08:24:07.000Z</time>
      </trkpt>
      <trkpt lat="43.94606" lon="7.27745">
        <ele>420.7</ele>
        <time>2025-01-18T08:24:11.000Z</time>
      </trkpt>
      <trkpt lat="43.94602" lon="7.27751">
        <ele>421.1</ele>
        <time>2025-01-18T08:24:14.000Z</time>
      </trkpt>
      <trkpt lat="43.94598" lon="7.27754">
        <ele>421.5</ele>
        <time>2025-01-18T08:24:17.000Z</time>
      </trkpt>
      <trkpt lat="43.94593" lon="7.27763">
        <ele>422.2</ele>
        <time>2025-01-18T08:24:21.000Z</time>
      </trkpt>
      <trkpt lat="43.9459" lon="7.2777">
        <ele>422.9</ele>
        <time>2025-01-18T08:24:25.000Z</time>
      </trkpt>
      <trkpt lat="43.94586" lon="7.27775">
        <ele>423.4</ele>
        <time>2025-01-18T08:24:28.000Z</time>
      </trkpt>
      <trkpt lat="43.94583" lon="7.27778">
        <ele>423.9</ele>
        <time>2025-01-18T08:24:31.000Z</time>
      </trkpt>
      <trkpt lat="43.94578" lon="7.27782">
        <ele>424.3</ele>
        <time>2025-01-18T08:24:34.000Z</time>
      </trkpt>
      <trkpt lat="43.94573" lon="7.27787">
        <ele>424.7</ele>
        <time>2025-01-18T08:24:37.000Z</time>
      </trkpt>
      <trkpt lat="43.94568" lon="7.2779">
        <ele>425.2</ele>
        <time>2025-01-18T08:24:40.000Z</time>
      </trkpt>
      <trkpt lat="43.94565" lon="7.27798">
        <ele>425.9</ele>
        <time>2025-01-18T08:24:45.000Z</time>
      </trkpt>
      <trkpt lat="43.94562" lon="7.27805">
        <ele>426.4</ele>
        <time>2025-01-18T08:24:49.000Z</time>
      </trkpt>
      <trkpt lat="43.9456" lon="7.2781">
        <ele>427.1</ele>
        <time>2025-01-18T08:24:53.000Z</time>
      </trkpt>
      <trkpt lat="43.94558" lon="7.27817">
        <ele>427.6</ele>
        <time>2025-01-18T08:24:56.000Z</time>
      </trkpt>
      <trkpt lat="43.94557" lon="7.27825">
        <ele>428</ele>
        <time>2025-01-18T08:24:59.000Z</time>
      </trkpt>
      <trkpt lat="43.94557" lon="7.27832">
        <ele>428.7</ele>
        <time>2025-01-18T08:25:04.000Z</time>
      </trkpt>
      <trkpt lat="43.94554" lon="7.27837">
        <ele>429.2</ele>
        <time>2025-01-18T08:25:07.000Z</time>
      </trkpt>
      <trkpt lat="43.94551" lon="7.27843">
        <ele>429.7</ele>
        <time>2025-01-18T08:25:10.000Z</time>
      </trkpt>
      <trkpt lat="43.94547" lon="7.27847">
        <ele>430</ele>
        <time>2025-01-18T08:25:12.000Z</time>
      </trkpt>
      <trkpt lat="43.94543" lon="7.27852">
        <ele>430.3</ele>
        <time>2025-01-18T08:25:15.000Z</time>
      </trkpt>
      <trkpt lat="43.9454" lon="7.27858">
        <ele>430.6</ele>
        <time>2025-01-18T08:25:17.000Z</time>
      </trkpt>
      <trkpt lat="43.94537" lon="7.27864">
        <ele>431.1</ele>
        <time>2025-01-18T08:25:20.000Z</time>
      </trkpt>
      <trkpt lat="43.94535" lon="7.2787">
        <ele>431.3</ele>
        <time>2025-01-18T08:25:22.000Z</time>
      </trkpt>
      <trkpt lat="43.94532" lon="7.27876">
        <ele>431.8</ele>
        <time>2025-01-18T08:25:26.000Z</time>
      </trkpt>
      <trkpt lat="43.9453" lon="7.27883">
        <ele>432.3</ele>
        <time>2025-01-18T08:25:29.000Z</time>
      </trkpt>
      <trkpt lat="43.94529" lon="7.2789">
        <ele>432.7</ele>
        <time>2025-01-18T08:25:32.000Z</time>
      </trkpt>
      <trkpt lat="43.94526" lon="7.27896">
        <ele>433.1</ele>
        <time>2025-01-18T08:25:35.000Z</time>
      </trkpt>
      <trkpt lat="43.94525" lon="7.27902">
        <ele>433.4</ele>
        <time>2025-01-18T08:25:38.000Z</time>
      </trkpt>
      <trkpt lat="43.94524" lon="7.2791">
        <ele>434</ele>
        <time>2025-01-18T08:25:42.000Z</time>
      </trkpt>
      <trkpt lat="43.94522" lon="7.27918">
        <ele>434.4</ele>
        <time>2025-01-18T08:25:45.000Z</time>
      </trkpt>
      <trkpt lat="43.94521" lon="7.27925">
        <ele>435</ele>
        <time>2025-01-18T08:25:48.000Z</time>
      </trkpt>
      <trkpt lat="43.94519" lon="7.27932">
        <ele>435.5</ele>
        <time>2025-01-18T08:25:51.000Z</time>
      </trkpt>
      <trkpt lat="43.9452" lon="7.27939">
        <ele>436</ele>
        <time>2025-01-18T08:25:55.000Z</time>
      </trkpt>
      <trkpt lat="43.94518" lon="7.27947">
        <ele>436.3</ele>
        <time>2025-01-18T08:25:58.000Z</time>
      </trkpt>
      <trkpt lat="43.94516" lon="7.27954">
        <ele>436.7</ele>
        <time>2025-01-18T08:26:01.000Z</time>
      </trkpt>
      <trkpt lat="43.94513" lon="7.27961">
        <ele>437.2</ele>
        <time>2025-01-18T08:26:04.000Z</time>
      </trkpt>
      <trkpt lat="43.94511" lon="7.27969">
        <ele>437.5</ele>
        <time>2025-01-18T08:26:07.000Z</time>
      </trkpt>
      <trkpt lat="43.94508" lon="7.27974">
        <ele>438.1</ele>
        <time>2025-01-18T08:26:11.000Z</time>
      </trkpt>
      <trkpt lat="43.94507" lon="7.2798">
        <ele>438.6</ele>
        <time>2025-01-18T08:26:14.000Z</time>
      </trkpt>
      <trkpt lat="43.94506" lon="7.27988">
        <ele>439</ele>
        <time>2025-01-18T08:26:17.000Z</time>
      </trkpt>
      <trkpt lat="43.94505" lon="7.27997">
        <ele>439.5</ele>
        <time>2025-01-18T08:26:21.000Z</time>
      </trkpt>
      <trkpt lat="43.94504" lon="7.28004">
        <ele>439.9</ele>
        <time>2025-01-18T08:26:24.000Z</time>
      </trkpt>
      <trkpt lat="43.94503" lon="7.28011">
        <ele>440.2</ele>
        <time>2025-01-18T08:26:27.000Z</time>
      </trkpt>
      <trkpt lat="43.94502" lon="7.28018">
        <ele>440.6</ele>
        <time>2025-01-18T08:26:30.000Z</time>
      </trkpt>
      <trkpt lat="43.945" lon="7.28024">
        <ele>441</ele>
        <time>2025-01-18T08:26:33.000Z</time>
      </trkpt>
      <trkpt lat="43.94499" lon="7.28031">
        <ele>441.2</ele>
        <time>2025-01-18T08:26:35.000Z</time>
      </trkpt>
      <trkpt lat="43.94501" lon="7.28037">
        <ele>441.8</ele>
        <time>2025-01-18T08:26:38.000Z</time>
      </trkpt>
      <trkpt lat="43.945" lon="7.28044">
        <ele>442.3</ele>
        <time>2025-01-18T08:26:41.000Z</time>
      </trkpt>
      <trkpt lat="43.94501" lon="7.28052">
        <ele>443.1</ele>
        <time>2025-01-18T08:26:46.000Z</time>
      </trkpt>
      <trkpt lat="43.94502" lon="7.28059">
        <ele>443.4</ele>
        <time>2025-01-18T08:26:49.000Z</time>
      </trkpt>
      <trkpt lat="43.94505" lon="7.28066">
        <ele>443.8</ele>
        <time>2025-01-18T08:26:53.000Z</time>
      </trkpt>
      <trkpt lat="43.94508" lon="7.2807">
        <ele>444.2</ele>
        <time>2025-01-18T08:26:56.000Z</time>
      </trkpt>
      <trkpt lat="43.94512" lon="7.28077">
        <ele>444.6</ele>
        <time>2025-01-18T08:27:00.000Z</time>
      </trkpt>
      <trkpt lat="43.94515" lon="7.28082">
        <ele>444.9</ele>
        <time>2025-01-18T08:27:03.000Z</time>
      </trkpt>
      <trkpt lat="43.94518" lon="7.28088">
        <ele>445.4</ele>
        <time>2025-01-18T08:27:07.000Z</time>
      </trkpt>
      <trkpt lat="43.94522" lon="7.28092">
        <ele>445.9</ele>
        <time>2025-01-18T08:27:10.000Z</time>
      </trkpt>
      <trkpt lat="43.94527" lon="7.28097">
        <ele>446.3</ele>
        <time>2025-01-18T08:27:13.000Z</time>
      </trkpt>
      <trkpt lat="43.94532" lon="7.28103">
        <ele>446.7</ele>
        <time>2025-01-18T08:27:16.000Z</time>
      </trkpt>
      <trkpt lat="43.94536" lon="7.28109">
        <ele>447.2</ele>
        <time>2025-01-18T08:27:19.000Z</time>
      </trkpt>
      <trkpt lat="43.9454" lon="7.28113">
        <ele>447.7</ele>
        <time>2025-01-18T08:27:22.000Z</time>
      </trkpt>
      <trkpt lat="43.94545" lon="7.28117">
        <ele>448.3</ele>
        <time>2025-01-18T08:27:25.000Z</time>
      </trkpt>
      <trkpt lat="43.9455" lon="7.2812">
        <ele>448.9</ele>
        <time>2025-01-18T08:27:29.000Z</time>
      </trkpt>
      <trkpt lat="43.94555" lon="7.28124">
        <ele>449.3</ele>
        <time>2025-01-18T08:27:32.000Z</time>
      </trkpt>
      <trkpt lat="43.9456" lon="7.28128">
        <ele>449.6</ele>
        <time>2025-01-18T08:27:35.000Z</time>
      </trkpt>
      <trkpt lat="43.94565" lon="7.28132">
        <ele>450</ele>
        <time>2025-01-18T08:27:38.000Z</time>
      </trkpt>
      <trkpt lat="43.9457" lon="7.28136">
        <ele>450.5</ele>
        <time>2025-01-18T08:27:41.000Z</time>
      </trkpt>
      <trkpt lat="43.94574" lon="7.28138">
        <ele>451</ele>
        <time>2025-01-18T08:27:44.000Z</time>
      </trkpt>
      <trkpt lat="43.94579" lon="7.28141">
        <ele>451.4</ele>
        <time>2025-01-18T08:27:47.000Z</time>
      </trkpt>
      <trkpt lat="43.94584" lon="7.28142">
        <ele>452.1</ele>
        <time>2025-01-18T08:27:51.000Z</time>
      </trkpt>
      <trkpt lat="43.94589" lon="7.28142">
        <ele>452.6</ele>
        <time>2025-01-18T08:27:55.000Z</time>
      </trkpt>
      <trkpt lat="43.94597" lon="7.28138">
        <ele>453</ele>
        <time>2025-01-18T08:27:59.000Z</time>
      </trkpt>
      <trkpt lat="43.94602" lon="7.28134">
        <ele>453.4</ele>
        <time>2025-01-18T08:28:02.000Z</time>
      </trkpt>
      <trkpt lat="43.94607" lon="7.28128">
        <ele>453.9</ele>
        <time>2025-01-18T08:28:05.000Z</time>
      </trkpt>
      <trkpt lat="43.94611" lon="7.28123">
        <ele>454.4</ele>
        <time>2025-01-18T08:28:08.000Z</time>
      </trkpt>
      <trkpt lat="43.94616" lon="7.28117">
        <ele>454.9</ele>
        <time>2025-01-18T08:28:12.000Z</time>
      </trkpt>
      <trkpt lat="43.94622" lon="7.28114">
        <ele>455.3</ele>
        <time>2025-01-18T08:28:15.000Z</time>
      </trkpt>
      <trkpt lat="43.94626" lon="7.28112">
        <ele>455.8</ele>
        <time>2025-01-18T08:28:18.000Z</time>
      </trkpt>
      <trkpt lat="43.94631" lon="7.28108">
        <ele>456.2</ele>
        <time>2025-01-18T08:28:21.000Z</time>
      </trkpt>
      <trkpt lat="43.94636" lon="7.28103">
        <ele>456.7</ele>
        <time>2025-01-18T08:28:24.000Z</time>
      </trkpt>
      <trkpt lat="43.94641" lon="7.28098">
        <ele>457.1</ele>
        <time>2025-01-18T08:28:27.000Z</time>
      </trkpt>
      <trkpt lat="43.94646" lon="7.28093">
        <ele>457.4</ele>
        <time>2025-01-18T08:28:30.000Z</time>
      </trkpt>
      <trkpt lat="43.94651" lon="7.28089">
        <ele>457.7</ele>
        <time>2025-01-18T08:28:32.000Z</time>
      </trkpt>
      <trkpt lat="43.94655" lon="7.28085">
        <ele>458</ele>
        <time>2025-01-18T08:28:34.000Z</time>
      </trkpt>
      <trkpt lat="43.94658" lon="7.28079">
        <ele>458.6</ele>
        <time>2025-01-18T08:28:37.000Z</time>
      </trkpt>
      <trkpt lat="43.9466" lon="7.28073">
        <ele>459.2</ele>
        <time>2025-01-18T08:28:41.000Z</time>
      </trkpt>
      <trkpt lat="43.94664" lon="7.28068">
        <ele>459.5</ele>
        <time>2025-01-18T08:28:44.000Z</time>
      </trkpt>
      <trkpt lat="43.94668" lon="7.28062">
        <ele>459.8</ele>
        <time>2025-01-18T08:28:47.000Z</time>
      </trkpt>
      <trkpt lat="43.94672" lon="7.28055">
        <ele>460.2</ele>
        <time>2025-01-18T08:28:50.000Z</time>
      </trkpt>
      <trkpt lat="43.94677" lon="7.28051">
        <ele>460.6</ele>
        <time>2025-01-18T08:28:53.000Z</time>
      </trkpt>
      <trkpt lat="43.94682" lon="7.28046">
        <ele>461</ele>
        <time>2025-01-18T08:28:56.000Z</time>
      </trkpt>
      <trkpt lat="43.94687" lon="7.28043">
        <ele>461.3</ele>
        <time>2025-01-18T08:28:58.000Z</time>
      </trkpt>
      <trkpt lat="43.94691" lon="7.28038">
        <ele>461.8</ele>
        <time>2025-01-18T08:29:01.000Z</time>
      </trkpt>
      <trkpt lat="43.94696" lon="7.28034">
        <ele>462.2</ele>
        <time>2025-01-18T08:29:04.000Z</time>
      </trkpt>
      <trkpt lat="43.94702" lon="7.28032">
        <ele>462.6</ele>
        <time>2025-01-18T08:29:07.000Z</time>
      </trkpt>
      <trkpt lat="43.94708" lon="7.28031">
        <ele>463.1</ele>
        <time>2025-01-18T08:29:10.000Z</time>
      </trkpt>
      <trkpt lat="43.94713" lon="7.28031">
        <ele>463.7</ele>
        <time>2025-01-18T08:29:13.000Z</time>
      </trkpt>
      <trkpt lat="43.94717" lon="7.2803">
        <ele>464.2</ele>
        <time>2025-01-18T08:29:16.000Z</time>
      </trkpt>
      <trkpt lat="43.94722" lon="7.28031">
        <ele>464.7</ele>
        <time>2025-01-18T08:29:19.000Z</time>
      </trkpt>
      <trkpt lat="43.94727" lon="7.28033">
        <ele>465.5</ele>
        <time>2025-01-18T08:29:23.000Z</time>
      </trkpt>
      <trkpt lat="43.94733" lon="7.28033">
        <ele>466.2</ele>
        <time>2025-01-18T08:29:27.000Z</time>
      </trkpt>
      <trkpt lat="43.94738" lon="7.28032">
        <ele>466.7</ele>
        <time>2025-01-18T08:29:30.000Z</time>
      </trkpt>
      <trkpt lat="43.94743" lon="7.2803">
        <ele>467.3</ele>
        <time>2025-01-18T08:29:34.000Z</time>
      </trkpt>
      <trkpt lat="43.94749" lon="7.2803">
        <ele>468</ele>
        <time>2025-01-18T08:29:38.000Z</time>
      </trkpt>
      <trkpt lat="43.94754" lon="7.28032">
        <ele>468.5</ele>
        <time>2025-01-18T08:29:41.000Z</time>
      </trkpt>
      <trkpt lat="43.94759" lon="7.28034">
        <ele>469</ele>
        <time>2025-01-18T08:29:44.000Z</time>
      </trkpt>
      <trkpt lat="43.94763" lon="7.28037">
        <ele>469.3</ele>
        <time>2025-01-18T08:29:46.000Z</time>
      </trkpt>
      <trkpt lat="43.94767" lon="7.28043">
        <ele>469.7</ele>
        <time>2025-01-18T08:29:49.000Z</time>
      </trkpt>
      <trkpt lat="43.9477" lon="7.28049">
        <ele>470</ele>
        <time>2025-01-18T08:29:52.000Z</time>
      </trkpt>
      <trkpt lat="43.94772" lon="7.28055">
        <ele>470.4</ele>
        <time>2025-01-18T08:29:55.000Z</time>
      </trkpt>
      <trkpt lat="43.94773" lon="7.28062">
        <ele>471.1</ele>
        <time>2025-01-18T08:29:59.000Z</time>
      </trkpt>
      <trkpt lat="43.94773" lon="7.28071">
        <ele>471.8</ele>
        <time>2025-01-18T08:30:03.000Z</time>
      </trkpt>
      <trkpt lat="43.94774" lon="7.28078">
        <ele>472.3</ele>
        <time>2025-01-18T08:30:06.000Z</time>
      </trkpt>
      <trkpt lat="43.94775" lon="7.28085">
        <ele>472.8</ele>
        <time>2025-01-18T08:30:09.000Z</time>
      </trkpt>
      <trkpt lat="43.94777" lon="7.28091">
        <ele>473.3</ele>
        <time>2025-01-18T08:30:12.000Z</time>
      </trkpt>
      <trkpt lat="43.94779" lon="7.28098">
        <ele>473.8</ele>
        <time>2025-01-18T08:30:15.000Z</time>
      </trkpt>
      <trkpt lat="43.94781" lon="7.28104">
        <ele>474.3</ele>
        <time>2025-01-18T08:30:18.000Z</time>
      </trkpt>
      <trkpt lat="43.94782" lon="7.28113">
        <ele>474.9</ele>
        <time>2025-01-18T08:30:21.000Z</time>
      </trkpt>
      <trkpt lat="43.94783" lon="7.2812">
        <ele>475.4</ele>
        <time>2025-01-18T08:30:24.000Z</time>
      </trkpt>
      <trkpt lat="43.94785" lon="7.28126">
        <ele>475.9</ele>
        <time>2025-01-18T08:30:27.000Z</time>
      </trkpt>
      <trkpt lat="43.94786" lon="7.28133">
        <ele>476.4</ele>
        <time>2025-01-18T08:30:30.000Z</time>
      </trkpt>
      <trkpt lat="43.94787" lon="7.28139">
        <ele>476.8</ele>
        <time>2025-01-18T08:30:33.000Z</time>
      </trkpt>
      <trkpt lat="43.94789" lon="7.28147">
        <ele>477.3</ele>
        <time>2025-01-18T08:30:36.000Z</time>
      </trkpt>
      <trkpt lat="43.94791" lon="7.28153">
        <ele>477.8</ele>
        <time>2025-01-18T08:30:39.000Z</time>
      </trkpt>
      <trkpt lat="43.94792" lon="7.2816">
        <ele>478.1</ele>
        <time>2025-01-18T08:30:42.000Z</time>
      </trkpt>
      <trkpt lat="43.94793" lon="7.28167">
        <ele>478.6</ele>
        <time>2025-01-18T08:30:45.000Z</time>
      </trkpt>
      <trkpt lat="43.94795" lon="7.28173">
        <ele>478.9</ele>
        <time>2025-01-18T08:30:48.000Z</time>
      </trkpt>
      <trkpt lat="43.94796" lon="7.2818">
        <ele>479.3</ele>
        <time>2025-01-18T08:30:51.000Z</time>
      </trkpt>
      <trkpt lat="43.94798" lon="7.28187">
        <ele>479.7</ele>
        <time>2025-01-18T08:30:54.000Z</time>
      </trkpt>
      <trkpt lat="43.94801" lon="7.28193">
        <ele>480.1</ele>
        <time>2025-01-18T08:30:57.000Z</time>
      </trkpt>
      <trkpt lat="43.94805" lon="7.28199">
        <ele>480.4</ele>
        <time>2025-01-18T08:31:00.000Z</time>
      </trkpt>
      <trkpt lat="43.94808" lon="7.28204">
        <ele>480.9</ele>
        <time>2025-01-18T08:31:03.000Z</time>
      </trkpt>
      <trkpt lat="43.94811" lon="7.28209">
        <ele>481.4</ele>
        <time>2025-01-18T08:31:06.000Z</time>
      </trkpt>
      <trkpt lat="43.94815" lon="7.28215">
        <ele>481.9</ele>
        <time>2025-01-18T08:31:09.000Z</time>
      </trkpt>
      <trkpt lat="43.94818" lon="7.2822">
        <ele>482.4</ele>
        <time>2025-01-18T08:31:12.000Z</time>
      </trkpt>
      <trkpt lat="43.94822" lon="7.28224">
        <ele>482.8</ele>
        <time>2025-01-18T08:31:15.000Z</time>
      </trkpt>
      <trkpt lat="43.94826" lon="7.28227">
        <ele>483.1</ele>
        <time>2025-01-18T08:31:18.000Z</time>
      </trkpt>
      <trkpt lat="43.94831" lon="7.2823">
        <ele>483.6</ele>
        <time>2025-01-18T08:31:22.000Z</time>
      </trkpt>
      <trkpt lat="43.94837" lon="7.28234">
        <ele>484.1</ele>
        <time>2025-01-18T08:31:26.000Z</time>
      </trkpt>
      <trkpt lat="43.94841" lon="7.28238">
        <ele>484.5</ele>
        <time>2025-01-18T08:31:29.000Z</time>
      </trkpt>
      <trkpt lat="43.94846" lon="7.28241">
        <ele>484.8</ele>
        <time>2025-01-18T08:31:32.000Z</time>
      </trkpt>
      <trkpt lat="43.9485" lon="7.28245">
        <ele>485.1</ele>
        <time>2025-01-18T08:31:35.000Z</time>
      </trkpt>
      <trkpt lat="43.94855" lon="7.2825">
        <ele>485.7</ele>
        <time>2025-01-18T08:31:40.000Z</time>
      </trkpt>
      <trkpt lat="43.94858" lon="7.28255">
        <ele>486.1</ele>
        <time>2025-01-18T08:31:43.000Z</time>
      </trkpt>
      <trkpt lat="43.94862" lon="7.28261">
        <ele>486.4</ele>
        <time>2025-01-18T08:31:46.000Z</time>
      </trkpt>
      <trkpt lat="43.94865" lon="7.28268">
        <ele>486.6</ele>
        <time>2025-01-18T08:31:49.000Z</time>
      </trkpt>
      <trkpt lat="43.94867" lon="7.28275">
        <ele>486.9</ele>
        <time>2025-01-18T08:31:52.000Z</time>
      </trkpt>
      <trkpt lat="43.9487" lon="7.28281">
        <ele>487.1</ele>
        <time>2025-01-18T08:31:55.000Z</time>
      </trkpt>
      <trkpt lat="43.94873" lon="7.28287">
        <ele>487.3</ele>
        <time>2025-01-18T08:31:58.000Z</time>
      </trkpt>
      <trkpt lat="43.94876" lon="7.28293">
        <ele>487.6</ele>
        <time>2025-01-18T08:32:01.000Z</time>
      </trkpt>
      <trkpt lat="43.94879" lon="7.28298">
        <ele>487.8</ele>
        <time>2025-01-18T08:32:04.000Z</time>
      </trkpt>
      <trkpt lat="43.94885" lon="7.28299">
        <ele>488.2</ele>
        <time>2025-01-18T08:32:07.000Z</time>
      </trkpt>
      <trkpt lat="43.9489" lon="7.28297">
        <ele>488.5</ele>
        <time>2025-01-18T08:32:10.000Z</time>
      </trkpt>
      <trkpt lat="43.94893" lon="7.28291">
        <ele>488.8</ele>
        <time>2025-01-18T08:32:13.000Z</time>
      </trkpt>
      <trkpt lat="43.94893" lon="7.28283">
        <ele>489.1</ele>
        <time>2025-01-18T08:32:16.000Z</time>
      </trkpt>
      <trkpt lat="43.94892" lon="7.28275">
        <ele>489.4</ele>
        <time>2025-01-18T08:32:19.000Z</time>
      </trkpt>
      <trkpt lat="43.94887" lon="7.2827">
        <ele>489.7</ele>
        <time>2025-01-18T08:32:22.000Z</time>
      </trkpt>
      <trkpt lat="43.94884" lon="7.28264">
        <ele>489.8</ele>
        <time>2025-01-18T08:32:25.000Z</time>
      </trkpt>
      <trkpt lat="43.9488" lon="7.28257">
        <ele>490.1</ele>
        <time>2025-01-18T08:32:28.000Z</time>
      </trkpt>
      <trkpt lat="43.94877" lon="7.28252">
        <ele>490.3</ele>
        <time>2025-01-18T08:32:30.000Z</time>
      </trkpt>
      <trkpt lat="43.94874" lon="7.28245">
        <ele>490.5</ele>
        <time>2025-01-18T08:32:33.000Z</time>
      </trkpt>
      <trkpt lat="43.9487" lon="7.28238">
        <ele>490.8</ele>
        <time>2025-01-18T08:32:36.000Z</time>
      </trkpt>
      <trkpt lat="43.94866" lon="7.28233">
        <ele>491.1</ele>
        <time>2025-01-18T08:32:39.000Z</time>
      </trkpt>
      <trkpt lat="43.94861" lon="7.28228">
        <ele>491.5</ele>
        <time>2025-01-18T08:32:42.000Z</time>
      </trkpt>
      <trkpt lat="43.94857" lon="7.28224">
        <ele>491.8</ele>
        <time>2025-01-18T08:32:44.000Z</time>
      </trkpt>
      <trkpt lat="43.94854" lon="7.28217">
        <ele>492.3</ele>
        <time>2025-01-18T08:32:47.000Z</time>
      </trkpt>
      <trkpt lat="43.9485" lon="7.28211">
        <ele>492.7</ele>
        <time>2025-01-18T08:32:50.000Z</time>
      </trkpt>
      <trkpt lat="43.94847" lon="7.28204">
        <ele>493.1</ele>
        <time>2025-01-18T08:32:53.000Z</time>
      </trkpt>
      <trkpt lat="43.94846" lon="7.28198">
        <ele>493.6</ele>
        <time>2025-01-18T08:32:56.000Z</time>
      </trkpt>
      <trkpt lat="43.94843" lon="7.28191">
        <ele>493.9</ele>
        <time>2025-01-18T08:32:59.000Z</time>
      </trkpt>
      <trkpt lat="43.94843" lon="7.28181">
        <ele>494.3</ele>
        <time>2025-01-18T08:33:02.000Z</time>
      </trkpt>
      <trkpt lat="43.94842" lon="7.28172">
        <ele>494.7</ele>
        <time>2025-01-18T08:33:05.000Z</time>
      </trkpt>
      <trkpt lat="43.9484" lon="7.28164">
        <ele>495.1</ele>
        <time>2025-01-18T08:33:08.000Z</time>
      </trkpt>
      <trkpt lat="43.94841" lon="7.28157">
        <ele>495.6</ele>
        <time>2025-01-18T08:33:11.000Z</time>
      </trkpt>
      <trkpt lat="43.94841" lon="7.2815">
        <ele>496.2</ele>
        <time>2025-01-18T08:33:14.000Z</time>
      </trkpt>
      <trkpt lat="43.94841" lon="7.28143">
        <ele>496.6</ele>
        <time>2025-01-18T08:33:17.000Z</time>
      </trkpt>
      <trkpt lat="43.94841" lon="7.28135">
        <ele>497.1</ele>
        <time>2025-01-18T08:33:20.000Z</time>
      </trkpt>
      <trkpt lat="43.94841" lon="7.28129">
        <ele>497.6</ele>
        <time>2025-01-18T08:33:23.000Z</time>
      </trkpt>
      <trkpt lat="43.94841" lon="7.28121">
        <ele>498.3</ele>
        <time>2025-01-18T08:33:27.000Z</time>
      </trkpt>
      <trkpt lat="43.94841" lon="7.28115">
        <ele>498.8</ele>
        <time>2025-01-18T08:33:30.000Z</time>
      </trkpt>
      <trkpt lat="43.94841" lon="7.28108">
        <ele>499.2</ele>
        <time>2025-01-18T08:33:33.000Z</time>
      </trkpt>
      <trkpt lat="43.94841" lon="7.281">
        <ele>499.9</ele>
        <time>2025-01-18T08:33:37.000Z</time>
      </trkpt>
      <trkpt lat="43.94841" lon="7.28093">
        <ele>500.3</ele>
        <time>2025-01-18T08:33:40.000Z</time>
      </trkpt>
      <trkpt lat="43.94841" lon="7.28085">
        <ele>500.7</ele>
        <time>2025-01-18T08:33:43.000Z</time>
      </trkpt>
      <trkpt lat="43.94842" lon="7.28079">
        <ele>501.3</ele>
        <time>2025-01-18T08:33:46.000Z</time>
      </trkpt>
      <trkpt lat="43.94843" lon="7.28072">
        <ele>501.7</ele>
        <time>2025-01-18T08:33:49.000Z</time>
      </trkpt>
      <trkpt lat="43.94844" lon="7.28064">
        <ele>502.2</ele>
        <time>2025-01-18T08:33:52.000Z</time>
      </trkpt>
      <trkpt lat="43.94844" lon="7.28057">
        <ele>502.5</ele>
        <time>2025-01-18T08:33:55.000Z</time>
      </trkpt>
      <trkpt lat="43.94846" lon="7.2805">
        <ele>503</ele>
        <time>2025-01-18T08:33:59.000Z</time>
      </trkpt>
      <trkpt lat="43.94847" lon="7.28043">
        <ele>503.5</ele>
        <time>2025-01-18T08:34:02.000Z</time>
      </trkpt>
      <trkpt lat="43.94849" lon="7.28036">
        <ele>503.9</ele>
        <time>2025-01-18T08:34:05.000Z</time>
      </trkpt>
      <trkpt lat="43.94852" lon="7.2803">
        <ele>504.6</ele>
        <time>2025-01-18T08:34:09.000Z</time>
      </trkpt>
      <trkpt lat="43.94855" lon="7.28022">
        <ele>505.3</ele>
        <time>2025-01-18T08:34:14.000Z</time>
      </trkpt>
      <trkpt lat="43.94855" lon="7.28015">
        <ele>505.7</ele>
        <time>2025-01-18T08:34:17.000Z</time>
      </trkpt>
      <trkpt lat="43.94857" lon="7.28009">
        <ele>506.1</ele>
        <time>2025-01-18T08:34:19.000Z</time>
      </trkpt>
      <trkpt lat="43.94861" lon="7.28003">
        <ele>506.7</ele>
        <time>2025-01-18T08:34:23.000Z</time>
      </trkpt>
      <trkpt lat="43.94864" lon="7.27996">
        <ele>507.2</ele>
        <time>2025-01-18T08:34:27.000Z</time>
      </trkpt>
      <trkpt lat="43.94867" lon="7.27988">
        <ele>507.6</ele>
        <time>2025-01-18T08:34:30.000Z</time>
      </trkpt>
      <trkpt lat="43.94869" lon="7.27983">
        <ele>508.5</ele>
        <time>2025-01-18T08:34:36.000Z</time>
      </trkpt>
      <trkpt lat="43.94874" lon="7.27981">
        <ele>509</ele>
        <time>2025-01-18T08:34:40.000Z</time>
      </trkpt>
      <trkpt lat="43.94878" lon="7.27977">
        <ele>509.3</ele>
        <time>2025-01-18T08:34:43.000Z</time>
      </trkpt>
      <trkpt lat="43.94882" lon="7.27974">
        <ele>509.6</ele>
        <time>2025-01-18T08:34:46.000Z</time>
      </trkpt>
      <trkpt lat="43.94885" lon="7.27968">
        <ele>510</ele>
        <time>2025-01-18T08:34:49.000Z</time>
      </trkpt>
      <trkpt lat="43.94888" lon="7.27963">
        <ele>510.4</ele>
        <time>2025-01-18T08:34:52.000Z</time>
      </trkpt>
      <trkpt lat="43.9489" lon="7.27955">
        <ele>510.8</ele>
        <time>2025-01-18T08:34:55.000Z</time>
      </trkpt>
      <trkpt lat="43.94893" lon="7.27948">
        <ele>511.3</ele>
        <time>2025-01-18T08:34:58.000Z</time>
      </trkpt>
      <trkpt lat="43.94894" lon="7.2794">
        <ele>511.8</ele>
        <time>2025-01-18T08:35:01.000Z</time>
      </trkpt>
      <trkpt lat="43.94894" lon="7.27932">
        <ele>512.4</ele>
        <time>2025-01-18T08:35:05.000Z</time>
      </trkpt>
      <trkpt lat="43.94896" lon="7.27925">
        <ele>512.9</ele>
        <time>2025-01-18T08:35:09.000Z</time>
      </trkpt>
      <trkpt lat="43.94897" lon="7.27918">
        <ele>513.4</ele>
        <time>2025-01-18T08:35:13.000Z</time>
      </trkpt>
      <trkpt lat="43.94897" lon="7.2791">
        <ele>514</ele>
        <time>2025-01-18T08:35:17.000Z</time>
      </trkpt>
      <trkpt lat="43.94897" lon="7.27902">
        <ele>514.4</ele>
        <time>2025-01-18T08:35:20.000Z</time>
      </trkpt>
      <trkpt lat="43.94898" lon="7.27895">
        <ele>514.8</ele>
        <time>2025-01-18T08:35:23.000Z</time>
      </trkpt>
      <trkpt lat="43.94899" lon="7.27887">
        <ele>515.2</ele>
        <time>2025-01-18T08:35:26.000Z</time>
      </trkpt>
      <trkpt lat="43.949" lon="7.2788">
        <ele>515.6</ele>
        <time>2025-01-18T08:35:29.000Z</time>
      </trkpt>
      <trkpt lat="43.94902" lon="7.27873">
        <ele>516</ele>
        <time>2025-01-18T08:35:32.000Z</time>
      </trkpt>
      <trkpt lat="43.94903" lon="7.27866">
        <ele>516.4</ele>
        <time>2025-01-18T08:35:35.000Z</time>
      </trkpt>
      <trkpt lat="43.94904" lon="7.27858">
        <ele>516.8</ele>
        <time>2025-01-18T08:35:38.000Z</time>
      </trkpt>
      <trkpt lat="43.94906" lon="7.27851">
        <ele>517.2</ele>
        <time>2025-01-18T08:35:41.000Z</time>
      </trkpt>
      <trkpt lat="43.94908" lon="7.27844">
        <ele>517.7</ele>
        <time>2025-01-18T08:35:44.000Z</time>
      </trkpt>
      <trkpt lat="43.94909" lon="7.27837">
        <ele>518.2</ele>
        <time>2025-01-18T08:35:47.000Z</time>
      </trkpt>
      <trkpt lat="43.94911" lon="7.2783">
        <ele>518.4</ele>
        <time>2025-01-18T08:35:50.000Z</time>
      </trkpt>
      <trkpt lat="43.94914" lon="7.27825">
        <ele>518.8</ele>
        <time>2025-01-18T08:35:53.000Z</time>
      </trkpt>
      <trkpt lat="43.94916" lon="7.27818">
        <ele>519.3</ele>
        <time>2025-01-18T08:35:56.000Z</time>
      </trkpt>
      <trkpt lat="43.94918" lon="7.27811">
        <ele>519.7</ele>
        <time>2025-01-18T08:35:59.000Z</time>
      </trkpt>
      <trkpt lat="43.94921" lon="7.27806">
        <ele>520.2</ele>
        <time>2025-01-18T08:36:02.000Z</time>
      </trkpt>
      <trkpt lat="43.94924" lon="7.27799">
        <ele>520.7</ele>
        <time>2025-01-18T08:36:05.000Z</time>
      </trkpt>
      <trkpt lat="43.94928" lon="7.27793">
        <ele>521.2</ele>
        <time>2025-01-18T08:36:08.000Z</time>
      </trkpt>
      <trkpt lat="43.94931" lon="7.27788">
        <ele>521.7</ele>
        <time>2025-01-18T08:36:11.000Z</time>
      </trkpt>
      <trkpt lat="43.94936" lon="7.27785">
        <ele>522.3</ele>
        <time>2025-01-18T08:36:14.000Z</time>
      </trkpt>
      <trkpt lat="43.9494" lon="7.27781">
        <ele>522.7</ele>
        <time>2025-01-18T08:36:17.000Z</time>
      </trkpt>
      <trkpt lat="43.94945" lon="7.27777">
        <ele>523.1</ele>
        <time>2025-01-18T08:36:20.000Z</time>
      </trkpt>
      <trkpt lat="43.9495" lon="7.27775">
        <ele>523.6</ele>
        <time>2025-01-18T08:36:23.000Z</time>
      </trkpt>
      <trkpt lat="43.94955" lon="7.27772">
        <ele>524.1</ele>
        <time>2025-01-18T08:36:26.000Z</time>
      </trkpt>
      <trkpt lat="43.9496" lon="7.27768">
        <ele>524.6</ele>
        <time>2025-01-18T08:36:30.000Z</time>
      </trkpt>
      <trkpt lat="43.94964" lon="7.27765">
        <ele>525</ele>
        <time>2025-01-18T08:36:33.000Z</time>
      </trkpt>
      <trkpt lat="43.9497" lon="7.2776">
        <ele>525.5</ele>
        <time>2025-01-18T08:36:36.000Z</time>
      </trkpt>
      <trkpt lat="43.94975" lon="7.27757">
        <ele>525.9</ele>
        <time>2025-01-18T08:36:39.000Z</time>
      </trkpt>
      <trkpt lat="43.9498" lon="7.27756">
        <ele>526.4</ele>
        <time>2025-01-18T08:36:42.000Z</time>
      </trkpt>
      <trkpt lat="43.94986" lon="7.27753">
        <ele>526.8</ele>
        <time>2025-01-18T08:36:45.000Z</time>
      </trkpt>
      <trkpt lat="43.94991" lon="7.2775">
        <ele>527.3</ele>
        <time>2025-01-18T08:36:48.000Z</time>
      </trkpt>
      <trkpt lat="43.94996" lon="7.27748">
        <ele>528</ele>
        <time>2025-01-18T08:36:52.000Z</time>
      </trkpt>
      <trkpt lat="43.95001" lon="7.27745">
        <ele>528.4</ele>
        <time>2025-01-18T08:36:55.000Z</time>
      </trkpt>
      <trkpt lat="43.95006" lon="7.27745">
        <ele>528.8</ele>
        <time>2025-01-18T08:36:58.000Z</time>
      </trkpt>
      <trkpt lat="43.95011" lon="7.27746">
        <ele>529.2</ele>
        <time>2025-01-18T08:37:01.000Z</time>
      </trkpt>
      <trkpt lat="43.95016" lon="7.27747">
        <ele>529.6</ele>
        <time>2025-01-18T08:37:04.000Z</time>
      </trkpt>
      <trkpt lat="43.95021" lon="7.27749">
        <ele>529.9</ele>
        <time>2025-01-18T08:37:07.000Z</time>
      </trkpt>
      <trkpt lat="43.95025" lon="7.27749">
        <ele>530.3</ele>
        <time>2025-01-18T08:37:10.000Z</time>
      </trkpt>
      <trkpt lat="43.9503" lon="7.2775">
        <ele>530.7</ele>
        <time>2025-01-18T08:37:13.000Z</time>
      </trkpt>
      <trkpt lat="43.95035" lon="7.27751">
        <ele>531</ele>
        <time>2025-01-18T08:37:16.000Z</time>
      </trkpt>
      <trkpt lat="43.9504" lon="7.27751">
        <ele>531.4</ele>
        <time>2025-01-18T08:37:19.000Z</time>
      </trkpt>
      <trkpt lat="43.95045" lon="7.27752">
        <ele>531.8</ele>
        <time>2025-01-18T08:37:22.000Z</time>
      </trkpt>
      <trkpt lat="43.95051" lon="7.2775">
        <ele>532.3</ele>
        <time>2025-01-18T08:37:25.000Z</time>
      </trkpt>
      <trkpt lat="43.95057" lon="7.27747">
        <ele>532.7</ele>
        <time>2025-01-18T08:37:28.000Z</time>
      </trkpt>
      <trkpt lat="43.95062" lon="7.27745">
        <ele>533.3</ele>
        <time>2025-01-18T08:37:31.000Z</time>
      </trkpt>
      <trkpt lat="43.95066" lon="7.27739">
        <ele>533.9</ele>
        <time>2025-01-18T08:37:35.000Z</time>
      </trkpt>
      <trkpt lat="43.95071" lon="7.27732">
        <ele>534.4</ele>
        <time>2025-01-18T08:37:38.000Z</time>
      </trkpt>
      <trkpt lat="43.95075" lon="7.27727">
        <ele>534.8</ele>
        <time>2025-01-18T08:37:41.000Z</time>
      </trkpt>
      <trkpt lat="43.95079" lon="7.27722">
        <ele>535.2</ele>
        <time>2025-01-18T08:37:44.000Z</time>
      </trkpt>
      <trkpt lat="43.95082" lon="7.27718">
        <ele>535.7</ele>
        <time>2025-01-18T08:37:47.000Z</time>
      </trkpt>
      <trkpt lat="43.95086" lon="7.27714">
        <ele>536.2</ele>
        <time>2025-01-18T08:37:50.000Z</time>
      </trkpt>
      <trkpt lat="43.9509" lon="7.27709">
        <ele>536.7</ele>
        <time>2025-01-18T08:37:53.000Z</time>
      </trkpt>
      <trkpt lat="43.95094" lon="7.27705">
        <ele>537.2</ele>
        <time>2025-01-18T08:37:56.000Z</time>
      </trkpt>
      <trkpt lat="43.95098" lon="7.27701">
        <ele>537.7</ele>
        <time>2025-01-18T08:37:59.000Z</time>
      </trkpt>
      <trkpt lat="43.95099" lon="7.27695">
        <ele>538.2</ele>
        <time>2025-01-18T08:38:02.000Z</time>
      </trkpt>
      <trkpt lat="43.95102" lon="7.27687">
        <ele>538.6</ele>
        <time>2025-01-18T08:38:05.000Z</time>
      </trkpt>
      <trkpt lat="43.95104" lon="7.27681">
        <ele>539.1</ele>
        <time>2025-01-18T08:38:08.000Z</time>
      </trkpt>
      <trkpt lat="43.95106" lon="7.27675">
        <ele>539.6</ele>
        <time>2025-01-18T08:38:11.000Z</time>
      </trkpt>
      <trkpt lat="43.95108" lon="7.27669">
        <ele>540</ele>
        <time>2025-01-18T08:38:14.000Z</time>
      </trkpt>
      <trkpt lat="43.95109" lon="7.27662">
        <ele>540.4</ele>
        <time>2025-01-18T08:38:17.000Z</time>
      </trkpt>
      <trkpt lat="43.95111" lon="7.27655">
        <ele>540.7</ele>
        <time>2025-01-18T08:38:20.000Z</time>
      </trkpt>
      <trkpt lat="43.95113" lon="7.27649">
        <ele>541.2</ele>
        <time>2025-01-18T08:38:23.000Z</time>
      </trkpt>
      <trkpt lat="43.95115" lon="7.27643">
        <ele>541.6</ele>
        <time>2025-01-18T08:38:26.000Z</time>
      </trkpt>
      <trkpt lat="43.95115" lon="7.27637">
        <ele>541.9</ele>
        <time>2025-01-18T08:38:29.000Z</time>
      </trkpt>
      <trkpt lat="43.95116" lon="7.27628">
        <ele>542.3</ele>
        <time>2025-01-18T08:38:33.000Z</time>
      </trkpt>
      <trkpt lat="43.95118" lon="7.27622">
        <ele>542.5</ele>
        <time>2025-01-18T08:38:36.000Z</time>
      </trkpt>
      <trkpt lat="43.95119" lon="7.27614">
        <ele>542.8</ele>
        <time>2025-01-18T08:38:39.000Z</time>
      </trkpt>
      <trkpt lat="43.9512" lon="7.27608">
        <ele>543.1</ele>
        <time>2025-01-18T08:38:42.000Z</time>
      </trkpt>
      <trkpt lat="43.95119" lon="7.27599">
        <ele>543.7</ele>
        <time>2025-01-18T08:38:46.000Z</time>
      </trkpt>
      <trkpt lat="43.9512" lon="7.27592">
        <ele>544.1</ele>
        <time>2025-01-18T08:38:49.000Z</time>
      </trkpt>
      <trkpt lat="43.95121" lon="7.27585">
        <ele>544.6</ele>
        <time>2025-01-18T08:38:52.000Z</time>
      </trkpt>
      <trkpt lat="43.95123" lon="7.27579">
        <ele>545</ele>
        <time>2025-01-18T08:38:55.000Z</time>
      </trkpt>
      <trkpt lat="43.95124" lon="7.27572">
        <ele>545.3</ele>
        <time>2025-01-18T08:38:58.000Z</time>
      </trkpt>
      <trkpt lat="43.95126" lon="7.27566">
        <ele>545.7</ele>
        <time>2025-01-18T08:39:01.000Z</time>
      </trkpt>
      <trkpt lat="43.95128" lon="7.2756">
        <ele>546.2</ele>
        <time>2025-01-18T08:39:04.000Z</time>
      </trkpt>
      <trkpt lat="43.9513" lon="7.27553">
        <ele>546.6</ele>
        <time>2025-01-18T08:39:07.000Z</time>
      </trkpt>
      <trkpt lat="43.95133" lon="7.27548">
        <ele>547</ele>
        <time>2025-01-18T08:39:10.000Z</time>
      </trkpt>
      <trkpt lat="43.95135" lon="7.27541">
        <ele>547.4</ele>
        <time>2025-01-18T08:39:13.000Z</time>
      </trkpt>
      <trkpt lat="43.95137" lon="7.27534">
        <ele>547.8</ele>
        <time>2025-01-18T08:39:16.000Z</time>
      </trkpt>
      <trkpt lat="43.95139" lon="7.27528">
        <ele>548.1</ele>
        <time>2025-01-18T08:39:19.000Z</time>
      </trkpt>
      <trkpt lat="43.95142" lon="7.27522">
        <ele>548.5</ele>
        <time>2025-01-18T08:39:22.000Z</time>
      </trkpt>
      <trkpt lat="43.95145" lon="7.27516">
        <ele>548.9</ele>
        <time>2025-01-18T08:39:25.000Z</time>
      </trkpt>
      <trkpt lat="43.95149" lon="7.27511">
        <ele>549.3</ele>
        <time>2025-01-18T08:39:28.000Z</time>
      </trkpt>
      <trkpt lat="43.95152" lon="7.27505">
        <ele>549.9</ele>
        <time>2025-01-18T08:39:32.000Z</time>
      </trkpt>
      <trkpt lat="43.95155" lon="7.27499">
        <ele>550.4</ele>
        <time>2025-01-18T08:39:35.000Z</time>
      </trkpt>
      <trkpt lat="43.95157" lon="7.27493">
        <ele>550.7</ele>
        <time>2025-01-18T08:39:38.000Z</time>
      </trkpt>
      <trkpt lat="43.95159" lon="7.27485">
        <ele>551.2</ele>
        <time>2025-01-18T08:39:42.000Z</time>
      </trkpt>
      <trkpt lat="43.95163" lon="7.27478">
        <ele>551.8</ele>
        <time>2025-01-18T08:39:46.000Z</time>
      </trkpt>
      <trkpt lat="43.95163" lon="7.27472">
        <ele>552.5</ele>
        <time>2025-01-18T08:39:49.000Z</time>
      </trkpt>
      <trkpt lat="43.95167" lon="7.27467">
        <ele>552.9</ele>
        <time>2025-01-18T08:39:52.000Z</time>
      </trkpt>
      <trkpt lat="43.9517" lon="7.27462">
        <ele>553.4</ele>
        <time>2025-01-18T08:39:55.000Z</time>
      </trkpt>
      <trkpt lat="43.95174" lon="7.27457">
        <ele>553.8</ele>
        <time>2025-01-18T08:39:58.000Z</time>
      </trkpt>
      <trkpt lat="43.95179" lon="7.27455">
        <ele>554.2</ele>
        <time>2025-01-18T08:40:01.000Z</time>
      </trkpt>
      <trkpt lat="43.95184" lon="7.27453">
        <ele>554.7</ele>
        <time>2025-01-18T08:40:05.000Z</time>
      </trkpt>
      <trkpt lat="43.9519" lon="7.27457">
        <ele>555.2</ele>
        <time>2025-01-18T08:40:09.000Z</time>
      </trkpt>
      <trkpt lat="43.95195" lon="7.27459">
        <ele>555.4</ele>
        <time>2025-01-18T08:40:12.000Z</time>
      </trkpt>
      <trkpt lat="43.952" lon="7.27463">
        <ele>555.7</ele>
        <time>2025-01-18T08:40:15.000Z</time>
      </trkpt>
      <trkpt lat="43.95204" lon="7.27466">
        <ele>556.1</ele>
        <time>2025-01-18T08:40:18.000Z</time>
      </trkpt>
      <trkpt lat="43.9521" lon="7.27469">
        <ele>556.4</ele>
        <time>2025-01-18T08:40:21.000Z</time>
      </trkpt>
      <trkpt lat="43.95215" lon="7.27471">
        <ele>556.9</ele>
        <time>2025-01-18T08:40:26.000Z</time>
      </trkpt>
      <trkpt lat="43.9522" lon="7.27473">
        <ele>557.5</ele>
        <time>2025-01-18T08:40:30.000Z</time>
      </trkpt>
      <trkpt lat="43.95225" lon="7.27474">
        <ele>558</ele>
        <time>2025-01-18T08:40:34.000Z</time>
      </trkpt>
      <trkpt lat="43.9523" lon="7.27474">
        <ele>558.6</ele>
        <time>2025-01-18T08:40:38.000Z</time>
      </trkpt>
      <trkpt lat="43.95235" lon="7.27476">
        <ele>558.8</ele>
        <time>2025-01-18T08:40:40.000Z</time>
      </trkpt>
      <trkpt lat="43.95241" lon="7.27477">
        <ele>559.1</ele>
        <time>2025-01-18T08:40:43.000Z</time>
      </trkpt>
      <trkpt lat="43.95245" lon="7.27477">
        <ele>559.4</ele>
        <time>2025-01-18T08:40:46.000Z</time>
      </trkpt>
      <trkpt lat="43.95251" lon="7.27477">
        <ele>560</ele>
        <time>2025-01-18T08:40:51.000Z</time>
      </trkpt>
      <trkpt lat="43.95257" lon="7.27479">
        <ele>560.5</ele>
        <time>2025-01-18T08:40:55.000Z</time>
      </trkpt>
      <trkpt lat="43.95262" lon="7.2748">
        <ele>560.9</ele>
        <time>2025-01-18T08:40:58.000Z</time>
      </trkpt>
      <trkpt lat="43.95267" lon="7.27483">
        <ele>561.3</ele>
        <time>2025-01-18T08:41:01.000Z</time>
      </trkpt>
      <trkpt lat="43.95273" lon="7.27487">
        <ele>561.7</ele>
        <time>2025-01-18T08:41:04.000Z</time>
      </trkpt>
      <trkpt lat="43.95278" lon="7.27489">
        <ele>561.8</ele>
        <time>2025-01-18T08:41:07.000Z</time>
      </trkpt>
      <trkpt lat="43.95282" lon="7.27491">
        <ele>561.9</ele>
        <time>2025-01-18T08:41:10.000Z</time>
      </trkpt>
      <trkpt lat="43.95288" lon="7.27493">
        <ele>562.1</ele>
        <time>2025-01-18T08:41:14.000Z</time>
      </trkpt>
      <trkpt lat="43.95293" lon="7.27493">
        <ele>562.3</ele>
        <time>2025-01-18T08:41:18.000Z</time>
      </trkpt>
      <trkpt lat="43.95297" lon="7.27496">
        <ele>562.6</ele>
        <time>2025-01-18T08:41:21.000Z</time>
      </trkpt>
      <trkpt lat="43.95303" lon="7.27499">
        <ele>562.9</ele>
        <time>2025-01-18T08:41:24.000Z</time>
      </trkpt>
      <trkpt lat="43.95309" lon="7.27499">
        <ele>563.4</ele>
        <time>2025-01-18T08:41:27.000Z</time>
      </trkpt>
      <trkpt lat="43.95313" lon="7.27497">
        <ele>563.9</ele>
        <time>2025-01-18T08:41:31.000Z</time>
      </trkpt>
      <trkpt lat="43.95315" lon="7.27495">
        <ele>564.3</ele>
        <time>2025-01-18T08:41:39.000Z</time>
      </trkpt>
      <trkpt lat="43.95315" lon="7.27495">
        <ele>564.3</ele>
        <time>2025-01-18T08:41:40.000Z</time>
      </trkpt>
      <trkpt lat="43.95315" lon="7.27495">
        <ele>564.3</ele>
        <time>2025-01-18T08:41:41.000Z</time>
      </trkpt>
      <trkpt lat="43.9532" lon="7.27494">
        <ele>564.1</ele>
        <time>2025-01-18T08:44:07.000Z</time>
      </trkpt>
      <trkpt lat="43.95324" lon="7.27491">
        <ele>564.1</ele>
        <time>2025-01-18T08:44:25.000Z</time>
      </trkpt>
      <trkpt lat="43.95319" lon="7.27491">
        <ele>564</ele>
        <time>2025-01-18T08:44:39.000Z</time>
      </trkpt>
      <trkpt lat="43.95319" lon="7.27489">
        <ele>564.1</ele>
        <time>2025-01-18T08:45:49.000Z</time>
      </trkpt>
      <trkpt lat="43.95319" lon="7.2749">
        <ele>564.1</ele>
        <time>2025-01-18T08:45:50.000Z</time>
      </trkpt>
      <trkpt lat="43.95318" lon="7.2749">
        <ele>564.1</ele>
        <time>2025-01-18T08:45:51.000Z</time>
      </trkpt>
      <trkpt lat="43.95318" lon="7.27491">
        <ele>564.1</ele>
        <time>2025-01-18T08:45:55.000Z</time>
      </trkpt>
      <trkpt lat="43.95318" lon="7.27491">
        <ele>564.1</ele>
        <time>2025-01-18T08:45:56.000Z</time>
      </trkpt>
      <trkpt lat="43.95317" lon="7.27495">
        <ele>564.2</ele>
        <time>2025-01-18T08:46:04.000Z</time>
      </trkpt>
      <trkpt lat="43.95318" lon="7.27495">
        <ele>564.2</ele>
        <time>2025-01-18T08:46:05.000Z</time>
      </trkpt>
      <trkpt lat="43.95318" lon="7.27496">
        <ele>564.3</ele>
        <time>2025-01-18T08:46:06.000Z</time>
      </trkpt>
      <trkpt lat="43.95318" lon="7.27497">
        <ele>564.3</ele>
        <time>2025-01-18T08:46:07.000Z</time>
      </trkpt>
      <trkpt lat="43.95318" lon="7.27498">
        <ele>564.3</ele>
        <time>2025-01-18T08:46:08.000Z</time>
      </trkpt>
      <trkpt lat="43.95322" lon="7.27502">
        <ele>564.4</ele>
        <time>2025-01-18T08:46:12.000Z</time>
      </trkpt>
      <trkpt lat="43.95326" lon="7.27506">
        <ele>564.5</ele>
        <time>2025-01-18T08:46:15.000Z</time>
      </trkpt>
      <trkpt lat="43.95331" lon="7.27509">
        <ele>564.7</ele>
        <time>2025-01-18T08:46:18.000Z</time>
      </trkpt>
      <trkpt lat="43.95334" lon="7.27512">
        <ele>565</ele>
        <time>2025-01-18T08:46:21.000Z</time>
      </trkpt>
      <trkpt lat="43.95338" lon="7.27516">
        <ele>565.4</ele>
        <time>2025-01-18T08:46:24.000Z</time>
      </trkpt>
      <trkpt lat="43.95342" lon="7.27519">
        <ele>565.9</ele>
        <time>2025-01-18T08:46:27.000Z</time>
      </trkpt>
      <trkpt lat="43.95346" lon="7.27523">
        <ele>566.4</ele>
        <time>2025-01-18T08:46:30.000Z</time>
      </trkpt>
      <trkpt lat="43.95351" lon="7.27524">
        <ele>566.9</ele>
        <time>2025-01-18T08:46:33.000Z</time>
      </trkpt>
      <trkpt lat="43.95356" lon="7.27526">
        <ele>567.5</ele>
        <time>2025-01-18T08:46:36.000Z</time>
      </trkpt>
      <trkpt lat="43.95361" lon="7.27527">
        <ele>568</ele>
        <time>2025-01-18T08:46:39.000Z</time>
      </trkpt>
      <trkpt lat="43.95365" lon="7.27531">
        <ele>568.4</ele>
        <time>2025-01-18T08:46:42.000Z</time>
      </trkpt>
      <trkpt lat="43.9537" lon="7.27534">
        <ele>568.7</ele>
        <time>2025-01-18T08:46:45.000Z</time>
      </trkpt>
      <trkpt lat="43.95375" lon="7.27536">
        <ele>569.1</ele>
        <time>2025-01-18T08:46:48.000Z</time>
      </trkpt>
      <trkpt lat="43.95382" lon="7.27538">
        <ele>569.3</ele>
        <time>2025-01-18T08:46:51.000Z</time>
      </trkpt>
      <trkpt lat="43.95387" lon="7.27539">
        <ele>569.5</ele>
        <time>2025-01-18T08:46:54.000Z</time>
      </trkpt>
      <trkpt lat="43.95393" lon="7.27542">
        <ele>569.7</ele>
        <time>2025-01-18T08:46:57.000Z</time>
      </trkpt>
      <trkpt lat="43.95399" lon="7.27543">
        <ele>569.8</ele>
        <time>2025-01-18T08:47:00.000Z</time>
      </trkpt>
      <trkpt lat="43.95404" lon="7.27544">
        <ele>569.9</ele>
        <time>2025-01-18T08:47:02.000Z</time>
      </trkpt>
      <trkpt lat="43.9541" lon="7.27544">
        <ele>570.1</ele>
        <time>2025-01-18T08:47:05.000Z</time>
      </trkpt>
      <trkpt lat="43.95415" lon="7.27545">
        <ele>570.1</ele>
        <time>2025-01-18T08:47:07.000Z</time>
      </trkpt>
      <trkpt lat="43.95419" lon="7.27544">
        <ele>570.2</ele>
        <time>2025-01-18T08:47:09.000Z</time>
      </trkpt>
      <trkpt lat="43.95426" lon="7.27542">
        <ele>570.4</ele>
        <time>2025-01-18T08:47:12.000Z</time>
      </trkpt>
      <trkpt lat="43.95432" lon="7.2754">
        <ele>570.6</ele>
        <time>2025-01-18T08:47:15.000Z</time>
      </trkpt>
      <trkpt lat="43.95436" lon="7.27537">
        <ele>570.7</ele>
        <time>2025-01-18T08:47:17.000Z</time>
      </trkpt>
      <trkpt lat="43.9544" lon="7.27533">
        <ele>570.9</ele>
        <time>2025-01-18T08:47:19.000Z</time>
      </trkpt>
      <trkpt lat="43.95446" lon="7.27529">
        <ele>571.2</ele>
        <time>2025-01-18T08:47:22.000Z</time>
      </trkpt>
      <trkpt lat="43.9545" lon="7.27526">
        <ele>571.6</ele>
        <time>2025-01-18T08:47:25.000Z</time>
      </trkpt>
      <trkpt lat="43.95454" lon="7.27521">
        <ele>572.2</ele>
        <time>2025-01-18T08:47:28.000Z</time>
      </trkpt>
      <trkpt lat="43.95457" lon="7.27516">
        <ele>572.8</ele>
        <time>2025-01-18T08:47:31.000Z</time>
      </trkpt>
      <trkpt lat="43.95462" lon="7.27513">
        <ele>573.3</ele>
        <time>2025-01-18T08:47:33.000Z</time>
      </trkpt>
      <trkpt lat="43.95466" lon="7.27509">
        <ele>574</ele>
        <time>2025-01-18T08:47:36.000Z</time>
      </trkpt>
      <trkpt lat="43.95472" lon="7.27505">
        <ele>574.5</ele>
        <time>2025-01-18T08:47:39.000Z</time>
      </trkpt>
      <trkpt lat="43.95478" lon="7.27502">
        <ele>575.1</ele>
        <time>2025-01-18T08:47:42.000Z</time>
      </trkpt>
      <trkpt lat="43.95483" lon="7.27499">
        <ele>575.7</ele>
        <time>2025-01-18T08:47:45.000Z</time>
      </trkpt>
      <trkpt lat="43.95488" lon="7.27494">
        <ele>576.6</ele>
        <time>2025-01-18T08:47:49.000Z</time>
      </trkpt>
      <trkpt lat="43.95493" lon="7.2749">
        <ele>577.3</ele>
        <time>2025-01-18T08:47:53.000Z</time>
      </trkpt>
      <trkpt lat="43.95498" lon="7.27485">
        <ele>577.9</ele>
        <time>2025-01-18T08:47:57.000Z</time>
      </trkpt>
      <trkpt lat="43.95501" lon="7.2748">
        <ele>578.3</ele>
        <time>2025-01-18T08:48:00.000Z</time>
      </trkpt>
      <trkpt lat="43.95504" lon="7.27476">
        <ele>578.7</ele>
        <time>2025-01-18T08:48:03.000Z</time>
      </trkpt>
      <trkpt lat="43.95509" lon="7.27473">
        <ele>579.1</ele>
        <time>2025-01-18T08:48:06.000Z</time>
      </trkpt>
      <trkpt lat="43.95513" lon="7.27468">
        <ele>579.7</ele>
        <time>2025-01-18T08:48:10.000Z</time>
      </trkpt>
      <trkpt lat="43.95516" lon="7.27464">
        <ele>580.1</ele>
        <time>2025-01-18T08:48:13.000Z</time>
      </trkpt>
      <trkpt lat="43.9552" lon="7.2746">
        <ele>580.4</ele>
        <time>2025-01-18T08:48:16.000Z</time>
      </trkpt>
      <trkpt lat="43.95523" lon="7.27455">
        <ele>580.7</ele>
        <time>2025-01-18T08:48:19.000Z</time>
      </trkpt>
      <trkpt lat="43.95526" lon="7.27449">
        <ele>581.1</ele>
        <time>2025-01-18T08:48:22.000Z</time>
      </trkpt>
      <trkpt lat="43.9553" lon="7.27442">
        <ele>581.5</ele>
        <time>2025-01-18T08:48:26.000Z</time>
      </trkpt>
      <trkpt lat="43.95534" lon="7.27438">
        <ele>581.7</ele>
        <time>2025-01-18T08:48:29.000Z</time>
      </trkpt>
      <trkpt lat="43.95537" lon="7.27431">
        <ele>582</ele>
        <time>2025-01-18T08:48:32.000Z</time>
      </trkpt>
      <trkpt lat="43.95539" lon="7.27425">
        <ele>582.3</ele>
        <time>2025-01-18T08:48:35.000Z</time>
      </trkpt>
      <trkpt lat="43.95541" lon="7.27418">
        <ele>582.5</ele>
        <time>2025-01-18T08:48:38.000Z</time>
      </trkpt>
      <trkpt lat="43.95542" lon="7.27411">
        <ele>582.8</ele>
        <time>2025-01-18T08:48:41.000Z</time>
      </trkpt>
      <trkpt lat="43.95542" lon="7.27404">
        <ele>583.2</ele>
        <time>2025-01-18T08:48:44.000Z</time>
      </trkpt>
      <trkpt lat="43.95543" lon="7.27398">
        <ele>583.6</ele>
        <time>2025-01-18T08:48:47.000Z</time>
      </trkpt>
      <trkpt lat="43.95546" lon="7.27391">
        <ele>584</ele>
        <time>2025-01-18T08:48:50.000Z</time>
      </trkpt>
      <trkpt lat="43.9555" lon="7.27386">
        <ele>584.4</ele>
        <time>2025-01-18T08:48:53.000Z</time>
      </trkpt>
      <trkpt lat="43.95554" lon="7.27381">
        <ele>584.9</ele>
        <time>2025-01-18T08:48:56.000Z</time>
      </trkpt>
      <trkpt lat="43.95559" lon="7.27376">
        <ele>585.5</ele>
        <time>2025-01-18T08:49:00.000Z</time>
      </trkpt>
      <trkpt lat="43.95564" lon="7.27372">
        <ele>586.1</ele>
        <time>2025-01-18T08:49:04.000Z</time>
      </trkpt>
      <trkpt lat="43.95567" lon="7.27368">
        <ele>586.6</ele>
        <time>2025-01-18T08:49:07.000Z</time>
      </trkpt>
      <trkpt lat="43.95572" lon="7.27363">
        <ele>587.4</ele>
        <time>2025-01-18T08:49:11.000Z</time>
      </trkpt>
      <trkpt lat="43.95577" lon="7.27361">
        <ele>587.8</ele>
        <time>2025-01-18T08:49:14.000Z</time>
      </trkpt>
      <trkpt lat="43.95581" lon="7.2736">
        <ele>588.2</ele>
        <time>2025-01-18T08:49:16.000Z</time>
      </trkpt>
      <trkpt lat="43.95587" lon="7.27356">
        <ele>588.8</ele>
        <time>2025-01-18T08:49:19.000Z</time>
      </trkpt>
      <trkpt lat="43.95591" lon="7.27353">
        <ele>589.2</ele>
        <time>2025-01-18T08:49:22.000Z</time>
      </trkpt>
      <trkpt lat="43.95597" lon="7.27352">
        <ele>589.7</ele>
        <time>2025-01-18T08:49:25.000Z</time>
      </trkpt>
      <trkpt lat="43.95602" lon="7.27348">
        <ele>590.1</ele>
        <time>2025-01-18T08:49:29.000Z</time>
      </trkpt>
      <trkpt lat="43.95606" lon="7.27344">
        <ele>590.5</ele>
        <time>2025-01-18T08:49:33.000Z</time>
      </trkpt>
      <trkpt lat="43.9561" lon="7.27338">
        <ele>591.3</ele>
        <time>2025-01-18T08:49:39.000Z</time>
      </trkpt>
      <trkpt lat="43.95612" lon="7.27332">
        <ele>591.8</ele>
        <time>2025-01-18T08:49:42.000Z</time>
      </trkpt>
      <trkpt lat="43.95613" lon="7.27324">
        <ele>592.6</ele>
        <time>2025-01-18T08:49:45.000Z</time>
      </trkpt>
      <trkpt lat="43.95611" lon="7.27317">
        <ele>593.4</ele>
        <time>2025-01-18T08:49:49.000Z</time>
      </trkpt>
      <trkpt lat="43.95605" lon="7.27313">
        <ele>594</ele>
        <time>2025-01-18T08:49:52.000Z</time>
      </trkpt>
      <trkpt lat="43.95602" lon="7.27308">
        <ele>594.4</ele>
        <time>2025-01-18T08:49:55.000Z</time>
      </trkpt>
      <trkpt lat="43.95597" lon="7.27303">
        <ele>595.2</ele>
        <time>2025-01-18T08:49:59.000Z</time>
      </trkpt>
      <trkpt lat="43.95593" lon="7.27298">
        <ele>595.8</ele>
        <time>2025-01-18T08:50:02.000Z</time>
      </trkpt>
      <trkpt lat="43.95589" lon="7.27292">
        <ele>596.5</ele>
        <time>2025-01-18T08:50:06.000Z</time>
      </trkpt>
      <trkpt lat="43.95588" lon="7.27286">
        <ele>597.1</ele>
        <time>2025-01-18T08:50:09.000Z</time>
      </trkpt>
      <trkpt lat="43.95586" lon="7.27279">
        <ele>597.6</ele>
        <time>2025-01-18T08:50:12.000Z</time>
      </trkpt>
      <trkpt lat="43.95583" lon="7.27273">
        <ele>598.5</ele>
        <time>2025-01-18T08:50:16.000Z</time>
      </trkpt>
      <trkpt lat="43.9558" lon="7.27268">
        <ele>598.9</ele>
        <time>2025-01-18T08:50:19.000Z</time>
      </trkpt>
      <trkpt lat="43.95577" lon="7.27263">
        <ele>599.4</ele>
        <time>2025-01-18T08:50:22.000Z</time>
      </trkpt>
      <trkpt lat="43.95575" lon="7.27256">
        <ele>599.9</ele>
        <time>2025-01-18T08:50:26.000Z</time>
      </trkpt>
      <trkpt lat="43.95571" lon="7.2725">
        <ele>600.4</ele>
        <time>2025-01-18T08:50:29.000Z</time>
      </trkpt>
      <trkpt lat="43.95568" lon="7.27245">
        <ele>601</ele>
        <time>2025-01-18T08:50:32.000Z</time>
      </trkpt>
      <trkpt lat="43.95565" lon="7.27238">
        <ele>601.7</ele>
        <time>2025-01-18T08:50:36.000Z</time>
      </trkpt>
      <trkpt lat="43.95562" lon="7.27231">
        <ele>602.3</ele>
        <time>2025-01-18T08:50:40.000Z</time>
      </trkpt>
      <trkpt lat="43.95559" lon="7.27225">
        <ele>602.8</ele>
        <time>2025-01-18T08:50:44.000Z</time>
      </trkpt>
      <trkpt lat="43.95556" lon="7.27219">
        <ele>603.4</ele>
        <time>2025-01-18T08:50:48.000Z</time>
      </trkpt>
      <trkpt lat="43.95554" lon="7.27213">
        <ele>604</ele>
        <time>2025-01-18T08:50:52.000Z</time>
      </trkpt>
      <trkpt lat="43.95551" lon="7.27206">
        <ele>604.8</ele>
        <time>2025-01-18T08:50:56.000Z</time>
      </trkpt>
      <trkpt lat="43.95548" lon="7.272">
        <ele>605.2</ele>
        <time>2025-01-18T08:50:59.000Z</time>
      </trkpt>
      <trkpt lat="43.95547" lon="7.27193">
        <ele>605.6</ele>
        <time>2025-01-18T08:51:02.000Z</time>
      </trkpt>
      <trkpt lat="43.95544" lon="7.27185">
        <ele>606.3</ele>
        <time>2025-01-18T08:51:06.000Z</time>
      </trkpt>
      <trkpt lat="43.95544" lon="7.27177">
        <ele>606.9</ele>
        <time>2025-01-18T08:51:10.000Z</time>
      </trkpt>
      <trkpt lat="43.95545" lon="7.27169">
        <ele>607.3</ele>
        <time>2025-01-18T08:51:13.000Z</time>
      </trkpt>
      <trkpt lat="43.95546" lon="7.27162">
        <ele>607.7</ele>
        <time>2025-01-18T08:51:16.000Z</time>
      </trkpt>
      <trkpt lat="43.9555" lon="7.27155">
        <ele>608.2</ele>
        <time>2025-01-18T08:51:19.000Z</time>
      </trkpt>
      <trkpt lat="43.95554" lon="7.27151">
        <ele>608.5</ele>
        <time>2025-01-18T08:51:22.000Z</time>
      </trkpt>
      <trkpt lat="43.95558" lon="7.27146">
        <ele>608.9</ele>
        <time>2025-01-18T08:51:26.000Z</time>
      </trkpt>
      <trkpt lat="43.9556" lon="7.2714">
        <ele>609.2</ele>
        <time>2025-01-18T08:51:29.000Z</time>
      </trkpt>
      <trkpt lat="43.95563" lon="7.27133">
        <ele>609.5</ele>
        <time>2025-01-18T08:51:33.000Z</time>
      </trkpt>
      <trkpt lat="43.95566" lon="7.27128">
        <ele>609.8</ele>
        <time>2025-01-18T08:51:36.000Z</time>
      </trkpt>
      <trkpt lat="43.95571" lon="7.27123">
        <ele>610</ele>
        <time>2025-01-18T08:51:39.000Z</time>
      </trkpt>
      <trkpt lat="43.95574" lon="7.27116">
        <ele>610.3</ele>
        <time>2025-01-18T08:51:42.000Z</time>
      </trkpt>
      <trkpt lat="43.95578" lon="7.2711">
        <ele>610.6</ele>
        <time>2025-01-18T08:51:45.000Z</time>
      </trkpt>
      <trkpt lat="43.95583" lon="7.27104">
        <ele>610.9</ele>
        <time>2025-01-18T08:51:48.000Z</time>
      </trkpt>
      <trkpt lat="43.95587" lon="7.27099">
        <ele>611.3</ele>
        <time>2025-01-18T08:51:51.000Z</time>
      </trkpt>
      <trkpt lat="43.95591" lon="7.27093">
        <ele>611.7</ele>
        <time>2025-01-18T08:51:54.000Z</time>
      </trkpt>
      <trkpt lat="43.95595" lon="7.27089">
        <ele>612</ele>
        <time>2025-01-18T08:51:57.000Z</time>
      </trkpt>
      <trkpt lat="43.956" lon="7.27086">
        <ele>612.4</ele>
        <time>2025-01-18T08:52:00.000Z</time>
      </trkpt>
      <trkpt lat="43.95605" lon="7.27084">
        <ele>612.8</ele>
        <time>2025-01-18T08:52:03.000Z</time>
      </trkpt>
      <trkpt lat="43.95611" lon="7.27083">
        <ele>613.2</ele>
        <time>2025-01-18T08:52:06.000Z</time>
      </trkpt>
      <trkpt lat="43.95615" lon="7.27084">
        <ele>613.5</ele>
        <time>2025-01-18T08:52:08.000Z</time>
      </trkpt>
      <trkpt lat="43.9562" lon="7.27088">
        <ele>613.9</ele>
        <time>2025-01-18T08:52:11.000Z</time>
      </trkpt>
      <trkpt lat="43.95625" lon="7.27091">
        <ele>614.3</ele>
        <time>2025-01-18T08:52:14.000Z</time>
      </trkpt>
      <trkpt lat="43.95631" lon="7.2709">
        <ele>614.6</ele>
        <time>2025-01-18T08:52:17.000Z</time>
      </trkpt>
      <trkpt lat="43.95638" lon="7.27087">
        <ele>614.9</ele>
        <time>2025-01-18T08:52:20.000Z</time>
      </trkpt>
      <trkpt lat="43.95642" lon="7.27085">
        <ele>615.1</ele>
        <time>2025-01-18T08:52:22.000Z</time>
      </trkpt>
      <trkpt lat="43.95647" lon="7.2708">
        <ele>615.4</ele>
        <time>2025-01-18T08:52:25.000Z</time>
      </trkpt>
      <trkpt lat="43.95652" lon="7.27077">
        <ele>615.6</ele>
        <time>2025-01-18T08:52:28.000Z</time>
      </trkpt>
      <trkpt lat="43.95658" lon="7.27075">
        <ele>615.9</ele>
        <time>2025-01-18T08:52:31.000Z</time>
      </trkpt>
      <trkpt lat="43.95663" lon="7.27074">
        <ele>616.3</ele>
        <time>2025-01-18T08:52:34.000Z</time>
      </trkpt>
      <trkpt lat="43.95668" lon="7.27074">
        <ele>616.8</ele>
        <time>2025-01-18T08:52:37.000Z</time>
      </trkpt>
      <trkpt lat="43.95674" lon="7.27074">
        <ele>617.3</ele>
        <time>2025-01-18T08:52:40.000Z</time>
      </trkpt>
      <trkpt lat="43.9568" lon="7.27072">
        <ele>617.8</ele>
        <time>2025-01-18T08:52:43.000Z</time>
      </trkpt>
      <trkpt lat="43.95684" lon="7.27071">
        <ele>618.1</ele>
        <time>2025-01-18T08:52:45.000Z</time>
      </trkpt>
      <trkpt lat="43.95689" lon="7.2707">
        <ele>618.4</ele>
        <time>2025-01-18T08:52:47.000Z</time>
      </trkpt>
      <trkpt lat="43.95695" lon="7.27068">
        <ele>618.8</ele>
        <time>2025-01-18T08:52:50.000Z</time>
      </trkpt>
      <trkpt lat="43.957" lon="7.27067">
        <ele>619.2</ele>
        <time>2025-01-18T08:52:53.000Z</time>
      </trkpt>
      <trkpt lat="43.95706" lon="7.27063">
        <ele>619.6</ele>
        <time>2025-01-18T08:52:56.000Z</time>
      </trkpt>
      <trkpt lat="43.95712" lon="7.27059">
        <ele>619.9</ele>
        <time>2025-01-18T08:52:59.000Z</time>
      </trkpt>
      <trkpt lat="43.95717" lon="7.27056">
        <ele>620.3</ele>
        <time>2025-01-18T08:53:02.000Z</time>
      </trkpt>
      <trkpt lat="43.95721" lon="7.27052">
        <ele>620.7</ele>
        <time>2025-01-18T08:53:05.000Z</time>
      </trkpt>
      <trkpt lat="43.95726" lon="7.27054">
        <ele>621.4</ele>
        <time>2025-01-18T08:53:09.000Z</time>
      </trkpt>
      <trkpt lat="43.95726" lon="7.27062">
        <ele>621.9</ele>
        <time>2025-01-18T08:53:12.000Z</time>
      </trkpt>
      <trkpt lat="43.95724" lon="7.27069">
        <ele>622.5</ele>
        <time>2025-01-18T08:53:15.000Z</time>
      </trkpt>
      <trkpt lat="43.95721" lon="7.27074">
        <ele>622.8</ele>
        <time>2025-01-18T08:53:17.000Z</time>
      </trkpt>
      <trkpt lat="43.95718" lon="7.27079">
        <ele>623.3</ele>
        <time>2025-01-18T08:53:20.000Z</time>
      </trkpt>
      <trkpt lat="43.95716" lon="7.27085">
        <ele>623.6</ele>
        <time>2025-01-18T08:53:23.000Z</time>
      </trkpt>
      <trkpt lat="43.95712" lon="7.27091">
        <ele>623.8</ele>
        <time>2025-01-18T08:53:26.000Z</time>
      </trkpt>
      <trkpt lat="43.95707" lon="7.27097">
        <ele>624.1</ele>
        <time>2025-01-18T08:53:29.000Z</time>
      </trkpt>
      <trkpt lat="43.95704" lon="7.27104">
        <ele>624.5</ele>
        <time>2025-01-18T08:53:32.000Z</time>
      </trkpt>
      <trkpt lat="43.957" lon="7.27109">
        <ele>624.8</ele>
        <time>2025-01-18T08:53:35.000Z</time>
      </trkpt>
      <trkpt lat="43.95695" lon="7.27114">
        <ele>625.2</ele>
        <time>2025-01-18T08:53:38.000Z</time>
      </trkpt>
      <trkpt lat="43.9569" lon="7.27119">
        <ele>625.6</ele>
        <time>2025-01-18T08:53:41.000Z</time>
      </trkpt>
      <trkpt lat="43.95685" lon="7.27122">
        <ele>625.9</ele>
        <time>2025-01-18T08:53:44.000Z</time>
      </trkpt>
      <trkpt lat="43.95681" lon="7.27127">
        <ele>626.4</ele>
        <time>2025-01-18T08:53:47.000Z</time>
      </trkpt>
      <trkpt lat="43.95676" lon="7.27131">
        <ele>626.8</ele>
        <time>2025-01-18T08:53:50.000Z</time>
      </trkpt>
      <trkpt lat="43.95671" lon="7.27136">
        <ele>627.1</ele>
        <time>2025-01-18T08:53:53.000Z</time>
      </trkpt>
      <trkpt lat="43.95666" lon="7.2714">
        <ele>627.4</ele>
        <time>2025-01-18T08:53:56.000Z</time>
      </trkpt>
      <trkpt lat="43.9566" lon="7.27145">
        <ele>627.7</ele>
        <time>2025-01-18T08:53:59.000Z</time>
      </trkpt>
      <trkpt lat="43.95656" lon="7.27149">
        <ele>628</ele>
        <time>2025-01-18T08:54:02.000Z</time>
      </trkpt>
      <trkpt lat="43.95653" lon="7.27154">
        <ele>628.3</ele>
        <time>2025-01-18T08:54:05.000Z</time>
      </trkpt>
      <trkpt lat="43.9565" lon="7.27161">
        <ele>628.8</ele>
        <time>2025-01-18T08:54:08.000Z</time>
      </trkpt>
      <trkpt lat="43.95649" lon="7.27168">
        <ele>629.1</ele>
        <time>2025-01-18T08:54:11.000Z</time>
      </trkpt>
      <trkpt lat="43.9565" lon="7.27175">
        <ele>629.6</ele>
        <time>2025-01-18T08:54:14.000Z</time>
      </trkpt>
      <trkpt lat="43.95653" lon="7.27183">
        <ele>630</ele>
        <time>2025-01-18T08:54:17.000Z</time>
      </trkpt>
      <trkpt lat="43.95655" lon="7.27191">
        <ele>630.4</ele>
        <time>2025-01-18T08:54:20.000Z</time>
      </trkpt>
      <trkpt lat="43.95656" lon="7.272">
        <ele>630.7</ele>
        <time>2025-01-18T08:54:23.000Z</time>
      </trkpt>
      <trkpt lat="43.95657" lon="7.27207">
        <ele>631</ele>
        <time>2025-01-18T08:54:26.000Z</time>
      </trkpt>
      <trkpt lat="43.95658" lon="7.27214">
        <ele>631.3</ele>
        <time>2025-01-18T08:54:29.000Z</time>
      </trkpt>
      <trkpt lat="43.95659" lon="7.27222">
        <ele>631.6</ele>
        <time>2025-01-18T08:54:32.000Z</time>
      </trkpt>
      <trkpt lat="43.95661" lon="7.27229">
        <ele>632</ele>
        <time>2025-01-18T08:54:35.000Z</time>
      </trkpt>
      <trkpt lat="43.9566" lon="7.27237">
        <ele>632.3</ele>
        <time>2025-01-18T08:54:38.000Z</time>
      </trkpt>
      <trkpt lat="43.95659" lon="7.27245">
        <ele>632.5</ele>
        <time>2025-01-18T08:54:41.000Z</time>
      </trkpt>
      <trkpt lat="43.95659" lon="7.27252">
        <ele>632.8</ele>
        <time>2025-01-18T08:54:44.000Z</time>
      </trkpt>
      <trkpt lat="43.95661" lon="7.2726">
        <ele>633.1</ele>
        <time>2025-01-18T08:54:47.000Z</time>
      </trkpt>
      <trkpt lat="43.95665" lon="7.27265">
        <ele>633.3</ele>
        <time>2025-01-18T08:54:50.000Z</time>
      </trkpt>
      <trkpt lat="43.95668" lon="7.27269">
        <ele>633.7</ele>
        <time>2025-01-18T08:54:53.000Z</time>
      </trkpt>
      <trkpt lat="43.95673" lon="7.27274">
        <ele>634.1</ele>
        <time>2025-01-18T08:54:56.000Z</time>
      </trkpt>
      <trkpt lat="43.95677" lon="7.27279">
        <ele>634.6</ele>
        <time>2025-01-18T08:54:59.000Z</time>
      </trkpt>
      <trkpt lat="43.95681" lon="7.27285">
        <ele>635.1</ele>
        <time>2025-01-18T08:55:02.000Z</time>
      </trkpt>
      <trkpt lat="43.95684" lon="7.2729">
        <ele>635.6</ele>
        <time>2025-01-18T08:55:05.000Z</time>
      </trkpt>
      <trkpt lat="43.95687" lon="7.27296">
        <ele>636.1</ele>
        <time>2025-01-18T08:55:08.000Z</time>
      </trkpt>
      <trkpt lat="43.95691" lon="7.27302">
        <ele>636.8</ele>
        <time>2025-01-18T08:55:12.000Z</time>
      </trkpt>
      <trkpt lat="43.95696" lon="7.27308">
        <ele>637.5</ele>
        <time>2025-01-18T08:55:16.000Z</time>
      </trkpt>
      <trkpt lat="43.95701" lon="7.27313">
        <ele>638.1</ele>
        <time>2025-01-18T08:55:20.000Z</time>
      </trkpt>
      <trkpt lat="43.95705" lon="7.27316">
        <ele>638.5</ele>
        <time>2025-01-18T08:55:23.000Z</time>
      </trkpt>
      <trkpt lat="43.9571" lon="7.2732">
        <ele>639</ele>
        <time>2025-01-18T08:55:26.000Z</time>
      </trkpt>
      <trkpt lat="43.95713" lon="7.27325">
        <ele>639.5</ele>
        <time>2025-01-18T08:55:29.000Z</time>
      </trkpt>
      <trkpt lat="43.95718" lon="7.2733">
        <ele>640.1</ele>
        <time>2025-01-18T08:55:33.000Z</time>
      </trkpt>
      <trkpt lat="43.95722" lon="7.27334">
        <ele>640.7</ele>
        <time>2025-01-18T08:55:37.000Z</time>
      </trkpt>
      <trkpt lat="43.95726" lon="7.27337">
        <ele>641.4</ele>
        <time>2025-01-18T08:55:41.000Z</time>
      </trkpt>
      <trkpt lat="43.95731" lon="7.27341">
        <ele>642.1</ele>
        <time>2025-01-18T08:55:45.000Z</time>
      </trkpt>
      <trkpt lat="43.95736" lon="7.27345">
        <ele>642.8</ele>
        <time>2025-01-18T08:55:49.000Z</time>
      </trkpt>
      <trkpt lat="43.9574" lon="7.27349">
        <ele>643.4</ele>
        <time>2025-01-18T08:55:53.000Z</time>
      </trkpt>
      <trkpt lat="43.95744" lon="7.27355">
        <ele>644.2</ele>
        <time>2025-01-18T08:55:57.000Z</time>
      </trkpt>
      <trkpt lat="43.95747" lon="7.2736">
        <ele>644.8</ele>
        <time>2025-01-18T08:56:00.000Z</time>
      </trkpt>
      <trkpt lat="43.95751" lon="7.27366">
        <ele>645.4</ele>
        <time>2025-01-18T08:56:03.000Z</time>
      </trkpt>
      <trkpt lat="43.95754" lon="7.27373">
        <ele>646</ele>
        <time>2025-01-18T08:56:07.000Z</time>
      </trkpt>
      <trkpt lat="43.95755" lon="7.27379">
        <ele>646.2</ele>
        <time>2025-01-18T08:56:10.000Z</time>
      </trkpt>
      <trkpt lat="43.95754" lon="7.27388">
        <ele>646.4</ele>
        <time>2025-01-18T08:56:13.000Z</time>
      </trkpt>
      <trkpt lat="43.95754" lon="7.27395">
        <ele>646.7</ele>
        <time>2025-01-18T08:56:16.000Z</time>
      </trkpt>
      <trkpt lat="43.95754" lon="7.27402">
        <ele>646.9</ele>
        <time>2025-01-18T08:56:19.000Z</time>
      </trkpt>
      <trkpt lat="43.95757" lon="7.27409">
        <ele>647.1</ele>
        <time>2025-01-18T08:56:22.000Z</time>
      </trkpt>
      <trkpt lat="43.95759" lon="7.27415">
        <ele>647.3</ele>
        <time>2025-01-18T08:56:25.000Z</time>
      </trkpt>
      <trkpt lat="43.95763" lon="7.27423">
        <ele>647.6</ele>
        <time>2025-01-18T08:56:28.000Z</time>
      </trkpt>
      <trkpt lat="43.95766" lon="7.27429">
        <ele>647.8</ele>
        <time>2025-01-18T08:56:31.000Z</time>
      </trkpt>
      <trkpt lat="43.95769" lon="7.27437">
        <ele>648.1</ele>
        <time>2025-01-18T08:56:34.000Z</time>
      </trkpt>
      <trkpt lat="43.9577" lon="7.27444">
        <ele>648.4</ele>
        <time>2025-01-18T08:56:37.000Z</time>
      </trkpt>
      <trkpt lat="43.9577" lon="7.27452">
        <ele>648.8</ele>
        <time>2025-01-18T08:56:40.000Z</time>
      </trkpt>
      <trkpt lat="43.9577" lon="7.2746">
        <ele>649.1</ele>
        <time>2025-01-18T08:56:43.000Z</time>
      </trkpt>
      <trkpt lat="43.95769" lon="7.27468">
        <ele>649.6</ele>
        <time>2025-01-18T08:56:46.000Z</time>
      </trkpt>
      <trkpt lat="43.95769" lon="7.27477">
        <ele>649.8</ele>
        <time>2025-01-18T08:56:49.000Z</time>
      </trkpt>
      <trkpt lat="43.95769" lon="7.27486">
        <ele>649.8</ele>
        <time>2025-01-18T08:56:52.000Z</time>
      </trkpt>
      <trkpt lat="43.9577" lon="7.27495">
        <ele>649.9</ele>
        <time>2025-01-18T08:56:55.000Z</time>
      </trkpt>
      <trkpt lat="43.9577" lon="7.27501">
        <ele>650</ele>
        <time>2025-01-18T08:56:57.000Z</time>
      </trkpt>
      <trkpt lat="43.9577" lon="7.27509">
        <ele>650</ele>
        <time>2025-01-18T08:56:59.000Z</time>
      </trkpt>
      <trkpt lat="43.95769" lon="7.27516">
        <ele>650</ele>
        <time>2025-01-18T08:57:01.000Z</time>
      </trkpt>
      <trkpt lat="43.95767" lon="7.27523">
        <ele>650.1</ele>
        <time>2025-01-18T08:57:03.000Z</time>
      </trkpt>
      <trkpt lat="43.95765" lon="7.27528">
        <ele>650.1</ele>
        <time>2025-01-18T08:57:05.000Z</time>
      </trkpt>
      <trkpt lat="43.95761" lon="7.27535">
        <ele>650.2</ele>
        <time>2025-01-18T08:57:08.000Z</time>
      </trkpt>
      <trkpt lat="43.95756" lon="7.2754">
        <ele>650.4</ele>
        <time>2025-01-18T08:57:10.000Z</time>
      </trkpt>
      <trkpt lat="43.95753" lon="7.27544">
        <ele>650.5</ele>
        <time>2025-01-18T08:57:12.000Z</time>
      </trkpt>
      <trkpt lat="43.95748" lon="7.2755">
        <ele>650.7</ele>
        <time>2025-01-18T08:57:15.000Z</time>
      </trkpt>
      <trkpt lat="43.95743" lon="7.27552">
        <ele>650.8</ele>
        <time>2025-01-18T08:57:17.000Z</time>
      </trkpt>
      <trkpt lat="43.95737" lon="7.27556">
        <ele>651.1</ele>
        <time>2025-01-18T08:57:20.000Z</time>
      </trkpt>
      <trkpt lat="43.95734" lon="7.27561">
        <ele>651.2</ele>
        <time>2025-01-18T08:57:22.000Z</time>
      </trkpt>
      <trkpt lat="43.9573" lon="7.27566">
        <ele>651.3</ele>
        <time>2025-01-18T08:57:24.000Z</time>
      </trkpt>
      <trkpt lat="43.95726" lon="7.27571">
        <ele>651.4</ele>
        <time>2025-01-18T08:57:26.000Z</time>
      </trkpt>
      <trkpt lat="43.95722" lon="7.27575">
        <ele>651.5</ele>
        <time>2025-01-18T08:57:28.000Z</time>
      </trkpt>
      <trkpt lat="43.95719" lon="7.27581">
        <ele>651.5</ele>
        <time>2025-01-18T08:57:30.000Z</time>
      </trkpt>
      <trkpt lat="43.95715" lon="7.27588">
        <ele>651.8</ele>
        <time>2025-01-18T08:57:33.000Z</time>
      </trkpt>
      <trkpt lat="43.95712" lon="7.27593">
        <ele>651.9</ele>
        <time>2025-01-18T08:57:35.000Z</time>
      </trkpt>
      <trkpt lat="43.9571" lon="7.27599">
        <ele>652.1</ele>
        <time>2025-01-18T08:57:37.000Z</time>
      </trkpt>
      <trkpt lat="43.95709" lon="7.27606">
        <ele>652.2</ele>
        <time>2025-01-18T08:57:39.000Z</time>
      </trkpt>
      <trkpt lat="43.9571" lon="7.27614">
        <ele>652.4</ele>
        <time>2025-01-18T08:57:41.000Z</time>
      </trkpt>
      <trkpt lat="43.95709" lon="7.2762">
        <ele>652.5</ele>
        <time>2025-01-18T08:57:43.000Z</time>
      </trkpt>
      <trkpt lat="43.9571" lon="7.27627">
        <ele>652.6</ele>
        <time>2025-01-18T08:57:45.000Z</time>
      </trkpt>
      <trkpt lat="43.95709" lon="7.27636">
        <ele>652.8</ele>
        <time>2025-01-18T08:57:47.000Z</time>
      </trkpt>
      <trkpt lat="43.95709" lon="7.27643">
        <ele>652.9</ele>
        <time>2025-01-18T08:57:49.000Z</time>
      </trkpt>
      <trkpt lat="43.95709" lon="7.2765">
        <ele>653</ele>
        <time>2025-01-18T08:57:51.000Z</time>
      </trkpt>
      <trkpt lat="43.95709" lon="7.27658">
        <ele>653.1</ele>
        <time>2025-01-18T08:57:53.000Z</time>
      </trkpt>
      <trkpt lat="43.9571" lon="7.27666">
        <ele>653.2</ele>
        <time>2025-01-18T08:57:55.000Z</time>
      </trkpt>
      <trkpt lat="43.95711" lon="7.27672">
        <ele>653.3</ele>
        <time>2025-01-18T08:57:57.000Z</time>
      </trkpt>
      <trkpt lat="43.95716" lon="7.27676">
        <ele>653.4</ele>
        <time>2025-01-18T08:58:00.000Z</time>
      </trkpt>
      <trkpt lat="43.9572" lon="7.27672">
        <ele>653.6</ele>
        <time>2025-01-18T08:58:03.000Z</time>
      </trkpt>
      <trkpt lat="43.95721" lon="7.27664">
        <ele>653.9</ele>
        <time>2025-01-18T08:58:06.000Z</time>
      </trkpt>
      <trkpt lat="43.95721" lon="7.27658">
        <ele>654.4</ele>
        <time>2025-01-18T08:58:09.000Z</time>
      </trkpt>
      <trkpt lat="43.9572" lon="7.27651">
        <ele>654.9</ele>
        <time>2025-01-18T08:58:12.000Z</time>
      </trkpt>
      <trkpt lat="43.9572" lon="7.27642">
        <ele>655.6</ele>
        <time>2025-01-18T08:58:15.000Z</time>
      </trkpt>
      <trkpt lat="43.95723" lon="7.27635">
        <ele>656.2</ele>
        <time>2025-01-18T08:58:18.000Z</time>
      </trkpt>
      <trkpt lat="43.95727" lon="7.27629">
        <ele>656.8</ele>
        <time>2025-01-18T08:58:21.000Z</time>
      </trkpt>
      <trkpt lat="43.95732" lon="7.27625">
        <ele>657.4</ele>
        <time>2025-01-18T08:58:24.000Z</time>
      </trkpt>
      <trkpt lat="43.95736" lon="7.27623">
        <ele>657.7</ele>
        <time>2025-01-18T08:58:26.000Z</time>
      </trkpt>
      <trkpt lat="43.95742" lon="7.2762">
        <ele>658.2</ele>
        <time>2025-01-18T08:58:29.000Z</time>
      </trkpt>
      <trkpt lat="43.95746" lon="7.27616">
        <ele>658.9</ele>
        <time>2025-01-18T08:58:33.000Z</time>
      </trkpt>
      <trkpt lat="43.9575" lon="7.27612">
        <ele>659.5</ele>
        <time>2025-01-18T08:58:36.000Z</time>
      </trkpt>
      <trkpt lat="43.95755" lon="7.27608">
        <ele>660.1</ele>
        <time>2025-01-18T08:58:39.000Z</time>
      </trkpt>
      <trkpt lat="43.95759" lon="7.27602">
        <ele>660.6</ele>
        <time>2025-01-18T08:58:42.000Z</time>
      </trkpt>
      <trkpt lat="43.95762" lon="7.27597">
        <ele>661</ele>
        <time>2025-01-18T08:58:45.000Z</time>
      </trkpt>
      <trkpt lat="43.95765" lon="7.27592">
        <ele>661.2</ele>
        <time>2025-01-18T08:58:48.000Z</time>
      </trkpt>
      <trkpt lat="43.95769" lon="7.27585">
        <ele>661.5</ele>
        <time>2025-01-18T08:58:51.000Z</time>
      </trkpt>
      <trkpt lat="43.95771" lon="7.27576">
        <ele>661.9</ele>
        <time>2025-01-18T08:58:54.000Z</time>
      </trkpt>
      <trkpt lat="43.95773" lon="7.27568">
        <ele>662.2</ele>
        <time>2025-01-18T08:58:57.000Z</time>
      </trkpt>
      <trkpt lat="43.95776" lon="7.27561">
        <ele>662.8</ele>
        <time>2025-01-18T08:59:01.000Z</time>
      </trkpt>
      <trkpt lat="43.95779" lon="7.27555">
        <ele>663.3</ele>
        <time>2025-01-18T08:59:04.000Z</time>
      </trkpt>
      <trkpt lat="43.95782" lon="7.2755">
        <ele>663.8</ele>
        <time>2025-01-18T08:59:07.000Z</time>
      </trkpt>
      <trkpt lat="43.95786" lon="7.27546">
        <ele>664.3</ele>
        <time>2025-01-18T08:59:10.000Z</time>
      </trkpt>
      <trkpt lat="43.95789" lon="7.2754">
        <ele>664.9</ele>
        <time>2025-01-18T08:59:13.000Z</time>
      </trkpt>
      <trkpt lat="43.95793" lon="7.27535">
        <ele>665.4</ele>
        <time>2025-01-18T08:59:16.000Z</time>
      </trkpt>
      <trkpt lat="43.95797" lon="7.27531">
        <ele>665.8</ele>
        <time>2025-01-18T08:59:19.000Z</time>
      </trkpt>
      <trkpt lat="43.95801" lon="7.27526">
        <ele>666.1</ele>
        <time>2025-01-18T08:59:22.000Z</time>
      </trkpt>
      <trkpt lat="43.95806" lon="7.27523">
        <ele>666.5</ele>
        <time>2025-01-18T08:59:25.000Z</time>
      </trkpt>
      <trkpt lat="43.9581" lon="7.2752">
        <ele>666.8</ele>
        <time>2025-01-18T08:59:28.000Z</time>
      </trkpt>
      <trkpt lat="43.95814" lon="7.27515">
        <ele>667.1</ele>
        <time>2025-01-18T08:59:31.000Z</time>
      </trkpt>
      <trkpt lat="43.95818" lon="7.27512">
        <ele>667.4</ele>
        <time>2025-01-18T08:59:34.000Z</time>
      </trkpt>
      <trkpt lat="43.95822" lon="7.27506">
        <ele>667.7</ele>
        <time>2025-01-18T08:59:37.000Z</time>
      </trkpt>
      <trkpt lat="43.95825" lon="7.27499">
        <ele>668.1</ele>
        <time>2025-01-18T08:59:40.000Z</time>
      </trkpt>
      <trkpt lat="43.95827" lon="7.27493">
        <ele>668.5</ele>
        <time>2025-01-18T08:59:43.000Z</time>
      </trkpt>
      <trkpt lat="43.95829" lon="7.27487">
        <ele>668.9</ele>
        <time>2025-01-18T08:59:46.000Z</time>
      </trkpt>
      <trkpt lat="43.95831" lon="7.27481">
        <ele>669.4</ele>
        <time>2025-01-18T08:59:49.000Z</time>
      </trkpt>
      <trkpt lat="43.95833" lon="7.27474">
        <ele>670</ele>
        <time>2025-01-18T08:59:53.000Z</time>
      </trkpt>
      <trkpt lat="43.95833" lon="7.27466">
        <ele>670.5</ele>
        <time>2025-01-18T08:59:57.000Z</time>
      </trkpt>
      <trkpt lat="43.95833" lon="7.27459">
        <ele>671</ele>
        <time>2025-01-18T09:00:00.000Z</time>
      </trkpt>
      <trkpt lat="43.95833" lon="7.27451">
        <ele>671.5</ele>
        <time>2025-01-18T09:00:03.000Z</time>
      </trkpt>
      <trkpt lat="43.95834" lon="7.27443">
        <ele>672.2</ele>
        <time>2025-01-18T09:00:07.000Z</time>
      </trkpt>
      <trkpt lat="43.95836" lon="7.27436">
        <ele>672.8</ele>
        <time>2025-01-18T09:00:10.000Z</time>
      </trkpt>
      <trkpt lat="43.95838" lon="7.27429">
        <ele>673.3</ele>
        <time>2025-01-18T09:00:13.000Z</time>
      </trkpt>
      <trkpt lat="43.95839" lon="7.27422">
        <ele>673.8</ele>
        <time>2025-01-18T09:00:17.000Z</time>
      </trkpt>
      <trkpt lat="43.95842" lon="7.27415">
        <ele>674.3</ele>
        <time>2025-01-18T09:00:20.000Z</time>
      </trkpt>
      <trkpt lat="43.95845" lon="7.2741">
        <ele>674.6</ele>
        <time>2025-01-18T09:00:23.000Z</time>
      </trkpt>
      <trkpt lat="43.9585" lon="7.27407">
        <ele>674.9</ele>
        <time>2025-01-18T09:00:26.000Z</time>
      </trkpt>
      <trkpt lat="43.95855" lon="7.27405">
        <ele>675.3</ele>
        <time>2025-01-18T09:00:29.000Z</time>
      </trkpt>
      <trkpt lat="43.9586" lon="7.27399">
        <ele>675.6</ele>
        <time>2025-01-18T09:00:32.000Z</time>
      </trkpt>
      <trkpt lat="43.95864" lon="7.27392">
        <ele>676</ele>
        <time>2025-01-18T09:00:35.000Z</time>
      </trkpt>
      <trkpt lat="43.95866" lon="7.27383">
        <ele>676.5</ele>
        <time>2025-01-18T09:00:38.000Z</time>
      </trkpt>
      <trkpt lat="43.95868" lon="7.27376">
        <ele>677</ele>
        <time>2025-01-18T09:00:41.000Z</time>
      </trkpt>
      <trkpt lat="43.95868" lon="7.27369">
        <ele>677.4</ele>
        <time>2025-01-18T09:00:44.000Z</time>
      </trkpt>
      <trkpt lat="43.95868" lon="7.27363">
        <ele>677.9</ele>
        <time>2025-01-18T09:00:47.000Z</time>
      </trkpt>
      <trkpt lat="43.95867" lon="7.27357">
        <ele>678.2</ele>
        <time>2025-01-18T09:00:50.000Z</time>
      </trkpt>
      <trkpt lat="43.95864" lon="7.27349">
        <ele>678.7</ele>
        <time>2025-01-18T09:00:53.000Z</time>
      </trkpt>
      <trkpt lat="43.9586" lon="7.27345">
        <ele>679</ele>
        <time>2025-01-18T09:00:55.000Z</time>
      </trkpt>
      <trkpt lat="43.95856" lon="7.27341">
        <ele>679.6</ele>
        <time>2025-01-18T09:00:58.000Z</time>
      </trkpt>
      <trkpt lat="43.95853" lon="7.27337">
        <ele>680.2</ele>
        <time>2025-01-18T09:01:01.000Z</time>
      </trkpt>
      <trkpt lat="43.95849" lon="7.27333">
        <ele>680.8</ele>
        <time>2025-01-18T09:01:04.000Z</time>
      </trkpt>
      <trkpt lat="43.95845" lon="7.27329">
        <ele>681.3</ele>
        <time>2025-01-18T09:01:07.000Z</time>
      </trkpt>
      <trkpt lat="43.95842" lon="7.27323">
        <ele>681.8</ele>
        <time>2025-01-18T09:01:10.000Z</time>
      </trkpt>
      <trkpt lat="43.95839" lon="7.27318">
        <ele>682.3</ele>
        <time>2025-01-18T09:01:13.000Z</time>
      </trkpt>
      <trkpt lat="43.95835" lon="7.27314">
        <ele>682.7</ele>
        <time>2025-01-18T09:01:16.000Z</time>
      </trkpt>
      <trkpt lat="43.95831" lon="7.27308">
        <ele>683.1</ele>
        <time>2025-01-18T09:01:20.000Z</time>
      </trkpt>
      <trkpt lat="43.95827" lon="7.27304">
        <ele>683.5</ele>
        <time>2025-01-18T09:01:23.000Z</time>
      </trkpt>
      <trkpt lat="43.95823" lon="7.273">
        <ele>683.8</ele>
        <time>2025-01-18T09:01:26.000Z</time>
      </trkpt>
      <trkpt lat="43.95818" lon="7.27298">
        <ele>684.1</ele>
        <time>2025-01-18T09:01:29.000Z</time>
      </trkpt>
      <trkpt lat="43.95814" lon="7.27292">
        <ele>684.4</ele>
        <time>2025-01-18T09:01:32.000Z</time>
      </trkpt>
      <trkpt lat="43.95811" lon="7.27288">
        <ele>684.7</ele>
        <time>2025-01-18T09:01:35.000Z</time>
      </trkpt>
      <trkpt lat="43.95808" lon="7.27282">
        <ele>685</ele>
        <time>2025-01-18T09:01:38.000Z</time>
      </trkpt>
      <trkpt lat="43.95806" lon="7.27275">
        <ele>685.5</ele>
        <time>2025-01-18T09:01:42.000Z</time>
      </trkpt>
      <trkpt lat="43.95805" lon="7.27267">
        <ele>685.7</ele>
        <time>2025-01-18T09:01:45.000Z</time>
      </trkpt>
      <trkpt lat="43.95807" lon="7.2726">
        <ele>685.9</ele>
        <time>2025-01-18T09:01:48.000Z</time>
      </trkpt>
      <trkpt lat="43.9581" lon="7.27254">
        <ele>686.1</ele>
        <time>2025-01-18T09:01:51.000Z</time>
      </trkpt>
      <trkpt lat="43.95814" lon="7.27248">
        <ele>686.4</ele>
        <time>2025-01-18T09:01:54.000Z</time>
      </trkpt>
      <trkpt lat="43.95819" lon="7.27244">
        <ele>686.6</ele>
        <time>2025-01-18T09:01:57.000Z</time>
      </trkpt>
      <trkpt lat="43.95824" lon="7.27242">
        <ele>686.9</ele>
        <time>2025-01-18T09:02:00.000Z</time>
      </trkpt>
      <trkpt lat="43.95829" lon="7.27238">
        <ele>687.2</ele>
        <time>2025-01-18T09:02:03.000Z</time>
      </trkpt>
      <trkpt lat="43.95834" lon="7.27235">
        <ele>687.5</ele>
        <time>2025-01-18T09:02:06.000Z</time>
      </trkpt>
      <trkpt lat="43.95839" lon="7.27231">
        <ele>687.8</ele>
        <time>2025-01-18T09:02:09.000Z</time>
      </trkpt>
      <trkpt lat="43.95843" lon="7.27226">
        <ele>688.1</ele>
        <time>2025-01-18T09:02:12.000Z</time>
      </trkpt>
      <trkpt lat="43.95848" lon="7.2722">
        <ele>688.4</ele>
        <time>2025-01-18T09:02:15.000Z</time>
      </trkpt>
      <trkpt lat="43.95851" lon="7.27213">
        <ele>688.8</ele>
        <time>2025-01-18T09:02:18.000Z</time>
      </trkpt>
      <trkpt lat="43.95856" lon="7.27207">
        <ele>689.2</ele>
        <time>2025-01-18T09:02:21.000Z</time>
      </trkpt>
      <trkpt lat="43.95859" lon="7.27202">
        <ele>689.6</ele>
        <time>2025-01-18T09:02:24.000Z</time>
      </trkpt>
      <trkpt lat="43.95864" lon="7.27197">
        <ele>690</ele>
        <time>2025-01-18T09:02:27.000Z</time>
      </trkpt>
      <trkpt lat="43.95869" lon="7.27194">
        <ele>690.4</ele>
        <time>2025-01-18T09:02:30.000Z</time>
      </trkpt>
      <trkpt lat="43.95872" lon="7.27189">
        <ele>690.6</ele>
        <time>2025-01-18T09:02:32.000Z</time>
      </trkpt>
      <trkpt lat="43.95876" lon="7.27181">
        <ele>691</ele>
        <time>2025-01-18T09:02:35.000Z</time>
      </trkpt>
      <trkpt lat="43.95879" lon="7.27176">
        <ele>691.3</ele>
        <time>2025-01-18T09:02:37.000Z</time>
      </trkpt>
      <trkpt lat="43.95882" lon="7.2717">
        <ele>691.6</ele>
        <time>2025-01-18T09:02:39.000Z</time>
      </trkpt>
      <trkpt lat="43.95884" lon="7.27163">
        <ele>691.8</ele>
        <time>2025-01-18T09:02:41.000Z</time>
      </trkpt>
      <trkpt lat="43.95886" lon="7.27157">
        <ele>692</ele>
        <time>2025-01-18T09:02:43.000Z</time>
      </trkpt>
      <trkpt lat="43.95889" lon="7.27151">
        <ele>692.2</ele>
        <time>2025-01-18T09:02:45.000Z</time>
      </trkpt>
      <trkpt lat="43.95893" lon="7.27144">
        <ele>692.3</ele>
        <time>2025-01-18T09:02:48.000Z</time>
      </trkpt>
      <trkpt lat="43.95896" lon="7.27138">
        <ele>692.4</ele>
        <time>2025-01-18T09:02:51.000Z</time>
      </trkpt>
      <trkpt lat="43.95899" lon="7.27131">
        <ele>692.5</ele>
        <time>2025-01-18T09:02:54.000Z</time>
      </trkpt>
      <trkpt lat="43.95901" lon="7.27125">
        <ele>692.6</ele>
        <time>2025-01-18T09:02:56.000Z</time>
      </trkpt>
      <trkpt lat="43.95904" lon="7.27119">
        <ele>692.7</ele>
        <time>2025-01-18T09:02:58.000Z</time>
      </trkpt>
      <trkpt lat="43.95907" lon="7.27111">
        <ele>692.7</ele>
        <time>2025-01-18T09:03:01.000Z</time>
      </trkpt>
      <trkpt lat="43.95908" lon="7.27104">
        <ele>692.8</ele>
        <time>2025-01-18T09:03:04.000Z</time>
      </trkpt>
      <trkpt lat="43.95911" lon="7.27098">
        <ele>692.8</ele>
        <time>2025-01-18T09:03:07.000Z</time>
      </trkpt>
      <trkpt lat="43.95914" lon="7.27091">
        <ele>692.9</ele>
        <time>2025-01-18T09:03:11.000Z</time>
      </trkpt>
      <trkpt lat="43.95917" lon="7.27083">
        <ele>693</ele>
        <time>2025-01-18T09:03:15.000Z</time>
      </trkpt>
      <trkpt lat="43.9592" lon="7.27078">
        <ele>693</ele>
        <time>2025-01-18T09:03:18.000Z</time>
      </trkpt>
      <trkpt lat="43.95924" lon="7.27072">
        <ele>693</ele>
        <time>2025-01-18T09:03:21.000Z</time>
      </trkpt>
      <trkpt lat="43.95929" lon="7.27068">
        <ele>693</ele>
        <time>2025-01-18T09:03:23.000Z</time>
      </trkpt>
      <trkpt lat="43.95933" lon="7.27064">
        <ele>692.9</ele>
        <time>2025-01-18T09:03:25.000Z</time>
      </trkpt>
      <trkpt lat="43.95938" lon="7.2706">
        <ele>692.9</ele>
        <time>2025-01-18T09:03:27.000Z</time>
      </trkpt>
      <trkpt lat="43.95941" lon="7.27054">
        <ele>692.8</ele>
        <time>2025-01-18T09:03:29.000Z</time>
      </trkpt>
      <trkpt lat="43.95947" lon="7.2705">
        <ele>692.7</ele>
        <time>2025-01-18T09:03:32.000Z</time>
      </trkpt>
      <trkpt lat="43.95951" lon="7.27047">
        <ele>692.6</ele>
        <time>2025-01-18T09:03:35.000Z</time>
      </trkpt>
      <trkpt lat="43.95955" lon="7.27043">
        <ele>692.6</ele>
        <time>2025-01-18T09:03:38.000Z</time>
      </trkpt>
      <trkpt lat="43.95958" lon="7.27036">
        <ele>692.4</ele>
        <time>2025-01-18T09:03:41.000Z</time>
      </trkpt>
      <trkpt lat="43.95959" lon="7.27029">
        <ele>692.3</ele>
        <time>2025-01-18T09:03:43.000Z</time>
      </trkpt>
      <trkpt lat="43.95961" lon="7.27023">
        <ele>692.3</ele>
        <time>2025-01-18T09:03:45.000Z</time>
      </trkpt>
      <trkpt lat="43.95962" lon="7.27016">
        <ele>692.2</ele>
        <time>2025-01-18T09:03:47.000Z</time>
      </trkpt>
      <trkpt lat="43.95961" lon="7.2701">
        <ele>692.2</ele>
        <time>2025-01-18T09:03:49.000Z</time>
      </trkpt>
      <trkpt lat="43.95962" lon="7.27003">
        <ele>692.1</ele>
        <time>2025-01-18T09:03:51.000Z</time>
      </trkpt>
      <trkpt lat="43.95963" lon="7.26997">
        <ele>692.1</ele>
        <time>2025-01-18T09:03:53.000Z</time>
      </trkpt>
      <trkpt lat="43.95966" lon="7.26989">
        <ele>692.2</ele>
        <time>2025-01-18T09:03:56.000Z</time>
      </trkpt>
      <trkpt lat="43.95968" lon="7.26983">
        <ele>692.3</ele>
        <time>2025-01-18T09:03:58.000Z</time>
      </trkpt>
      <trkpt lat="43.95971" lon="7.26976">
        <ele>692.4</ele>
        <time>2025-01-18T09:04:01.000Z</time>
      </trkpt>
      <trkpt lat="43.95976" lon="7.2697">
        <ele>692.5</ele>
        <time>2025-01-18T09:04:04.000Z</time>
      </trkpt>
      <trkpt lat="43.9598" lon="7.26966">
        <ele>692.6</ele>
        <time>2025-01-18T09:04:07.000Z</time>
      </trkpt>
      <trkpt lat="43.95984" lon="7.26961">
        <ele>692.7</ele>
        <time>2025-01-18T09:04:10.000Z</time>
      </trkpt>
      <trkpt lat="43.9599" lon="7.26961">
        <ele>692.9</ele>
        <time>2025-01-18T09:04:13.000Z</time>
      </trkpt>
      <trkpt lat="43.95995" lon="7.26962">
        <ele>693.1</ele>
        <time>2025-01-18T09:04:16.000Z</time>
      </trkpt>
      <trkpt lat="43.96" lon="7.26965">
        <ele>693.4</ele>
        <time>2025-01-18T09:04:19.000Z</time>
      </trkpt>
      <trkpt lat="43.96005" lon="7.26967">
        <ele>693.7</ele>
        <time>2025-01-18T09:04:22.000Z</time>
      </trkpt>
      <trkpt lat="43.9601" lon="7.26969">
        <ele>693.9</ele>
        <time>2025-01-18T09:04:25.000Z</time>
      </trkpt>
      <trkpt lat="43.96015" lon="7.26971">
        <ele>694.1</ele>
        <time>2025-01-18T09:04:28.000Z</time>
      </trkpt>
      <trkpt lat="43.9602" lon="7.26972">
        <ele>694.2</ele>
        <time>2025-01-18T09:04:30.000Z</time>
      </trkpt>
      <trkpt lat="43.96025" lon="7.26975">
        <ele>694.3</ele>
        <time>2025-01-18T09:04:32.000Z</time>
      </trkpt>
      <trkpt lat="43.96029" lon="7.26978">
        <ele>694.4</ele>
        <time>2025-01-18T09:04:34.000Z</time>
      </trkpt>
      <trkpt lat="43.96033" lon="7.26983">
        <ele>694.5</ele>
        <time>2025-01-18T09:04:36.000Z</time>
      </trkpt>
      <trkpt lat="43.96038" lon="7.26987">
        <ele>694.6</ele>
        <time>2025-01-18T09:04:38.000Z</time>
      </trkpt>
      <trkpt lat="43.96042" lon="7.26989">
        <ele>694.7</ele>
        <time>2025-01-18T09:04:40.000Z</time>
      </trkpt>
      <trkpt lat="43.96048" lon="7.26989">
        <ele>694.8</ele>
        <time>2025-01-18T09:04:43.000Z</time>
      </trkpt>
      <trkpt lat="43.96053" lon="7.26987">
        <ele>694.8</ele>
        <time>2025-01-18T09:04:46.000Z</time>
      </trkpt>
      <trkpt lat="43.96058" lon="7.26987">
        <ele>694.8</ele>
        <time>2025-01-18T09:04:48.000Z</time>
      </trkpt>
      <trkpt lat="43.96063" lon="7.26986">
        <ele>694.7</ele>
        <time>2025-01-18T09:04:50.000Z</time>
      </trkpt>
      <trkpt lat="43.96069" lon="7.26987">
        <ele>694.8</ele>
        <time>2025-01-18T09:04:53.000Z</time>
      </trkpt>
      <trkpt lat="43.96073" lon="7.26987">
        <ele>694.9</ele>
        <time>2025-01-18T09:04:55.000Z</time>
      </trkpt>
      <trkpt lat="43.96081" lon="7.26985">
        <ele>695</ele>
        <time>2025-01-18T09:04:58.000Z</time>
      </trkpt>
      <trkpt lat="43.96086" lon="7.26986">
        <ele>695</ele>
        <time>2025-01-18T09:05:00.000Z</time>
      </trkpt>
      <trkpt lat="43.96092" lon="7.26986">
        <ele>695.1</ele>
        <time>2025-01-18T09:05:03.000Z</time>
      </trkpt>
      <trkpt lat="43.96099" lon="7.26988">
        <ele>695.2</ele>
        <time>2025-01-18T09:05:05.000Z</time>
      </trkpt>
      <trkpt lat="43.96104" lon="7.2699">
        <ele>695.2</ele>
        <time>2025-01-18T09:05:07.000Z</time>
      </trkpt>
      <trkpt lat="43.96109" lon="7.26989">
        <ele>695.3</ele>
        <time>2025-01-18T09:05:09.000Z</time>
      </trkpt>
      <trkpt lat="43.96115" lon="7.2699">
        <ele>695.4</ele>
        <time>2025-01-18T09:05:12.000Z</time>
      </trkpt>
      <trkpt lat="43.9612" lon="7.26993">
        <ele>695.5</ele>
        <time>2025-01-18T09:05:15.000Z</time>
      </trkpt>
      <trkpt lat="43.96124" lon="7.26997">
        <ele>695.8</ele>
        <time>2025-01-18T09:05:18.000Z</time>
      </trkpt>
      <trkpt lat="43.96128" lon="7.26999">
        <ele>696.3</ele>
        <time>2025-01-18T09:05:22.000Z</time>
      </trkpt>
      <trkpt lat="43.96134" lon="7.27002">
        <ele>696.8</ele>
        <time>2025-01-18T09:05:25.000Z</time>
      </trkpt>
      <trkpt lat="43.9614" lon="7.27002">
        <ele>697.3</ele>
        <time>2025-01-18T09:05:28.000Z</time>
      </trkpt>
      <trkpt lat="43.96144" lon="7.27004">
        <ele>697.9</ele>
        <time>2025-01-18T09:05:31.000Z</time>
      </trkpt>
      <trkpt lat="43.9615" lon="7.27005">
        <ele>698.6</ele>
        <time>2025-01-18T09:05:35.000Z</time>
      </trkpt>
      <trkpt lat="43.96155" lon="7.27003">
        <ele>699.2</ele>
        <time>2025-01-18T09:05:38.000Z</time>
      </trkpt>
      <trkpt lat="43.96159" lon="7.26998">
        <ele>700</ele>
        <time>2025-01-18T09:05:42.000Z</time>
      </trkpt>
      <trkpt lat="43.96162" lon="7.26992">
        <ele>700.7</ele>
        <time>2025-01-18T09:05:45.000Z</time>
      </trkpt>
      <trkpt lat="43.96167" lon="7.26986">
        <ele>701.4</ele>
        <time>2025-01-18T09:05:48.000Z</time>
      </trkpt>
      <trkpt lat="43.9617" lon="7.26979">
        <ele>701.8</ele>
        <time>2025-01-18T09:05:51.000Z</time>
      </trkpt>
      <trkpt lat="43.96172" lon="7.26972">
        <ele>702.1</ele>
        <time>2025-01-18T09:05:54.000Z</time>
      </trkpt>
      <trkpt lat="43.96177" lon="7.26968">
        <ele>702.4</ele>
        <time>2025-01-18T09:05:57.000Z</time>
      </trkpt>
      <trkpt lat="43.96182" lon="7.26964">
        <ele>702.5</ele>
        <time>2025-01-18T09:06:00.000Z</time>
      </trkpt>
      <trkpt lat="43.96188" lon="7.26962">
        <ele>702.7</ele>
        <time>2025-01-18T09:06:03.000Z</time>
      </trkpt>
      <trkpt lat="43.96193" lon="7.2696">
        <ele>703</ele>
        <time>2025-01-18T09:06:06.000Z</time>
      </trkpt>
      <trkpt lat="43.96198" lon="7.26958">
        <ele>703.2</ele>
        <time>2025-01-18T09:06:09.000Z</time>
      </trkpt>
      <trkpt lat="43.96202" lon="7.26953">
        <ele>703.5</ele>
        <time>2025-01-18T09:06:12.000Z</time>
      </trkpt>
      <trkpt lat="43.96207" lon="7.26949">
        <ele>704.1</ele>
        <time>2025-01-18T09:06:16.000Z</time>
      </trkpt>
      <trkpt lat="43.96211" lon="7.26944">
        <ele>704.8</ele>
        <time>2025-01-18T09:06:20.000Z</time>
      </trkpt>
      <trkpt lat="43.96216" lon="7.26943">
        <ele>705.5</ele>
        <time>2025-01-18T09:06:24.000Z</time>
      </trkpt>
      <trkpt lat="43.96222" lon="7.26943">
        <ele>706.3</ele>
        <time>2025-01-18T09:06:28.000Z</time>
      </trkpt>
      <trkpt lat="43.96227" lon="7.2694">
        <ele>707.1</ele>
        <time>2025-01-18T09:06:32.000Z</time>
      </trkpt>
      <trkpt lat="43.96231" lon="7.26935">
        <ele>707.9</ele>
        <time>2025-01-18T09:06:37.000Z</time>
      </trkpt>
      <trkpt lat="43.96235" lon="7.26929">
        <ele>708.3</ele>
        <time>2025-01-18T09:06:41.000Z</time>
      </trkpt>
      <trkpt lat="43.96239" lon="7.26926">
        <ele>708.6</ele>
        <time>2025-01-18T09:06:44.000Z</time>
      </trkpt>
      <trkpt lat="43.96242" lon="7.26921">
        <ele>708.9</ele>
        <time>2025-01-18T09:06:47.000Z</time>
      </trkpt>
      <trkpt lat="43.96246" lon="7.26916">
        <ele>709.1</ele>
        <time>2025-01-18T09:06:50.000Z</time>
      </trkpt>
      <trkpt lat="43.9625" lon="7.26912">
        <ele>709.4</ele>
        <time>2025-01-18T09:06:53.000Z</time>
      </trkpt>
      <trkpt lat="43.96255" lon="7.26907">
        <ele>709.7</ele>
        <time>2025-01-18T09:06:57.000Z</time>
      </trkpt>
      <trkpt lat="43.96259" lon="7.26903">
        <ele>710.1</ele>
        <time>2025-01-18T09:07:01.000Z</time>
      </trkpt>
      <trkpt lat="43.96263" lon="7.26899">
        <ele>710.3</ele>
        <time>2025-01-18T09:07:04.000Z</time>
      </trkpt>
      <trkpt lat="43.96267" lon="7.26893">
        <ele>711</ele>
        <time>2025-01-18T09:07:09.000Z</time>
      </trkpt>
      <trkpt lat="43.96271" lon="7.26888">
        <ele>712.2</ele>
        <time>2025-01-18T09:07:15.000Z</time>
      </trkpt>
      <trkpt lat="43.96275" lon="7.26883">
        <ele>713.1</ele>
        <time>2025-01-18T09:07:19.000Z</time>
      </trkpt>
      <trkpt lat="43.96278" lon="7.26878">
        <ele>714.2</ele>
        <time>2025-01-18T09:07:23.000Z</time>
      </trkpt>
      <trkpt lat="43.96281" lon="7.26873">
        <ele>714.7</ele>
        <time>2025-01-18T09:07:26.000Z</time>
      </trkpt>
      <trkpt lat="43.96285" lon="7.26869">
        <ele>715.2</ele>
        <time>2025-01-18T09:07:29.000Z</time>
      </trkpt>
      <trkpt lat="43.96288" lon="7.26864">
        <ele>715.6</ele>
        <time>2025-01-18T09:07:32.000Z</time>
      </trkpt>
      <trkpt lat="43.96291" lon="7.26858">
        <ele>716</ele>
        <time>2025-01-18T09:07:35.000Z</time>
      </trkpt>
      <trkpt lat="43.96294" lon="7.26853">
        <ele>716.2</ele>
        <time>2025-01-18T09:07:38.000Z</time>
      </trkpt>
      <trkpt lat="43.96295" lon="7.26844">
        <ele>716.7</ele>
        <time>2025-01-18T09:07:42.000Z</time>
      </trkpt>
      <trkpt lat="43.96297" lon="7.26838">
        <ele>717.1</ele>
        <time>2025-01-18T09:07:45.000Z</time>
      </trkpt>
      <trkpt lat="43.963" lon="7.26832">
        <ele>717.9</ele>
        <time>2025-01-18T09:07:49.000Z</time>
      </trkpt>
      <trkpt lat="43.96305" lon="7.26827">
        <ele>718.4</ele>
        <time>2025-01-18T09:07:53.000Z</time>
      </trkpt>
      <trkpt lat="43.96308" lon="7.26822">
        <ele>718.9</ele>
        <time>2025-01-18T09:07:57.000Z</time>
      </trkpt>
      <trkpt lat="43.96312" lon="7.26821">
        <ele>719.3</ele>
        <time>2025-01-18T09:08:01.000Z</time>
      </trkpt>
      <trkpt lat="43.96317" lon="7.2682">
        <ele>719.9</ele>
        <time>2025-01-18T09:08:06.000Z</time>
      </trkpt>
      <trkpt lat="43.96322" lon="7.2682">
        <ele>720.5</ele>
        <time>2025-01-18T09:08:10.000Z</time>
      </trkpt>
      <trkpt lat="43.96327" lon="7.26822">
        <ele>721.1</ele>
        <time>2025-01-18T09:08:14.000Z</time>
      </trkpt>
      <trkpt lat="43.96333" lon="7.26822">
        <ele>721.6</ele>
        <time>2025-01-18T09:08:18.000Z</time>
      </trkpt>
      <trkpt lat="43.96337" lon="7.2682">
        <ele>722</ele>
        <time>2025-01-18T09:08:22.000Z</time>
      </trkpt>
      <trkpt lat="43.96343" lon="7.26821">
        <ele>722.3</ele>
        <time>2025-01-18T09:08:26.000Z</time>
      </trkpt>
      <trkpt lat="43.96348" lon="7.26822">
        <ele>722.4</ele>
        <time>2025-01-18T09:08:29.000Z</time>
      </trkpt>
      <trkpt lat="43.96354" lon="7.26823">
        <ele>722.5</ele>
        <time>2025-01-18T09:08:32.000Z</time>
      </trkpt>
      <trkpt lat="43.9636" lon="7.26823">
        <ele>722.6</ele>
        <time>2025-01-18T09:08:35.000Z</time>
      </trkpt>
      <trkpt lat="43.96365" lon="7.26826">
        <ele>722.7</ele>
        <time>2025-01-18T09:08:37.000Z</time>
      </trkpt>
      <trkpt lat="43.96371" lon="7.26827">
        <ele>722.8</ele>
        <time>2025-01-18T09:08:40.000Z</time>
      </trkpt>
      <trkpt lat="43.96376" lon="7.26826">
        <ele>723.1</ele>
        <time>2025-01-18T09:08:43.000Z</time>
      </trkpt>
      <trkpt lat="43.9638" lon="7.26826">
        <ele>723.7</ele>
        <time>2025-01-18T09:08:47.000Z</time>
      </trkpt>
      <trkpt lat="43.96384" lon="7.2682">
        <ele>724.2</ele>
        <time>2025-01-18T09:08:50.000Z</time>
      </trkpt>
      <trkpt lat="43.96389" lon="7.26821">
        <ele>724.6</ele>
        <time>2025-01-18T09:08:52.000Z</time>
      </trkpt>
      <trkpt lat="43.96395" lon="7.2682">
        <ele>725.1</ele>
        <time>2025-01-18T09:08:55.000Z</time>
      </trkpt>
      <trkpt lat="43.96398" lon="7.26814">
        <ele>725.3</ele>
        <time>2025-01-18T09:08:57.000Z</time>
      </trkpt>
      <trkpt lat="43.96401" lon="7.26809">
        <ele>725.5</ele>
        <time>2025-01-18T09:08:59.000Z</time>
      </trkpt>
      <trkpt lat="43.96406" lon="7.26809">
        <ele>725.8</ele>
        <time>2025-01-18T09:09:02.000Z</time>
      </trkpt>
      <trkpt lat="43.96412" lon="7.26814">
        <ele>726.1</ele>
        <time>2025-01-18T09:09:05.000Z</time>
      </trkpt>
      <trkpt lat="43.96417" lon="7.26816">
        <ele>726.3</ele>
        <time>2025-01-18T09:09:07.000Z</time>
      </trkpt>
      <trkpt lat="43.96424" lon="7.2682">
        <ele>726.5</ele>
        <time>2025-01-18T09:09:10.000Z</time>
      </trkpt>
      <trkpt lat="43.96429" lon="7.26822">
        <ele>726.6</ele>
        <time>2025-01-18T09:09:12.000Z</time>
      </trkpt>
      <trkpt lat="43.96435" lon="7.26823">
        <ele>726.8</ele>
        <time>2025-01-18T09:09:16.000Z</time>
      </trkpt>
      <trkpt lat="43.96441" lon="7.26828">
        <ele>727</ele>
        <time>2025-01-18T09:09:19.000Z</time>
      </trkpt>
      <trkpt lat="43.96446" lon="7.26831">
        <ele>727.2</ele>
        <time>2025-01-18T09:09:22.000Z</time>
      </trkpt>
      <trkpt lat="43.9645" lon="7.26835">
        <ele>727.4</ele>
        <time>2025-01-18T09:09:24.000Z</time>
      </trkpt>
      <trkpt lat="43.96455" lon="7.26839">
        <ele>727.6</ele>
        <time>2025-01-18T09:09:27.000Z</time>
      </trkpt>
      <trkpt lat="43.96459" lon="7.26842">
        <ele>727.7</ele>
        <time>2025-01-18T09:09:29.000Z</time>
      </trkpt>
      <trkpt lat="43.96464" lon="7.26846">
        <ele>727.8</ele>
        <time>2025-01-18T09:09:31.000Z</time>
      </trkpt>
      <trkpt lat="43.96469" lon="7.26848">
        <ele>728.1</ele>
        <time>2025-01-18T09:09:34.000Z</time>
      </trkpt>
      <trkpt lat="43.96474" lon="7.26852">
        <ele>728.3</ele>
        <time>2025-01-18T09:09:37.000Z</time>
      </trkpt>
      <trkpt lat="43.96478" lon="7.26855">
        <ele>728.6</ele>
        <time>2025-01-18T09:09:40.000Z</time>
      </trkpt>
      <trkpt lat="43.96482" lon="7.26859">
        <ele>729.2</ele>
        <time>2025-01-18T09:09:44.000Z</time>
      </trkpt>
      <trkpt lat="43.96487" lon="7.26859">
        <ele>729.6</ele>
        <time>2025-01-18T09:09:47.000Z</time>
      </trkpt>
      <trkpt lat="43.96491" lon="7.26864">
        <ele>730.2</ele>
        <time>2025-01-18T09:09:51.000Z</time>
      </trkpt>
      <trkpt lat="43.96496" lon="7.26866">
        <ele>730.8</ele>
        <time>2025-01-18T09:09:55.000Z</time>
      </trkpt>
      <trkpt lat="43.965" lon="7.2687">
        <ele>731.2</ele>
        <time>2025-01-18T09:09:58.000Z</time>
      </trkpt>
      <trkpt lat="43.96505" lon="7.26869">
        <ele>731.6</ele>
        <time>2025-01-18T09:10:02.000Z</time>
      </trkpt>
      <trkpt lat="43.96509" lon="7.26864">
        <ele>731.9</ele>
        <time>2025-01-18T09:10:06.000Z</time>
      </trkpt>
      <trkpt lat="43.96514" lon="7.26861">
        <ele>732.1</ele>
        <time>2025-01-18T09:10:10.000Z</time>
      </trkpt>
      <trkpt lat="43.96519" lon="7.26861">
        <ele>732.4</ele>
        <time>2025-01-18T09:10:13.000Z</time>
      </trkpt>
      <trkpt lat="43.96525" lon="7.26857">
        <ele>732.6</ele>
        <time>2025-01-18T09:10:16.000Z</time>
      </trkpt>
      <trkpt lat="43.96527" lon="7.26852">
        <ele>733</ele>
        <time>2025-01-18T09:10:19.000Z</time>
      </trkpt>
      <trkpt lat="43.96531" lon="7.26846">
        <ele>733.5</ele>
        <time>2025-01-18T09:10:23.000Z</time>
      </trkpt>
      <trkpt lat="43.96536" lon="7.26846">
        <ele>733.8</ele>
        <time>2025-01-18T09:10:26.000Z</time>
      </trkpt>
      <trkpt lat="43.96542" lon="7.26848">
        <ele>734.4</ele>
        <time>2025-01-18T09:10:30.000Z</time>
      </trkpt>
      <trkpt lat="43.96547" lon="7.26847">
        <ele>734.8</ele>
        <time>2025-01-18T09:10:33.000Z</time>
      </trkpt>
      <trkpt lat="43.96552" lon="7.26848">
        <ele>735.3</ele>
        <time>2025-01-18T09:10:37.000Z</time>
      </trkpt>
      <trkpt lat="43.96557" lon="7.2685">
        <ele>736</ele>
        <time>2025-01-18T09:10:42.000Z</time>
      </trkpt>
      <trkpt lat="43.96563" lon="7.2685">
        <ele>736.9</ele>
        <time>2025-01-18T09:10:47.000Z</time>
      </trkpt>
      <trkpt lat="43.96568" lon="7.26851">
        <ele>737.5</ele>
        <time>2025-01-18T09:10:50.000Z</time>
      </trkpt>
      <trkpt lat="43.96573" lon="7.2685">
        <ele>738.1</ele>
        <time>2025-01-18T09:10:54.000Z</time>
      </trkpt>
      <trkpt lat="43.96578" lon="7.2685">
        <ele>738.6</ele>
        <time>2025-01-18T09:10:58.000Z</time>
      </trkpt>
      <trkpt lat="43.96583" lon="7.26852">
        <ele>739.1</ele>
        <time>2025-01-18T09:11:02.000Z</time>
      </trkpt>
      <trkpt lat="43.96589" lon="7.26856">
        <ele>739.4</ele>
        <time>2025-01-18T09:11:05.000Z</time>
      </trkpt>
      <trkpt lat="43.96594" lon="7.26856">
        <ele>739.8</ele>
        <time>2025-01-18T09:11:08.000Z</time>
      </trkpt>
      <trkpt lat="43.96598" lon="7.26858">
        <ele>740.1</ele>
        <time>2025-01-18T09:11:11.000Z</time>
      </trkpt>
      <trkpt lat="43.96603" lon="7.26857">
        <ele>740.4</ele>
        <time>2025-01-18T09:11:15.000Z</time>
      </trkpt>
      <trkpt lat="43.96609" lon="7.26856">
        <ele>740.9</ele>
        <time>2025-01-18T09:11:20.000Z</time>
      </trkpt>
      <trkpt lat="43.96615" lon="7.26857">
        <ele>741.3</ele>
        <time>2025-01-18T09:11:23.000Z</time>
      </trkpt>
      <trkpt lat="43.9662" lon="7.26859">
        <ele>741.7</ele>
        <time>2025-01-18T09:11:26.000Z</time>
      </trkpt>
      <trkpt lat="43.96623" lon="7.26854">
        <ele>742</ele>
        <time>2025-01-18T09:11:29.000Z</time>
      </trkpt>
      <trkpt lat="43.96627" lon="7.2685">
        <ele>742.5</ele>
        <time>2025-01-18T09:11:32.000Z</time>
      </trkpt>
      <trkpt lat="43.96631" lon="7.26846">
        <ele>743.2</ele>
        <time>2025-01-18T09:11:36.000Z</time>
      </trkpt>
      <trkpt lat="43.96635" lon="7.26842">
        <ele>743.8</ele>
        <time>2025-01-18T09:11:40.000Z</time>
      </trkpt>
      <trkpt lat="43.9664" lon="7.26839">
        <ele>744.7</ele>
        <time>2025-01-18T09:11:44.000Z</time>
      </trkpt>
      <trkpt lat="43.96645" lon="7.26838">
        <ele>745.3</ele>
        <time>2025-01-18T09:11:47.000Z</time>
      </trkpt>
      <trkpt lat="43.96649" lon="7.2684">
        <ele>746.1</ele>
        <time>2025-01-18T09:11:50.000Z</time>
      </trkpt>
      <trkpt lat="43.96654" lon="7.2684">
        <ele>747</ele>
        <time>2025-01-18T09:11:54.000Z</time>
      </trkpt>
      <trkpt lat="43.96659" lon="7.26835">
        <ele>747.6</ele>
        <time>2025-01-18T09:11:58.000Z</time>
      </trkpt>
      <trkpt lat="43.96664" lon="7.26831">
        <ele>748.2</ele>
        <time>2025-01-18T09:12:02.000Z</time>
      </trkpt>
      <trkpt lat="43.96668" lon="7.26828">
        <ele>749</ele>
        <time>2025-01-18T09:12:07.000Z</time>
      </trkpt>
      <trkpt lat="43.96673" lon="7.26823">
        <ele>749.6</ele>
        <time>2025-01-18T09:12:12.000Z</time>
      </trkpt>
      <trkpt lat="43.96676" lon="7.26818">
        <ele>750.1</ele>
        <time>2025-01-18T09:12:15.000Z</time>
      </trkpt>
      <trkpt lat="43.96677" lon="7.26811">
        <ele>750.4</ele>
        <time>2025-01-18T09:12:18.000Z</time>
      </trkpt>
      <trkpt lat="43.9668" lon="7.26805">
        <ele>751</ele>
        <time>2025-01-18T09:12:22.000Z</time>
      </trkpt>
      <trkpt lat="43.96683" lon="7.268">
        <ele>751.7</ele>
        <time>2025-01-18T09:12:26.000Z</time>
      </trkpt>
      <trkpt lat="43.96687" lon="7.26795">
        <ele>752.5</ele>
        <time>2025-01-18T09:12:30.000Z</time>
      </trkpt>
      <trkpt lat="43.96691" lon="7.26792">
        <ele>753.1</ele>
        <time>2025-01-18T09:12:34.000Z</time>
      </trkpt>
      <trkpt lat="43.96693" lon="7.26785">
        <ele>753.6</ele>
        <time>2025-01-18T09:12:37.000Z</time>
      </trkpt>
      <trkpt lat="43.96695" lon="7.26777">
        <ele>754.2</ele>
        <time>2025-01-18T09:12:41.000Z</time>
      </trkpt>
      <trkpt lat="43.96699" lon="7.26771">
        <ele>754.9</ele>
        <time>2025-01-18T09:12:45.000Z</time>
      </trkpt>
      <trkpt lat="43.96703" lon="7.26766">
        <ele>755.5</ele>
        <time>2025-01-18T09:12:50.000Z</time>
      </trkpt>
      <trkpt lat="43.96707" lon="7.26763">
        <ele>756</ele>
        <time>2025-01-18T09:12:55.000Z</time>
      </trkpt>
      <trkpt lat="43.96711" lon="7.26761">
        <ele>756.9</ele>
        <time>2025-01-18T09:13:00.000Z</time>
      </trkpt>
      <trkpt lat="43.96716" lon="7.26761">
        <ele>757.6</ele>
        <time>2025-01-18T09:13:04.000Z</time>
      </trkpt>
      <trkpt lat="43.96721" lon="7.26762">
        <ele>758.3</ele>
        <time>2025-01-18T09:13:08.000Z</time>
      </trkpt>
      <trkpt lat="43.96726" lon="7.26761">
        <ele>758.9</ele>
        <time>2025-01-18T09:13:12.000Z</time>
      </trkpt>
      <trkpt lat="43.96731" lon="7.26759">
        <ele>759.7</ele>
        <time>2025-01-18T09:13:17.000Z</time>
      </trkpt>
      <trkpt lat="43.96736" lon="7.26758">
        <ele>760.5</ele>
        <time>2025-01-18T09:13:21.000Z</time>
      </trkpt>
      <trkpt lat="43.96741" lon="7.26755">
        <ele>761.4</ele>
        <time>2025-01-18T09:13:26.000Z</time>
      </trkpt>
      <trkpt lat="43.96746" lon="7.26753">
        <ele>762.2</ele>
        <time>2025-01-18T09:13:30.000Z</time>
      </trkpt>
      <trkpt lat="43.96751" lon="7.26749">
        <ele>763.1</ele>
        <time>2025-01-18T09:13:34.000Z</time>
      </trkpt>
      <trkpt lat="43.96754" lon="7.26743">
        <ele>763.9</ele>
        <time>2025-01-18T09:13:38.000Z</time>
      </trkpt>
      <trkpt lat="43.96756" lon="7.26737">
        <ele>764.2</ele>
        <time>2025-01-18T09:13:40.000Z</time>
      </trkpt>
      <trkpt lat="43.96756" lon="7.26729">
        <ele>764.5</ele>
        <time>2025-01-18T09:13:42.000Z</time>
      </trkpt>
      <trkpt lat="43.96758" lon="7.26721">
        <ele>764.9</ele>
        <time>2025-01-18T09:13:45.000Z</time>
      </trkpt>
      <trkpt lat="43.9676" lon="7.26713">
        <ele>765.3</ele>
        <time>2025-01-18T09:13:48.000Z</time>
      </trkpt>
      <trkpt lat="43.96765" lon="7.26709">
        <ele>765.8</ele>
        <time>2025-01-18T09:13:52.000Z</time>
      </trkpt>
      <trkpt lat="43.96765" lon="7.26706">
        <ele>766.1</ele>
        <time>2025-01-18T09:13:59.000Z</time>
      </trkpt>
      <trkpt lat="43.96765" lon="7.26706">
        <ele>766.2</ele>
        <time>2025-01-18T09:14:00.000Z</time>
      </trkpt>
      <trkpt lat="43.96765" lon="7.26706">
        <ele>766.2</ele>
        <time>2025-01-18T09:14:01.000Z</time>
      </trkpt>
      <trkpt lat="43.9677" lon="7.26706">
        <ele>766.1</ele>
        <time>2025-01-18T09:14:47.000Z</time>
      </trkpt>
      <trkpt lat="43.96765" lon="7.26705">
        <ele>765.4</ele>
        <time>2025-01-18T09:16:23.000Z</time>
      </trkpt>
      <trkpt lat="43.9677" lon="7.26704">
        <ele>765.4</ele>
        <time>2025-01-18T09:17:12.000Z</time>
      </trkpt>
      <trkpt lat="43.96766" lon="7.26709">
        <ele>765.6</ele>
        <time>2025-01-18T09:17:46.000Z</time>
      </trkpt>
      <trkpt lat="43.96765" lon="7.26708">
        <ele>765.6</ele>
        <time>2025-01-18T09:18:00.000Z</time>
      </trkpt>
      <trkpt lat="43.96765" lon="7.26708">
        <ele>765.6</ele>
        <time>2025-01-18T09:18:01.000Z</time>
      </trkpt>
      <trkpt lat="43.96766" lon="7.267">
        <ele>765.7</ele>
        <time>2025-01-18T09:18:14.000Z</time>
      </trkpt>
      <trkpt lat="43.96771" lon="7.26698">
        <ele>765.8</ele>
        <time>2025-01-18T09:18:20.000Z</time>
      </trkpt>
      <trkpt lat="43.96776" lon="7.26695">
        <ele>765.9</ele>
        <time>2025-01-18T09:18:24.000Z</time>
      </trkpt>
      <trkpt lat="43.96781" lon="7.26696">
        <ele>766.3</ele>
        <time>2025-01-18T09:18:28.000Z</time>
      </trkpt>
      <trkpt lat="43.96785" lon="7.26699">
        <ele>766.8</ele>
        <time>2025-01-18T09:18:31.000Z</time>
      </trkpt>
      <trkpt lat="43.96791" lon="7.267">
        <ele>767.6</ele>
        <time>2025-01-18T09:18:35.000Z</time>
      </trkpt>
      <trkpt lat="43.96796" lon="7.26703">
        <ele>769.1</ele>
        <time>2025-01-18T09:18:42.000Z</time>
      </trkpt>
      <trkpt lat="43.96802" lon="7.26704">
        <ele>770</ele>
        <time>2025-01-18T09:18:47.000Z</time>
      </trkpt>
      <trkpt lat="43.96806" lon="7.26707">
        <ele>770.6</ele>
        <time>2025-01-18T09:18:50.000Z</time>
      </trkpt>
      <trkpt lat="43.96811" lon="7.26707">
        <ele>771.1</ele>
        <time>2025-01-18T09:18:53.000Z</time>
      </trkpt>
      <trkpt lat="43.96817" lon="7.26709">
        <ele>771.8</ele>
        <time>2025-01-18T09:18:57.000Z</time>
      </trkpt>
      <trkpt lat="43.96822" lon="7.26709">
        <ele>772.5</ele>
        <time>2025-01-18T09:19:01.000Z</time>
      </trkpt>
      <trkpt lat="43.96828" lon="7.2671">
        <ele>773</ele>
        <time>2025-01-18T09:19:04.000Z</time>
      </trkpt>
      <trkpt lat="43.96833" lon="7.26713">
        <ele>773.6</ele>
        <time>2025-01-18T09:19:07.000Z</time>
      </trkpt>
      <trkpt lat="43.96837" lon="7.26715">
        <ele>774.2</ele>
        <time>2025-01-18T09:19:10.000Z</time>
      </trkpt>
      <trkpt lat="43.96842" lon="7.26715">
        <ele>775.1</ele>
        <time>2025-01-18T09:19:16.000Z</time>
      </trkpt>
      <trkpt lat="43.96846" lon="7.2672">
        <ele>775.6</ele>
        <time>2025-01-18T09:19:20.000Z</time>
      </trkpt>
      <trkpt lat="43.96851" lon="7.26719">
        <ele>776.8</ele>
        <time>2025-01-18T09:19:25.000Z</time>
      </trkpt>
      <trkpt lat="43.96856" lon="7.26716">
        <ele>777.6</ele>
        <time>2025-01-18T09:19:29.000Z</time>
      </trkpt>
      <trkpt lat="43.96861" lon="7.26714">
        <ele>778.5</ele>
        <time>2025-01-18T09:19:33.000Z</time>
      </trkpt>
      <trkpt lat="43.96865" lon="7.26709">
        <ele>779.1</ele>
        <time>2025-01-18T09:19:36.000Z</time>
      </trkpt>
      <trkpt lat="43.96868" lon="7.26705">
        <ele>779.5</ele>
        <time>2025-01-18T09:19:39.000Z</time>
      </trkpt>
      <trkpt lat="43.96873" lon="7.26702">
        <ele>779.8</ele>
        <time>2025-01-18T09:19:42.000Z</time>
      </trkpt>
      <trkpt lat="43.96875" lon="7.26696">
        <ele>780.1</ele>
        <time>2025-01-18T09:19:46.000Z</time>
      </trkpt>
      <trkpt lat="43.96878" lon="7.26703">
        <ele>780.9</ele>
        <time>2025-01-18T09:19:53.000Z</time>
      </trkpt>
      <trkpt lat="43.96878" lon="7.2671">
        <ele>781.3</ele>
        <time>2025-01-18T09:19:57.000Z</time>
      </trkpt>
      <trkpt lat="43.96876" lon="7.26717">
        <ele>781.6</ele>
        <time>2025-01-18T09:20:00.000Z</time>
      </trkpt>
      <trkpt lat="43.96878" lon="7.26725">
        <ele>781.9</ele>
        <time>2025-01-18T09:20:04.000Z</time>
      </trkpt>
      <trkpt lat="43.96882" lon="7.26731">
        <ele>782.2</ele>
        <time>2025-01-18T09:20:07.000Z</time>
      </trkpt>
      <trkpt lat="43.96885" lon="7.26738">
        <ele>782.6</ele>
        <time>2025-01-18T09:20:10.000Z</time>
      </trkpt>
      <trkpt lat="43.96887" lon="7.26745">
        <ele>783</ele>
        <time>2025-01-18T09:20:13.000Z</time>
      </trkpt>
      <trkpt lat="43.96891" lon="7.26753">
        <ele>783.4</ele>
        <time>2025-01-18T09:20:16.000Z</time>
      </trkpt>
      <trkpt lat="43.96895" lon="7.26762">
        <ele>783.7</ele>
        <time>2025-01-18T09:20:19.000Z</time>
      </trkpt>
      <trkpt lat="43.96899" lon="7.2677">
        <ele>784</ele>
        <time>2025-01-18T09:20:22.000Z</time>
      </trkpt>
      <trkpt lat="43.96901" lon="7.2678">
        <ele>784.2</ele>
        <time>2025-01-18T09:20:24.000Z</time>
      </trkpt>
      <trkpt lat="43.96904" lon="7.26785">
        <ele>784.3</ele>
        <time>2025-01-18T09:20:26.000Z</time>
      </trkpt>
      <trkpt lat="43.96908" lon="7.26791">
        <ele>784.6</ele>
        <time>2025-01-18T09:20:29.000Z</time>
      </trkpt>
      <trkpt lat="43.96911" lon="7.26796">
        <ele>784.7</ele>
        <time>2025-01-18T09:20:31.000Z</time>
      </trkpt>
      <trkpt lat="43.96928" lon="7.26819">
        <ele>785.2</ele>
        <time>2025-01-18T09:20:56.000Z</time>
      </trkpt>
      <trkpt lat="43.9695" lon="7.26821">
        <ele>785.7</ele>
        <time>2025-01-18T09:21:12.000Z</time>
      </trkpt>
      <trkpt lat="43.96954" lon="7.26826">
        <ele>787.3</ele>
        <time>2025-01-18T09:21:15.000Z</time>
      </trkpt>
      <trkpt lat="43.96959" lon="7.26825">
        <ele>788.1</ele>
        <time>2025-01-18T09:21:17.000Z</time>
      </trkpt>
      <trkpt lat="43.96963" lon="7.2682">
        <ele>789</ele>
        <time>2025-01-18T09:21:20.000Z</time>
      </trkpt>
      <trkpt lat="43.96968" lon="7.26821">
        <ele>789.6</ele>
        <time>2025-01-18T09:21:23.000Z</time>
      </trkpt>
      <trkpt lat="43.96972" lon="7.2682">
        <ele>789.9</ele>
        <time>2025-01-18T09:21:26.000Z</time>
      </trkpt>
      <trkpt lat="43.9698" lon="7.26819">
        <ele>790.4</ele>
        <time>2025-01-18T09:21:29.000Z</time>
      </trkpt>
      <trkpt lat="43.96985" lon="7.26818">
        <ele>790.5</ele>
        <time>2025-01-18T09:21:31.000Z</time>
      </trkpt>
      <trkpt lat="43.96991" lon="7.26814">
        <ele>790.6</ele>
        <time>2025-01-18T09:21:34.000Z</time>
      </trkpt>
      <trkpt lat="43.96996" lon="7.2681">
        <ele>790.6</ele>
        <time>2025-01-18T09:21:37.000Z</time>
      </trkpt>
      <trkpt lat="43.97001" lon="7.26807">
        <ele>790.7</ele>
        <time>2025-01-18T09:21:39.000Z</time>
      </trkpt>
      <trkpt lat="43.97005" lon="7.26806">
        <ele>790.8</ele>
        <time>2025-01-18T09:21:42.000Z</time>
      </trkpt>
      <trkpt lat="43.9701" lon="7.26809">
        <ele>791.2</ele>
        <time>2025-01-18T09:21:46.000Z</time>
      </trkpt>
      <trkpt lat="43.97014" lon="7.26812">
        <ele>791.5</ele>
        <time>2025-01-18T09:21:48.000Z</time>
      </trkpt>
      <trkpt lat="43.9702" lon="7.26815">
        <ele>791.8</ele>
        <time>2025-01-18T09:21:51.000Z</time>
      </trkpt>
      <trkpt lat="43.97025" lon="7.26815">
        <ele>791.9</ele>
        <time>2025-01-18T09:21:53.000Z</time>
      </trkpt>
      <trkpt lat="43.97029" lon="7.26817">
        <ele>792.3</ele>
        <time>2025-01-18T09:21:56.000Z</time>
      </trkpt>
      <trkpt lat="43.97033" lon="7.26813">
        <ele>792.8</ele>
        <time>2025-01-18T09:22:01.000Z</time>
      </trkpt>
      <trkpt lat="43.9704" lon="7.26812">
        <ele>793.2</ele>
        <time>2025-01-18T09:22:05.000Z</time>
      </trkpt>
      <trkpt lat="43.97045" lon="7.26813">
        <ele>793.3</ele>
        <time>2025-01-18T09:22:07.000Z</time>
      </trkpt>
      <trkpt lat="43.9705" lon="7.26814">
        <ele>793.4</ele>
        <time>2025-01-18T09:22:09.000Z</time>
      </trkpt>
      <trkpt lat="43.97055" lon="7.26817">
        <ele>793.4</ele>
        <time>2025-01-18T09:22:11.000Z</time>
      </trkpt>
      <trkpt lat="43.9706" lon="7.26819">
        <ele>793.6</ele>
        <time>2025-01-18T09:22:14.000Z</time>
      </trkpt>
      <trkpt lat="43.97065" lon="7.26821">
        <ele>793.7</ele>
        <time>2025-01-18T09:22:17.000Z</time>
      </trkpt>
      <trkpt lat="43.97069" lon="7.26825">
        <ele>793.9</ele>
        <time>2025-01-18T09:22:19.000Z</time>
      </trkpt>
      <trkpt lat="43.97074" lon="7.26828">
        <ele>794.1</ele>
        <time>2025-01-18T09:22:22.000Z</time>
      </trkpt>
      <trkpt lat="43.9708" lon="7.26832">
        <ele>794.2</ele>
        <time>2025-01-18T09:22:24.000Z</time>
      </trkpt>
      <trkpt lat="43.97085" lon="7.26836">
        <ele>794.3</ele>
        <time>2025-01-18T09:22:26.000Z</time>
      </trkpt>
      <trkpt lat="43.97091" lon="7.26837">
        <ele>794.3</ele>
        <time>2025-01-18T09:22:28.000Z</time>
      </trkpt>
      <trkpt lat="43.97095" lon="7.26838">
        <ele>794.3</ele>
        <time>2025-01-18T09:22:30.000Z</time>
      </trkpt>
      <trkpt lat="43.97099" lon="7.2684">
        <ele>794.4</ele>
        <time>2025-01-18T09:22:32.000Z</time>
      </trkpt>
      <trkpt lat="43.97104" lon="7.26843">
        <ele>794.5</ele>
        <time>2025-01-18T09:22:34.000Z</time>
      </trkpt>
      <trkpt lat="43.9711" lon="7.26848">
        <ele>794.5</ele>
        <time>2025-01-18T09:22:36.000Z</time>
      </trkpt>
      <trkpt lat="43.97115" lon="7.26853">
        <ele>794.6</ele>
        <time>2025-01-18T09:22:38.000Z</time>
      </trkpt>
      <trkpt lat="43.97119" lon="7.26855">
        <ele>794.7</ele>
        <time>2025-01-18T09:22:40.000Z</time>
      </trkpt>
      <trkpt lat="43.97124" lon="7.26857">
        <ele>794.8</ele>
        <time>2025-01-18T09:22:42.000Z</time>
      </trkpt>
      <trkpt lat="43.97129" lon="7.26859">
        <ele>795.1</ele>
        <time>2025-01-18T09:22:45.000Z</time>
      </trkpt>
      <trkpt lat="43.97134" lon="7.26861">
        <ele>795.3</ele>
        <time>2025-01-18T09:22:48.000Z</time>
      </trkpt>
      <trkpt lat="43.97138" lon="7.26865">
        <ele>795.5</ele>
        <time>2025-01-18T09:22:51.000Z</time>
      </trkpt>
      <trkpt lat="43.97143" lon="7.26868">
        <ele>795.8</ele>
        <time>2025-01-18T09:22:54.000Z</time>
      </trkpt>
      <trkpt lat="43.97148" lon="7.26869">
        <ele>796</ele>
        <time>2025-01-18T09:22:57.000Z</time>
      </trkpt>
      <trkpt lat="43.97153" lon="7.26872">
        <ele>796.3</ele>
        <time>2025-01-18T09:23:00.000Z</time>
      </trkpt>
      <trkpt lat="43.97159" lon="7.26874">
        <ele>796.6</ele>
        <time>2025-01-18T09:23:05.000Z</time>
      </trkpt>
      <trkpt lat="43.97164" lon="7.26872">
        <ele>796.8</ele>
        <time>2025-01-18T09:23:09.000Z</time>
      </trkpt>
      <trkpt lat="43.97167" lon="7.26877">
        <ele>797.2</ele>
        <time>2025-01-18T09:23:14.000Z</time>
      </trkpt>
      <trkpt lat="43.97166" lon="7.26884">
        <ele>797.7</ele>
        <time>2025-01-18T09:23:19.000Z</time>
      </trkpt>
      <trkpt lat="43.97168" lon="7.2689">
        <ele>798</ele>
        <time>2025-01-18T09:23:23.000Z</time>
      </trkpt>
      <trkpt lat="43.97172" lon="7.26893">
        <ele>798.2</ele>
        <time>2025-01-18T09:23:26.000Z</time>
      </trkpt>
      <trkpt lat="43.97178" lon="7.26893">
        <ele>798.4</ele>
        <time>2025-01-18T09:23:29.000Z</time>
      </trkpt>
      <trkpt lat="43.97182" lon="7.26892">
        <ele>798.4</ele>
        <time>2025-01-18T09:23:31.000Z</time>
      </trkpt>
      <trkpt lat="43.97189" lon="7.26891">
        <ele>798.5</ele>
        <time>2025-01-18T09:23:34.000Z</time>
      </trkpt>
      <trkpt lat="43.97194" lon="7.26896">
        <ele>798.7</ele>
        <time>2025-01-18T09:23:37.000Z</time>
      </trkpt>
      <trkpt lat="43.97199" lon="7.26899">
        <ele>798.7</ele>
        <time>2025-01-18T09:23:39.000Z</time>
      </trkpt>
      <trkpt lat="43.97203" lon="7.269">
        <ele>798.8</ele>
        <time>2025-01-18T09:23:41.000Z</time>
      </trkpt>
      <trkpt lat="43.97207" lon="7.26906">
        <ele>799.1</ele>
        <time>2025-01-18T09:23:46.000Z</time>
      </trkpt>
      <trkpt lat="43.9721" lon="7.26912">
        <ele>799.5</ele>
        <time>2025-01-18T09:23:50.000Z</time>
      </trkpt>
      <trkpt lat="43.97214" lon="7.26915">
        <ele>799.9</ele>
        <time>2025-01-18T09:23:54.000Z</time>
      </trkpt>
      <trkpt lat="43.97219" lon="7.26918">
        <ele>800.5</ele>
        <time>2025-01-18T09:23:59.000Z</time>
      </trkpt>
      <trkpt lat="43.97222" lon="7.26923">
        <ele>801.2</ele>
        <time>2025-01-18T09:24:05.000Z</time>
      </trkpt>
      <trkpt lat="43.97226" lon="7.26927">
        <ele>801.6</ele>
        <time>2025-01-18T09:24:08.000Z</time>
      </trkpt>
      <trkpt lat="43.9723" lon="7.26933">
        <ele>801.9</ele>
        <time>2025-01-18T09:24:11.000Z</time>
      </trkpt>
      <trkpt lat="43.97233" lon="7.26937">
        <ele>802.2</ele>
        <time>2025-01-18T09:24:14.000Z</time>
      </trkpt>
      <trkpt lat="43.97236" lon="7.26945">
        <ele>802.4</ele>
        <time>2025-01-18T09:24:16.000Z</time>
      </trkpt>
      <trkpt lat="43.97238" lon="7.2695">
        <ele>802.6</ele>
        <time>2025-01-18T09:24:18.000Z</time>
      </trkpt>
      <trkpt lat="43.97239" lon="7.26958">
        <ele>803</ele>
        <time>2025-01-18T09:24:21.000Z</time>
      </trkpt>
      <trkpt lat="43.97239" lon="7.26966">
        <ele>803.4</ele>
        <time>2025-01-18T09:24:25.000Z</time>
      </trkpt>
      <trkpt lat="43.97241" lon="7.26973">
        <ele>803.7</ele>
        <time>2025-01-18T09:24:28.000Z</time>
      </trkpt>
      <trkpt lat="43.97244" lon="7.26977">
        <ele>803.8</ele>
        <time>2025-01-18T09:24:30.000Z</time>
      </trkpt>
      <trkpt lat="43.97249" lon="7.2698">
        <ele>804.1</ele>
        <time>2025-01-18T09:24:33.000Z</time>
      </trkpt>
      <trkpt lat="43.97254" lon="7.2698">
        <ele>804.2</ele>
        <time>2025-01-18T09:24:36.000Z</time>
      </trkpt>
      <trkpt lat="43.97254" lon="7.26971">
        <ele>804.5</ele>
        <time>2025-01-18T09:24:44.000Z</time>
      </trkpt>
      <trkpt lat="43.97256" lon="7.26965">
        <ele>804.5</ele>
        <time>2025-01-18T09:24:46.000Z</time>
      </trkpt>
      <trkpt lat="43.97259" lon="7.26958">
        <ele>804.6</ele>
        <time>2025-01-18T09:24:49.000Z</time>
      </trkpt>
      <trkpt lat="43.97261" lon="7.26949">
        <ele>804.6</ele>
        <time>2025-01-18T09:24:52.000Z</time>
      </trkpt>
      <trkpt lat="43.97263" lon="7.26943">
        <ele>804.7</ele>
        <time>2025-01-18T09:24:54.000Z</time>
      </trkpt>
      <trkpt lat="43.97264" lon="7.26937">
        <ele>804.7</ele>
        <time>2025-01-18T09:24:56.000Z</time>
      </trkpt>
      <trkpt lat="43.97266" lon="7.2693">
        <ele>804.7</ele>
        <time>2025-01-18T09:24:59.000Z</time>
      </trkpt>
      <trkpt lat="43.97269" lon="7.26922">
        <ele>804.8</ele>
        <time>2025-01-18T09:25:02.000Z</time>
      </trkpt>
      <trkpt lat="43.97273" lon="7.26915">
        <ele>804.9</ele>
        <time>2025-01-18T09:25:05.000Z</time>
      </trkpt>
      <trkpt lat="43.97277" lon="7.26911">
        <ele>805</ele>
        <time>2025-01-18T09:25:07.000Z</time>
      </trkpt>
      <trkpt lat="43.97281" lon="7.26907">
        <ele>805.2</ele>
        <time>2025-01-18T09:25:10.000Z</time>
      </trkpt>
      <trkpt lat="43.97283" lon="7.269">
        <ele>805.6</ele>
        <time>2025-01-18T09:25:13.000Z</time>
      </trkpt>
      <trkpt lat="43.97287" lon="7.26896">
        <ele>806.1</ele>
        <time>2025-01-18T09:25:16.000Z</time>
      </trkpt>
      <trkpt lat="43.97291" lon="7.26891">
        <ele>806.9</ele>
        <time>2025-01-18T09:25:20.000Z</time>
      </trkpt>
      <trkpt lat="43.97295" lon="7.26887">
        <ele>808</ele>
        <time>2025-01-18T09:25:25.000Z</time>
      </trkpt>
      <trkpt lat="43.97301" lon="7.2689">
        <ele>808.5</ele>
        <time>2025-01-18T09:25:29.000Z</time>
      </trkpt>
      <trkpt lat="43.97305" lon="7.26892">
        <ele>808.9</ele>
        <time>2025-01-18T09:25:33.000Z</time>
      </trkpt>
      <trkpt lat="43.9731" lon="7.26895">
        <ele>809.6</ele>
        <time>2025-01-18T09:25:41.000Z</time>
      </trkpt>
      <trkpt lat="43.97315" lon="7.26898">
        <ele>810</ele>
        <time>2025-01-18T09:25:45.000Z</time>
      </trkpt>
      <trkpt lat="43.9732" lon="7.269">
        <ele>810.3</ele>
        <time>2025-01-18T09:25:48.000Z</time>
      </trkpt>
      <trkpt lat="43.97325" lon="7.26903">
        <ele>810.7</ele>
        <time>2025-01-18T09:25:52.000Z</time>
      </trkpt>
      <trkpt lat="43.9733" lon="7.26906">
        <ele>811.2</ele>
        <time>2025-01-18T09:25:57.000Z</time>
      </trkpt>
      <trkpt lat="43.97335" lon="7.2691">
        <ele>811.4</ele>
        <time>2025-01-18T09:26:00.000Z</time>
      </trkpt>
      <trkpt lat="43.97339" lon="7.26915">
        <ele>811.6</ele>
        <time>2025-01-18T09:26:03.000Z</time>
      </trkpt>
      <trkpt lat="43.97343" lon="7.26921">
        <ele>811.8</ele>
        <time>2025-01-18T09:26:06.000Z</time>
      </trkpt>
      <trkpt lat="43.97348" lon="7.26924">
        <ele>812.1</ele>
        <time>2025-01-18T09:26:10.000Z</time>
      </trkpt>
      <trkpt lat="43.97354" lon="7.26928">
        <ele>812.4</ele>
        <time>2025-01-18T09:26:14.000Z</time>
      </trkpt>
      <trkpt lat="43.97359" lon="7.26929">
        <ele>812.7</ele>
        <time>2025-01-18T09:26:19.000Z</time>
      </trkpt>
      <trkpt lat="43.97364" lon="7.26928">
        <ele>813</ele>
        <time>2025-01-18T09:26:23.000Z</time>
      </trkpt>
      <trkpt lat="43.97368" lon="7.26927">
        <ele>813.3</ele>
        <time>2025-01-18T09:26:27.000Z</time>
      </trkpt>
      <trkpt lat="43.97375" lon="7.26926">
        <ele>813.5</ele>
        <time>2025-01-18T09:26:32.000Z</time>
      </trkpt>
      <trkpt lat="43.97379" lon="7.26925">
        <ele>813.9</ele>
        <time>2025-01-18T09:26:36.000Z</time>
      </trkpt>
      <trkpt lat="43.97387" lon="7.26928">
        <ele>814.1</ele>
        <time>2025-01-18T09:26:39.000Z</time>
      </trkpt>
      <trkpt lat="43.97391" lon="7.26927">
        <ele>814.5</ele>
        <time>2025-01-18T09:26:43.000Z</time>
      </trkpt>
      <trkpt lat="43.97397" lon="7.26927">
        <ele>814.7</ele>
        <time>2025-01-18T09:26:45.000Z</time>
      </trkpt>
      <trkpt lat="43.97403" lon="7.26927">
        <ele>814.8</ele>
        <time>2025-01-18T09:26:47.000Z</time>
      </trkpt>
      <trkpt lat="43.97408" lon="7.26927">
        <ele>815.1</ele>
        <time>2025-01-18T09:26:50.000Z</time>
      </trkpt>
      <trkpt lat="43.97408" lon="7.26919">
        <ele>815.6</ele>
        <time>2025-01-18T09:26:55.000Z</time>
      </trkpt>
      <trkpt lat="43.9741" lon="7.26913">
        <ele>816</ele>
        <time>2025-01-18T09:26:58.000Z</time>
      </trkpt>
      <trkpt lat="43.9741" lon="7.26906">
        <ele>816.3</ele>
        <time>2025-01-18T09:27:01.000Z</time>
      </trkpt>
      <trkpt lat="43.97401" lon="7.26905">
        <ele>816.5</ele>
        <time>2025-01-18T09:27:03.000Z</time>
      </trkpt>
      <trkpt lat="43.97397" lon="7.269">
        <ele>817</ele>
        <time>2025-01-18T09:27:08.000Z</time>
      </trkpt>
      <trkpt lat="43.97396" lon="7.26893">
        <ele>817.3</ele>
        <time>2025-01-18T09:27:11.000Z</time>
      </trkpt>
      <trkpt lat="43.97393" lon="7.26886">
        <ele>817.4</ele>
        <time>2025-01-18T09:27:13.000Z</time>
      </trkpt>
      <trkpt lat="43.97391" lon="7.2688">
        <ele>817.8</ele>
        <time>2025-01-18T09:27:16.000Z</time>
      </trkpt>
      <trkpt lat="43.97388" lon="7.26875">
        <ele>818.1</ele>
        <time>2025-01-18T09:27:19.000Z</time>
      </trkpt>
      <trkpt lat="43.97385" lon="7.26873">
        <ele>819.1</ele>
        <time>2025-01-18T09:27:27.000Z</time>
      </trkpt>
      <trkpt lat="43.97385" lon="7.26873">
        <ele>819.2</ele>
        <time>2025-01-18T09:27:28.000Z</time>
      </trkpt>
      <trkpt lat="43.97382" lon="7.26869">
        <ele>819.5</ele>
        <time>2025-01-18T09:27:55.000Z</time>
      </trkpt>
      <trkpt lat="43.97382" lon="7.26867">
        <ele>819.5</ele>
        <time>2025-01-18T09:27:56.000Z</time>
      </trkpt>
      <trkpt lat="43.97382" lon="7.26865">
        <ele>819.5</ele>
        <time>2025-01-18T09:27:57.000Z</time>
      </trkpt>
      <trkpt lat="43.97383" lon="7.26858">
        <ele>819.5</ele>
        <time>2025-01-18T09:28:01.000Z</time>
      </trkpt>
      <trkpt lat="43.97384" lon="7.26852">
        <ele>819.7</ele>
        <time>2025-01-18T09:28:05.000Z</time>
      </trkpt>
      <trkpt lat="43.97387" lon="7.26846">
        <ele>819.7</ele>
        <time>2025-01-18T09:28:09.000Z</time>
      </trkpt>
      <trkpt lat="43.97388" lon="7.26839">
        <ele>819.9</ele>
        <time>2025-01-18T09:28:13.000Z</time>
      </trkpt>
      <trkpt lat="43.97389" lon="7.26832">
        <ele>820.2</ele>
        <time>2025-01-18T09:28:17.000Z</time>
      </trkpt>
      <trkpt lat="43.97388" lon="7.26825">
        <ele>820.7</ele>
        <time>2025-01-18T09:28:21.000Z</time>
      </trkpt>
      <trkpt lat="43.97385" lon="7.26819">
        <ele>821</ele>
        <time>2025-01-18T09:28:24.000Z</time>
      </trkpt>
      <trkpt lat="43.97381" lon="7.26814">
        <ele>821.4</ele>
        <time>2025-01-18T09:28:28.000Z</time>
      </trkpt>
      <trkpt lat="43.97377" lon="7.26809">
        <ele>821.9</ele>
        <time>2025-01-18T09:28:31.000Z</time>
      </trkpt>
      <trkpt lat="43.97376" lon="7.26801">
        <ele>822.5</ele>
        <time>2025-01-18T09:28:35.000Z</time>
      </trkpt>
      <trkpt lat="43.97377" lon="7.26793">
        <ele>823.2</ele>
        <time>2025-01-18T09:28:40.000Z</time>
      </trkpt>
      <trkpt lat="43.97378" lon="7.26785">
        <ele>823.8</ele>
        <time>2025-01-18T09:28:44.000Z</time>
      </trkpt>
      <trkpt lat="43.97379" lon="7.26779">
        <ele>824.4</ele>
        <time>2025-01-18T09:28:48.000Z</time>
      </trkpt>
      <trkpt lat="43.97382" lon="7.26772">
        <ele>825.2</ele>
        <time>2025-01-18T09:28:53.000Z</time>
      </trkpt>
      <trkpt lat="43.97381" lon="7.26765">
        <ele>825.9</ele>
        <time>2025-01-18T09:28:58.000Z</time>
      </trkpt>
      <trkpt lat="43.97377" lon="7.2676">
        <ele>826.7</ele>
        <time>2025-01-18T09:29:03.000Z</time>
      </trkpt>
      <trkpt lat="43.97373" lon="7.26758">
        <ele>827</ele>
        <time>2025-01-18T09:29:05.000Z</time>
      </trkpt>
      <trkpt lat="43.97368" lon="7.26754">
        <ele>827.9</ele>
        <time>2025-01-18T09:29:10.000Z</time>
      </trkpt>
      <trkpt lat="43.97363" lon="7.26753">
        <ele>828.6</ele>
        <time>2025-01-18T09:29:15.000Z</time>
      </trkpt>
      <trkpt lat="43.97358" lon="7.26751">
        <ele>829.1</ele>
        <time>2025-01-18T09:29:18.000Z</time>
      </trkpt>
      <trkpt lat="43.97354" lon="7.26748">
        <ele>829.3</ele>
        <time>2025-01-18T09:29:20.000Z</time>
      </trkpt>
      <trkpt lat="43.97351" lon="7.26742">
        <ele>829.8</ele>
        <time>2025-01-18T09:29:23.000Z</time>
      </trkpt>
      <trkpt lat="43.97347" lon="7.26739">
        <ele>830.3</ele>
        <time>2025-01-18T09:29:27.000Z</time>
      </trkpt>
      <trkpt lat="43.97343" lon="7.26734">
        <ele>831</ele>
        <time>2025-01-18T09:29:32.000Z</time>
      </trkpt>
      <trkpt lat="43.97344" lon="7.26727">
        <ele>832</ele>
        <time>2025-01-18T09:29:38.000Z</time>
      </trkpt>
      <trkpt lat="43.97343" lon="7.2672">
        <ele>833.1</ele>
        <time>2025-01-18T09:29:43.000Z</time>
      </trkpt>
      <trkpt lat="43.97339" lon="7.26715">
        <ele>833.9</ele>
        <time>2025-01-18T09:29:47.000Z</time>
      </trkpt>
      <trkpt lat="43.97335" lon="7.26713">
        <ele>835.2</ele>
        <time>2025-01-18T09:29:53.000Z</time>
      </trkpt>
      <trkpt lat="43.9733" lon="7.26712">
        <ele>836</ele>
        <time>2025-01-18T09:29:57.000Z</time>
      </trkpt>
      <trkpt lat="43.97327" lon="7.26706">
        <ele>837</ele>
        <time>2025-01-18T09:30:02.000Z</time>
      </trkpt>
      <trkpt lat="43.97322" lon="7.26703">
        <ele>838.1</ele>
        <time>2025-01-18T09:30:07.000Z</time>
      </trkpt>
      <trkpt lat="43.97318" lon="7.26697">
        <ele>838.8</ele>
        <time>2025-01-18T09:30:10.000Z</time>
      </trkpt>
      <trkpt lat="43.97313" lon="7.26693">
        <ele>839.4</ele>
        <time>2025-01-18T09:30:14.000Z</time>
      </trkpt>
      <trkpt lat="43.9731" lon="7.26686">
        <ele>840.2</ele>
        <time>2025-01-18T09:30:19.000Z</time>
      </trkpt>
      <trkpt lat="43.9731" lon="7.2668">
        <ele>841</ele>
        <time>2025-01-18T09:30:24.000Z</time>
      </trkpt>
      <trkpt lat="43.97308" lon="7.26673">
        <ele>841.9</ele>
        <time>2025-01-18T09:30:29.000Z</time>
      </trkpt>
      <trkpt lat="43.97307" lon="7.26666">
        <ele>842.6</ele>
        <time>2025-01-18T09:30:34.000Z</time>
      </trkpt>
      <trkpt lat="43.97307" lon="7.26658">
        <ele>843.3</ele>
        <time>2025-01-18T09:30:39.000Z</time>
      </trkpt>
      <trkpt lat="43.97309" lon="7.26652">
        <ele>844.3</ele>
        <time>2025-01-18T09:30:45.000Z</time>
      </trkpt>
      <trkpt lat="43.97309" lon="7.26644">
        <ele>845.1</ele>
        <time>2025-01-18T09:30:50.000Z</time>
      </trkpt>
      <trkpt lat="43.97307" lon="7.26638">
        <ele>846.2</ele>
        <time>2025-01-18T09:30:55.000Z</time>
      </trkpt>
      <trkpt lat="43.97304" lon="7.26634">
        <ele>846.8</ele>
        <time>2025-01-18T09:30:58.000Z</time>
      </trkpt>
      <trkpt lat="43.97299" lon="7.2663">
        <ele>847.8</ele>
        <time>2025-01-18T09:31:04.000Z</time>
      </trkpt>
      <trkpt lat="43.97295" lon="7.26627">
        <ele>848.8</ele>
        <time>2025-01-18T09:31:09.000Z</time>
      </trkpt>
      <trkpt lat="43.97292" lon="7.26623">
        <ele>849.6</ele>
        <time>2025-01-18T09:31:13.000Z</time>
      </trkpt>
      <trkpt lat="43.97287" lon="7.26619">
        <ele>850.5</ele>
        <time>2025-01-18T09:31:18.000Z</time>
      </trkpt>
      <trkpt lat="43.97283" lon="7.26617">
        <ele>851.3</ele>
        <time>2025-01-18T09:31:22.000Z</time>
      </trkpt>
      <trkpt lat="43.97278" lon="7.26612">
        <ele>851.9</ele>
        <time>2025-01-18T09:31:26.000Z</time>
      </trkpt>
      <trkpt lat="43.97274" lon="7.26608">
        <ele>852.5</ele>
        <time>2025-01-18T09:31:30.000Z</time>
      </trkpt>
      <trkpt lat="43.9727" lon="7.26604">
        <ele>853.2</ele>
        <time>2025-01-18T09:31:34.000Z</time>
      </trkpt>
      <trkpt lat="43.97267" lon="7.26598">
        <ele>854.2</ele>
        <time>2025-01-18T09:31:39.000Z</time>
      </trkpt>
      <trkpt lat="43.97271" lon="7.26594">
        <ele>855.6</ele>
        <time>2025-01-18T09:31:44.000Z</time>
      </trkpt>
      <trkpt lat="43.97274" lon="7.26589">
        <ele>856.5</ele>
        <time>2025-01-18T09:31:48.000Z</time>
      </trkpt>
      <trkpt lat="43.97278" lon="7.26583">
        <ele>857.3</ele>
        <time>2025-01-18T09:31:53.000Z</time>
      </trkpt>
      <trkpt lat="43.97279" lon="7.26577">
        <ele>858.2</ele>
        <time>2025-01-18T09:31:58.000Z</time>
      </trkpt>
      <trkpt lat="43.9728" lon="7.2657">
        <ele>859.2</ele>
        <time>2025-01-18T09:32:03.000Z</time>
      </trkpt>
      <trkpt lat="43.97279" lon="7.26563">
        <ele>860.4</ele>
        <time>2025-01-18T09:32:09.000Z</time>
      </trkpt>
      <trkpt lat="43.97278" lon="7.26557">
        <ele>861.4</ele>
        <time>2025-01-18T09:32:16.000Z</time>
      </trkpt>
      <trkpt lat="43.97279" lon="7.2655">
        <ele>862</ele>
        <time>2025-01-18T09:32:21.000Z</time>
      </trkpt>
      <trkpt lat="43.97281" lon="7.26544">
        <ele>862.7</ele>
        <time>2025-01-18T09:32:25.000Z</time>
      </trkpt>
      <trkpt lat="43.97284" lon="7.26539">
        <ele>863.7</ele>
        <time>2025-01-18T09:32:30.000Z</time>
      </trkpt>
      <trkpt lat="43.97288" lon="7.26535">
        <ele>864.2</ele>
        <time>2025-01-18T09:32:34.000Z</time>
      </trkpt>
      <trkpt lat="43.97293" lon="7.26532">
        <ele>865</ele>
        <time>2025-01-18T09:32:39.000Z</time>
      </trkpt>
      <trkpt lat="43.97294" lon="7.26526">
        <ele>866.2</ele>
        <time>2025-01-18T09:32:44.000Z</time>
      </trkpt>
      <trkpt lat="43.97294" lon="7.26519">
        <ele>866.6</ele>
        <time>2025-01-18T09:32:47.000Z</time>
      </trkpt>
      <trkpt lat="43.97293" lon="7.26512">
        <ele>867.2</ele>
        <time>2025-01-18T09:32:51.000Z</time>
      </trkpt>
      <trkpt lat="43.9729" lon="7.26505">
        <ele>867.9</ele>
        <time>2025-01-18T09:32:56.000Z</time>
      </trkpt>
      <trkpt lat="43.9729" lon="7.26498">
        <ele>868.7</ele>
        <time>2025-01-18T09:33:00.000Z</time>
      </trkpt>
      <trkpt lat="43.97287" lon="7.26493">
        <ele>869.5</ele>
        <time>2025-01-18T09:33:04.000Z</time>
      </trkpt>
      <trkpt lat="43.97285" lon="7.26486">
        <ele>870.3</ele>
        <time>2025-01-18T09:33:09.000Z</time>
      </trkpt>
      <trkpt lat="43.97282" lon="7.26481">
        <ele>870.9</ele>
        <time>2025-01-18T09:33:14.000Z</time>
      </trkpt>
      <trkpt lat="43.97279" lon="7.26474">
        <ele>871.6</ele>
        <time>2025-01-18T09:33:19.000Z</time>
      </trkpt>
      <trkpt lat="43.97275" lon="7.26468">
        <ele>872</ele>
        <time>2025-01-18T09:33:23.000Z</time>
      </trkpt>
      <trkpt lat="43.97271" lon="7.26463">
        <ele>872.7</ele>
        <time>2025-01-18T09:33:28.000Z</time>
      </trkpt>
      <trkpt lat="43.97271" lon="7.26456">
        <ele>874</ele>
        <time>2025-01-18T09:33:35.000Z</time>
      </trkpt>
      <trkpt lat="43.97272" lon="7.26449">
        <ele>874.8</ele>
        <time>2025-01-18T09:33:40.000Z</time>
      </trkpt>
      <trkpt lat="43.97271" lon="7.26443">
        <ele>875.6</ele>
        <time>2025-01-18T09:33:44.000Z</time>
      </trkpt>
      <trkpt lat="43.97273" lon="7.26436">
        <ele>876.5</ele>
        <time>2025-01-18T09:33:49.000Z</time>
      </trkpt>
      <trkpt lat="43.97279" lon="7.26437">
        <ele>876.8</ele>
        <time>2025-01-18T09:33:53.000Z</time>
      </trkpt>
      <trkpt lat="43.97281" lon="7.26444">
        <ele>877</ele>
        <time>2025-01-18T09:33:58.000Z</time>
      </trkpt>
      <trkpt lat="43.97286" lon="7.26447">
        <ele>877.1</ele>
        <time>2025-01-18T09:34:01.000Z</time>
      </trkpt>
      <trkpt lat="43.97292" lon="7.26444">
        <ele>877.3</ele>
        <time>2025-01-18T09:34:05.000Z</time>
      </trkpt>
      <trkpt lat="43.97296" lon="7.26441">
        <ele>877.4</ele>
        <time>2025-01-18T09:34:09.000Z</time>
      </trkpt>
      <trkpt lat="43.97301" lon="7.26438">
        <ele>877.5</ele>
        <time>2025-01-18T09:34:13.000Z</time>
      </trkpt>
      <trkpt lat="43.97304" lon="7.26434">
        <ele>877.7</ele>
        <time>2025-01-18T09:34:17.000Z</time>
      </trkpt>
      <trkpt lat="43.97308" lon="7.2643">
        <ele>877.8</ele>
        <time>2025-01-18T09:34:20.000Z</time>
      </trkpt>
      <trkpt lat="43.97311" lon="7.26424">
        <ele>878</ele>
        <time>2025-01-18T09:34:23.000Z</time>
      </trkpt>
      <trkpt lat="43.97313" lon="7.26419">
        <ele>878.2</ele>
        <time>2025-01-18T09:34:26.000Z</time>
      </trkpt>
      <trkpt lat="43.97316" lon="7.26413">
        <ele>878.5</ele>
        <time>2025-01-18T09:34:29.000Z</time>
      </trkpt>
      <trkpt lat="43.97317" lon="7.26406">
        <ele>878.8</ele>
        <time>2025-01-18T09:34:33.000Z</time>
      </trkpt>
      <trkpt lat="43.9732" lon="7.264">
        <ele>879</ele>
        <time>2025-01-18T09:34:36.000Z</time>
      </trkpt>
      <trkpt lat="43.97322" lon="7.26392">
        <ele>879.2</ele>
        <time>2025-01-18T09:34:39.000Z</time>
      </trkpt>
      <trkpt lat="43.97324" lon="7.26385">
        <ele>879.3</ele>
        <time>2025-01-18T09:34:42.000Z</time>
      </trkpt>
      <trkpt lat="43.97325" lon="7.26377">
        <ele>879.4</ele>
        <time>2025-01-18T09:34:46.000Z</time>
      </trkpt>
      <trkpt lat="43.97327" lon="7.26369">
        <ele>879.6</ele>
        <time>2025-01-18T09:34:50.000Z</time>
      </trkpt>
      <trkpt lat="43.97328" lon="7.26361">
        <ele>879.8</ele>
        <time>2025-01-18T09:34:54.000Z</time>
      </trkpt>
      <trkpt lat="43.9733" lon="7.26354">
        <ele>880.1</ele>
        <time>2025-01-18T09:34:57.000Z</time>
      </trkpt>
      <trkpt lat="43.97331" lon="7.26347">
        <ele>880.3</ele>
        <time>2025-01-18T09:35:00.000Z</time>
      </trkpt>
      <trkpt lat="43.9733" lon="7.26339">
        <ele>880.5</ele>
        <time>2025-01-18T09:35:03.000Z</time>
      </trkpt>
      <trkpt lat="43.97332" lon="7.26331">
        <ele>880.7</ele>
        <time>2025-01-18T09:35:07.000Z</time>
      </trkpt>
      <trkpt lat="43.97334" lon="7.26325">
        <ele>881</ele>
        <time>2025-01-18T09:35:10.000Z</time>
      </trkpt>
      <trkpt lat="43.97339" lon="7.26322">
        <ele>881.3</ele>
        <time>2025-01-18T09:35:14.000Z</time>
      </trkpt>
      <trkpt lat="43.97344" lon="7.26322">
        <ele>881.5</ele>
        <time>2025-01-18T09:35:17.000Z</time>
      </trkpt>
      <trkpt lat="43.97348" lon="7.26325">
        <ele>881.9</ele>
        <time>2025-01-18T09:35:23.000Z</time>
      </trkpt>
      <trkpt lat="43.97353" lon="7.26327">
        <ele>882.2</ele>
        <time>2025-01-18T09:35:27.000Z</time>
      </trkpt>
      <trkpt lat="43.97357" lon="7.2633">
        <ele>882.6</ele>
        <time>2025-01-18T09:35:33.000Z</time>
      </trkpt>
      <trkpt lat="43.97362" lon="7.26333">
        <ele>882.9</ele>
        <time>2025-01-18T09:35:37.000Z</time>
      </trkpt>
      <trkpt lat="43.97366" lon="7.26337">
        <ele>883.5</ele>
        <time>2025-01-18T09:35:44.000Z</time>
      </trkpt>
      <trkpt lat="43.9737" lon="7.26342">
        <ele>884</ele>
        <time>2025-01-18T09:35:49.000Z</time>
      </trkpt>
      <trkpt lat="43.97374" lon="7.26346">
        <ele>884.8</ele>
        <time>2025-01-18T09:35:56.000Z</time>
      </trkpt>
      <trkpt lat="43.97378" lon="7.2635">
        <ele>885</ele>
        <time>2025-01-18T09:35:58.000Z</time>
      </trkpt>
      <trkpt lat="43.97384" lon="7.26356">
        <ele>885.2</ele>
        <time>2025-01-18T09:36:01.000Z</time>
      </trkpt>
      <trkpt lat="43.97388" lon="7.2636">
        <ele>885.5</ele>
        <time>2025-01-18T09:36:05.000Z</time>
      </trkpt>
      <trkpt lat="43.97395" lon="7.26363">
        <ele>885.7</ele>
        <time>2025-01-18T09:36:08.000Z</time>
      </trkpt>
      <trkpt lat="43.97402" lon="7.26368">
        <ele>885.9</ele>
        <time>2025-01-18T09:36:10.000Z</time>
      </trkpt>
      <trkpt lat="43.97408" lon="7.2637">
        <ele>886.1</ele>
        <time>2025-01-18T09:36:13.000Z</time>
      </trkpt>
      <trkpt lat="43.97416" lon="7.26374">
        <ele>886.4</ele>
        <time>2025-01-18T09:36:16.000Z</time>
      </trkpt>
      <trkpt lat="43.97423" lon="7.26376">
        <ele>886.6</ele>
        <time>2025-01-18T09:36:19.000Z</time>
      </trkpt>
      <trkpt lat="43.97427" lon="7.26378">
        <ele>886.7</ele>
        <time>2025-01-18T09:36:22.000Z</time>
      </trkpt>
      <trkpt lat="43.97432" lon="7.26376">
        <ele>886.9</ele>
        <time>2025-01-18T09:36:26.000Z</time>
      </trkpt>
      <trkpt lat="43.97437" lon="7.26374">
        <ele>887.1</ele>
        <time>2025-01-18T09:36:30.000Z</time>
      </trkpt>
      <trkpt lat="43.97442" lon="7.26375">
        <ele>887.3</ele>
        <time>2025-01-18T09:36:33.000Z</time>
      </trkpt>
      <trkpt lat="43.97446" lon="7.26382">
        <ele>887.5</ele>
        <time>2025-01-18T09:36:36.000Z</time>
      </trkpt>
      <trkpt lat="43.97452" lon="7.26386">
        <ele>887.6</ele>
        <time>2025-01-18T09:36:39.000Z</time>
      </trkpt>
      <trkpt lat="43.97459" lon="7.26391">
        <ele>887.6</ele>
        <time>2025-01-18T09:36:41.000Z</time>
      </trkpt>
      <trkpt lat="43.97464" lon="7.26393">
        <ele>887.7</ele>
        <time>2025-01-18T09:36:43.000Z</time>
      </trkpt>
      <trkpt lat="43.97471" lon="7.26392">
        <ele>887.7</ele>
        <time>2025-01-18T09:36:46.000Z</time>
      </trkpt>
      <trkpt lat="43.97476" lon="7.26392">
        <ele>887.7</ele>
        <time>2025-01-18T09:36:48.000Z</time>
      </trkpt>
      <trkpt lat="43.97481" lon="7.26394">
        <ele>887.7</ele>
        <time>2025-01-18T09:36:50.000Z</time>
      </trkpt>
      <trkpt lat="43.97487" lon="7.26396">
        <ele>887.8</ele>
        <time>2025-01-18T09:36:53.000Z</time>
      </trkpt>
      <trkpt lat="43.97492" lon="7.26399">
        <ele>887.8</ele>
        <time>2025-01-18T09:36:56.000Z</time>
      </trkpt>
      <trkpt lat="43.97497" lon="7.26402">
        <ele>887.8</ele>
        <time>2025-01-18T09:36:58.000Z</time>
      </trkpt>
      <trkpt lat="43.97501" lon="7.26407">
        <ele>887.8</ele>
        <time>2025-01-18T09:37:00.000Z</time>
      </trkpt>
      <trkpt lat="43.97505" lon="7.26411">
        <ele>887.8</ele>
        <time>2025-01-18T09:37:02.000Z</time>
      </trkpt>
      <trkpt lat="43.97505" lon="7.26417">
        <ele>887.9</ele>
        <time>2025-01-18T09:37:05.000Z</time>
      </trkpt>
      <trkpt lat="43.97507" lon="7.26425">
        <ele>888.1</ele>
        <time>2025-01-18T09:37:09.000Z</time>
      </trkpt>
      <trkpt lat="43.97509" lon="7.26433">
        <ele>888.3</ele>
        <time>2025-01-18T09:37:12.000Z</time>
      </trkpt>
      <trkpt lat="43.97509" lon="7.26442">
        <ele>888.4</ele>
        <time>2025-01-18T09:37:15.000Z</time>
      </trkpt>
      <trkpt lat="43.97511" lon="7.26448">
        <ele>888.5</ele>
        <time>2025-01-18T09:37:17.000Z</time>
      </trkpt>
      <trkpt lat="43.97516" lon="7.26454">
        <ele>888.7</ele>
        <time>2025-01-18T09:37:20.000Z</time>
      </trkpt>
      <trkpt lat="43.9752" lon="7.2646">
        <ele>888.9</ele>
        <time>2025-01-18T09:37:23.000Z</time>
      </trkpt>
      <trkpt lat="43.97524" lon="7.26466">
        <ele>889.2</ele>
        <time>2025-01-18T09:37:26.000Z</time>
      </trkpt>
      <trkpt lat="43.97529" lon="7.2647">
        <ele>889.5</ele>
        <time>2025-01-18T09:37:29.000Z</time>
      </trkpt>
      <trkpt lat="43.97534" lon="7.26475">
        <ele>889.7</ele>
        <time>2025-01-18T09:37:32.000Z</time>
      </trkpt>
      <trkpt lat="43.97539" lon="7.26478">
        <ele>889.9</ele>
        <time>2025-01-18T09:37:35.000Z</time>
      </trkpt>
      <trkpt lat="43.97545" lon="7.26482">
        <ele>889.9</ele>
        <time>2025-01-18T09:37:38.000Z</time>
      </trkpt>
      <trkpt lat="43.97551" lon="7.26486">
        <ele>890</ele>
        <time>2025-01-18T09:37:40.000Z</time>
      </trkpt>
      <trkpt lat="43.97557" lon="7.26488">
        <ele>890</ele>
        <time>2025-01-18T09:37:42.000Z</time>
      </trkpt>
      <trkpt lat="43.97562" lon="7.26491">
        <ele>889.8</ele>
        <time>2025-01-18T09:37:44.000Z</time>
      </trkpt>
      <trkpt lat="43.97566" lon="7.26498">
        <ele>889.8</ele>
        <time>2025-01-18T09:37:46.000Z</time>
      </trkpt>
      <trkpt lat="43.97571" lon="7.26504">
        <ele>889.8</ele>
        <time>2025-01-18T09:37:48.000Z</time>
      </trkpt>
      <trkpt lat="43.97574" lon="7.26509">
        <ele>889.9</ele>
        <time>2025-01-18T09:37:51.000Z</time>
      </trkpt>
      <trkpt lat="43.97578" lon="7.26512">
        <ele>889.9</ele>
        <time>2025-01-18T09:37:53.000Z</time>
      </trkpt>
      <trkpt lat="43.97585" lon="7.26512">
        <ele>890</ele>
        <time>2025-01-18T09:37:55.000Z</time>
      </trkpt>
      <trkpt lat="43.97592" lon="7.2651">
        <ele>890</ele>
        <time>2025-01-18T09:37:58.000Z</time>
      </trkpt>
      <trkpt lat="43.97597" lon="7.26506">
        <ele>890</ele>
        <time>2025-01-18T09:38:01.000Z</time>
      </trkpt>
      <trkpt lat="43.97603" lon="7.26502">
        <ele>890</ele>
        <time>2025-01-18T09:38:04.000Z</time>
      </trkpt>
      <trkpt lat="43.97608" lon="7.265">
        <ele>890.1</ele>
        <time>2025-01-18T09:38:07.000Z</time>
      </trkpt>
      <trkpt lat="43.97613" lon="7.26502">
        <ele>890.1</ele>
        <time>2025-01-18T09:38:11.000Z</time>
      </trkpt>
      <trkpt lat="43.97618" lon="7.26505">
        <ele>890.1</ele>
        <time>2025-01-18T09:38:15.000Z</time>
      </trkpt>
      <trkpt lat="43.97622" lon="7.26506">
        <ele>890.2</ele>
        <time>2025-01-18T09:38:20.000Z</time>
      </trkpt>
      <trkpt lat="43.97625" lon="7.26512">
        <ele>890.2</ele>
        <time>2025-01-18T09:38:23.000Z</time>
      </trkpt>
      <trkpt lat="43.97625" lon="7.26518">
        <ele>890.5</ele>
        <time>2025-01-18T09:38:29.000Z</time>
      </trkpt>
      <trkpt lat="43.97628" lon="7.26524">
        <ele>890.6</ele>
        <time>2025-01-18T09:38:32.000Z</time>
      </trkpt>
      <trkpt lat="43.97632" lon="7.26529">
        <ele>890.9</ele>
        <time>2025-01-18T09:38:36.000Z</time>
      </trkpt>
      <trkpt lat="43.97634" lon="7.26535">
        <ele>891.2</ele>
        <time>2025-01-18T09:38:40.000Z</time>
      </trkpt>
      <trkpt lat="43.97636" lon="7.26541">
        <ele>891.4</ele>
        <time>2025-01-18T09:38:44.000Z</time>
      </trkpt>
      <trkpt lat="43.97638" lon="7.26548">
        <ele>891.6</ele>
        <time>2025-01-18T09:38:48.000Z</time>
      </trkpt>
      <trkpt lat="43.9764" lon="7.26555">
        <ele>891.7</ele>
        <time>2025-01-18T09:38:51.000Z</time>
      </trkpt>
      <trkpt lat="43.97643" lon="7.26561">
        <ele>891.8</ele>
        <time>2025-01-18T09:38:54.000Z</time>
      </trkpt>
      <trkpt lat="43.97647" lon="7.26568">
        <ele>892</ele>
        <time>2025-01-18T09:38:58.000Z</time>
      </trkpt>
      <trkpt lat="43.97649" lon="7.26576">
        <ele>892.2</ele>
        <time>2025-01-18T09:39:02.000Z</time>
      </trkpt>
      <trkpt lat="43.97651" lon="7.26583">
        <ele>892.4</ele>
        <time>2025-01-18T09:39:05.000Z</time>
      </trkpt>
      <trkpt lat="43.97654" lon="7.26589">
        <ele>892.5</ele>
        <time>2025-01-18T09:39:08.000Z</time>
      </trkpt>
      <trkpt lat="43.97656" lon="7.26595">
        <ele>892.5</ele>
        <time>2025-01-18T09:39:10.000Z</time>
      </trkpt>
      <trkpt lat="43.97656" lon="7.26601">
        <ele>892.7</ele>
        <time>2025-01-18T09:39:15.000Z</time>
      </trkpt>
      <trkpt lat="43.97658" lon="7.26608">
        <ele>893</ele>
        <time>2025-01-18T09:39:22.000Z</time>
      </trkpt>
      <trkpt lat="43.97663" lon="7.26614">
        <ele>893.1</ele>
        <time>2025-01-18T09:39:25.000Z</time>
      </trkpt>
      <trkpt lat="43.97668" lon="7.26621">
        <ele>893.1</ele>
        <time>2025-01-18T09:39:27.000Z</time>
      </trkpt>
      <trkpt lat="43.97673" lon="7.26626">
        <ele>893.1</ele>
        <time>2025-01-18T09:39:29.000Z</time>
      </trkpt>
      <trkpt lat="43.97677" lon="7.2663">
        <ele>893.2</ele>
        <time>2025-01-18T09:39:31.000Z</time>
      </trkpt>
      <trkpt lat="43.97681" lon="7.26634">
        <ele>893.2</ele>
        <time>2025-01-18T09:39:33.000Z</time>
      </trkpt>
      <trkpt lat="43.97686" lon="7.26637">
        <ele>893.2</ele>
        <time>2025-01-18T09:39:35.000Z</time>
      </trkpt>
      <trkpt lat="43.97692" lon="7.26635">
        <ele>893.2</ele>
        <time>2025-01-18T09:39:37.000Z</time>
      </trkpt>
      <trkpt lat="43.97697" lon="7.2663">
        <ele>893.2</ele>
        <time>2025-01-18T09:39:39.000Z</time>
      </trkpt>
      <trkpt lat="43.97701" lon="7.26624">
        <ele>893.3</ele>
        <time>2025-01-18T09:39:41.000Z</time>
      </trkpt>
      <trkpt lat="43.97703" lon="7.26616">
        <ele>893.3</ele>
        <time>2025-01-18T09:39:44.000Z</time>
      </trkpt>
      <trkpt lat="43.97708" lon="7.26611">
        <ele>893.3</ele>
        <time>2025-01-18T09:39:46.000Z</time>
      </trkpt>
      <trkpt lat="43.97711" lon="7.26604">
        <ele>893.3</ele>
        <time>2025-01-18T09:39:48.000Z</time>
      </trkpt>
      <trkpt lat="43.97714" lon="7.26599">
        <ele>893.4</ele>
        <time>2025-01-18T09:39:51.000Z</time>
      </trkpt>
      <trkpt lat="43.97719" lon="7.266">
        <ele>893.4</ele>
        <time>2025-01-18T09:39:54.000Z</time>
      </trkpt>
      <trkpt lat="43.97723" lon="7.26602">
        <ele>893.5</ele>
        <time>2025-01-18T09:39:58.000Z</time>
      </trkpt>
      <trkpt lat="43.97726" lon="7.26609">
        <ele>893.5</ele>
        <time>2025-01-18T09:40:00.000Z</time>
      </trkpt>
      <trkpt lat="43.97728" lon="7.26615">
        <ele>893.6</ele>
        <time>2025-01-18T09:40:03.000Z</time>
      </trkpt>
      <trkpt lat="43.97732" lon="7.26617">
        <ele>893.6</ele>
        <time>2025-01-18T09:40:05.000Z</time>
      </trkpt>
      <trkpt lat="43.97735" lon="7.26622">
        <ele>893.7</ele>
        <time>2025-01-18T09:40:08.000Z</time>
      </trkpt>
      <trkpt lat="43.97739" lon="7.26628">
        <ele>893.7</ele>
        <time>2025-01-18T09:40:10.000Z</time>
      </trkpt>
      <trkpt lat="43.97744" lon="7.26632">
        <ele>893.8</ele>
        <time>2025-01-18T09:40:12.000Z</time>
      </trkpt>
      <trkpt lat="43.9775" lon="7.26634">
        <ele>893.8</ele>
        <time>2025-01-18T09:40:14.000Z</time>
      </trkpt>
      <trkpt lat="43.97755" lon="7.26637">
        <ele>893.9</ele>
        <time>2025-01-18T09:40:16.000Z</time>
      </trkpt>
      <trkpt lat="43.9776" lon="7.26641">
        <ele>893.9</ele>
        <time>2025-01-18T09:40:19.000Z</time>
      </trkpt>
      <trkpt lat="43.97763" lon="7.26646">
        <ele>894</ele>
        <time>2025-01-18T09:40:21.000Z</time>
      </trkpt>
      <trkpt lat="43.97769" lon="7.26649">
        <ele>894.1</ele>
        <time>2025-01-18T09:40:23.000Z</time>
      </trkpt>
      <trkpt lat="43.97774" lon="7.26652">
        <ele>894.2</ele>
        <time>2025-01-18T09:40:25.000Z</time>
      </trkpt>
      <trkpt lat="43.9778" lon="7.26655">
        <ele>894.3</ele>
        <time>2025-01-18T09:40:28.000Z</time>
      </trkpt>
      <trkpt lat="43.97784" lon="7.26661">
        <ele>894.4</ele>
        <time>2025-01-18T09:40:31.000Z</time>
      </trkpt>
      <trkpt lat="43.97787" lon="7.2667">
        <ele>894.5</ele>
        <time>2025-01-18T09:40:33.000Z</time>
      </trkpt>
      <trkpt lat="43.9779" lon="7.26681">
        <ele>894.6</ele>
        <time>2025-01-18T09:40:35.000Z</time>
      </trkpt>
      <trkpt lat="43.97794" lon="7.2669">
        <ele>894.6</ele>
        <time>2025-01-18T09:40:37.000Z</time>
      </trkpt>
      <trkpt lat="43.97796" lon="7.26696">
        <ele>894.6</ele>
        <time>2025-01-18T09:40:40.000Z</time>
      </trkpt>
      <trkpt lat="43.978" lon="7.26701">
        <ele>894.6</ele>
        <time>2025-01-18T09:40:44.000Z</time>
      </trkpt>
      <trkpt lat="43.97801" lon="7.26708">
        <ele>894.6</ele>
        <time>2025-01-18T09:40:47.000Z</time>
      </trkpt>
      <trkpt lat="43.97806" lon="7.26706">
        <ele>894.7</ele>
        <time>2025-01-18T09:40:53.000Z</time>
      </trkpt>
      <trkpt lat="43.97809" lon="7.267">
        <ele>894.7</ele>
        <time>2025-01-18T09:40:56.000Z</time>
      </trkpt>
      <trkpt lat="43.97815" lon="7.26699">
        <ele>894.6</ele>
        <time>2025-01-18T09:40:58.000Z</time>
      </trkpt>
      <trkpt lat="43.97822" lon="7.26694">
        <ele>894.6</ele>
        <time>2025-01-18T09:41:00.000Z</time>
      </trkpt>
      <trkpt lat="43.97827" lon="7.26691">
        <ele>894.6</ele>
        <time>2025-01-18T09:41:02.000Z</time>
      </trkpt>
      <trkpt lat="43.97838" lon="7.26685">
        <ele>894.6</ele>
        <time>2025-01-18T09:41:05.000Z</time>
      </trkpt>
      <trkpt lat="43.97845" lon="7.26672">
        <ele>894.6</ele>
        <time>2025-01-18T09:41:07.000Z</time>
      </trkpt>
      <trkpt lat="43.97852" lon="7.2667">
        <ele>894.6</ele>
        <time>2025-01-18T09:41:09.000Z</time>
      </trkpt>
      <trkpt lat="43.97858" lon="7.26672">
        <ele>894.6</ele>
        <time>2025-01-18T09:41:11.000Z</time>
      </trkpt>
      <trkpt lat="43.97864" lon="7.26674">
        <ele>894.7</ele>
        <time>2025-01-18T09:41:13.000Z</time>
      </trkpt>
      <trkpt lat="43.97868" lon="7.26677">
        <ele>894.7</ele>
        <time>2025-01-18T09:41:15.000Z</time>
      </trkpt>
      <trkpt lat="43.97876" lon="7.2668">
        <ele>894.7</ele>
        <time>2025-01-18T09:41:17.000Z</time>
      </trkpt>
      <trkpt lat="43.97883" lon="7.26682">
        <ele>894.7</ele>
        <time>2025-01-18T09:41:19.000Z</time>
      </trkpt>
      <trkpt lat="43.97889" lon="7.26684">
        <ele>894.7</ele>
        <time>2025-01-18T09:41:22.000Z</time>
      </trkpt>
      <trkpt lat="43.97889" lon="7.26684">
        <ele>894.7</ele>
        <time>2025-01-18T09:41:28.000Z</time>
      </trkpt>
      <trkpt lat="43.97889" lon="7.26684">
        <ele>894.7</ele>
        <time>2025-01-18T09:41:29.000Z</time>
      </trkpt>
      <trkpt lat="43.9789" lon="7.26685">
        <ele>894.7</ele>
        <time>2025-01-18T09:41:30.000Z</time>
      </trkpt>
      <trkpt lat="43.9789" lon="7.26686">
        <ele>894.7</ele>
        <time>2025-01-18T09:41:31.000Z</time>
      </trkpt>
      <trkpt lat="43.97894" lon="7.26691">
        <ele>894.7</ele>
        <time>2025-01-18T09:41:39.000Z</time>
      </trkpt>
      <trkpt lat="43.97896" lon="7.26684">
        <ele>894.8</ele>
        <time>2025-01-18T09:41:51.000Z</time>
      </trkpt>
      <trkpt lat="43.97896" lon="7.26678">
        <ele>894.8</ele>
        <time>2025-01-18T09:41:56.000Z</time>
      </trkpt>
      <trkpt lat="43.97894" lon="7.26669">
        <ele>894.9</ele>
        <time>2025-01-18T09:42:00.000Z</time>
      </trkpt>
      <trkpt lat="43.97893" lon="7.26662">
        <ele>894.9</ele>
        <time>2025-01-18T09:42:03.000Z</time>
      </trkpt>
      <trkpt lat="43.9789" lon="7.26655">
        <ele>895</ele>
        <time>2025-01-18T09:42:05.000Z</time>
      </trkpt>
      <trkpt lat="43.97887" lon="7.2665">
        <ele>895.1</ele>
        <time>2025-01-18T09:42:09.000Z</time>
      </trkpt>
      <trkpt lat="43.97888" lon="7.26651">
        <ele>895.2</ele>
        <time>2025-01-18T09:42:13.000Z</time>
      </trkpt>
      <trkpt lat="43.97889" lon="7.26651">
        <ele>895.2</ele>
        <time>2025-01-18T09:42:14.000Z</time>
      </trkpt>
      <trkpt lat="43.97889" lon="7.2665">
        <ele>895.3</ele>
        <time>2025-01-18T09:42:17.000Z</time>
      </trkpt>
      <trkpt lat="43.97889" lon="7.26649">
        <ele>895.3</ele>
        <time>2025-01-18T09:42:18.000Z</time>
      </trkpt>
      <trkpt lat="43.97889" lon="7.26648">
        <ele>895.4</ele>
        <time>2025-01-18T09:42:19.000Z</time>
      </trkpt>
      <trkpt lat="43.97888" lon="7.26647">
        <ele>895.4</ele>
        <time>2025-01-18T09:42:20.000Z</time>
      </trkpt>
      <trkpt lat="43.97889" lon="7.26646">
        <ele>895.4</ele>
        <time>2025-01-18T09:42:21.000Z</time>
      </trkpt>
      <trkpt lat="43.97888" lon="7.26645">
        <ele>895.5</ele>
        <time>2025-01-18T09:42:22.000Z</time>
      </trkpt>
      <trkpt lat="43.97888" lon="7.26643">
        <ele>895.5</ele>
        <time>2025-01-18T09:42:23.000Z</time>
      </trkpt>
      <trkpt lat="43.97884" lon="7.26639">
        <ele>895.7</ele>
        <time>2025-01-18T09:42:26.000Z</time>
      </trkpt>
      <trkpt lat="43.9788" lon="7.26636">
        <ele>896</ele>
        <time>2025-01-18T09:42:29.000Z</time>
      </trkpt>
      <trkpt lat="43.97876" lon="7.26631">
        <ele>896.2</ele>
        <time>2025-01-18T09:42:35.000Z</time>
      </trkpt>
      <trkpt lat="43.97872" lon="7.26627">
        <ele>896.2</ele>
        <time>2025-01-18T09:42:37.000Z</time>
      </trkpt>
      <trkpt lat="43.97869" lon="7.2662">
        <ele>896.3</ele>
        <time>2025-01-18T09:42:40.000Z</time>
      </trkpt>
      <trkpt lat="43.97867" lon="7.26612">
        <ele>896.6</ele>
        <time>2025-01-18T09:42:43.000Z</time>
      </trkpt>
      <trkpt lat="43.97863" lon="7.26607">
        <ele>896.9</ele>
        <time>2025-01-18T09:42:46.000Z</time>
      </trkpt>
      <trkpt lat="43.97859" lon="7.26603">
        <ele>897.4</ele>
        <time>2025-01-18T09:42:50.000Z</time>
      </trkpt>
      <trkpt lat="43.97856" lon="7.26596">
        <ele>897.9</ele>
        <time>2025-01-18T09:42:55.000Z</time>
      </trkpt>
      <trkpt lat="43.97853" lon="7.26591">
        <ele>898.1</ele>
        <time>2025-01-18T09:42:58.000Z</time>
      </trkpt>
      <trkpt lat="43.9785" lon="7.26585">
        <ele>898.4</ele>
        <time>2025-01-18T09:43:01.000Z</time>
      </trkpt>
      <trkpt lat="43.97848" lon="7.26577">
        <ele>898.7</ele>
        <time>2025-01-18T09:43:05.000Z</time>
      </trkpt>
      <trkpt lat="43.97844" lon="7.26572">
        <ele>898.8</ele>
        <time>2025-01-18T09:43:09.000Z</time>
      </trkpt>
      <trkpt lat="43.97839" lon="7.26569">
        <ele>899</ele>
        <time>2025-01-18T09:43:12.000Z</time>
      </trkpt>
      <trkpt lat="43.97835" lon="7.26563">
        <ele>899.3</ele>
        <time>2025-01-18T09:43:15.000Z</time>
      </trkpt>
      <trkpt lat="43.97835" lon="7.26556">
        <ele>899.6</ele>
        <time>2025-01-18T09:43:19.000Z</time>
      </trkpt>
      <trkpt lat="43.97831" lon="7.26551">
        <ele>899.9</ele>
        <time>2025-01-18T09:43:23.000Z</time>
      </trkpt>
      <trkpt lat="43.97827" lon="7.26544">
        <ele>900</ele>
        <time>2025-01-18T09:43:27.000Z</time>
      </trkpt>
      <trkpt lat="43.97826" lon="7.26538">
        <ele>900.3</ele>
        <time>2025-01-18T09:43:32.000Z</time>
      </trkpt>
      <trkpt lat="43.97826" lon="7.2653">
        <ele>900.6</ele>
        <time>2025-01-18T09:43:37.000Z</time>
      </trkpt>
      <trkpt lat="43.97826" lon="7.26522">
        <ele>900.8</ele>
        <time>2025-01-18T09:43:41.000Z</time>
      </trkpt>
      <trkpt lat="43.97826" lon="7.26514">
        <ele>901.1</ele>
        <time>2025-01-18T09:43:45.000Z</time>
      </trkpt>
      <trkpt lat="43.97825" lon="7.26507">
        <ele>901.3</ele>
        <time>2025-01-18T09:43:48.000Z</time>
      </trkpt>
      <trkpt lat="43.97823" lon="7.26501">
        <ele>901.6</ele>
        <time>2025-01-18T09:43:51.000Z</time>
      </trkpt>
      <trkpt lat="43.97822" lon="7.26493">
        <ele>901.7</ele>
        <time>2025-01-18T09:43:55.000Z</time>
      </trkpt>
      <trkpt lat="43.97821" lon="7.26487">
        <ele>902</ele>
        <time>2025-01-18T09:43:59.000Z</time>
      </trkpt>
      <trkpt lat="43.9782" lon="7.26478">
        <ele>902.3</ele>
        <time>2025-01-18T09:44:03.000Z</time>
      </trkpt>
      <trkpt lat="43.97819" lon="7.26471">
        <ele>902.5</ele>
        <time>2025-01-18T09:44:06.000Z</time>
      </trkpt>
      <trkpt lat="43.97818" lon="7.26464">
        <ele>902.7</ele>
        <time>2025-01-18T09:44:09.000Z</time>
      </trkpt>
      <trkpt lat="43.97816" lon="7.26457">
        <ele>902.9</ele>
        <time>2025-01-18T09:44:12.000Z</time>
      </trkpt>
      <trkpt lat="43.97815" lon="7.26449">
        <ele>903.4</ele>
        <time>2025-01-18T09:44:16.000Z</time>
      </trkpt>
      <trkpt lat="43.97813" lon="7.26442">
        <ele>903.6</ele>
        <time>2025-01-18T09:44:20.000Z</time>
      </trkpt>
      <trkpt lat="43.97811" lon="7.26436">
        <ele>903.8</ele>
        <time>2025-01-18T09:44:23.000Z</time>
      </trkpt>
      <trkpt lat="43.9781" lon="7.2643">
        <ele>904.1</ele>
        <time>2025-01-18T09:44:26.000Z</time>
      </trkpt>
      <trkpt lat="43.97809" lon="7.26422">
        <ele>904.4</ele>
        <time>2025-01-18T09:44:29.000Z</time>
      </trkpt>
      <trkpt lat="43.97808" lon="7.26415">
        <ele>904.7</ele>
        <time>2025-01-18T09:44:32.000Z</time>
      </trkpt>
      <trkpt lat="43.97807" lon="7.26408">
        <ele>905</ele>
        <time>2025-01-18T09:44:35.000Z</time>
      </trkpt>
      <trkpt lat="43.97807" lon="7.264">
        <ele>905.3</ele>
        <time>2025-01-18T09:44:38.000Z</time>
      </trkpt>
      <trkpt lat="43.97808" lon="7.26394">
        <ele>905.7</ele>
        <time>2025-01-18T09:44:41.000Z</time>
      </trkpt>
      <trkpt lat="43.97805" lon="7.26386">
        <ele>905.9</ele>
        <time>2025-01-18T09:44:45.000Z</time>
      </trkpt>
      <trkpt lat="43.97803" lon="7.26379">
        <ele>906</ele>
        <time>2025-01-18T09:44:48.000Z</time>
      </trkpt>
      <trkpt lat="43.97799" lon="7.26372">
        <ele>906.1</ele>
        <time>2025-01-18T09:44:51.000Z</time>
      </trkpt>
      <trkpt lat="43.97797" lon="7.26364">
        <ele>906.4</ele>
        <time>2025-01-18T09:44:55.000Z</time>
      </trkpt>
      <trkpt lat="43.97794" lon="7.26359">
        <ele>906.7</ele>
        <time>2025-01-18T09:44:59.000Z</time>
      </trkpt>
      <trkpt lat="43.9779" lon="7.26352">
        <ele>907</ele>
        <time>2025-01-18T09:45:03.000Z</time>
      </trkpt>
      <trkpt lat="43.9779" lon="7.26345">
        <ele>907.3</ele>
        <time>2025-01-18T09:45:06.000Z</time>
      </trkpt>
      <trkpt lat="43.97789" lon="7.26338">
        <ele>907.6</ele>
        <time>2025-01-18T09:45:09.000Z</time>
      </trkpt>
      <trkpt lat="43.97787" lon="7.26332">
        <ele>907.8</ele>
        <time>2025-01-18T09:45:12.000Z</time>
      </trkpt>
      <trkpt lat="43.97789" lon="7.26326">
        <ele>908.1</ele>
        <time>2025-01-18T09:45:17.000Z</time>
      </trkpt>
      <trkpt lat="43.97795" lon="7.26322">
        <ele>908.6</ele>
        <time>2025-01-18T09:45:22.000Z</time>
      </trkpt>
      <trkpt lat="43.978" lon="7.2632">
        <ele>908.9</ele>
        <time>2025-01-18T09:45:26.000Z</time>
      </trkpt>
      <trkpt lat="43.97804" lon="7.26316">
        <ele>909.3</ele>
        <time>2025-01-18T09:45:29.000Z</time>
      </trkpt>
      <trkpt lat="43.97808" lon="7.26314">
        <ele>909.9</ele>
        <time>2025-01-18T09:45:32.000Z</time>
      </trkpt>
      <trkpt lat="43.97813" lon="7.2631">
        <ele>910.8</ele>
        <time>2025-01-18T09:45:37.000Z</time>
      </trkpt>
      <trkpt lat="43.97817" lon="7.26306">
        <ele>911.5</ele>
        <time>2025-01-18T09:45:41.000Z</time>
      </trkpt>
      <trkpt lat="43.97822" lon="7.26303">
        <ele>912</ele>
        <time>2025-01-18T09:45:44.000Z</time>
      </trkpt>
      <trkpt lat="43.97826" lon="7.263">
        <ele>912.6</ele>
        <time>2025-01-18T09:45:48.000Z</time>
      </trkpt>
      <trkpt lat="43.97831" lon="7.26298">
        <ele>913.3</ele>
        <time>2025-01-18T09:45:52.000Z</time>
      </trkpt>
      <trkpt lat="43.97836" lon="7.263">
        <ele>913.9</ele>
        <time>2025-01-18T09:45:56.000Z</time>
      </trkpt>
      <trkpt lat="43.97841" lon="7.26299">
        <ele>914.8</ele>
        <time>2025-01-18T09:46:03.000Z</time>
      </trkpt>
      <trkpt lat="43.97845" lon="7.26295">
        <ele>916.1</ele>
        <time>2025-01-18T09:46:11.000Z</time>
      </trkpt>
      <trkpt lat="43.9785" lon="7.26295">
        <ele>916.6</ele>
        <time>2025-01-18T09:46:15.000Z</time>
      </trkpt>
      <trkpt lat="43.97857" lon="7.26295">
        <ele>917.1</ele>
        <time>2025-01-18T09:46:19.000Z</time>
      </trkpt>
      <trkpt lat="43.97862" lon="7.26292">
        <ele>917.6</ele>
        <time>2025-01-18T09:46:24.000Z</time>
      </trkpt>
      <trkpt lat="43.97866" lon="7.26289">
        <ele>918</ele>
        <time>2025-01-18T09:46:29.000Z</time>
      </trkpt>
      <trkpt lat="43.97871" lon="7.2629">
        <ele>918.3</ele>
        <time>2025-01-18T09:46:32.000Z</time>
      </trkpt>
      <trkpt lat="43.97877" lon="7.26289">
        <ele>918.7</ele>
        <time>2025-01-18T09:46:37.000Z</time>
      </trkpt>
      <trkpt lat="43.97882" lon="7.26287">
        <ele>919.2</ele>
        <time>2025-01-18T09:46:41.000Z</time>
      </trkpt>
      <trkpt lat="43.97888" lon="7.26285">
        <ele>919.7</ele>
        <time>2025-01-18T09:46:45.000Z</time>
      </trkpt>
      <trkpt lat="43.9789" lon="7.2628">
        <ele>920.1</ele>
        <time>2025-01-18T09:46:49.000Z</time>
      </trkpt>
      <trkpt lat="43.97891" lon="7.26272">
        <ele>920.7</ele>
        <time>2025-01-18T09:46:54.000Z</time>
      </trkpt>
      <trkpt lat="43.97892" lon="7.26264">
        <ele>921.3</ele>
        <time>2025-01-18T09:46:59.000Z</time>
      </trkpt>
      <trkpt lat="43.97893" lon="7.26257">
        <ele>921.7</ele>
        <time>2025-01-18T09:47:02.000Z</time>
      </trkpt>
      <trkpt lat="43.97894" lon="7.26251">
        <ele>921.9</ele>
        <time>2025-01-18T09:47:05.000Z</time>
      </trkpt>
      <trkpt lat="43.97895" lon="7.26244">
        <ele>922.2</ele>
        <time>2025-01-18T09:47:08.000Z</time>
      </trkpt>
      <trkpt lat="43.97897" lon="7.26238">
        <ele>922.5</ele>
        <time>2025-01-18T09:47:11.000Z</time>
      </trkpt>
      <trkpt lat="43.979" lon="7.26231">
        <ele>923.2</ele>
        <time>2025-01-18T09:47:15.000Z</time>
      </trkpt>
      <trkpt lat="43.979" lon="7.26224">
        <ele>924.1</ele>
        <time>2025-01-18T09:47:20.000Z</time>
      </trkpt>
      <trkpt lat="43.97904" lon="7.26218">
        <ele>924.6</ele>
        <time>2025-01-18T09:47:24.000Z</time>
      </trkpt>
      <trkpt lat="43.97908" lon="7.26213">
        <ele>925.2</ele>
        <time>2025-01-18T09:47:28.000Z</time>
      </trkpt>
      <trkpt lat="43.97911" lon="7.26209">
        <ele>925.8</ele>
        <time>2025-01-18T09:47:33.000Z</time>
      </trkpt>
      <trkpt lat="43.97916" lon="7.26208">
        <ele>926.4</ele>
        <time>2025-01-18T09:47:37.000Z</time>
      </trkpt>
      <trkpt lat="43.97921" lon="7.26208">
        <ele>927.1</ele>
        <time>2025-01-18T09:47:42.000Z</time>
      </trkpt>
      <trkpt lat="43.97926" lon="7.26207">
        <ele>927.5</ele>
        <time>2025-01-18T09:47:45.000Z</time>
      </trkpt>
      <trkpt lat="43.97932" lon="7.26207">
        <ele>927.9</ele>
        <time>2025-01-18T09:47:49.000Z</time>
      </trkpt>
      <trkpt lat="43.97937" lon="7.26205">
        <ele>928.4</ele>
        <time>2025-01-18T09:47:54.000Z</time>
      </trkpt>
      <trkpt lat="43.97942" lon="7.26203">
        <ele>929</ele>
        <time>2025-01-18T09:47:59.000Z</time>
      </trkpt>
      <trkpt lat="43.97948" lon="7.26202">
        <ele>929.7</ele>
        <time>2025-01-18T09:48:04.000Z</time>
      </trkpt>
      <trkpt lat="43.97953" lon="7.26202">
        <ele>930.3</ele>
        <time>2025-01-18T09:48:08.000Z</time>
      </trkpt>
      <trkpt lat="43.97957" lon="7.26199">
        <ele>930.9</ele>
        <time>2025-01-18T09:48:12.000Z</time>
      </trkpt>
      <trkpt lat="43.97962" lon="7.26197">
        <ele>931.3</ele>
        <time>2025-01-18T09:48:16.000Z</time>
      </trkpt>
      <trkpt lat="43.97968" lon="7.26195">
        <ele>932</ele>
        <time>2025-01-18T09:48:21.000Z</time>
      </trkpt>
      <trkpt lat="43.97973" lon="7.26193">
        <ele>933.1</ele>
        <time>2025-01-18T09:48:27.000Z</time>
      </trkpt>
      <trkpt lat="43.97978" lon="7.2619">
        <ele>933.8</ele>
        <time>2025-01-18T09:48:31.000Z</time>
      </trkpt>
      <trkpt lat="43.97983" lon="7.26188">
        <ele>934.6</ele>
        <time>2025-01-18T09:48:36.000Z</time>
      </trkpt>
      <trkpt lat="43.97988" lon="7.26187">
        <ele>935.2</ele>
        <time>2025-01-18T09:48:40.000Z</time>
      </trkpt>
      <trkpt lat="43.97994" lon="7.26186">
        <ele>936.1</ele>
        <time>2025-01-18T09:48:45.000Z</time>
      </trkpt>
      <trkpt lat="43.97999" lon="7.26186">
        <ele>937</ele>
        <time>2025-01-18T09:48:49.000Z</time>
      </trkpt>
      <trkpt lat="43.98003" lon="7.26183">
        <ele>937.9</ele>
        <time>2025-01-18T09:48:53.000Z</time>
      </trkpt>
      <trkpt lat="43.98008" lon="7.26181">
        <ele>938.4</ele>
        <time>2025-01-18T09:48:57.000Z</time>
      </trkpt>
      <trkpt lat="43.98014" lon="7.26184">
        <ele>938.9</ele>
        <time>2025-01-18T09:49:01.000Z</time>
      </trkpt>
      <trkpt lat="43.98014" lon="7.26191">
        <ele>939.7</ele>
        <time>2025-01-18T09:49:07.000Z</time>
      </trkpt>
      <trkpt lat="43.98019" lon="7.26197">
        <ele>939.9</ele>
        <time>2025-01-18T09:49:10.000Z</time>
      </trkpt>
      <trkpt lat="43.98021" lon="7.26204">
        <ele>940.1</ele>
        <time>2025-01-18T09:49:13.000Z</time>
      </trkpt>
      <trkpt lat="43.98022" lon="7.26211">
        <ele>940.4</ele>
        <time>2025-01-18T09:49:18.000Z</time>
      </trkpt>
      <trkpt lat="43.98023" lon="7.26219">
        <ele>940.6</ele>
        <time>2025-01-18T09:49:21.000Z</time>
      </trkpt>
      <trkpt lat="43.98025" lon="7.26224">
        <ele>940.8</ele>
        <time>2025-01-18T09:49:24.000Z</time>
      </trkpt>
      <trkpt lat="43.98028" lon="7.26231">
        <ele>941</ele>
        <time>2025-01-18T09:49:29.000Z</time>
      </trkpt>
      <trkpt lat="43.9803" lon="7.26238">
        <ele>941.1</ele>
        <time>2025-01-18T09:49:33.000Z</time>
      </trkpt>
      <trkpt lat="43.98034" lon="7.2624">
        <ele>941.3</ele>
        <time>2025-01-18T09:49:37.000Z</time>
      </trkpt>
      <trkpt lat="43.98036" lon="7.26248">
        <ele>941.3</ele>
        <time>2025-01-18T09:49:39.000Z</time>
      </trkpt>
      <trkpt lat="43.98036" lon="7.26251">
        <ele>941.3</ele>
        <time>2025-01-18T09:49:40.000Z</time>
      </trkpt>
      <trkpt lat="43.98036" lon="7.26252">
        <ele>941.3</ele>
        <time>2025-01-18T09:49:41.000Z</time>
      </trkpt>
      <trkpt lat="43.98036" lon="7.26253">
        <ele>941.3</ele>
        <time>2025-01-18T09:49:42.000Z</time>
      </trkpt>
      <trkpt lat="43.98039" lon="7.26254">
        <ele>941.4</ele>
        <time>2025-01-18T09:49:45.000Z</time>
      </trkpt>
      <trkpt lat="43.9804" lon="7.26255">
        <ele>941.4</ele>
        <time>2025-01-18T09:49:46.000Z</time>
      </trkpt>
      <trkpt lat="43.98041" lon="7.26258">
        <ele>941.4</ele>
        <time>2025-01-18T09:49:47.000Z</time>
      </trkpt>
      <trkpt lat="43.98048" lon="7.26259">
        <ele>941.4</ele>
        <time>2025-01-18T09:49:49.000Z</time>
      </trkpt>
      <trkpt lat="43.98053" lon="7.26258">
        <ele>941.4</ele>
        <time>2025-01-18T09:49:51.000Z</time>
      </trkpt>
      <trkpt lat="43.98057" lon="7.26262">
        <ele>941.5</ele>
        <time>2025-01-18T09:49:53.000Z</time>
      </trkpt>
      <trkpt lat="43.98062" lon="7.26267">
        <ele>941.6</ele>
        <time>2025-01-18T09:49:55.000Z</time>
      </trkpt>
      <trkpt lat="43.98065" lon="7.26271">
        <ele>941.8</ele>
        <time>2025-01-18T09:49:57.000Z</time>
      </trkpt>
      <trkpt lat="43.98069" lon="7.26275">
        <ele>941.9</ele>
        <time>2025-01-18T09:49:59.000Z</time>
      </trkpt>
      <trkpt lat="43.98074" lon="7.26279">
        <ele>942</ele>
        <time>2025-01-18T09:50:02.000Z</time>
      </trkpt>
      <trkpt lat="43.98078" lon="7.26284">
        <ele>942.1</ele>
        <time>2025-01-18T09:50:04.000Z</time>
      </trkpt>
      <trkpt lat="43.98083" lon="7.26286">
        <ele>942.4</ele>
        <time>2025-01-18T09:50:07.000Z</time>
      </trkpt>
      <trkpt lat="43.9809" lon="7.26287">
        <ele>942.6</ele>
        <time>2025-01-18T09:50:10.000Z</time>
      </trkpt>
      <trkpt lat="43.98092" lon="7.26292">
        <ele>942.9</ele>
        <time>2025-01-18T09:50:12.000Z</time>
      </trkpt>
      <trkpt lat="43.98095" lon="7.26299">
        <ele>943.2</ele>
        <time>2025-01-18T09:50:14.000Z</time>
      </trkpt>
      <trkpt lat="43.98098" lon="7.26305">
        <ele>943.5</ele>
        <time>2025-01-18T09:50:17.000Z</time>
      </trkpt>
      <trkpt lat="43.98103" lon="7.26304">
        <ele>943.9</ele>
        <time>2025-01-18T09:50:22.000Z</time>
      </trkpt>
      <trkpt lat="43.98109" lon="7.26304">
        <ele>944.2</ele>
        <time>2025-01-18T09:50:26.000Z</time>
      </trkpt>
      <trkpt lat="43.98112" lon="7.263">
        <ele>944.3</ele>
        <time>2025-01-18T09:50:28.000Z</time>
      </trkpt>
      <trkpt lat="43.98124" lon="7.26289">
        <ele>944.4</ele>
        <time>2025-01-18T09:50:34.000Z</time>
      </trkpt>
      <trkpt lat="43.98128" lon="7.26285">
        <ele>944.5</ele>
        <time>2025-01-18T09:50:37.000Z</time>
      </trkpt>
      <trkpt lat="43.98134" lon="7.26281">
        <ele>944.7</ele>
        <time>2025-01-18T09:50:41.000Z</time>
      </trkpt>
      <trkpt lat="43.98142" lon="7.26279">
        <ele>944.7</ele>
        <time>2025-01-18T09:50:47.000Z</time>
      </trkpt>
      <trkpt lat="43.98213" lon="7.26323">
        <ele>945.1</ele>
        <time>2025-01-18T09:51:30.000Z</time>
      </trkpt>
      <trkpt lat="43.98227" lon="7.2631">
        <ele>945.5</ele>
        <time>2025-01-18T09:51:37.000Z</time>
      </trkpt>
      <trkpt lat="43.98229" lon="7.26304">
        <ele>946</ele>
        <time>2025-01-18T09:51:38.000Z</time>
      </trkpt>
      <trkpt lat="43.98234" lon="7.26301">
        <ele>947.3</ele>
        <time>2025-01-18T09:51:41.000Z</time>
      </trkpt>
      <trkpt lat="43.98239" lon="7.26295">
        <ele>948.2</ele>
        <time>2025-01-18T09:51:44.000Z</time>
      </trkpt>
      <trkpt lat="43.98244" lon="7.26289">
        <ele>948.8</ele>
        <time>2025-01-18T09:51:47.000Z</time>
      </trkpt>
      <trkpt lat="43.98249" lon="7.26284">
        <ele>949.1</ele>
        <time>2025-01-18T09:51:49.000Z</time>
      </trkpt>
      <trkpt lat="43.98253" lon="7.26279">
        <ele>949.5</ele>
        <time>2025-01-18T09:51:52.000Z</time>
      </trkpt>
      <trkpt lat="43.98259" lon="7.26278">
        <ele>950.4</ele>
        <time>2025-01-18T09:51:59.000Z</time>
      </trkpt>
      <trkpt lat="43.98288" lon="7.26301">
        <ele>950.7</ele>
        <time>2025-01-18T09:52:14.000Z</time>
      </trkpt>
      <trkpt lat="43.98292" lon="7.26305">
        <ele>951.2</ele>
        <time>2025-01-18T09:52:17.000Z</time>
      </trkpt>
      <trkpt lat="43.98298" lon="7.26308">
        <ele>951.8</ele>
        <time>2025-01-18T09:52:22.000Z</time>
      </trkpt>
      <trkpt lat="43.9836" lon="7.26338">
        <ele>952.5</ele>
        <time>2025-01-18T09:53:03.000Z</time>
      </trkpt>
      <trkpt lat="43.98364" lon="7.26344">
        <ele>954.4</ele>
        <time>2025-01-18T09:53:07.000Z</time>
      </trkpt>
      <trkpt lat="43.98379" lon="7.26352">
        <ele>955.2</ele>
        <time>2025-01-18T09:53:14.000Z</time>
      </trkpt>
      <trkpt lat="43.98408" lon="7.26322">
        <ele>956.1</ele>
        <time>2025-01-18T09:53:31.000Z</time>
      </trkpt>
      <trkpt lat="43.98413" lon="7.2632">
        <ele>956.8</ele>
        <time>2025-01-18T09:53:34.000Z</time>
      </trkpt>
      <trkpt lat="43.98418" lon="7.26317">
        <ele>957.3</ele>
        <time>2025-01-18T09:53:36.000Z</time>
      </trkpt>
      <trkpt lat="43.98424" lon="7.26315">
        <ele>957.7</ele>
        <time>2025-01-18T09:53:39.000Z</time>
      </trkpt>
      <trkpt lat="43.98429" lon="7.26311">
        <ele>957.9</ele>
        <time>2025-01-18T09:53:42.000Z</time>
      </trkpt>
      <trkpt lat="43.98432" lon="7.26306">
        <ele>958</ele>
        <time>2025-01-18T09:53:44.000Z</time>
      </trkpt>
      <trkpt lat="43.98434" lon="7.26298">
        <ele>958.1</ele>
        <time>2025-01-18T09:53:46.000Z</time>
      </trkpt>
      <trkpt lat="43.98438" lon="7.26292">
        <ele>958.3</ele>
        <time>2025-01-18T09:53:49.000Z</time>
      </trkpt>
      <trkpt lat="43.9844" lon="7.26287">
        <ele>958.3</ele>
        <time>2025-01-18T09:53:51.000Z</time>
      </trkpt>
      <trkpt lat="43.98444" lon="7.2628">
        <ele>958.5</ele>
        <time>2025-01-18T09:53:54.000Z</time>
      </trkpt>
      <trkpt lat="43.98449" lon="7.26282">
        <ele>958.6</ele>
        <time>2025-01-18T09:53:58.000Z</time>
      </trkpt>
      <trkpt lat="43.98454" lon="7.26287">
        <ele>958.8</ele>
        <time>2025-01-18T09:54:01.000Z</time>
      </trkpt>
      <trkpt lat="43.98471" lon="7.26328">
        <ele>959</ele>
        <time>2025-01-18T09:54:22.000Z</time>
      </trkpt>
      <trkpt lat="43.98475" lon="7.26334">
        <ele>959.7</ele>
        <time>2025-01-18T09:54:25.000Z</time>
      </trkpt>
      <trkpt lat="43.98485" lon="7.26326">
        <ele>961.1</ele>
        <time>2025-01-18T09:54:35.000Z</time>
      </trkpt>
      <trkpt lat="43.98488" lon="7.26322">
        <ele>962.1</ele>
        <time>2025-01-18T09:54:42.000Z</time>
      </trkpt>
      <trkpt lat="43.9849" lon="7.26322">
        <ele>962.1</ele>
        <time>2025-01-18T09:54:43.000Z</time>
      </trkpt>
      <trkpt lat="43.98496" lon="7.26285">
        <ele>962.3</ele>
        <time>2025-01-18T09:55:01.000Z</time>
      </trkpt>
      <trkpt lat="43.98494" lon="7.26278">
        <ele>962.4</ele>
        <time>2025-01-18T09:55:02.000Z</time>
      </trkpt>
      <trkpt lat="43.98495" lon="7.26274">
        <ele>962.6</ele>
        <time>2025-01-18T09:55:03.000Z</time>
      </trkpt>
      <trkpt lat="43.98496" lon="7.26272">
        <ele>962.6</ele>
        <time>2025-01-18T09:55:04.000Z</time>
      </trkpt>
      <trkpt lat="43.98499" lon="7.26264">
        <ele>962.9</ele>
        <time>2025-01-18T09:55:07.000Z</time>
      </trkpt>
      <trkpt lat="43.98502" lon="7.26256">
        <ele>963.3</ele>
        <time>2025-01-18T09:55:10.000Z</time>
      </trkpt>
      <trkpt lat="43.98507" lon="7.26252">
        <ele>963.6</ele>
        <time>2025-01-18T09:55:13.000Z</time>
      </trkpt>
      <trkpt lat="43.98511" lon="7.26252">
        <ele>964.3</ele>
        <time>2025-01-18T09:55:19.000Z</time>
      </trkpt>
      <trkpt lat="43.98516" lon="7.26256">
        <ele>965</ele>
        <time>2025-01-18T09:55:24.000Z</time>
      </trkpt>
      <trkpt lat="43.98519" lon="7.26264">
        <ele>965.4</ele>
        <time>2025-01-18T09:55:28.000Z</time>
      </trkpt>
      <trkpt lat="43.98523" lon="7.2627">
        <ele>965.8</ele>
        <time>2025-01-18T09:55:31.000Z</time>
      </trkpt>
      <trkpt lat="43.98527" lon="7.26276">
        <ele>966.1</ele>
        <time>2025-01-18T09:55:36.000Z</time>
      </trkpt>
      <trkpt lat="43.98531" lon="7.2628">
        <ele>966.3</ele>
        <time>2025-01-18T09:55:39.000Z</time>
      </trkpt>
      <trkpt lat="43.98536" lon="7.26283">
        <ele>967</ele>
        <time>2025-01-18T09:55:45.000Z</time>
      </trkpt>
      <trkpt lat="43.98542" lon="7.26285">
        <ele>967.4</ele>
        <time>2025-01-18T09:55:48.000Z</time>
      </trkpt>
      <trkpt lat="43.98557" lon="7.26299">
        <ele>967.6</ele>
        <time>2025-01-18T09:55:55.000Z</time>
      </trkpt>
      <trkpt lat="43.98563" lon="7.26301">
        <ele>968.3</ele>
        <time>2025-01-18T09:55:58.000Z</time>
      </trkpt>
      <trkpt lat="43.98567" lon="7.26306">
        <ele>968.9</ele>
        <time>2025-01-18T09:56:01.000Z</time>
      </trkpt>
      <trkpt lat="43.98572" lon="7.26309">
        <ele>969.5</ele>
        <time>2025-01-18T09:56:04.000Z</time>
      </trkpt>
      <trkpt lat="43.98577" lon="7.26315">
        <ele>970.1</ele>
        <time>2025-01-18T09:56:07.000Z</time>
      </trkpt>
      <trkpt lat="43.9858" lon="7.26321">
        <ele>970.3</ele>
        <time>2025-01-18T09:56:09.000Z</time>
      </trkpt>
      <trkpt lat="43.98584" lon="7.26326">
        <ele>970.5</ele>
        <time>2025-01-18T09:56:12.000Z</time>
      </trkpt>
      <trkpt lat="43.98587" lon="7.26332">
        <ele>970.8</ele>
        <time>2025-01-18T09:56:19.000Z</time>
      </trkpt>
      <trkpt lat="43.98591" lon="7.26335">
        <ele>970.8</ele>
        <time>2025-01-18T09:56:22.000Z</time>
      </trkpt>
      <trkpt lat="43.98596" lon="7.26337">
        <ele>970.9</ele>
        <time>2025-01-18T09:56:25.000Z</time>
      </trkpt>
      <trkpt lat="43.98602" lon="7.26338">
        <ele>971</ele>
        <time>2025-01-18T09:56:28.000Z</time>
      </trkpt>
      <trkpt lat="43.98606" lon="7.2634">
        <ele>971.2</ele>
        <time>2025-01-18T09:56:31.000Z</time>
      </trkpt>
      <trkpt lat="43.98611" lon="7.26346">
        <ele>971.5</ele>
        <time>2025-01-18T09:56:35.000Z</time>
      </trkpt>
      <trkpt lat="43.98616" lon="7.26348">
        <ele>972.1</ele>
        <time>2025-01-18T09:56:41.000Z</time>
      </trkpt>
      <trkpt lat="43.98621" lon="7.26347">
        <ele>972.9</ele>
        <time>2025-01-18T09:56:47.000Z</time>
      </trkpt>
      <trkpt lat="43.98625" lon="7.26343">
        <ele>973.8</ele>
        <time>2025-01-18T09:56:58.000Z</time>
      </trkpt>
      <trkpt lat="43.98627" lon="7.26337">
        <ele>974.1</ele>
        <time>2025-01-18T09:57:05.000Z</time>
      </trkpt>
      <trkpt lat="43.98621" lon="7.26329">
        <ele>974.2</ele>
        <time>2025-01-18T09:57:11.000Z</time>
      </trkpt>
      <trkpt lat="43.98616" lon="7.2632">
        <ele>974.3</ele>
        <time>2025-01-18T09:57:13.000Z</time>
      </trkpt>
      <trkpt lat="43.98613" lon="7.26315">
        <ele>974.3</ele>
        <time>2025-01-18T09:57:14.000Z</time>
      </trkpt>
      <trkpt lat="43.98609" lon="7.26307">
        <ele>974.3</ele>
        <time>2025-01-18T09:57:16.000Z</time>
      </trkpt>
      <trkpt lat="43.98607" lon="7.263">
        <ele>974.3</ele>
        <time>2025-01-18T09:57:18.000Z</time>
      </trkpt>
      <trkpt lat="43.98605" lon="7.26291">
        <ele>974.3</ele>
        <time>2025-01-18T09:57:20.000Z</time>
      </trkpt>
      <trkpt lat="43.98603" lon="7.26284">
        <ele>974.3</ele>
        <time>2025-01-18T09:57:22.000Z</time>
      </trkpt>
      <trkpt lat="43.986" lon="7.26273">
        <ele>974.3</ele>
        <time>2025-01-18T09:57:24.000Z</time>
      </trkpt>
      <trkpt lat="43.98598" lon="7.26263">
        <ele>974.3</ele>
        <time>2025-01-18T09:57:26.000Z</time>
      </trkpt>
      <trkpt lat="43.98595" lon="7.26256">
        <ele>974.4</ele>
        <time>2025-01-18T09:57:28.000Z</time>
      </trkpt>
      <trkpt lat="43.98594" lon="7.26248">
        <ele>974.4</ele>
        <time>2025-01-18T09:57:30.000Z</time>
      </trkpt>
      <trkpt lat="43.98596" lon="7.2624">
        <ele>974.5</ele>
        <time>2025-01-18T09:57:32.000Z</time>
      </trkpt>
      <trkpt lat="43.98597" lon="7.26234">
        <ele>974.6</ele>
        <time>2025-01-18T09:57:34.000Z</time>
      </trkpt>
      <trkpt lat="43.98598" lon="7.26225">
        <ele>974.7</ele>
        <time>2025-01-18T09:57:37.000Z</time>
      </trkpt>
      <trkpt lat="43.98599" lon="7.26218">
        <ele>975</ele>
        <time>2025-01-18T09:57:40.000Z</time>
      </trkpt>
      <trkpt lat="43.98602" lon="7.26212">
        <ele>975.5</ele>
        <time>2025-01-18T09:57:43.000Z</time>
      </trkpt>
      <trkpt lat="43.98603" lon="7.26205">
        <ele>976</ele>
        <time>2025-01-18T09:57:47.000Z</time>
      </trkpt>
      <trkpt lat="43.986" lon="7.26198">
        <ele>976.5</ele>
        <time>2025-01-18T09:57:51.000Z</time>
      </trkpt>
      <trkpt lat="43.98599" lon="7.26191">
        <ele>976.9</ele>
        <time>2025-01-18T09:57:55.000Z</time>
      </trkpt>
      <trkpt lat="43.98599" lon="7.26184">
        <ele>977.5</ele>
        <time>2025-01-18T09:57:59.000Z</time>
      </trkpt>
      <trkpt lat="43.98597" lon="7.26177">
        <ele>977.8</ele>
        <time>2025-01-18T09:58:02.000Z</time>
      </trkpt>
      <trkpt lat="43.98596" lon="7.2617">
        <ele>978.1</ele>
        <time>2025-01-18T09:58:05.000Z</time>
      </trkpt>
      <trkpt lat="43.98593" lon="7.26163">
        <ele>978.5</ele>
        <time>2025-01-18T09:58:08.000Z</time>
      </trkpt>
      <trkpt lat="43.9859" lon="7.26155">
        <ele>978.7</ele>
        <time>2025-01-18T09:58:11.000Z</time>
      </trkpt>
      <trkpt lat="43.98587" lon="7.26148">
        <ele>978.9</ele>
        <time>2025-01-18T09:58:14.000Z</time>
      </trkpt>
      <trkpt lat="43.98583" lon="7.26141">
        <ele>979.2</ele>
        <time>2025-01-18T09:58:17.000Z</time>
      </trkpt>
      <trkpt lat="43.9858" lon="7.26137">
        <ele>979.6</ele>
        <time>2025-01-18T09:58:24.000Z</time>
      </trkpt>
      <trkpt lat="43.98581" lon="7.26136">
        <ele>979.6</ele>
        <time>2025-01-18T09:58:26.000Z</time>
      </trkpt>
      <trkpt lat="43.98581" lon="7.26135">
        <ele>979.6</ele>
        <time>2025-01-18T09:58:27.000Z</time>
      </trkpt>
      <trkpt lat="43.9858" lon="7.26137">
        <ele>980</ele>
        <time>2025-01-18T09:59:47.000Z</time>
      </trkpt>
      <trkpt lat="43.9858" lon="7.26137">
        <ele>980</ele>
        <time>2025-01-18T09:59:48.000Z</time>
      </trkpt>
      <trkpt lat="43.9858" lon="7.26137">
        <ele>980</ele>
        <time>2025-01-18T09:59:49.000Z</time>
      </trkpt>
      <trkpt lat="43.9858" lon="7.26137">
        <ele>980</ele>
        <time>2025-01-18T09:59:50.000Z</time>
      </trkpt>
      <trkpt lat="43.9858" lon="7.26137">
        <ele>980</ele>
        <time>2025-01-18T09:59:51.000Z</time>
      </trkpt>
      <trkpt lat="43.98577" lon="7.26142">
        <ele>979.4</ele>
        <time>2025-01-18T10:00:43.000Z</time>
      </trkpt>
      <trkpt lat="43.98578" lon="7.2614">
        <ele>977.9</ele>
        <time>2025-01-18T10:06:34.000Z</time>
      </trkpt>
      <trkpt lat="43.9858" lon="7.26142">
        <ele>977.9</ele>
        <time>2025-01-18T10:06:40.000Z</time>
      </trkpt>
      <trkpt lat="43.98579" lon="7.26141">
        <ele>978</ele>
        <time>2025-01-18T10:06:41.000Z</time>
      </trkpt>
      <trkpt lat="43.98579" lon="7.26141">
        <ele>978</ele>
        <time>2025-01-18T10:06:42.000Z</time>
      </trkpt>
      <trkpt lat="43.98579" lon="7.2614">
        <ele>978</ele>
        <time>2025-01-18T10:06:43.000Z</time>
      </trkpt>
      <trkpt lat="43.98579" lon="7.2614">
        <ele>978</ele>
        <time>2025-01-18T10:06:44.000Z</time>
      </trkpt>
      <trkpt lat="43.98579" lon="7.26139">
        <ele>978.1</ele>
        <time>2025-01-18T10:06:45.000Z</time>
      </trkpt>
      <trkpt lat="43.98579" lon="7.26139">
        <ele>978.1</ele>
        <time>2025-01-18T10:06:46.000Z</time>
      </trkpt>
      <trkpt lat="43.98579" lon="7.26139">
        <ele>978.2</ele>
        <time>2025-01-18T10:06:50.000Z</time>
      </trkpt>
      <trkpt lat="43.98579" lon="7.26139">
        <ele>978.2</ele>
        <time>2025-01-18T10:06:51.000Z</time>
      </trkpt>
      <trkpt lat="43.98579" lon="7.26139">
        <ele>978.2</ele>
        <time>2025-01-18T10:06:52.000Z</time>
      </trkpt>
      <trkpt lat="43.98579" lon="7.26139">
        <ele>978.2</ele>
        <time>2025-01-18T10:06:53.000Z</time>
      </trkpt>
      <trkpt lat="43.98579" lon="7.26139">
        <ele>978.2</ele>
        <time>2025-01-18T10:06:54.000Z</time>
      </trkpt>
      <trkpt lat="43.98582" lon="7.26138">
        <ele>978.2</ele>
        <time>2025-01-18T10:06:58.000Z</time>
      </trkpt>
      <trkpt lat="43.98583" lon="7.26137">
        <ele>978.2</ele>
        <time>2025-01-18T10:06:59.000Z</time>
      </trkpt>
      <trkpt lat="43.98589" lon="7.26135">
        <ele>978.3</ele>
        <time>2025-01-18T10:07:02.000Z</time>
      </trkpt>
      <trkpt lat="43.98593" lon="7.26132">
        <ele>978.3</ele>
        <time>2025-01-18T10:07:05.000Z</time>
      </trkpt>
      <trkpt lat="43.98599" lon="7.2613">
        <ele>978.4</ele>
        <time>2025-01-18T10:07:08.000Z</time>
      </trkpt>
      <trkpt lat="43.98605" lon="7.26127">
        <ele>978.5</ele>
        <time>2025-01-18T10:07:11.000Z</time>
      </trkpt>
      <trkpt lat="43.9861" lon="7.26125">
        <ele>978.6</ele>
        <time>2025-01-18T10:07:13.000Z</time>
      </trkpt>
      <trkpt lat="43.98616" lon="7.26122">
        <ele>978.7</ele>
        <time>2025-01-18T10:07:16.000Z</time>
      </trkpt>
      <trkpt lat="43.98622" lon="7.2612">
        <ele>978.7</ele>
        <time>2025-01-18T10:07:19.000Z</time>
      </trkpt>
      <trkpt lat="43.98628" lon="7.26118">
        <ele>978.8</ele>
        <time>2025-01-18T10:07:22.000Z</time>
      </trkpt>
      <trkpt lat="43.98633" lon="7.26119">
        <ele>978.9</ele>
        <time>2025-01-18T10:07:25.000Z</time>
      </trkpt>
      <trkpt lat="43.98638" lon="7.26119">
        <ele>979.1</ele>
        <time>2025-01-18T10:07:28.000Z</time>
      </trkpt>
      <trkpt lat="43.98644" lon="7.26119">
        <ele>979.3</ele>
        <time>2025-01-18T10:07:31.000Z</time>
      </trkpt>
      <trkpt lat="43.98647" lon="7.26109">
        <ele>979.4</ele>
        <time>2025-01-18T10:07:34.000Z</time>
      </trkpt>
      <trkpt lat="43.9865" lon="7.26104">
        <ele>979.4</ele>
        <time>2025-01-18T10:07:37.000Z</time>
      </trkpt>
      <trkpt lat="43.98653" lon="7.26097">
        <ele>979.5</ele>
        <time>2025-01-18T10:07:40.000Z</time>
      </trkpt>
      <trkpt lat="43.98654" lon="7.2609">
        <ele>979.8</ele>
        <time>2025-01-18T10:07:48.000Z</time>
      </trkpt>
      <trkpt lat="43.98658" lon="7.26086">
        <ele>980.1</ele>
        <time>2025-01-18T10:07:56.000Z</time>
      </trkpt>
      <trkpt lat="43.98659" lon="7.2608">
        <ele>980.1</ele>
        <time>2025-01-18T10:08:02.000Z</time>
      </trkpt>
      <trkpt lat="43.98664" lon="7.26075">
        <ele>980</ele>
        <time>2025-01-18T10:08:07.000Z</time>
      </trkpt>
      <trkpt lat="43.98667" lon="7.2607">
        <ele>980.1</ele>
        <time>2025-01-18T10:08:09.000Z</time>
      </trkpt>
      <trkpt lat="43.98671" lon="7.26065">
        <ele>980.1</ele>
        <time>2025-01-18T10:08:12.000Z</time>
      </trkpt>
      <trkpt lat="43.98675" lon="7.26061">
        <ele>980.1</ele>
        <time>2025-01-18T10:08:15.000Z</time>
      </trkpt>
      <trkpt lat="43.98675" lon="7.26055">
        <ele>980.1</ele>
        <time>2025-01-18T10:08:17.000Z</time>
      </trkpt>
      <trkpt lat="43.98676" lon="7.26047">
        <ele>980.1</ele>
        <time>2025-01-18T10:08:19.000Z</time>
      </trkpt>
      <trkpt lat="43.98678" lon="7.2604">
        <ele>980.1</ele>
        <time>2025-01-18T10:08:22.000Z</time>
      </trkpt>
      <trkpt lat="43.98679" lon="7.26033">
        <ele>980.1</ele>
        <time>2025-01-18T10:08:24.000Z</time>
      </trkpt>
      <trkpt lat="43.98679" lon="7.26026">
        <ele>980.2</ele>
        <time>2025-01-18T10:08:26.000Z</time>
      </trkpt>
      <trkpt lat="43.98681" lon="7.26018">
        <ele>980.2</ele>
        <time>2025-01-18T10:08:29.000Z</time>
      </trkpt>
      <trkpt lat="43.98685" lon="7.26011">
        <ele>980.2</ele>
        <time>2025-01-18T10:08:32.000Z</time>
      </trkpt>
      <trkpt lat="43.98688" lon="7.26004">
        <ele>980.3</ele>
        <time>2025-01-18T10:08:35.000Z</time>
      </trkpt>
      <trkpt lat="43.9869" lon="7.25998">
        <ele>980.3</ele>
        <time>2025-01-18T10:08:37.000Z</time>
      </trkpt>
      <trkpt lat="43.98694" lon="7.25991">
        <ele>980.4</ele>
        <time>2025-01-18T10:08:40.000Z</time>
      </trkpt>
      <trkpt lat="43.98698" lon="7.25985">
        <ele>980.7</ele>
        <time>2025-01-18T10:08:44.000Z</time>
      </trkpt>
      <trkpt lat="43.98701" lon="7.25979">
        <ele>981</ele>
        <time>2025-01-18T10:08:48.000Z</time>
      </trkpt>
      <trkpt lat="43.98705" lon="7.25973">
        <ele>981.5</ele>
        <time>2025-01-18T10:08:52.000Z</time>
      </trkpt>
      <trkpt lat="43.9871" lon="7.25969">
        <ele>982.2</ele>
        <time>2025-01-18T10:08:56.000Z</time>
      </trkpt>
      <trkpt lat="43.98714" lon="7.25966">
        <ele>982.9</ele>
        <time>2025-01-18T10:09:00.000Z</time>
      </trkpt>
      <trkpt lat="43.98718" lon="7.25969">
        <ele>983.7</ele>
        <time>2025-01-18T10:09:04.000Z</time>
      </trkpt>
      <trkpt lat="43.98722" lon="7.25974">
        <ele>984.1</ele>
        <time>2025-01-18T10:09:08.000Z</time>
      </trkpt>
      <trkpt lat="43.98727" lon="7.25978">
        <ele>984.5</ele>
        <time>2025-01-18T10:09:12.000Z</time>
      </trkpt>
      <trkpt lat="43.98731" lon="7.25985">
        <ele>985.1</ele>
        <time>2025-01-18T10:09:16.000Z</time>
      </trkpt>
      <trkpt lat="43.98734" lon="7.25991">
        <ele>986</ele>
        <time>2025-01-18T10:09:21.000Z</time>
      </trkpt>
      <trkpt lat="43.98738" lon="7.25996">
        <ele>987.1</ele>
        <time>2025-01-18T10:09:26.000Z</time>
      </trkpt>
      <trkpt lat="43.98742" lon="7.26">
        <ele>987.8</ele>
        <time>2025-01-18T10:09:30.000Z</time>
      </trkpt>
      <trkpt lat="43.98747" lon="7.26002">
        <ele>988.3</ele>
        <time>2025-01-18T10:09:34.000Z</time>
      </trkpt>
      <trkpt lat="43.98751" lon="7.26006">
        <ele>988.8</ele>
        <time>2025-01-18T10:09:38.000Z</time>
      </trkpt>
      <trkpt lat="43.98757" lon="7.26007">
        <ele>989.2</ele>
        <time>2025-01-18T10:09:42.000Z</time>
      </trkpt>
      <trkpt lat="43.98762" lon="7.26008">
        <ele>989.6</ele>
        <time>2025-01-18T10:09:45.000Z</time>
      </trkpt>
      <trkpt lat="43.98767" lon="7.26005">
        <ele>990.2</ele>
        <time>2025-01-18T10:09:49.000Z</time>
      </trkpt>
      <trkpt lat="43.98772" lon="7.26009">
        <ele>990.9</ele>
        <time>2025-01-18T10:09:54.000Z</time>
      </trkpt>
      <trkpt lat="43.98777" lon="7.2601">
        <ele>991.3</ele>
        <time>2025-01-18T10:09:57.000Z</time>
      </trkpt>
      <trkpt lat="43.98782" lon="7.26011">
        <ele>992.1</ele>
        <time>2025-01-18T10:10:01.000Z</time>
      </trkpt>
      <trkpt lat="43.98786" lon="7.26019">
        <ele>992.4</ele>
        <time>2025-01-18T10:10:03.000Z</time>
      </trkpt>
      <trkpt lat="43.98787" lon="7.26025">
        <ele>992.9</ele>
        <time>2025-01-18T10:10:07.000Z</time>
      </trkpt>
      <trkpt lat="43.9879" lon="7.26031">
        <ele>993.6</ele>
        <time>2025-01-18T10:10:12.000Z</time>
      </trkpt>
      <trkpt lat="43.98793" lon="7.26036">
        <ele>994</ele>
        <time>2025-01-18T10:10:15.000Z</time>
      </trkpt>
      <trkpt lat="43.98796" lon="7.26041">
        <ele>994.6</ele>
        <time>2025-01-18T10:10:20.000Z</time>
      </trkpt>
      <trkpt lat="43.98798" lon="7.26048">
        <ele>995.1</ele>
        <time>2025-01-18T10:10:24.000Z</time>
      </trkpt>
      <trkpt lat="43.98799" lon="7.26054">
        <ele>995.6</ele>
        <time>2025-01-18T10:10:27.000Z</time>
      </trkpt>
      <trkpt lat="43.98804" lon="7.26059">
        <ele>996</ele>
        <time>2025-01-18T10:10:30.000Z</time>
      </trkpt>
      <trkpt lat="43.98808" lon="7.26063">
        <ele>996.5</ele>
        <time>2025-01-18T10:10:34.000Z</time>
      </trkpt>
      <trkpt lat="43.98811" lon="7.26067">
        <ele>996.9</ele>
        <time>2025-01-18T10:10:38.000Z</time>
      </trkpt>
      <trkpt lat="43.98814" lon="7.26073">
        <ele>997.5</ele>
        <time>2025-01-18T10:10:46.000Z</time>
      </trkpt>
      <trkpt lat="43.98816" lon="7.26078">
        <ele>997.7</ele>
        <time>2025-01-18T10:10:51.000Z</time>
      </trkpt>
      <trkpt lat="43.98819" lon="7.26083">
        <ele>997.8</ele>
        <time>2025-01-18T10:10:57.000Z</time>
      </trkpt>
      <trkpt lat="43.98824" lon="7.26088">
        <ele>997.9</ele>
        <time>2025-01-18T10:11:00.000Z</time>
      </trkpt>
      <trkpt lat="43.98828" lon="7.26095">
        <ele>998.1</ele>
        <time>2025-01-18T10:11:02.000Z</time>
      </trkpt>
      <trkpt lat="43.98832" lon="7.26101">
        <ele>998.5</ele>
        <time>2025-01-18T10:11:04.000Z</time>
      </trkpt>
      <trkpt lat="43.98836" lon="7.26105">
        <ele>999.4</ele>
        <time>2025-01-18T10:11:07.000Z</time>
      </trkpt>
      <trkpt lat="43.9884" lon="7.26104">
        <ele>1000.6</ele>
        <time>2025-01-18T10:11:11.000Z</time>
      </trkpt>
      <trkpt lat="43.98846" lon="7.26108">
        <ele>1001.6</ele>
        <time>2025-01-18T10:11:15.000Z</time>
      </trkpt>
      <trkpt lat="43.98851" lon="7.26109">
        <ele>1002.4</ele>
        <time>2025-01-18T10:11:19.000Z</time>
      </trkpt>
      <trkpt lat="43.98856" lon="7.26113">
        <ele>1003.1</ele>
        <time>2025-01-18T10:11:23.000Z</time>
      </trkpt>
      <trkpt lat="43.98861" lon="7.26114">
        <ele>1003.6</ele>
        <time>2025-01-18T10:11:26.000Z</time>
      </trkpt>
      <trkpt lat="43.98866" lon="7.26112">
        <ele>1004.2</ele>
        <time>2025-01-18T10:11:30.000Z</time>
      </trkpt>
      <trkpt lat="43.98872" lon="7.26113">
        <ele>1004.7</ele>
        <time>2025-01-18T10:11:34.000Z</time>
      </trkpt>
      <trkpt lat="43.98878" lon="7.26115">
        <ele>1005.1</ele>
        <time>2025-01-18T10:11:37.000Z</time>
      </trkpt>
      <trkpt lat="43.98883" lon="7.26117">
        <ele>1005.4</ele>
        <time>2025-01-18T10:11:40.000Z</time>
      </trkpt>
      <trkpt lat="43.98888" lon="7.26115">
        <ele>1005.9</ele>
        <time>2025-01-18T10:11:44.000Z</time>
      </trkpt>
      <trkpt lat="43.98893" lon="7.26116">
        <ele>1006.4</ele>
        <time>2025-01-18T10:11:47.000Z</time>
      </trkpt>
      <trkpt lat="43.98897" lon="7.26116">
        <ele>1007.2</ele>
        <time>2025-01-18T10:11:51.000Z</time>
      </trkpt>
      <trkpt lat="43.98901" lon="7.26111">
        <ele>1007.8</ele>
        <time>2025-01-18T10:11:55.000Z</time>
      </trkpt>
      <trkpt lat="43.98906" lon="7.26112">
        <ele>1008.4</ele>
        <time>2025-01-18T10:11:59.000Z</time>
      </trkpt>
      <trkpt lat="43.98911" lon="7.26112">
        <ele>1009.1</ele>
        <time>2025-01-18T10:12:03.000Z</time>
      </trkpt>
      <trkpt lat="43.98915" lon="7.26118">
        <ele>1009.9</ele>
        <time>2025-01-18T10:12:07.000Z</time>
      </trkpt>
      <trkpt lat="43.9892" lon="7.26124">
        <ele>1010.3</ele>
        <time>2025-01-18T10:12:10.000Z</time>
      </trkpt>
      <trkpt lat="43.98926" lon="7.26127">
        <ele>1010.7</ele>
        <time>2025-01-18T10:12:13.000Z</time>
      </trkpt>
      <trkpt lat="43.98932" lon="7.26125">
        <ele>1011</ele>
        <time>2025-01-18T10:12:16.000Z</time>
      </trkpt>
      <trkpt lat="43.98937" lon="7.26125">
        <ele>1011.2</ele>
        <time>2025-01-18T10:12:19.000Z</time>
      </trkpt>
      <trkpt lat="43.98941" lon="7.26121">
        <ele>1011.7</ele>
        <time>2025-01-18T10:12:23.000Z</time>
      </trkpt>
      <trkpt lat="43.98943" lon="7.26116">
        <ele>1012.1</ele>
        <time>2025-01-18T10:12:26.000Z</time>
      </trkpt>
      <trkpt lat="43.98945" lon="7.2611">
        <ele>1013</ele>
        <time>2025-01-18T10:12:32.000Z</time>
      </trkpt>
      <trkpt lat="43.9895" lon="7.26107">
        <ele>1014.1</ele>
        <time>2025-01-18T10:12:38.000Z</time>
      </trkpt>
      <trkpt lat="43.98951" lon="7.26099">
        <ele>1015.2</ele>
        <time>2025-01-18T10:12:44.000Z</time>
      </trkpt>
      <trkpt lat="43.98955" lon="7.26103">
        <ele>1015.7</ele>
        <time>2025-01-18T10:12:47.000Z</time>
      </trkpt>
      <trkpt lat="43.9896" lon="7.26105">
        <ele>1016.2</ele>
        <time>2025-01-18T10:12:51.000Z</time>
      </trkpt>
      <trkpt lat="43.98964" lon="7.26109">
        <ele>1016.4</ele>
        <time>2025-01-18T10:12:54.000Z</time>
      </trkpt>
      <trkpt lat="43.98967" lon="7.26114">
        <ele>1016.6</ele>
        <time>2025-01-18T10:12:56.000Z</time>
      </trkpt>
      <trkpt lat="43.98972" lon="7.26114">
        <ele>1017</ele>
        <time>2025-01-18T10:13:03.000Z</time>
      </trkpt>
      <trkpt lat="43.98976" lon="7.26111">
        <ele>1017.1</ele>
        <time>2025-01-18T10:13:08.000Z</time>
      </trkpt>
      <trkpt lat="43.9898" lon="7.26115">
        <ele>1017.2</ele>
        <time>2025-01-18T10:13:13.000Z</time>
      </trkpt>
      <trkpt lat="43.98986" lon="7.26115">
        <ele>1017.5</ele>
        <time>2025-01-18T10:13:21.000Z</time>
      </trkpt>
      <trkpt lat="43.98991" lon="7.26116">
        <ele>1017.8</ele>
        <time>2025-01-18T10:13:26.000Z</time>
      </trkpt>
      <trkpt lat="43.98992" lon="7.26108">
        <ele>1018</ele>
        <time>2025-01-18T10:13:30.000Z</time>
      </trkpt>
      <trkpt lat="43.9899" lon="7.26101">
        <ele>1018.1</ele>
        <time>2025-01-18T10:13:32.000Z</time>
      </trkpt>
      <trkpt lat="43.98994" lon="7.26096">
        <ele>1018.2</ele>
        <time>2025-01-18T10:13:36.000Z</time>
      </trkpt>
      <trkpt lat="43.99002" lon="7.26094">
        <ele>1018.3</ele>
        <time>2025-01-18T10:13:39.000Z</time>
      </trkpt>
      <trkpt lat="43.99005" lon="7.26089">
        <ele>1018.4</ele>
        <time>2025-01-18T10:13:41.000Z</time>
      </trkpt>
      <trkpt lat="43.99011" lon="7.26093">
        <ele>1018.5</ele>
        <time>2025-01-18T10:13:44.000Z</time>
      </trkpt>
      <trkpt lat="43.99016" lon="7.26095">
        <ele>1018.6</ele>
        <time>2025-01-18T10:13:46.000Z</time>
      </trkpt>
      <trkpt lat="43.99022" lon="7.26096">
        <ele>1018.8</ele>
        <time>2025-01-18T10:13:49.000Z</time>
      </trkpt>
      <trkpt lat="43.99026" lon="7.26102">
        <ele>1018.9</ele>
        <time>2025-01-18T10:13:52.000Z</time>
      </trkpt>
      <trkpt lat="43.9903" lon="7.26106">
        <ele>1019.1</ele>
        <time>2025-01-18T10:13:56.000Z</time>
      </trkpt>
      <trkpt lat="43.99034" lon="7.2611">
        <ele>1019.3</ele>
        <time>2025-01-18T10:13:58.000Z</time>
      </trkpt>
      <trkpt lat="43.99038" lon="7.26113">
        <ele>1019.4</ele>
        <time>2025-01-18T10:14:00.000Z</time>
      </trkpt>
      <trkpt lat="43.99042" lon="7.2611">
        <ele>1019.7</ele>
        <time>2025-01-18T10:14:04.000Z</time>
      </trkpt>
      <trkpt lat="43.99045" lon="7.26104">
        <ele>1020</ele>
        <time>2025-01-18T10:14:07.000Z</time>
      </trkpt>
      <trkpt lat="43.99047" lon="7.26098">
        <ele>1020.2</ele>
        <time>2025-01-18T10:14:09.000Z</time>
      </trkpt>
      <trkpt lat="43.99044" lon="7.26058">
        <ele>1020.5</ele>
        <time>2025-01-18T10:14:18.000Z</time>
      </trkpt>
      <trkpt lat="43.99045" lon="7.26051">
        <ele>1020.8</ele>
        <time>2025-01-18T10:14:20.000Z</time>
      </trkpt>
      <trkpt lat="43.99045" lon="7.26044">
        <ele>1021.1</ele>
        <time>2025-01-18T10:14:22.000Z</time>
      </trkpt>
      <trkpt lat="43.99043" lon="7.26036">
        <ele>1021.3</ele>
        <time>2025-01-18T10:14:24.000Z</time>
      </trkpt>
      <trkpt lat="43.9904" lon="7.2603">
        <ele>1021.7</ele>
        <time>2025-01-18T10:14:27.000Z</time>
      </trkpt>
      <trkpt lat="43.99038" lon="7.26022">
        <ele>1022.3</ele>
        <time>2025-01-18T10:14:31.000Z</time>
      </trkpt>
      <trkpt lat="43.99036" lon="7.26014">
        <ele>1022.7</ele>
        <time>2025-01-18T10:14:34.000Z</time>
      </trkpt>
      <trkpt lat="43.99033" lon="7.26006">
        <ele>1023</ele>
        <time>2025-01-18T10:14:37.000Z</time>
      </trkpt>
      <trkpt lat="43.99031" lon="7.25998">
        <ele>1023.2</ele>
        <time>2025-01-18T10:14:40.000Z</time>
      </trkpt>
      <trkpt lat="43.9903" lon="7.25991">
        <ele>1023.3</ele>
        <time>2025-01-18T10:14:43.000Z</time>
      </trkpt>
      <trkpt lat="43.99029" lon="7.25985">
        <ele>1023.6</ele>
        <time>2025-01-18T10:14:46.000Z</time>
      </trkpt>
      <trkpt lat="43.99031" lon="7.25978">
        <ele>1023.9</ele>
        <time>2025-01-18T10:14:50.000Z</time>
      </trkpt>
      <trkpt lat="43.99034" lon="7.25972">
        <ele>1024.1</ele>
        <time>2025-01-18T10:14:54.000Z</time>
      </trkpt>
      <trkpt lat="43.99036" lon="7.25966">
        <ele>1024.4</ele>
        <time>2025-01-18T10:14:57.000Z</time>
      </trkpt>
      <trkpt lat="43.99038" lon="7.25961">
        <ele>1024.8</ele>
        <time>2025-01-18T10:15:00.000Z</time>
      </trkpt>
      <trkpt lat="43.99042" lon="7.25955">
        <ele>1025.1</ele>
        <time>2025-01-18T10:15:03.000Z</time>
      </trkpt>
      <trkpt lat="43.99043" lon="7.25948">
        <ele>1025.5</ele>
        <time>2025-01-18T10:15:07.000Z</time>
      </trkpt>
      <trkpt lat="43.99044" lon="7.25941">
        <ele>1026.5</ele>
        <time>2025-01-18T10:15:11.000Z</time>
      </trkpt>
      <trkpt lat="43.99044" lon="7.25932">
        <ele>1027.4</ele>
        <time>2025-01-18T10:15:15.000Z</time>
      </trkpt>
      <trkpt lat="43.99046" lon="7.25926">
        <ele>1028.1</ele>
        <time>2025-01-18T10:15:20.000Z</time>
      </trkpt>
      <trkpt lat="43.99049" lon="7.25921">
        <ele>1028.6</ele>
        <time>2025-01-18T10:15:25.000Z</time>
      </trkpt>
      <trkpt lat="43.99051" lon="7.25915">
        <ele>1029</ele>
        <time>2025-01-18T10:15:29.000Z</time>
      </trkpt>
      <trkpt lat="43.99051" lon="7.25908">
        <ele>1029.6</ele>
        <time>2025-01-18T10:15:36.000Z</time>
      </trkpt>
      <trkpt lat="43.9905" lon="7.25902">
        <ele>1030.1</ele>
        <time>2025-01-18T10:15:42.000Z</time>
      </trkpt>
      <trkpt lat="43.99047" lon="7.25894">
        <ele>1030.7</ele>
        <time>2025-01-18T10:15:47.000Z</time>
      </trkpt>
      <trkpt lat="43.99045" lon="7.25887">
        <ele>1031.1</ele>
        <time>2025-01-18T10:15:50.000Z</time>
      </trkpt>
      <trkpt lat="43.99044" lon="7.25881">
        <ele>1031.5</ele>
        <time>2025-01-18T10:15:54.000Z</time>
      </trkpt>
      <trkpt lat="43.99044" lon="7.25875">
        <ele>1032.1</ele>
        <time>2025-01-18T10:16:00.000Z</time>
      </trkpt>
      <trkpt lat="43.99042" lon="7.25868">
        <ele>1033</ele>
        <time>2025-01-18T10:16:07.000Z</time>
      </trkpt>
      <trkpt lat="43.99042" lon="7.25862">
        <ele>1033.8</ele>
        <time>2025-01-18T10:16:12.000Z</time>
      </trkpt>
      <trkpt lat="43.99044" lon="7.25855">
        <ele>1034.7</ele>
        <time>2025-01-18T10:16:20.000Z</time>
      </trkpt>
      <trkpt lat="43.99047" lon="7.25849">
        <ele>1035.4</ele>
        <time>2025-01-18T10:16:25.000Z</time>
      </trkpt>
      <trkpt lat="43.9905" lon="7.25843">
        <ele>1035.8</ele>
        <time>2025-01-18T10:16:29.000Z</time>
      </trkpt>
      <trkpt lat="43.99052" lon="7.25836">
        <ele>1036.3</ele>
        <time>2025-01-18T10:16:35.000Z</time>
      </trkpt>
      <trkpt lat="43.99053" lon="7.25829">
        <ele>1036.8</ele>
        <time>2025-01-18T10:16:39.000Z</time>
      </trkpt>
      <trkpt lat="43.99051" lon="7.25823">
        <ele>1037.5</ele>
        <time>2025-01-18T10:16:43.000Z</time>
      </trkpt>
      <trkpt lat="43.9905" lon="7.25815">
        <ele>1038.1</ele>
        <time>2025-01-18T10:16:47.000Z</time>
      </trkpt>
      <trkpt lat="43.9905" lon="7.25807">
        <ele>1038.8</ele>
        <time>2025-01-18T10:16:52.000Z</time>
      </trkpt>
      <trkpt lat="43.99049" lon="7.258">
        <ele>1039.5</ele>
        <time>2025-01-18T10:16:57.000Z</time>
      </trkpt>
      <trkpt lat="43.99047" lon="7.25793">
        <ele>1040.5</ele>
        <time>2025-01-18T10:17:01.000Z</time>
      </trkpt>
      <trkpt lat="43.99044" lon="7.25788">
        <ele>1041.4</ele>
        <time>2025-01-18T10:17:05.000Z</time>
      </trkpt>
      <trkpt lat="43.99044" lon="7.25781">
        <ele>1042.3</ele>
        <time>2025-01-18T10:17:10.000Z</time>
      </trkpt>
      <trkpt lat="43.99042" lon="7.25775">
        <ele>1043.1</ele>
        <time>2025-01-18T10:17:15.000Z</time>
      </trkpt>
      <trkpt lat="43.99046" lon="7.2577">
        <ele>1044.3</ele>
        <time>2025-01-18T10:17:25.000Z</time>
      </trkpt>
      <trkpt lat="43.99047" lon="7.25764">
        <ele>1045</ele>
        <time>2025-01-18T10:17:31.000Z</time>
      </trkpt>
      <trkpt lat="43.99049" lon="7.25757">
        <ele>1045.7</ele>
        <time>2025-01-18T10:17:37.000Z</time>
      </trkpt>
      <trkpt lat="43.99047" lon="7.25751">
        <ele>1046.1</ele>
        <time>2025-01-18T10:17:41.000Z</time>
      </trkpt>
      <trkpt lat="43.99047" lon="7.25744">
        <ele>1046.8</ele>
        <time>2025-01-18T10:17:46.000Z</time>
      </trkpt>
      <trkpt lat="43.99045" lon="7.25736">
        <ele>1047.1</ele>
        <time>2025-01-18T10:17:50.000Z</time>
      </trkpt>
      <trkpt lat="43.99048" lon="7.25731">
        <ele>1048.1</ele>
        <time>2025-01-18T10:17:58.000Z</time>
      </trkpt>
      <trkpt lat="43.99049" lon="7.25729">
        <ele>1048.3</ele>
        <time>2025-01-18T10:18:00.000Z</time>
      </trkpt>
      <trkpt lat="43.9905" lon="7.25729">
        <ele>1048.4</ele>
        <time>2025-01-18T10:18:01.000Z</time>
      </trkpt>
      <trkpt lat="43.9905" lon="7.25724">
        <ele>1048.6</ele>
        <time>2025-01-18T10:18:05.000Z</time>
      </trkpt>
      <trkpt lat="43.9905" lon="7.25723">
        <ele>1048.7</ele>
        <time>2025-01-18T10:18:06.000Z</time>
      </trkpt>
      <trkpt lat="43.9905" lon="7.25721">
        <ele>1048.7</ele>
        <time>2025-01-18T10:18:07.000Z</time>
      </trkpt>
      <trkpt lat="43.99051" lon="7.25714">
        <ele>1049</ele>
        <time>2025-01-18T10:18:12.000Z</time>
      </trkpt>
      <trkpt lat="43.99052" lon="7.25707">
        <ele>1049.9</ele>
        <time>2025-01-18T10:18:19.000Z</time>
      </trkpt>
      <trkpt lat="43.99054" lon="7.257">
        <ele>1050.6</ele>
        <time>2025-01-18T10:18:24.000Z</time>
      </trkpt>
      <trkpt lat="43.99054" lon="7.25692">
        <ele>1051.4</ele>
        <time>2025-01-18T10:18:30.000Z</time>
      </trkpt>
      <trkpt lat="43.99056" lon="7.25686">
        <ele>1051.8</ele>
        <time>2025-01-18T10:18:34.000Z</time>
      </trkpt>
      <trkpt lat="43.99058" lon="7.25678">
        <ele>1052.4</ele>
        <time>2025-01-18T10:18:39.000Z</time>
      </trkpt>
      <trkpt lat="43.99061" lon="7.25673">
        <ele>1052.8</ele>
        <time>2025-01-18T10:18:42.000Z</time>
      </trkpt>
      <trkpt lat="43.99062" lon="7.2567">
        <ele>1054.2</ele>
        <time>2025-01-18T10:18:53.000Z</time>
      </trkpt>
      <trkpt lat="43.99061" lon="7.2567">
        <ele>1054.3</ele>
        <time>2025-01-18T10:18:54.000Z</time>
      </trkpt>
      <trkpt lat="43.99063" lon="7.25668">
        <ele>1054.4</ele>
        <time>2025-01-18T10:18:58.000Z</time>
      </trkpt>
      <trkpt lat="43.99064" lon="7.25667">
        <ele>1054.4</ele>
        <time>2025-01-18T10:18:59.000Z</time>
      </trkpt>
      <trkpt lat="43.99068" lon="7.25663">
        <ele>1054.5</ele>
        <time>2025-01-18T10:19:03.000Z</time>
      </trkpt>
      <trkpt lat="43.99071" lon="7.25659">
        <ele>1054.8</ele>
        <time>2025-01-18T10:19:07.000Z</time>
      </trkpt>
      <trkpt lat="43.99077" lon="7.25656">
        <ele>1055.3</ele>
        <time>2025-01-18T10:19:11.000Z</time>
      </trkpt>
      <trkpt lat="43.99082" lon="7.25656">
        <ele>1055.8</ele>
        <time>2025-01-18T10:19:15.000Z</time>
      </trkpt>
      <trkpt lat="43.99087" lon="7.25657">
        <ele>1056.3</ele>
        <time>2025-01-18T10:19:18.000Z</time>
      </trkpt>
      <trkpt lat="43.99092" lon="7.25659">
        <ele>1056.7</ele>
        <time>2025-01-18T10:19:23.000Z</time>
      </trkpt>
      <trkpt lat="43.99096" lon="7.25663">
        <ele>1056.6</ele>
        <time>2025-01-18T10:19:27.000Z</time>
      </trkpt>
      <trkpt lat="43.99101" lon="7.25663">
        <ele>1056.7</ele>
        <time>2025-01-18T10:19:31.000Z</time>
      </trkpt>
      <trkpt lat="43.99106" lon="7.25665">
        <ele>1056.9</ele>
        <time>2025-01-18T10:19:34.000Z</time>
      </trkpt>
      <trkpt lat="43.99111" lon="7.25667">
        <ele>1057.3</ele>
        <time>2025-01-18T10:19:37.000Z</time>
      </trkpt>
      <trkpt lat="43.99116" lon="7.25671">
        <ele>1057.5</ele>
        <time>2025-01-18T10:19:40.000Z</time>
      </trkpt>
      <trkpt lat="43.9912" lon="7.25675">
        <ele>1057.7</ele>
        <time>2025-01-18T10:19:43.000Z</time>
      </trkpt>
      <trkpt lat="43.99125" lon="7.25674">
        <ele>1057.8</ele>
        <time>2025-01-18T10:19:48.000Z</time>
      </trkpt>
      <trkpt lat="43.9913" lon="7.25676">
        <ele>1057.8</ele>
        <time>2025-01-18T10:19:52.000Z</time>
      </trkpt>
      <trkpt lat="43.99136" lon="7.25677">
        <ele>1057.7</ele>
        <time>2025-01-18T10:19:55.000Z</time>
      </trkpt>
      <trkpt lat="43.99141" lon="7.25678">
        <ele>1057.8</ele>
        <time>2025-01-18T10:19:58.000Z</time>
      </trkpt>
      <trkpt lat="43.99147" lon="7.2568">
        <ele>1058</ele>
        <time>2025-01-18T10:20:01.000Z</time>
      </trkpt>
      <trkpt lat="43.99152" lon="7.25681">
        <ele>1058.2</ele>
        <time>2025-01-18T10:20:04.000Z</time>
      </trkpt>
      <trkpt lat="43.99158" lon="7.25681">
        <ele>1058.6</ele>
        <time>2025-01-18T10:20:08.000Z</time>
      </trkpt>
      <trkpt lat="43.99164" lon="7.25681">
        <ele>1058.9</ele>
        <time>2025-01-18T10:20:12.000Z</time>
      </trkpt>
      <trkpt lat="43.99168" lon="7.25683">
        <ele>1059.3</ele>
        <time>2025-01-18T10:20:15.000Z</time>
      </trkpt>
      <trkpt lat="43.99173" lon="7.25681">
        <ele>1059.7</ele>
        <time>2025-01-18T10:20:18.000Z</time>
      </trkpt>
      <trkpt lat="43.99178" lon="7.25678">
        <ele>1060</ele>
        <time>2025-01-18T10:20:21.000Z</time>
      </trkpt>
      <trkpt lat="43.99182" lon="7.25674">
        <ele>1060.3</ele>
        <time>2025-01-18T10:20:24.000Z</time>
      </trkpt>
      <trkpt lat="43.99186" lon="7.2567">
        <ele>1060.5</ele>
        <time>2025-01-18T10:20:26.000Z</time>
      </trkpt>
      <trkpt lat="43.99191" lon="7.25667">
        <ele>1060.8</ele>
        <time>2025-01-18T10:20:29.000Z</time>
      </trkpt>
      <trkpt lat="43.99196" lon="7.25666">
        <ele>1061.1</ele>
        <time>2025-01-18T10:20:32.000Z</time>
      </trkpt>
      <trkpt lat="43.99201" lon="7.25665">
        <ele>1061.4</ele>
        <time>2025-01-18T10:20:35.000Z</time>
      </trkpt>
      <trkpt lat="43.99206" lon="7.25662">
        <ele>1061.7</ele>
        <time>2025-01-18T10:20:38.000Z</time>
      </trkpt>
      <trkpt lat="43.99211" lon="7.2566">
        <ele>1061.8</ele>
        <time>2025-01-18T10:20:42.000Z</time>
      </trkpt>
      <trkpt lat="43.99216" lon="7.25656">
        <ele>1062</ele>
        <time>2025-01-18T10:20:45.000Z</time>
      </trkpt>
      <trkpt lat="43.9922" lon="7.25656">
        <ele>1062.2</ele>
        <time>2025-01-18T10:20:48.000Z</time>
      </trkpt>
      <trkpt lat="43.99225" lon="7.25654">
        <ele>1062.6</ele>
        <time>2025-01-18T10:20:50.000Z</time>
      </trkpt>
      <trkpt lat="43.9923" lon="7.25652">
        <ele>1063</ele>
        <time>2025-01-18T10:20:53.000Z</time>
      </trkpt>
      <trkpt lat="43.99235" lon="7.25649">
        <ele>1063.3</ele>
        <time>2025-01-18T10:20:56.000Z</time>
      </trkpt>
      <trkpt lat="43.9924" lon="7.25644">
        <ele>1063.5</ele>
        <time>2025-01-18T10:20:59.000Z</time>
      </trkpt>
      <trkpt lat="43.99245" lon="7.25643">
        <ele>1063.8</ele>
        <time>2025-01-18T10:21:02.000Z</time>
      </trkpt>
      <trkpt lat="43.9925" lon="7.25642">
        <ele>1064.4</ele>
        <time>2025-01-18T10:21:09.000Z</time>
      </trkpt>
      <trkpt lat="43.99252" lon="7.25636">
        <ele>1064.6</ele>
        <time>2025-01-18T10:21:18.000Z</time>
      </trkpt>
      <trkpt lat="43.99252" lon="7.25629">
        <ele>1065</ele>
        <time>2025-01-18T10:21:26.000Z</time>
      </trkpt>
      <trkpt lat="43.99256" lon="7.25626">
        <ele>1065.1</ele>
        <time>2025-01-18T10:21:31.000Z</time>
      </trkpt>
      <trkpt lat="43.99261" lon="7.25621">
        <ele>1065.3</ele>
        <time>2025-01-18T10:21:34.000Z</time>
      </trkpt>
      <trkpt lat="43.99266" lon="7.25618">
        <ele>1065.5</ele>
        <time>2025-01-18T10:21:37.000Z</time>
      </trkpt>
      <trkpt lat="43.9927" lon="7.25618">
        <ele>1065.9</ele>
        <time>2025-01-18T10:21:40.000Z</time>
      </trkpt>
      <trkpt lat="43.99275" lon="7.25619">
        <ele>1066.2</ele>
        <time>2025-01-18T10:21:43.000Z</time>
      </trkpt>
      <trkpt lat="43.9928" lon="7.25619">
        <ele>1066.5</ele>
        <time>2025-01-18T10:21:46.000Z</time>
      </trkpt>
      <trkpt lat="43.99283" lon="7.25614">
        <ele>1066.8</ele>
        <time>2025-01-18T10:21:49.000Z</time>
      </trkpt>
      <trkpt lat="43.99286" lon="7.25608">
        <ele>1067.1</ele>
        <time>2025-01-18T10:21:52.000Z</time>
      </trkpt>
      <trkpt lat="43.99289" lon="7.25603">
        <ele>1067.2</ele>
        <time>2025-01-18T10:21:55.000Z</time>
      </trkpt>
      <trkpt lat="43.99292" lon="7.25598">
        <ele>1067.6</ele>
        <time>2025-01-18T10:21:58.000Z</time>
      </trkpt>
      <trkpt lat="43.99297" lon="7.25595">
        <ele>1068.3</ele>
        <time>2025-01-18T10:22:02.000Z</time>
      </trkpt>
      <trkpt lat="43.99302" lon="7.25597">
        <ele>1069</ele>
        <time>2025-01-18T10:22:06.000Z</time>
      </trkpt>
      <trkpt lat="43.99305" lon="7.25593">
        <ele>1070</ele>
        <time>2025-01-18T10:22:13.000Z</time>
      </trkpt>
      <trkpt lat="43.99306" lon="7.25593">
        <ele>1070.8</ele>
        <time>2025-01-18T10:22:19.000Z</time>
      </trkpt>
      <trkpt lat="43.99306" lon="7.25593">
        <ele>1070.9</ele>
        <time>2025-01-18T10:22:20.000Z</time>
      </trkpt>
      <trkpt lat="43.99307" lon="7.25594">
        <ele>1071</ele>
        <time>2025-01-18T10:22:21.000Z</time>
      </trkpt>
      <trkpt lat="43.99307" lon="7.25594">
        <ele>1071.2</ele>
        <time>2025-01-18T10:22:22.000Z</time>
      </trkpt>
      <trkpt lat="43.99307" lon="7.25593">
        <ele>1071.3</ele>
        <time>2025-01-18T10:22:23.000Z</time>
      </trkpt>
      <trkpt lat="43.99308" lon="7.25593">
        <ele>1071.4</ele>
        <time>2025-01-18T10:22:24.000Z</time>
      </trkpt>
      <trkpt lat="43.99312" lon="7.2559">
        <ele>1071.7</ele>
        <time>2025-01-18T10:22:32.000Z</time>
      </trkpt>
      <trkpt lat="43.99317" lon="7.25588">
        <ele>1072.8</ele>
        <time>2025-01-18T10:22:39.000Z</time>
      </trkpt>
      <trkpt lat="43.99322" lon="7.25589">
        <ele>1073.6</ele>
        <time>2025-01-18T10:22:44.000Z</time>
      </trkpt>
      <trkpt lat="43.99324" lon="7.25582">
        <ele>1075.4</ele>
        <time>2025-01-18T10:22:53.000Z</time>
      </trkpt>
      <trkpt lat="43.99329" lon="7.25583">
        <ele>1076.1</ele>
        <time>2025-01-18T10:23:01.000Z</time>
      </trkpt>
      <trkpt lat="43.99332" lon="7.25578">
        <ele>1078.2</ele>
        <time>2025-01-18T10:23:14.000Z</time>
      </trkpt>
      <trkpt lat="43.99334" lon="7.25571">
        <ele>1080.4</ele>
        <time>2025-01-18T10:23:25.000Z</time>
      </trkpt>
      <trkpt lat="43.99336" lon="7.25566">
        <ele>1081.3</ele>
        <time>2025-01-18T10:23:31.000Z</time>
      </trkpt>
      <trkpt lat="43.99339" lon="7.2556">
        <ele>1082.2</ele>
        <time>2025-01-18T10:23:38.000Z</time>
      </trkpt>
      <trkpt lat="43.99342" lon="7.25554">
        <ele>1082.8</ele>
        <time>2025-01-18T10:23:42.000Z</time>
      </trkpt>
      <trkpt lat="43.99343" lon="7.25553">
        <ele>1083.2</ele>
        <time>2025-01-18T10:23:45.000Z</time>
      </trkpt>
      <trkpt lat="43.99344" lon="7.25553">
        <ele>1083.3</ele>
        <time>2025-01-18T10:23:46.000Z</time>
      </trkpt>
      <trkpt lat="43.99347" lon="7.25549">
        <ele>1083.9</ele>
        <time>2025-01-18T10:23:55.000Z</time>
      </trkpt>
      <trkpt lat="43.99347" lon="7.25549">
        <ele>1084</ele>
        <time>2025-01-18T10:23:56.000Z</time>
      </trkpt>
      <trkpt lat="43.99353" lon="7.25548">
        <ele>1084.7</ele>
        <time>2025-01-18T10:24:05.000Z</time>
      </trkpt>
      <trkpt lat="43.99357" lon="7.25546">
        <ele>1085.5</ele>
        <time>2025-01-18T10:24:12.000Z</time>
      </trkpt>
      <trkpt lat="43.99362" lon="7.25544">
        <ele>1087.4</ele>
        <time>2025-01-18T10:24:21.000Z</time>
      </trkpt>
      <trkpt lat="43.99367" lon="7.25543">
        <ele>1089.3</ele>
        <time>2025-01-18T10:24:28.000Z</time>
      </trkpt>
      <trkpt lat="43.99372" lon="7.25542">
        <ele>1091.4</ele>
        <time>2025-01-18T10:24:39.000Z</time>
      </trkpt>
      <trkpt lat="43.9937" lon="7.25539">
        <ele>1092.2</ele>
        <time>2025-01-18T10:24:47.000Z</time>
      </trkpt>
      <trkpt lat="43.99369" lon="7.25539">
        <ele>1092.2</ele>
        <time>2025-01-18T10:24:48.000Z</time>
      </trkpt>
      <trkpt lat="43.99368" lon="7.25544">
        <ele>1092.6</ele>
        <time>2025-01-18T10:24:55.000Z</time>
      </trkpt>
      <trkpt lat="43.99366" lon="7.25544">
        <ele>1092.7</ele>
        <time>2025-01-18T10:24:56.000Z</time>
      </trkpt>
      <trkpt lat="43.99364" lon="7.2555">
        <ele>1093.7</ele>
        <time>2025-01-18T10:25:07.000Z</time>
      </trkpt>
      <trkpt lat="43.99369" lon="7.25549">
        <ele>1095.7</ele>
        <time>2025-01-18T10:25:19.000Z</time>
      </trkpt>
      <trkpt lat="43.99373" lon="7.25552">
        <ele>1096.4</ele>
        <time>2025-01-18T10:25:24.000Z</time>
      </trkpt>
      <trkpt lat="43.99375" lon="7.25554">
        <ele>1097.3</ele>
        <time>2025-01-18T10:25:34.000Z</time>
      </trkpt>
      <trkpt lat="43.99374" lon="7.25554">
        <ele>1097.3</ele>
        <time>2025-01-18T10:25:35.000Z</time>
      </trkpt>
      <trkpt lat="43.99374" lon="7.25554">
        <ele>1097.4</ele>
        <time>2025-01-18T10:25:36.000Z</time>
      </trkpt>
      <trkpt lat="43.99375" lon="7.25556">
        <ele>1098.1</ele>
        <time>2025-01-18T10:25:50.000Z</time>
      </trkpt>
      <trkpt lat="43.99375" lon="7.25556">
        <ele>1098.2</ele>
        <time>2025-01-18T10:25:51.000Z</time>
      </trkpt>
      <trkpt lat="43.99379" lon="7.25556">
        <ele>1099.8</ele>
        <time>2025-01-18T10:26:02.000Z</time>
      </trkpt>
      <trkpt lat="43.99384" lon="7.25558">
        <ele>1101.7</ele>
        <time>2025-01-18T10:26:10.000Z</time>
      </trkpt>
      <trkpt lat="43.99387" lon="7.25563">
        <ele>1103</ele>
        <time>2025-01-18T10:26:20.000Z</time>
      </trkpt>
      <trkpt lat="43.99393" lon="7.25564">
        <ele>1104.3</ele>
        <time>2025-01-18T10:26:27.000Z</time>
      </trkpt>
      <trkpt lat="43.99397" lon="7.25567">
        <ele>1105.3</ele>
        <time>2025-01-18T10:26:32.000Z</time>
      </trkpt>
      <trkpt lat="43.99401" lon="7.25573">
        <ele>1105.9</ele>
        <time>2025-01-18T10:26:35.000Z</time>
      </trkpt>
      <trkpt lat="43.994" lon="7.25569">
        <ele>1107.2</ele>
        <time>2025-01-18T10:26:43.000Z</time>
      </trkpt>
      <trkpt lat="43.994" lon="7.2557">
        <ele>1107.2</ele>
        <time>2025-01-18T10:26:44.000Z</time>
      </trkpt>
      <trkpt lat="43.994" lon="7.25569">
        <ele>1107.2</ele>
        <time>2025-01-18T10:26:47.000Z</time>
      </trkpt>
      <trkpt lat="43.994" lon="7.25568">
        <ele>1107.2</ele>
        <time>2025-01-18T10:26:48.000Z</time>
      </trkpt>
      <trkpt lat="43.99401" lon="7.25566">
        <ele>1107.2</ele>
        <time>2025-01-18T10:26:49.000Z</time>
      </trkpt>
      <trkpt lat="43.99403" lon="7.2556">
        <ele>1106.9</ele>
        <time>2025-01-18T10:26:55.000Z</time>
      </trkpt>
      <trkpt lat="43.99398" lon="7.25562">
        <ele>1106.8</ele>
        <time>2025-01-18T10:27:16.000Z</time>
      </trkpt>
      <trkpt lat="43.99395" lon="7.25558">
        <ele>1106.8</ele>
        <time>2025-01-18T10:27:22.000Z</time>
      </trkpt>
      <trkpt lat="43.99395" lon="7.25563">
        <ele>1107</ele>
        <time>2025-01-18T10:27:32.000Z</time>
      </trkpt>
      <trkpt lat="43.99396" lon="7.2557">
        <ele>1107.1</ele>
        <time>2025-01-18T10:27:36.000Z</time>
      </trkpt>
      <trkpt lat="43.99394" lon="7.25576">
        <ele>1108</ele>
        <time>2025-01-18T10:27:43.000Z</time>
      </trkpt>
      <trkpt lat="43.99392" lon="7.25579">
        <ele>1109</ele>
        <time>2025-01-18T10:27:47.000Z</time>
      </trkpt>
      <trkpt lat="43.99392" lon="7.25578">
        <ele>1109.2</ele>
        <time>2025-01-18T10:27:48.000Z</time>
      </trkpt>
      <trkpt lat="43.99391" lon="7.25579">
        <ele>1109.4</ele>
        <time>2025-01-18T10:27:49.000Z</time>
      </trkpt>
      <trkpt lat="43.9939" lon="7.25579">
        <ele>1109.6</ele>
        <time>2025-01-18T10:27:50.000Z</time>
      </trkpt>
      <trkpt lat="43.99389" lon="7.2558">
        <ele>1109.8</ele>
        <time>2025-01-18T10:27:51.000Z</time>
      </trkpt>
      <trkpt lat="43.99384" lon="7.25584">
        <ele>1110.4</ele>
        <time>2025-01-18T10:27:59.000Z</time>
      </trkpt>
      <trkpt lat="43.99379" lon="7.25587">
        <ele>1110.5</ele>
        <time>2025-01-18T10:28:01.000Z</time>
      </trkpt>
      <trkpt lat="43.99375" lon="7.2559">
        <ele>1110.7</ele>
        <time>2025-01-18T10:28:04.000Z</time>
      </trkpt>
      <trkpt lat="43.99373" lon="7.25599">
        <ele>1110.7</ele>
        <time>2025-01-18T10:28:07.000Z</time>
      </trkpt>
      <trkpt lat="43.99371" lon="7.25607">
        <ele>1110.9</ele>
        <time>2025-01-18T10:28:10.000Z</time>
      </trkpt>
      <trkpt lat="43.9937" lon="7.25614">
        <ele>1111.1</ele>
        <time>2025-01-18T10:28:14.000Z</time>
      </trkpt>
      <trkpt lat="43.99369" lon="7.25621">
        <ele>1111.1</ele>
        <time>2025-01-18T10:28:18.000Z</time>
      </trkpt>
      <trkpt lat="43.99368" lon="7.25629">
        <ele>1111.1</ele>
        <time>2025-01-18T10:28:21.000Z</time>
      </trkpt>
      <trkpt lat="43.99369" lon="7.25635">
        <ele>1111.1</ele>
        <time>2025-01-18T10:28:23.000Z</time>
      </trkpt>
      <trkpt lat="43.99369" lon="7.25642">
        <ele>1111.1</ele>
        <time>2025-01-18T10:28:26.000Z</time>
      </trkpt>
      <trkpt lat="43.99365" lon="7.25647">
        <ele>1111.1</ele>
        <time>2025-01-18T10:28:30.000Z</time>
      </trkpt>
      <trkpt lat="43.99361" lon="7.2565">
        <ele>1111.3</ele>
        <time>2025-01-18T10:28:34.000Z</time>
      </trkpt>
      <trkpt lat="43.99357" lon="7.25649">
        <ele>1111.5</ele>
        <time>2025-01-18T10:28:38.000Z</time>
      </trkpt>
      <trkpt lat="43.99353" lon="7.25652">
        <ele>1111.9</ele>
        <time>2025-01-18T10:28:42.000Z</time>
      </trkpt>
      <trkpt lat="43.99348" lon="7.25653">
        <ele>1112.3</ele>
        <time>2025-01-18T10:28:45.000Z</time>
      </trkpt>
      <trkpt lat="43.99343" lon="7.25655">
        <ele>1112.5</ele>
        <time>2025-01-18T10:28:47.000Z</time>
      </trkpt>
      <trkpt lat="43.99338" lon="7.25658">
        <ele>1112.6</ele>
        <time>2025-01-18T10:28:49.000Z</time>
      </trkpt>
      <trkpt lat="43.99332" lon="7.25663">
        <ele>1112.7</ele>
        <time>2025-01-18T10:28:52.000Z</time>
      </trkpt>
      <trkpt lat="43.99328" lon="7.25665">
        <ele>1112.7</ele>
        <time>2025-01-18T10:28:54.000Z</time>
      </trkpt>
      <trkpt lat="43.99324" lon="7.2567">
        <ele>1112.6</ele>
        <time>2025-01-18T10:28:59.000Z</time>
      </trkpt>
      <trkpt lat="43.99321" lon="7.25675">
        <ele>1112.5</ele>
        <time>2025-01-18T10:29:04.000Z</time>
      </trkpt>
      <trkpt lat="43.99321" lon="7.25683">
        <ele>1112.7</ele>
        <time>2025-01-18T10:29:09.000Z</time>
      </trkpt>
      <trkpt lat="43.99319" lon="7.2569">
        <ele>1113</ele>
        <time>2025-01-18T10:29:13.000Z</time>
      </trkpt>
      <trkpt lat="43.99315" lon="7.25696">
        <ele>1113.4</ele>
        <time>2025-01-18T10:29:17.000Z</time>
      </trkpt>
      <trkpt lat="43.99311" lon="7.25697">
        <ele>1114.5</ele>
        <time>2025-01-18T10:29:21.000Z</time>
      </trkpt>
      <trkpt lat="43.99306" lon="7.257">
        <ele>1114.6</ele>
        <time>2025-01-18T10:29:25.000Z</time>
      </trkpt>
      <trkpt lat="43.99299" lon="7.25699">
        <ele>1114.5</ele>
        <time>2025-01-18T10:29:29.000Z</time>
      </trkpt>
      <trkpt lat="43.99294" lon="7.257">
        <ele>1114.3</ele>
        <time>2025-01-18T10:29:32.000Z</time>
      </trkpt>
      <trkpt lat="43.99288" lon="7.25703">
        <ele>1114.1</ele>
        <time>2025-01-18T10:29:34.000Z</time>
      </trkpt>
      <trkpt lat="43.99284" lon="7.25704">
        <ele>1113.9</ele>
        <time>2025-01-18T10:29:36.000Z</time>
      </trkpt>
      <trkpt lat="43.99276" lon="7.25706">
        <ele>1113.5</ele>
        <time>2025-01-18T10:29:39.000Z</time>
      </trkpt>
      <trkpt lat="43.99271" lon="7.25707">
        <ele>1113.4</ele>
        <time>2025-01-18T10:29:40.000Z</time>
      </trkpt>
      <trkpt lat="43.99265" lon="7.25707">
        <ele>1113.2</ele>
        <time>2025-01-18T10:29:42.000Z</time>
      </trkpt>
      <trkpt lat="43.99258" lon="7.2571">
        <ele>1113</ele>
        <time>2025-01-18T10:29:44.000Z</time>
      </trkpt>
      <trkpt lat="43.9925" lon="7.25713">
        <ele>1112.5</ele>
        <time>2025-01-18T10:29:46.000Z</time>
      </trkpt>
      <trkpt lat="43.99243" lon="7.25716">
        <ele>1112</ele>
        <time>2025-01-18T10:29:48.000Z</time>
      </trkpt>
      <trkpt lat="43.99239" lon="7.25718">
        <ele>1111.7</ele>
        <time>2025-01-18T10:29:50.000Z</time>
      </trkpt>
      <trkpt lat="43.99234" lon="7.25724">
        <ele>1111.3</ele>
        <time>2025-01-18T10:29:52.000Z</time>
      </trkpt>
      <trkpt lat="43.9923" lon="7.25728">
        <ele>1110.9</ele>
        <time>2025-01-18T10:29:54.000Z</time>
      </trkpt>
      <trkpt lat="43.99226" lon="7.25731">
        <ele>1110.5</ele>
        <time>2025-01-18T10:29:57.000Z</time>
      </trkpt>
      <trkpt lat="43.99222" lon="7.25736">
        <ele>1110.3</ele>
        <time>2025-01-18T10:30:00.000Z</time>
      </trkpt>
      <trkpt lat="43.99218" lon="7.2574">
        <ele>1110.2</ele>
        <time>2025-01-18T10:30:02.000Z</time>
      </trkpt>
      <trkpt lat="43.99213" lon="7.25744">
        <ele>1110.1</ele>
        <time>2025-01-18T10:30:05.000Z</time>
      </trkpt>
      <trkpt lat="43.99208" lon="7.25744">
        <ele>1110.1</ele>
        <time>2025-01-18T10:30:08.000Z</time>
      </trkpt>
      <trkpt lat="43.99203" lon="7.2574">
        <ele>1110.1</ele>
        <time>2025-01-18T10:30:10.000Z</time>
      </trkpt>
      <trkpt lat="43.99197" lon="7.2574">
        <ele>1110</ele>
        <time>2025-01-18T10:30:12.000Z</time>
      </trkpt>
      <trkpt lat="43.99192" lon="7.25738">
        <ele>1109.8</ele>
        <time>2025-01-18T10:30:14.000Z</time>
      </trkpt>
      <trkpt lat="43.99188" lon="7.25741">
        <ele>1109.5</ele>
        <time>2025-01-18T10:30:17.000Z</time>
      </trkpt>
      <trkpt lat="43.99184" lon="7.25745">
        <ele>1109.5</ele>
        <time>2025-01-18T10:30:22.000Z</time>
      </trkpt>
      <trkpt lat="43.9918" lon="7.25746">
        <ele>1110.3</ele>
        <time>2025-01-18T10:30:31.000Z</time>
      </trkpt>
      <trkpt lat="43.99175" lon="7.25748">
        <ele>1111.4</ele>
        <time>2025-01-18T10:30:38.000Z</time>
      </trkpt>
      <trkpt lat="43.99171" lon="7.2575">
        <ele>1111.8</ele>
        <time>2025-01-18T10:30:42.000Z</time>
      </trkpt>
      <trkpt lat="43.99166" lon="7.25751">
        <ele>1112.2</ele>
        <time>2025-01-18T10:30:46.000Z</time>
      </trkpt>
      <trkpt lat="43.9916" lon="7.2575">
        <ele>1112.3</ele>
        <time>2025-01-18T10:30:48.000Z</time>
      </trkpt>
      <trkpt lat="43.99155" lon="7.25749">
        <ele>1112.3</ele>
        <time>2025-01-18T10:30:50.000Z</time>
      </trkpt>
      <trkpt lat="43.99151" lon="7.25751">
        <ele>1112.4</ele>
        <time>2025-01-18T10:30:53.000Z</time>
      </trkpt>
      <trkpt lat="43.99147" lon="7.25757">
        <ele>1112.6</ele>
        <time>2025-01-18T10:30:58.000Z</time>
      </trkpt>
      <trkpt lat="43.99143" lon="7.25761">
        <ele>1112.9</ele>
        <time>2025-01-18T10:31:01.000Z</time>
      </trkpt>
      <trkpt lat="43.99138" lon="7.2576">
        <ele>1114.5</ele>
        <time>2025-01-18T10:31:08.000Z</time>
      </trkpt>
      <trkpt lat="43.99134" lon="7.25764">
        <ele>1115.6</ele>
        <time>2025-01-18T10:31:13.000Z</time>
      </trkpt>
      <trkpt lat="43.99131" lon="7.2577">
        <ele>1116.1</ele>
        <time>2025-01-18T10:31:22.000Z</time>
      </trkpt>
      <trkpt lat="43.99129" lon="7.25776">
        <ele>1116.2</ele>
        <time>2025-01-18T10:31:24.000Z</time>
      </trkpt>
      <trkpt lat="43.99128" lon="7.25782">
        <ele>1116.1</ele>
        <time>2025-01-18T10:31:26.000Z</time>
      </trkpt>
      <trkpt lat="43.99128" lon="7.2579">
        <ele>1115.8</ele>
        <time>2025-01-18T10:31:29.000Z</time>
      </trkpt>
      <trkpt lat="43.99129" lon="7.25799">
        <ele>1115.4</ele>
        <time>2025-01-18T10:31:32.000Z</time>
      </trkpt>
      <trkpt lat="43.99131" lon="7.25809">
        <ele>1115.1</ele>
        <time>2025-01-18T10:31:35.000Z</time>
      </trkpt>
      <trkpt lat="43.99134" lon="7.25817">
        <ele>1114.9</ele>
        <time>2025-01-18T10:31:38.000Z</time>
      </trkpt>
      <trkpt lat="43.99134" lon="7.25824">
        <ele>1114.8</ele>
        <time>2025-01-18T10:31:40.000Z</time>
      </trkpt>
      <trkpt lat="43.99135" lon="7.25831">
        <ele>1114.7</ele>
        <time>2025-01-18T10:31:42.000Z</time>
      </trkpt>
      <trkpt lat="43.99136" lon="7.25839">
        <ele>1114.5</ele>
        <time>2025-01-18T10:31:47.000Z</time>
      </trkpt>
      <trkpt lat="43.99137" lon="7.25846">
        <ele>1114.5</ele>
        <time>2025-01-18T10:31:50.000Z</time>
      </trkpt>
      <trkpt lat="43.99141" lon="7.25851">
        <ele>1114.6</ele>
        <time>2025-01-18T10:31:53.000Z</time>
      </trkpt>
      <trkpt lat="43.99142" lon="7.25858">
        <ele>1114.8</ele>
        <time>2025-01-18T10:31:56.000Z</time>
      </trkpt>
      <trkpt lat="43.99142" lon="7.25866">
        <ele>1114.8</ele>
        <time>2025-01-18T10:31:59.000Z</time>
      </trkpt>
      <trkpt lat="43.99144" lon="7.25874">
        <ele>1114.7</ele>
        <time>2025-01-18T10:32:03.000Z</time>
      </trkpt>
      <trkpt lat="43.99145" lon="7.2588">
        <ele>1114.7</ele>
        <time>2025-01-18T10:32:12.000Z</time>
      </trkpt>
      <trkpt lat="43.99144" lon="7.25887">
        <ele>1114.9</ele>
        <time>2025-01-18T10:32:30.000Z</time>
      </trkpt>
      <trkpt lat="43.99144" lon="7.25893">
        <ele>1115.4</ele>
        <time>2025-01-18T10:32:36.000Z</time>
      </trkpt>
      <trkpt lat="43.9914" lon="7.25898">
        <ele>1116.6</ele>
        <time>2025-01-18T10:32:47.000Z</time>
      </trkpt>
      <trkpt lat="43.99137" lon="7.25902">
        <ele>1117.1</ele>
        <time>2025-01-18T10:32:55.000Z</time>
      </trkpt>
      <trkpt lat="43.99133" lon="7.2591">
        <ele>1117.3</ele>
        <time>2025-01-18T10:32:59.000Z</time>
      </trkpt>
      <trkpt lat="43.99132" lon="7.25916">
        <ele>1117.5</ele>
        <time>2025-01-18T10:33:03.000Z</time>
      </trkpt>
      <trkpt lat="43.99131" lon="7.25924">
        <ele>1117.8</ele>
        <time>2025-01-18T10:33:06.000Z</time>
      </trkpt>
      <trkpt lat="43.99132" lon="7.2593">
        <ele>1118</ele>
        <time>2025-01-18T10:33:09.000Z</time>
      </trkpt>
      <trkpt lat="43.99134" lon="7.25936">
        <ele>1118.3</ele>
        <time>2025-01-18T10:33:13.000Z</time>
      </trkpt>
      <trkpt lat="43.99135" lon="7.25943">
        <ele>1118.5</ele>
        <time>2025-01-18T10:33:16.000Z</time>
      </trkpt>
      <trkpt lat="43.99138" lon="7.25948">
        <ele>1118.7</ele>
        <time>2025-01-18T10:33:21.000Z</time>
      </trkpt>
      <trkpt lat="43.9914" lon="7.25955">
        <ele>1118.9</ele>
        <time>2025-01-18T10:33:26.000Z</time>
      </trkpt>
      <trkpt lat="43.99141" lon="7.25961">
        <ele>1119</ele>
        <time>2025-01-18T10:33:32.000Z</time>
      </trkpt>
      <trkpt lat="43.99141" lon="7.25968">
        <ele>1119</ele>
        <time>2025-01-18T10:33:37.000Z</time>
      </trkpt>
      <trkpt lat="43.99141" lon="7.25975">
        <ele>1119.1</ele>
        <time>2025-01-18T10:33:43.000Z</time>
      </trkpt>
      <trkpt lat="43.9914" lon="7.25983">
        <ele>1119.4</ele>
        <time>2025-01-18T10:33:53.000Z</time>
      </trkpt>
      <trkpt lat="43.9914" lon="7.25983">
        <ele>1120.4</ele>
        <time>2025-01-18T10:34:03.000Z</time>
      </trkpt>
      <trkpt lat="43.99141" lon="7.25984">
        <ele>1120.5</ele>
        <time>2025-01-18T10:34:04.000Z</time>
      </trkpt>
      <trkpt lat="43.99141" lon="7.25984">
        <ele>1120.5</ele>
        <time>2025-01-18T10:34:05.000Z</time>
      </trkpt>
      <trkpt lat="43.99141" lon="7.25985">
        <ele>1120.8</ele>
        <time>2025-01-18T10:34:08.000Z</time>
      </trkpt>
      <trkpt lat="43.99141" lon="7.25985">
        <ele>1120.9</ele>
        <time>2025-01-18T10:34:09.000Z</time>
      </trkpt>
      <trkpt lat="43.9914" lon="7.25984">
        <ele>1121.2</ele>
        <time>2025-01-18T10:34:17.000Z</time>
      </trkpt>
      <trkpt lat="43.9914" lon="7.25984">
        <ele>1121.2</ele>
        <time>2025-01-18T10:34:18.000Z</time>
      </trkpt>
      <trkpt lat="43.9914" lon="7.25984">
        <ele>1121.2</ele>
        <time>2025-01-18T10:34:19.000Z</time>
      </trkpt>
      <trkpt lat="43.9914" lon="7.25984">
        <ele>1121.3</ele>
        <time>2025-01-18T10:34:20.000Z</time>
      </trkpt>
      <trkpt lat="43.9914" lon="7.25984">
        <ele>1121.3</ele>
        <time>2025-01-18T10:34:21.000Z</time>
      </trkpt>
      <trkpt lat="43.9914" lon="7.25984">
        <ele>1121.3</ele>
        <time>2025-01-18T10:34:22.000Z</time>
      </trkpt>
      <trkpt lat="43.9914" lon="7.25984">
        <ele>1121.5</ele>
        <time>2025-01-18T10:34:25.000Z</time>
      </trkpt>
      <trkpt lat="43.9914" lon="7.25985">
        <ele>1121.6</ele>
        <time>2025-01-18T10:34:26.000Z</time>
      </trkpt>
      <trkpt lat="43.9914" lon="7.25992">
        <ele>1122.1</ele>
        <time>2025-01-18T10:34:31.000Z</time>
      </trkpt>
      <trkpt lat="43.99142" lon="7.25998">
        <ele>1122.6</ele>
        <time>2025-01-18T10:34:35.000Z</time>
      </trkpt>
      <trkpt lat="43.99145" lon="7.26004">
        <ele>1123.4</ele>
        <time>2025-01-18T10:34:39.000Z</time>
      </trkpt>
      <trkpt lat="43.99147" lon="7.2601">
        <ele>1124.6</ele>
        <time>2025-01-18T10:34:44.000Z</time>
      </trkpt>
      <trkpt lat="43.99151" lon="7.26015">
        <ele>1125.7</ele>
        <time>2025-01-18T10:34:49.000Z</time>
      </trkpt>
      <trkpt lat="43.99155" lon="7.26017">
        <ele>1126.7</ele>
        <time>2025-01-18T10:34:56.000Z</time>
      </trkpt>
      <trkpt lat="43.9916" lon="7.26021">
        <ele>1127.5</ele>
        <time>2025-01-18T10:35:01.000Z</time>
      </trkpt>
      <trkpt lat="43.99163" lon="7.26025">
        <ele>1128.3</ele>
        <time>2025-01-18T10:35:08.000Z</time>
      </trkpt>
      <trkpt lat="43.99167" lon="7.26029">
        <ele>1128.8</ele>
        <time>2025-01-18T10:35:14.000Z</time>
      </trkpt>
      <trkpt lat="43.99172" lon="7.26029">
        <ele>1129.5</ele>
        <time>2025-01-18T10:35:20.000Z</time>
      </trkpt>
      <trkpt lat="43.99177" lon="7.2603">
        <ele>1130.3</ele>
        <time>2025-01-18T10:35:25.000Z</time>
      </trkpt>
      <trkpt lat="43.99181" lon="7.26033">
        <ele>1131.5</ele>
        <time>2025-01-18T10:35:33.000Z</time>
      </trkpt>
      <trkpt lat="43.99181" lon="7.26039">
        <ele>1131.7</ele>
        <time>2025-01-18T10:35:38.000Z</time>
      </trkpt>
      <trkpt lat="43.99181" lon="7.26047">
        <ele>1131.8</ele>
        <time>2025-01-18T10:35:43.000Z</time>
      </trkpt>
      <trkpt lat="43.99179" lon="7.26053">
        <ele>1132.1</ele>
        <time>2025-01-18T10:35:50.000Z</time>
      </trkpt>
      <trkpt lat="43.99178" lon="7.2606">
        <ele>1132.5</ele>
        <time>2025-01-18T10:35:55.000Z</time>
      </trkpt>
      <trkpt lat="43.99178" lon="7.26066">
        <ele>1132.8</ele>
        <time>2025-01-18T10:36:01.000Z</time>
      </trkpt>
      <trkpt lat="43.9918" lon="7.26072">
        <ele>1133.2</ele>
        <time>2025-01-18T10:36:13.000Z</time>
      </trkpt>
      <trkpt lat="43.99182" lon="7.26078">
        <ele>1133.4</ele>
        <time>2025-01-18T10:36:18.000Z</time>
      </trkpt>
      <trkpt lat="43.99184" lon="7.26083">
        <ele>1133.9</ele>
        <time>2025-01-18T10:36:25.000Z</time>
      </trkpt>
      <trkpt lat="43.99187" lon="7.2609">
        <ele>1134.3</ele>
        <time>2025-01-18T10:36:31.000Z</time>
      </trkpt>
      <trkpt lat="43.99187" lon="7.26096">
        <ele>1134.9</ele>
        <time>2025-01-18T10:36:37.000Z</time>
      </trkpt>
      <trkpt lat="43.99189" lon="7.26102">
        <ele>1135.3</ele>
        <time>2025-01-18T10:36:42.000Z</time>
      </trkpt>
      <trkpt lat="43.99191" lon="7.26108">
        <ele>1135.7</ele>
        <time>2025-01-18T10:36:48.000Z</time>
      </trkpt>
      <trkpt lat="43.99192" lon="7.26115">
        <ele>1136.3</ele>
        <time>2025-01-18T10:36:55.000Z</time>
      </trkpt>
      <trkpt lat="43.99196" lon="7.26121">
        <ele>1136.8</ele>
        <time>2025-01-18T10:37:01.000Z</time>
      </trkpt>
      <trkpt lat="43.99199" lon="7.26126">
        <ele>1136.8</ele>
        <time>2025-01-18T10:37:04.000Z</time>
      </trkpt>
      <trkpt lat="43.99203" lon="7.2613">
        <ele>1136.9</ele>
        <time>2025-01-18T10:37:09.000Z</time>
      </trkpt>
      <trkpt lat="43.99206" lon="7.26135">
        <ele>1137.1</ele>
        <time>2025-01-18T10:37:14.000Z</time>
      </trkpt>
      <trkpt lat="43.99209" lon="7.26141">
        <ele>1138.2</ele>
        <time>2025-01-18T10:37:24.000Z</time>
      </trkpt>
      <trkpt lat="43.99214" lon="7.26142">
        <ele>1140.3</ele>
        <time>2025-01-18T10:37:35.000Z</time>
      </trkpt>
      <trkpt lat="43.99217" lon="7.26148">
        <ele>1142.4</ele>
        <time>2025-01-18T10:37:45.000Z</time>
      </trkpt>
      <trkpt lat="43.9922" lon="7.26152">
        <ele>1144.2</ele>
        <time>2025-01-18T10:37:56.000Z</time>
      </trkpt>
      <trkpt lat="43.99225" lon="7.26154">
        <ele>1146</ele>
        <time>2025-01-18T10:38:05.000Z</time>
      </trkpt>
      <trkpt lat="43.99229" lon="7.26154">
        <ele>1146.7</ele>
        <time>2025-01-18T10:38:10.000Z</time>
      </trkpt>
      <trkpt lat="43.99234" lon="7.26156">
        <ele>1147.4</ele>
        <time>2025-01-18T10:38:17.000Z</time>
      </trkpt>
      <trkpt lat="43.99238" lon="7.26161">
        <ele>1148</ele>
        <time>2025-01-18T10:38:26.000Z</time>
      </trkpt>
      <trkpt lat="43.99242" lon="7.26165">
        <ele>1148.2</ele>
        <time>2025-01-18T10:38:31.000Z</time>
      </trkpt>
      <trkpt lat="43.99247" lon="7.26169">
        <ele>1148.2</ele>
        <time>2025-01-18T10:38:35.000Z</time>
      </trkpt>
      <trkpt lat="43.99251" lon="7.26172">
        <ele>1148</ele>
        <time>2025-01-18T10:38:39.000Z</time>
      </trkpt>
      <trkpt lat="43.99256" lon="7.26176">
        <ele>1147.8</ele>
        <time>2025-01-18T10:38:43.000Z</time>
      </trkpt>
      <trkpt lat="43.99258" lon="7.26184">
        <ele>1147.6</ele>
        <time>2025-01-18T10:38:47.000Z</time>
      </trkpt>
      <trkpt lat="43.99259" lon="7.26191">
        <ele>1147.5</ele>
        <time>2025-01-18T10:38:51.000Z</time>
      </trkpt>
      <trkpt lat="43.99261" lon="7.26197">
        <ele>1147.8</ele>
        <time>2025-01-18T10:38:59.000Z</time>
      </trkpt>
      <trkpt lat="43.99265" lon="7.26203">
        <ele>1148.5</ele>
        <time>2025-01-18T10:39:04.000Z</time>
      </trkpt>
      <trkpt lat="43.99267" lon="7.2621">
        <ele>1149.2</ele>
        <time>2025-01-18T10:39:08.000Z</time>
      </trkpt>
      <trkpt lat="43.99265" lon="7.26216">
        <ele>1149.7</ele>
        <time>2025-01-18T10:39:16.000Z</time>
      </trkpt>
      <trkpt lat="43.99261" lon="7.2622">
        <ele>1149.8</ele>
        <time>2025-01-18T10:39:20.000Z</time>
      </trkpt>
      <trkpt lat="43.99257" lon="7.26219">
        <ele>1149.7</ele>
        <time>2025-01-18T10:39:30.000Z</time>
      </trkpt>
      <trkpt lat="43.99253" lon="7.26223">
        <ele>1150</ele>
        <time>2025-01-18T10:39:36.000Z</time>
      </trkpt>
      <trkpt lat="43.99254" lon="7.26226">
        <ele>1150.1</ele>
        <time>2025-01-18T10:39:40.000Z</time>
      </trkpt>
      <trkpt lat="43.99254" lon="7.26229">
        <ele>1150.1</ele>
        <time>2025-01-18T10:39:42.000Z</time>
      </trkpt>
      <trkpt lat="43.99255" lon="7.26229">
        <ele>1150.2</ele>
        <time>2025-01-18T10:39:43.000Z</time>
      </trkpt>
      <trkpt lat="43.99248" lon="7.2623">
        <ele>1150.3</ele>
        <time>2025-01-18T10:39:47.000Z</time>
      </trkpt>
      <trkpt lat="43.99242" lon="7.26226">
        <ele>1150.4</ele>
        <time>2025-01-18T10:39:49.000Z</time>
      </trkpt>
      <trkpt lat="43.99237" lon="7.26226">
        <ele>1150.7</ele>
        <time>2025-01-18T10:39:52.000Z</time>
      </trkpt>
      <trkpt lat="43.99233" lon="7.26222">
        <ele>1151.2</ele>
        <time>2025-01-18T10:39:56.000Z</time>
      </trkpt>
      <trkpt lat="43.99231" lon="7.26214">
        <ele>1151.9</ele>
        <time>2025-01-18T10:40:00.000Z</time>
      </trkpt>
      <trkpt lat="43.99228" lon="7.26208">
        <ele>1152.8</ele>
        <time>2025-01-18T10:40:06.000Z</time>
      </trkpt>
      <trkpt lat="43.99223" lon="7.26206">
        <ele>1153.7</ele>
        <time>2025-01-18T10:40:12.000Z</time>
      </trkpt>
      <trkpt lat="43.99222" lon="7.26212">
        <ele>1154.2</ele>
        <time>2025-01-18T10:40:16.000Z</time>
      </trkpt>
      <trkpt lat="43.9922" lon="7.2622">
        <ele>1154.5</ele>
        <time>2025-01-18T10:40:19.000Z</time>
      </trkpt>
      <trkpt lat="43.99218" lon="7.26227">
        <ele>1154.8</ele>
        <time>2025-01-18T10:40:23.000Z</time>
      </trkpt>
      <trkpt lat="43.99216" lon="7.26233">
        <ele>1155.2</ele>
        <time>2025-01-18T10:40:28.000Z</time>
      </trkpt>
      <trkpt lat="43.99216" lon="7.26233">
        <ele>1155.5</ele>
        <time>2025-01-18T10:40:32.000Z</time>
      </trkpt>
      <trkpt lat="43.99216" lon="7.26233">
        <ele>1155.6</ele>
        <time>2025-01-18T10:40:33.000Z</time>
      </trkpt>
      <trkpt lat="43.99215" lon="7.26233">
        <ele>1155.7</ele>
        <time>2025-01-18T10:40:34.000Z</time>
      </trkpt>
      <trkpt lat="43.99216" lon="7.26233">
        <ele>1156</ele>
        <time>2025-01-18T10:40:54.000Z</time>
      </trkpt>
      <trkpt lat="43.99216" lon="7.26233">
        <ele>1156</ele>
        <time>2025-01-18T10:40:55.000Z</time>
      </trkpt>
      <trkpt lat="43.99216" lon="7.26234">
        <ele>1156</ele>
        <time>2025-01-18T10:40:56.000Z</time>
      </trkpt>
      <trkpt lat="43.99215" lon="7.26242">
        <ele>1156.6</ele>
        <time>2025-01-18T10:41:05.000Z</time>
      </trkpt>
      <trkpt lat="43.9921" lon="7.26243">
        <ele>1157.9</ele>
        <time>2025-01-18T10:41:14.000Z</time>
      </trkpt>
      <trkpt lat="43.99205" lon="7.26243">
        <ele>1159.5</ele>
        <time>2025-01-18T10:41:23.000Z</time>
      </trkpt>
      <trkpt lat="43.99201" lon="7.26243">
        <ele>1161.5</ele>
        <time>2025-01-18T10:41:36.000Z</time>
      </trkpt>
      <trkpt lat="43.99197" lon="7.26248">
        <ele>1162.9</ele>
        <time>2025-01-18T10:41:44.000Z</time>
      </trkpt>
      <trkpt lat="43.99195" lon="7.26253">
        <ele>1163.7</ele>
        <time>2025-01-18T10:41:49.000Z</time>
      </trkpt>
      <trkpt lat="43.99191" lon="7.26258">
        <ele>1164.8</ele>
        <time>2025-01-18T10:41:55.000Z</time>
      </trkpt>
      <trkpt lat="43.99189" lon="7.26265">
        <ele>1165.3</ele>
        <time>2025-01-18T10:41:58.000Z</time>
      </trkpt>
      <trkpt lat="43.99186" lon="7.26271">
        <ele>1166.3</ele>
        <time>2025-01-18T10:42:04.000Z</time>
      </trkpt>
      <trkpt lat="43.99182" lon="7.26275">
        <ele>1167.3</ele>
        <time>2025-01-18T10:42:12.000Z</time>
      </trkpt>
      <trkpt lat="43.99179" lon="7.26281">
        <ele>1168.2</ele>
        <time>2025-01-18T10:42:20.000Z</time>
      </trkpt>
      <trkpt lat="43.99174" lon="7.26282">
        <ele>1168.6</ele>
        <time>2025-01-18T10:42:25.000Z</time>
      </trkpt>
      <trkpt lat="43.99169" lon="7.26284">
        <ele>1168.9</ele>
        <time>2025-01-18T10:42:29.000Z</time>
      </trkpt>
      <trkpt lat="43.99164" lon="7.26283">
        <ele>1169.3</ele>
        <time>2025-01-18T10:42:33.000Z</time>
      </trkpt>
      <trkpt lat="43.9916" lon="7.26287">
        <ele>1170.7</ele>
        <time>2025-01-18T10:42:41.000Z</time>
      </trkpt>
      <trkpt lat="43.99155" lon="7.26287">
        <ele>1171.4</ele>
        <time>2025-01-18T10:42:45.000Z</time>
      </trkpt>
      <trkpt lat="43.9915" lon="7.26287">
        <ele>1172.6</ele>
        <time>2025-01-18T10:42:52.000Z</time>
      </trkpt>
      <trkpt lat="43.99145" lon="7.26286">
        <ele>1173.5</ele>
        <time>2025-01-18T10:42:57.000Z</time>
      </trkpt>
      <trkpt lat="43.99141" lon="7.26286">
        <ele>1174.6</ele>
        <time>2025-01-18T10:43:07.000Z</time>
      </trkpt>
      <trkpt lat="43.99136" lon="7.26284">
        <ele>1175.5</ele>
        <time>2025-01-18T10:43:16.000Z</time>
      </trkpt>
      <trkpt lat="43.99131" lon="7.26284">
        <ele>1176.8</ele>
        <time>2025-01-18T10:43:24.000Z</time>
      </trkpt>
      <trkpt lat="43.99126" lon="7.26285">
        <ele>1177.7</ele>
        <time>2025-01-18T10:43:30.000Z</time>
      </trkpt>
      <trkpt lat="43.99121" lon="7.26282">
        <ele>1178.6</ele>
        <time>2025-01-18T10:43:36.000Z</time>
      </trkpt>
      <trkpt lat="43.99116" lon="7.26281">
        <ele>1180.7</ele>
        <time>2025-01-18T10:43:49.000Z</time>
      </trkpt>
      <trkpt lat="43.99112" lon="7.2628">
        <ele>1181.9</ele>
        <time>2025-01-18T10:43:54.000Z</time>
      </trkpt>
      <trkpt lat="43.99107" lon="7.26278">
        <ele>1183.7</ele>
        <time>2025-01-18T10:44:04.000Z</time>
      </trkpt>
      <trkpt lat="43.99102" lon="7.26281">
        <ele>1184.5</ele>
        <time>2025-01-18T10:44:15.000Z</time>
      </trkpt>
      <trkpt lat="43.991" lon="7.26287">
        <ele>1184.8</ele>
        <time>2025-01-18T10:44:22.000Z</time>
      </trkpt>
      <trkpt lat="43.99097" lon="7.26294">
        <ele>1185.5</ele>
        <time>2025-01-18T10:44:30.000Z</time>
      </trkpt>
      <trkpt lat="43.99093" lon="7.26299">
        <ele>1186.1</ele>
        <time>2025-01-18T10:44:35.000Z</time>
      </trkpt>
      <trkpt lat="43.99092" lon="7.26306">
        <ele>1186.6</ele>
        <time>2025-01-18T10:44:41.000Z</time>
      </trkpt>
      <trkpt lat="43.99091" lon="7.26312">
        <ele>1187.1</ele>
        <time>2025-01-18T10:44:48.000Z</time>
      </trkpt>
      <trkpt lat="43.99088" lon="7.26319">
        <ele>1187.9</ele>
        <time>2025-01-18T10:44:55.000Z</time>
      </trkpt>
      <trkpt lat="43.99088" lon="7.26322">
        <ele>1188.6</ele>
        <time>2025-01-18T10:45:00.000Z</time>
      </trkpt>
      <trkpt lat="43.99088" lon="7.26323">
        <ele>1188.7</ele>
        <time>2025-01-18T10:45:01.000Z</time>
      </trkpt>
      <trkpt lat="43.9909" lon="7.26324">
        <ele>1188.9</ele>
        <time>2025-01-18T10:45:04.000Z</time>
      </trkpt>
      <trkpt lat="43.9909" lon="7.26324">
        <ele>1189</ele>
        <time>2025-01-18T10:45:05.000Z</time>
      </trkpt>
      <trkpt lat="43.99089" lon="7.26331">
        <ele>1190.1</ele>
        <time>2025-01-18T10:45:13.000Z</time>
      </trkpt>
      <trkpt lat="43.99091" lon="7.26338">
        <ele>1190.9</ele>
        <time>2025-01-18T10:45:18.000Z</time>
      </trkpt>
      <trkpt lat="43.99088" lon="7.26344">
        <ele>1191.9</ele>
        <time>2025-01-18T10:45:26.000Z</time>
      </trkpt>
      <trkpt lat="43.99084" lon="7.26347">
        <ele>1192.4</ele>
        <time>2025-01-18T10:45:30.000Z</time>
      </trkpt>
      <trkpt lat="43.99078" lon="7.2635">
        <ele>1193.2</ele>
        <time>2025-01-18T10:45:35.000Z</time>
      </trkpt>
      <trkpt lat="43.99073" lon="7.26353">
        <ele>1194.2</ele>
        <time>2025-01-18T10:45:39.000Z</time>
      </trkpt>
      <trkpt lat="43.99068" lon="7.26354">
        <ele>1195.2</ele>
        <time>2025-01-18T10:45:44.000Z</time>
      </trkpt>
      <trkpt lat="43.99063" lon="7.26353">
        <ele>1195.6</ele>
        <time>2025-01-18T10:45:49.000Z</time>
      </trkpt>
      <trkpt lat="43.99058" lon="7.26355">
        <ele>1195.6</ele>
        <time>2025-01-18T10:45:54.000Z</time>
      </trkpt>
      <trkpt lat="43.99054" lon="7.26357">
        <ele>1195.6</ele>
        <time>2025-01-18T10:45:58.000Z</time>
      </trkpt>
      <trkpt lat="43.99049" lon="7.26358">
        <ele>1195.8</ele>
        <time>2025-01-18T10:46:05.000Z</time>
      </trkpt>
      <trkpt lat="43.99044" lon="7.26358">
        <ele>1196.3</ele>
        <time>2025-01-18T10:46:11.000Z</time>
      </trkpt>
      <trkpt lat="43.99039" lon="7.26357">
        <ele>1197.4</ele>
        <time>2025-01-18T10:46:19.000Z</time>
      </trkpt>
      <trkpt lat="43.99035" lon="7.26359">
        <ele>1198.3</ele>
        <time>2025-01-18T10:46:26.000Z</time>
      </trkpt>
      <trkpt lat="43.99031" lon="7.26363">
        <ele>1200.4</ele>
        <time>2025-01-18T10:46:38.000Z</time>
      </trkpt>
      <trkpt lat="43.9903" lon="7.26363">
        <ele>1201.2</ele>
        <time>2025-01-18T10:46:42.000Z</time>
      </trkpt>
      <trkpt lat="43.9903" lon="7.26363">
        <ele>1201.3</ele>
        <time>2025-01-18T10:46:43.000Z</time>
      </trkpt>
      <trkpt lat="43.9903" lon="7.26363">
        <ele>1201.4</ele>
        <time>2025-01-18T10:46:44.000Z</time>
      </trkpt>
      <trkpt lat="43.9903" lon="7.26363">
        <ele>1201.6</ele>
        <time>2025-01-18T10:46:45.000Z</time>
      </trkpt>
      <trkpt lat="43.9903" lon="7.26362">
        <ele>1201.7</ele>
        <time>2025-01-18T10:46:46.000Z</time>
      </trkpt>
      <trkpt lat="43.9903" lon="7.26362">
        <ele>1201.9</ele>
        <time>2025-01-18T10:46:47.000Z</time>
      </trkpt>
      <trkpt lat="43.9903" lon="7.26362">
        <ele>1202</ele>
        <time>2025-01-18T10:46:48.000Z</time>
      </trkpt>
      <trkpt lat="43.9903" lon="7.26362">
        <ele>1202.1</ele>
        <time>2025-01-18T10:46:49.000Z</time>
      </trkpt>
      <trkpt lat="43.99029" lon="7.26362">
        <ele>1202.1</ele>
        <time>2025-01-18T10:46:50.000Z</time>
      </trkpt>
      <trkpt lat="43.99029" lon="7.26363">
        <ele>1202.2</ele>
        <time>2025-01-18T10:46:51.000Z</time>
      </trkpt>
      <trkpt lat="43.99032" lon="7.26367">
        <ele>1202.3</ele>
        <time>2025-01-18T10:47:07.000Z</time>
      </trkpt>
      <trkpt lat="43.99037" lon="7.26375">
        <ele>1202.1</ele>
        <time>2025-01-18T10:47:10.000Z</time>
      </trkpt>
      <trkpt lat="43.99042" lon="7.2638">
        <ele>1201.8</ele>
        <time>2025-01-18T10:47:12.000Z</time>
      </trkpt>
      <trkpt lat="43.99046" lon="7.26387">
        <ele>1201.4</ele>
        <time>2025-01-18T10:47:14.000Z</time>
      </trkpt>
      <trkpt lat="43.99049" lon="7.26392">
        <ele>1200.8</ele>
        <time>2025-01-18T10:47:16.000Z</time>
      </trkpt>
      <trkpt lat="43.99052" lon="7.26399">
        <ele>1199.9</ele>
        <time>2025-01-18T10:47:18.000Z</time>
      </trkpt>
      <trkpt lat="43.99054" lon="7.26408">
        <ele>1198.6</ele>
        <time>2025-01-18T10:47:21.000Z</time>
      </trkpt>
      <trkpt lat="43.99056" lon="7.26417">
        <ele>1197.7</ele>
        <time>2025-01-18T10:47:24.000Z</time>
      </trkpt>
      <trkpt lat="43.99057" lon="7.26426">
        <ele>1197.4</ele>
        <time>2025-01-18T10:47:27.000Z</time>
      </trkpt>
      <trkpt lat="43.99059" lon="7.26435">
        <ele>1197.3</ele>
        <time>2025-01-18T10:47:30.000Z</time>
      </trkpt>
      <trkpt lat="43.99061" lon="7.26441">
        <ele>1197.2</ele>
        <time>2025-01-18T10:47:32.000Z</time>
      </trkpt>
      <trkpt lat="43.99065" lon="7.26448">
        <ele>1197</ele>
        <time>2025-01-18T10:47:35.000Z</time>
      </trkpt>
      <trkpt lat="43.9907" lon="7.2645">
        <ele>1196.8</ele>
        <time>2025-01-18T10:47:37.000Z</time>
      </trkpt>
      <trkpt lat="43.99075" lon="7.26451">
        <ele>1196.7</ele>
        <time>2025-01-18T10:47:39.000Z</time>
      </trkpt>
      <trkpt lat="43.9908" lon="7.2645">
        <ele>1196.4</ele>
        <time>2025-01-18T10:47:41.000Z</time>
      </trkpt>
      <trkpt lat="43.99086" lon="7.26448">
        <ele>1196.2</ele>
        <time>2025-01-18T10:47:43.000Z</time>
      </trkpt>
      <trkpt lat="43.99091" lon="7.26445">
        <ele>1196</ele>
        <time>2025-01-18T10:47:45.000Z</time>
      </trkpt>
      <trkpt lat="43.99097" lon="7.26438">
        <ele>1195.4</ele>
        <time>2025-01-18T10:47:48.000Z</time>
      </trkpt>
      <trkpt lat="43.99101" lon="7.26432">
        <ele>1194.8</ele>
        <time>2025-01-18T10:47:50.000Z</time>
      </trkpt>
      <trkpt lat="43.99106" lon="7.26428">
        <ele>1194.1</ele>
        <time>2025-01-18T10:47:52.000Z</time>
      </trkpt>
      <trkpt lat="43.99111" lon="7.26426">
        <ele>1193.4</ele>
        <time>2025-01-18T10:47:54.000Z</time>
      </trkpt>
      <trkpt lat="43.99116" lon="7.26428">
        <ele>1192.2</ele>
        <time>2025-01-18T10:47:57.000Z</time>
      </trkpt>
      <trkpt lat="43.99122" lon="7.26432">
        <ele>1190.9</ele>
        <time>2025-01-18T10:48:01.000Z</time>
      </trkpt>
      <trkpt lat="43.99128" lon="7.26435">
        <ele>1189.8</ele>
        <time>2025-01-18T10:48:04.000Z</time>
      </trkpt>
      <trkpt lat="43.99133" lon="7.26438">
        <ele>1189.4</ele>
        <time>2025-01-18T10:48:06.000Z</time>
      </trkpt>
      <trkpt lat="43.99137" lon="7.2644">
        <ele>1189.2</ele>
        <time>2025-01-18T10:48:08.000Z</time>
      </trkpt>
      <trkpt lat="43.99141" lon="7.26445">
        <ele>1189.1</ele>
        <time>2025-01-18T10:48:11.000Z</time>
      </trkpt>
      <trkpt lat="43.99145" lon="7.26453">
        <ele>1189.2</ele>
        <time>2025-01-18T10:48:14.000Z</time>
      </trkpt>
      <trkpt lat="43.99148" lon="7.26461">
        <ele>1189.3</ele>
        <time>2025-01-18T10:48:16.000Z</time>
      </trkpt>
      <trkpt lat="43.9915" lon="7.26466">
        <ele>1189.3</ele>
        <time>2025-01-18T10:48:20.000Z</time>
      </trkpt>
      <trkpt lat="43.99155" lon="7.26472">
        <ele>1189.5</ele>
        <time>2025-01-18T10:48:23.000Z</time>
      </trkpt>
      <trkpt lat="43.9916" lon="7.26474">
        <ele>1189.9</ele>
        <time>2025-01-18T10:48:28.000Z</time>
      </trkpt>
      <trkpt lat="43.99164" lon="7.26479">
        <ele>1190.4</ele>
        <time>2025-01-18T10:48:37.000Z</time>
      </trkpt>
      <trkpt lat="43.99168" lon="7.26485">
        <ele>1190.4</ele>
        <time>2025-01-18T10:48:40.000Z</time>
      </trkpt>
      <trkpt lat="43.99171" lon="7.2649">
        <ele>1190.4</ele>
        <time>2025-01-18T10:48:42.000Z</time>
      </trkpt>
      <trkpt lat="43.99174" lon="7.26496">
        <ele>1190.1</ele>
        <time>2025-01-18T10:48:44.000Z</time>
      </trkpt>
      <trkpt lat="43.99177" lon="7.26503">
        <ele>1189.7</ele>
        <time>2025-01-18T10:48:46.000Z</time>
      </trkpt>
      <trkpt lat="43.99181" lon="7.26509">
        <ele>1189.3</ele>
        <time>2025-01-18T10:48:48.000Z</time>
      </trkpt>
      <trkpt lat="43.99186" lon="7.26513">
        <ele>1189</ele>
        <time>2025-01-18T10:48:51.000Z</time>
      </trkpt>
      <trkpt lat="43.99191" lon="7.2652">
        <ele>1188.4</ele>
        <time>2025-01-18T10:48:54.000Z</time>
      </trkpt>
      <trkpt lat="43.99194" lon="7.26526">
        <ele>1187.9</ele>
        <time>2025-01-18T10:48:56.000Z</time>
      </trkpt>
      <trkpt lat="43.99195" lon="7.26533">
        <ele>1187.5</ele>
        <time>2025-01-18T10:48:59.000Z</time>
      </trkpt>
      <trkpt lat="43.99193" lon="7.26541">
        <ele>1187.2</ele>
        <time>2025-01-18T10:49:02.000Z</time>
      </trkpt>
      <trkpt lat="43.99191" lon="7.26549">
        <ele>1187</ele>
        <time>2025-01-18T10:49:04.000Z</time>
      </trkpt>
      <trkpt lat="43.99191" lon="7.26556">
        <ele>1186.7</ele>
        <time>2025-01-18T10:49:06.000Z</time>
      </trkpt>
      <trkpt lat="43.99191" lon="7.26562">
        <ele>1186.6</ele>
        <time>2025-01-18T10:49:08.000Z</time>
      </trkpt>
      <trkpt lat="43.99189" lon="7.26571">
        <ele>1186.7</ele>
        <time>2025-01-18T10:49:12.000Z</time>
      </trkpt>
      <trkpt lat="43.99187" lon="7.26578">
        <ele>1186.9</ele>
        <time>2025-01-18T10:49:15.000Z</time>
      </trkpt>
      <trkpt lat="43.99183" lon="7.2658">
        <ele>1187.2</ele>
        <time>2025-01-18T10:49:19.000Z</time>
      </trkpt>
      <trkpt lat="43.99178" lon="7.26583">
        <ele>1187.6</ele>
        <time>2025-01-18T10:49:24.000Z</time>
      </trkpt>
      <trkpt lat="43.99173" lon="7.26584">
        <ele>1187.9</ele>
        <time>2025-01-18T10:49:30.000Z</time>
      </trkpt>
      <trkpt lat="43.99168" lon="7.26583">
        <ele>1188.1</ele>
        <time>2025-01-18T10:49:34.000Z</time>
      </trkpt>
      <trkpt lat="43.99164" lon="7.26586">
        <ele>1188.6</ele>
        <time>2025-01-18T10:49:39.000Z</time>
      </trkpt>
      <trkpt lat="43.99159" lon="7.26586">
        <ele>1189.4</ele>
        <time>2025-01-18T10:49:45.000Z</time>
      </trkpt>
      <trkpt lat="43.99156" lon="7.26591">
        <ele>1189.9</ele>
        <time>2025-01-18T10:49:52.000Z</time>
      </trkpt>
      <trkpt lat="43.99158" lon="7.26598">
        <ele>1190</ele>
        <time>2025-01-18T10:49:56.000Z</time>
      </trkpt>
      <trkpt lat="43.99161" lon="7.26605">
        <ele>1189.9</ele>
        <time>2025-01-18T10:49:59.000Z</time>
      </trkpt>
      <trkpt lat="43.99163" lon="7.26613">
        <ele>1189.8</ele>
        <time>2025-01-18T10:50:03.000Z</time>
      </trkpt>
      <trkpt lat="43.99165" lon="7.26621">
        <ele>1189.6</ele>
        <time>2025-01-18T10:50:08.000Z</time>
      </trkpt>
      <trkpt lat="43.99165" lon="7.26627">
        <ele>1189.5</ele>
        <time>2025-01-18T10:50:10.000Z</time>
      </trkpt>
      <trkpt lat="43.99166" lon="7.26634">
        <ele>1189.3</ele>
        <time>2025-01-18T10:50:16.000Z</time>
      </trkpt>
      <trkpt lat="43.99166" lon="7.26634">
        <ele>1189.2</ele>
        <time>2025-01-18T10:50:20.000Z</time>
      </trkpt>
      <trkpt lat="43.99165" lon="7.26636">
        <ele>1189.2</ele>
        <time>2025-01-18T10:50:21.000Z</time>
      </trkpt>
      <trkpt lat="43.99165" lon="7.26637">
        <ele>1189.2</ele>
        <time>2025-01-18T10:50:22.000Z</time>
      </trkpt>
      <trkpt lat="43.99166" lon="7.2664">
        <ele>1189.2</ele>
        <time>2025-01-18T10:50:23.000Z</time>
      </trkpt>
      <trkpt lat="43.99165" lon="7.26642">
        <ele>1189.3</ele>
        <time>2025-01-18T10:50:24.000Z</time>
      </trkpt>
      <trkpt lat="43.99166" lon="7.26649">
        <ele>1189.4</ele>
        <time>2025-01-18T10:50:28.000Z</time>
      </trkpt>
      <trkpt lat="43.99167" lon="7.26656">
        <ele>1189.4</ele>
        <time>2025-01-18T10:50:32.000Z</time>
      </trkpt>
      <trkpt lat="43.99168" lon="7.26663">
        <ele>1189.3</ele>
        <time>2025-01-18T10:50:39.000Z</time>
      </trkpt>
      <trkpt lat="43.99171" lon="7.2667">
        <ele>1189.4</ele>
        <time>2025-01-18T10:50:44.000Z</time>
      </trkpt>
      <trkpt lat="43.99172" lon="7.26676">
        <ele>1189.6</ele>
        <time>2025-01-18T10:50:52.000Z</time>
      </trkpt>
      <trkpt lat="43.99175" lon="7.26682">
        <ele>1189.6</ele>
        <time>2025-01-18T10:50:59.000Z</time>
      </trkpt>
      <trkpt lat="43.99179" lon="7.26687">
        <ele>1189.7</ele>
        <time>2025-01-18T10:51:03.000Z</time>
      </trkpt>
      <trkpt lat="43.99183" lon="7.2669">
        <ele>1189.7</ele>
        <time>2025-01-18T10:51:06.000Z</time>
      </trkpt>
      <trkpt lat="43.99188" lon="7.26693">
        <ele>1189.7</ele>
        <time>2025-01-18T10:51:09.000Z</time>
      </trkpt>
      <trkpt lat="43.99193" lon="7.26697">
        <ele>1189.6</ele>
        <time>2025-01-18T10:51:11.000Z</time>
      </trkpt>
      <trkpt lat="43.99198" lon="7.267">
        <ele>1189.6</ele>
        <time>2025-01-18T10:51:14.000Z</time>
      </trkpt>
      <trkpt lat="43.99202" lon="7.26706">
        <ele>1189.6</ele>
        <time>2025-01-18T10:51:17.000Z</time>
      </trkpt>
      <trkpt lat="43.99206" lon="7.2671">
        <ele>1189.5</ele>
        <time>2025-01-18T10:51:19.000Z</time>
      </trkpt>
      <trkpt lat="43.99207" lon="7.26717">
        <ele>1189.5</ele>
        <time>2025-01-18T10:51:21.000Z</time>
      </trkpt>
      <trkpt lat="43.99208" lon="7.26723">
        <ele>1189.5</ele>
        <time>2025-01-18T10:51:23.000Z</time>
      </trkpt>
      <trkpt lat="43.9921" lon="7.26729">
        <ele>1189.4</ele>
        <time>2025-01-18T10:51:25.000Z</time>
      </trkpt>
      <trkpt lat="43.99211" lon="7.26738">
        <ele>1189.4</ele>
        <time>2025-01-18T10:51:28.000Z</time>
      </trkpt>
      <trkpt lat="43.9921" lon="7.26745">
        <ele>1189.3</ele>
        <time>2025-01-18T10:51:30.000Z</time>
      </trkpt>
      <trkpt lat="43.99209" lon="7.26752">
        <ele>1189.2</ele>
        <time>2025-01-18T10:51:32.000Z</time>
      </trkpt>
      <trkpt lat="43.9921" lon="7.26759">
        <ele>1189.3</ele>
        <time>2025-01-18T10:51:35.000Z</time>
      </trkpt>
      <trkpt lat="43.99206" lon="7.26766">
        <ele>1189.3</ele>
        <time>2025-01-18T10:51:38.000Z</time>
      </trkpt>
      <trkpt lat="43.99204" lon="7.26772">
        <ele>1189.3</ele>
        <time>2025-01-18T10:51:41.000Z</time>
      </trkpt>
      <trkpt lat="43.99202" lon="7.26778">
        <ele>1189.3</ele>
        <time>2025-01-18T10:51:44.000Z</time>
      </trkpt>
      <trkpt lat="43.99199" lon="7.26783">
        <ele>1189.2</ele>
        <time>2025-01-18T10:51:48.000Z</time>
      </trkpt>
      <trkpt lat="43.99199" lon="7.26785">
        <ele>1189.2</ele>
        <time>2025-01-18T10:51:50.000Z</time>
      </trkpt>
      <trkpt lat="43.99199" lon="7.26785">
        <ele>1189.2</ele>
        <time>2025-01-18T10:51:51.000Z</time>
      </trkpt>
      <trkpt lat="43.99199" lon="7.26786">
        <ele>1189.3</ele>
        <time>2025-01-18T10:52:02.000Z</time>
      </trkpt>
      <trkpt lat="43.992" lon="7.26785">
        <ele>1189.3</ele>
        <time>2025-01-18T10:52:03.000Z</time>
      </trkpt>
      <trkpt lat="43.99196" lon="7.26789">
        <ele>1188.9</ele>
        <time>2025-01-18T10:52:14.000Z</time>
      </trkpt>
      <trkpt lat="43.99196" lon="7.26789">
        <ele>1188.9</ele>
        <time>2025-01-18T10:52:15.000Z</time>
      </trkpt>
      <trkpt lat="43.99195" lon="7.2679">
        <ele>1188.8</ele>
        <time>2025-01-18T10:52:16.000Z</time>
      </trkpt>
      <trkpt lat="43.99192" lon="7.26792">
        <ele>1189.3</ele>
        <time>2025-01-18T10:52:30.000Z</time>
      </trkpt>
      <trkpt lat="43.99193" lon="7.26793">
        <ele>1189.4</ele>
        <time>2025-01-18T10:52:31.000Z</time>
      </trkpt>
      <trkpt lat="43.99193" lon="7.26793">
        <ele>1189.4</ele>
        <time>2025-01-18T10:52:32.000Z</time>
      </trkpt>
      <trkpt lat="43.99193" lon="7.26792">
        <ele>1189.4</ele>
        <time>2025-01-18T10:52:33.000Z</time>
      </trkpt>
      <trkpt lat="43.99193" lon="7.26792">
        <ele>1189.4</ele>
        <time>2025-01-18T10:52:34.000Z</time>
      </trkpt>
      <trkpt lat="43.99193" lon="7.26793">
        <ele>1188.4</ele>
        <time>2025-01-18T10:53:05.000Z</time>
      </trkpt>
      <trkpt lat="43.99193" lon="7.26793">
        <ele>1188.3</ele>
        <time>2025-01-18T10:53:06.000Z</time>
      </trkpt>
      <trkpt lat="43.99193" lon="7.26793">
        <ele>1188.3</ele>
        <time>2025-01-18T10:53:07.000Z</time>
      </trkpt>
      <trkpt lat="43.99193" lon="7.26793">
        <ele>1188.2</ele>
        <time>2025-01-18T10:53:08.000Z</time>
      </trkpt>
      <trkpt lat="43.99193" lon="7.26793">
        <ele>1188.2</ele>
        <time>2025-01-18T10:53:09.000Z</time>
      </trkpt>
      <trkpt lat="43.99194" lon="7.26786">
        <ele>1189</ele>
        <time>2025-01-18T10:55:13.000Z</time>
      </trkpt>
      <trkpt lat="43.99198" lon="7.2679">
        <ele>1192.3</ele>
        <time>2025-01-18T10:56:27.000Z</time>
      </trkpt>
      <trkpt lat="43.99194" lon="7.26793">
        <ele>1190.4</ele>
        <time>2025-01-18T10:57:05.000Z</time>
      </trkpt>
      <trkpt lat="43.99198" lon="7.26792">
        <ele>1193.8</ele>
        <time>2025-01-18T10:58:41.000Z</time>
      </trkpt>
      <trkpt lat="43.99194" lon="7.26792">
        <ele>1193.4</ele>
        <time>2025-01-18T10:58:57.000Z</time>
      </trkpt>
      <trkpt lat="43.99199" lon="7.26791">
        <ele>1193.7</ele>
        <time>2025-01-18T11:08:05.000Z</time>
      </trkpt>
      <trkpt lat="43.99196" lon="7.26785">
        <ele>1193.6</ele>
        <time>2025-01-18T11:17:44.000Z</time>
      </trkpt>
      <trkpt lat="43.99197" lon="7.26786">
        <ele>1192.9</ele>
        <time>2025-01-18T11:18:25.000Z</time>
      </trkpt>
      <trkpt lat="43.99198" lon="7.26786">
        <ele>1192.9</ele>
        <time>2025-01-18T11:18:26.000Z</time>
      </trkpt>
      <trkpt lat="43.99198" lon="7.26786">
        <ele>1192.9</ele>
        <time>2025-01-18T11:18:27.000Z</time>
      </trkpt>
      <trkpt lat="43.99198" lon="7.26786">
        <ele>1192.9</ele>
        <time>2025-01-18T11:18:28.000Z</time>
      </trkpt>
      <trkpt lat="43.99198" lon="7.26786">
        <ele>1192.9</ele>
        <time>2025-01-18T11:18:29.000Z</time>
      </trkpt>
      <trkpt lat="43.99199" lon="7.26786">
        <ele>1192.9</ele>
        <time>2025-01-18T11:18:32.000Z</time>
      </trkpt>
      <trkpt lat="43.99199" lon="7.26786">
        <ele>1192.8</ele>
        <time>2025-01-18T11:18:33.000Z</time>
      </trkpt>
      <trkpt lat="43.99199" lon="7.26785">
        <ele>1192.8</ele>
        <time>2025-01-18T11:18:34.000Z</time>
      </trkpt>
      <trkpt lat="43.99196" lon="7.26787">
        <ele>1192.8</ele>
        <time>2025-01-18T11:20:31.000Z</time>
      </trkpt>
      <trkpt lat="43.99195" lon="7.26787">
        <ele>1192.9</ele>
        <time>2025-01-18T11:20:38.000Z</time>
      </trkpt>
      <trkpt lat="43.99195" lon="7.26787">
        <ele>1192.9</ele>
        <time>2025-01-18T11:20:39.000Z</time>
      </trkpt>
      <trkpt lat="43.99195" lon="7.26787">
        <ele>1193</ele>
        <time>2025-01-18T11:20:48.000Z</time>
      </trkpt>
      <trkpt lat="43.99195" lon="7.26788">
        <ele>1193</ele>
        <time>2025-01-18T11:20:49.000Z</time>
      </trkpt>
      <trkpt lat="43.99195" lon="7.26788">
        <ele>1193</ele>
        <time>2025-01-18T11:20:52.000Z</time>
      </trkpt>
      <trkpt lat="43.99195" lon="7.26789">
        <ele>1193</ele>
        <time>2025-01-18T11:20:53.000Z</time>
      </trkpt>
      <trkpt lat="43.99195" lon="7.26789">
        <ele>1193</ele>
        <time>2025-01-18T11:20:58.000Z</time>
      </trkpt>
      <trkpt lat="43.99194" lon="7.26789">
        <ele>1193</ele>
        <time>2025-01-18T11:20:59.000Z</time>
      </trkpt>
      <trkpt lat="43.9919" lon="7.26795">
        <ele>1193</ele>
        <time>2025-01-18T11:21:04.000Z</time>
      </trkpt>
      <trkpt lat="43.99186" lon="7.26798">
        <ele>1193</ele>
        <time>2025-01-18T11:21:07.000Z</time>
      </trkpt>
      <trkpt lat="43.99181" lon="7.26802">
        <ele>1193</ele>
        <time>2025-01-18T11:21:10.000Z</time>
      </trkpt>
      <trkpt lat="43.99177" lon="7.26806">
        <ele>1193</ele>
        <time>2025-01-18T11:21:13.000Z</time>
      </trkpt>
      <trkpt lat="43.99172" lon="7.26809">
        <ele>1193.1</ele>
        <time>2025-01-18T11:21:16.000Z</time>
      </trkpt>
      <trkpt lat="43.99167" lon="7.26811">
        <ele>1193.3</ele>
        <time>2025-01-18T11:21:22.000Z</time>
      </trkpt>
      <trkpt lat="43.99162" lon="7.26811">
        <ele>1193.8</ele>
        <time>2025-01-18T11:21:26.000Z</time>
      </trkpt>
      <trkpt lat="43.99156" lon="7.26812">
        <ele>1194.5</ele>
        <time>2025-01-18T11:21:30.000Z</time>
      </trkpt>
      <trkpt lat="43.99153" lon="7.26818">
        <ele>1195.3</ele>
        <time>2025-01-18T11:21:34.000Z</time>
      </trkpt>
      <trkpt lat="43.99148" lon="7.26821">
        <ele>1196.2</ele>
        <time>2025-01-18T11:21:38.000Z</time>
      </trkpt>
      <trkpt lat="43.99143" lon="7.26824">
        <ele>1197</ele>
        <time>2025-01-18T11:21:43.000Z</time>
      </trkpt>
      <trkpt lat="43.99138" lon="7.26826">
        <ele>1197.5</ele>
        <time>2025-01-18T11:21:47.000Z</time>
      </trkpt>
      <trkpt lat="43.99133" lon="7.26829">
        <ele>1197.9</ele>
        <time>2025-01-18T11:21:52.000Z</time>
      </trkpt>
      <trkpt lat="43.99129" lon="7.2683">
        <ele>1198.1</ele>
        <time>2025-01-18T11:21:55.000Z</time>
      </trkpt>
      <trkpt lat="43.99124" lon="7.26835">
        <ele>1198.4</ele>
        <time>2025-01-18T11:21:59.000Z</time>
      </trkpt>
      <trkpt lat="43.99118" lon="7.26838">
        <ele>1198.8</ele>
        <time>2025-01-18T11:22:03.000Z</time>
      </trkpt>
      <trkpt lat="43.99114" lon="7.26839">
        <ele>1199.5</ele>
        <time>2025-01-18T11:22:06.000Z</time>
      </trkpt>
      <trkpt lat="43.99109" lon="7.26841">
        <ele>1200.7</ele>
        <time>2025-01-18T11:22:10.000Z</time>
      </trkpt>
      <trkpt lat="43.99104" lon="7.26842">
        <ele>1202.1</ele>
        <time>2025-01-18T11:22:15.000Z</time>
      </trkpt>
      <trkpt lat="43.99099" lon="7.26842">
        <ele>1203.2</ele>
        <time>2025-01-18T11:22:19.000Z</time>
      </trkpt>
      <trkpt lat="43.99094" lon="7.26843">
        <ele>1204.5</ele>
        <time>2025-01-18T11:22:25.000Z</time>
      </trkpt>
      <trkpt lat="43.99089" lon="7.26844">
        <ele>1205.4</ele>
        <time>2025-01-18T11:22:30.000Z</time>
      </trkpt>
      <trkpt lat="43.99084" lon="7.26841">
        <ele>1206.6</ele>
        <time>2025-01-18T11:22:37.000Z</time>
      </trkpt>
      <trkpt lat="43.9908" lon="7.26837">
        <ele>1207.3</ele>
        <time>2025-01-18T11:22:42.000Z</time>
      </trkpt>
      <trkpt lat="43.99075" lon="7.26836">
        <ele>1207.9</ele>
        <time>2025-01-18T11:22:47.000Z</time>
      </trkpt>
      <trkpt lat="43.99071" lon="7.26833">
        <ele>1208.6</ele>
        <time>2025-01-18T11:22:53.000Z</time>
      </trkpt>
      <trkpt lat="43.99066" lon="7.26835">
        <ele>1208.9</ele>
        <time>2025-01-18T11:22:58.000Z</time>
      </trkpt>
      <trkpt lat="43.99062" lon="7.26835">
        <ele>1209.2</ele>
        <time>2025-01-18T11:23:01.000Z</time>
      </trkpt>
      <trkpt lat="43.99057" lon="7.26834">
        <ele>1209.4</ele>
        <time>2025-01-18T11:23:04.000Z</time>
      </trkpt>
      <trkpt lat="43.99053" lon="7.26832">
        <ele>1209.7</ele>
        <time>2025-01-18T11:23:07.000Z</time>
      </trkpt>
      <trkpt lat="43.99048" lon="7.26829">
        <ele>1210</ele>
        <time>2025-01-18T11:23:09.000Z</time>
      </trkpt>
      <trkpt lat="43.99043" lon="7.26825">
        <ele>1210.2</ele>
        <time>2025-01-18T11:23:11.000Z</time>
      </trkpt>
      <trkpt lat="43.99037" lon="7.26824">
        <ele>1210.6</ele>
        <time>2025-01-18T11:23:14.000Z</time>
      </trkpt>
      <trkpt lat="43.99032" lon="7.26827">
        <ele>1210.9</ele>
        <time>2025-01-18T11:23:17.000Z</time>
      </trkpt>
      <trkpt lat="43.99026" lon="7.26833">
        <ele>1211.1</ele>
        <time>2025-01-18T11:23:20.000Z</time>
      </trkpt>
      <trkpt lat="43.99025" lon="7.2684">
        <ele>1211.2</ele>
        <time>2025-01-18T11:23:22.000Z</time>
      </trkpt>
      <trkpt lat="43.99025" lon="7.26848">
        <ele>1211.3</ele>
        <time>2025-01-18T11:23:24.000Z</time>
      </trkpt>
      <trkpt lat="43.99024" lon="7.26855">
        <ele>1211.3</ele>
        <time>2025-01-18T11:23:26.000Z</time>
      </trkpt>
      <trkpt lat="43.99024" lon="7.26864">
        <ele>1211.3</ele>
        <time>2025-01-18T11:23:29.000Z</time>
      </trkpt>
      <trkpt lat="43.99023" lon="7.26873">
        <ele>1211.5</ele>
        <time>2025-01-18T11:23:32.000Z</time>
      </trkpt>
      <trkpt lat="43.99023" lon="7.2688">
        <ele>1211.5</ele>
        <time>2025-01-18T11:23:35.000Z</time>
      </trkpt>
      <trkpt lat="43.99022" lon="7.26889">
        <ele>1211.4</ele>
        <time>2025-01-18T11:23:38.000Z</time>
      </trkpt>
      <trkpt lat="43.99022" lon="7.26896">
        <ele>1211.3</ele>
        <time>2025-01-18T11:23:41.000Z</time>
      </trkpt>
      <trkpt lat="43.99019" lon="7.26902">
        <ele>1211.3</ele>
        <time>2025-01-18T11:23:44.000Z</time>
      </trkpt>
      <trkpt lat="43.99015" lon="7.26905">
        <ele>1211.4</ele>
        <time>2025-01-18T11:23:47.000Z</time>
      </trkpt>
      <trkpt lat="43.9901" lon="7.26907">
        <ele>1211.4</ele>
        <time>2025-01-18T11:23:49.000Z</time>
      </trkpt>
      <trkpt lat="43.99005" lon="7.2691">
        <ele>1211.5</ele>
        <time>2025-01-18T11:23:51.000Z</time>
      </trkpt>
      <trkpt lat="43.98999" lon="7.26912">
        <ele>1211.5</ele>
        <time>2025-01-18T11:23:53.000Z</time>
      </trkpt>
      <trkpt lat="43.98994" lon="7.26914">
        <ele>1211.6</ele>
        <time>2025-01-18T11:23:55.000Z</time>
      </trkpt>
      <trkpt lat="43.98987" lon="7.26917">
        <ele>1211.9</ele>
        <time>2025-01-18T11:23:58.000Z</time>
      </trkpt>
      <trkpt lat="43.98983" lon="7.2692">
        <ele>1212.1</ele>
        <time>2025-01-18T11:24:00.000Z</time>
      </trkpt>
      <trkpt lat="43.98978" lon="7.26922">
        <ele>1212.3</ele>
        <time>2025-01-18T11:24:02.000Z</time>
      </trkpt>
      <trkpt lat="43.98973" lon="7.26925">
        <ele>1212.6</ele>
        <time>2025-01-18T11:24:05.000Z</time>
      </trkpt>
      <trkpt lat="43.98967" lon="7.26928">
        <ele>1213</ele>
        <time>2025-01-18T11:24:08.000Z</time>
      </trkpt>
      <trkpt lat="43.98962" lon="7.26933">
        <ele>1213.1</ele>
        <time>2025-01-18T11:24:10.000Z</time>
      </trkpt>
      <trkpt lat="43.98959" lon="7.26942">
        <ele>1212.9</ele>
        <time>2025-01-18T11:24:12.000Z</time>
      </trkpt>
      <trkpt lat="43.9896" lon="7.26953">
        <ele>1212.8</ele>
        <time>2025-01-18T11:24:14.000Z</time>
      </trkpt>
      <trkpt lat="43.9896" lon="7.26964">
        <ele>1212.5</ele>
        <time>2025-01-18T11:24:16.000Z</time>
      </trkpt>
      <trkpt lat="43.9896" lon="7.26974">
        <ele>1212.3</ele>
        <time>2025-01-18T11:24:18.000Z</time>
      </trkpt>
      <trkpt lat="43.9896" lon="7.26985">
        <ele>1212.1</ele>
        <time>2025-01-18T11:24:20.000Z</time>
      </trkpt>
      <trkpt lat="43.98961" lon="7.26994">
        <ele>1211.7</ele>
        <time>2025-01-18T11:24:22.000Z</time>
      </trkpt>
      <trkpt lat="43.98962" lon="7.27005">
        <ele>1211.4</ele>
        <time>2025-01-18T11:24:24.000Z</time>
      </trkpt>
      <trkpt lat="43.98962" lon="7.27014">
        <ele>1211</ele>
        <time>2025-01-18T11:24:26.000Z</time>
      </trkpt>
      <trkpt lat="43.9896" lon="7.27023">
        <ele>1210.6</ele>
        <time>2025-01-18T11:24:29.000Z</time>
      </trkpt>
      <trkpt lat="43.98957" lon="7.27028">
        <ele>1210.6</ele>
        <time>2025-01-18T11:24:31.000Z</time>
      </trkpt>
      <trkpt lat="43.98954" lon="7.27033">
        <ele>1210.6</ele>
        <time>2025-01-18T11:24:34.000Z</time>
      </trkpt>
      <trkpt lat="43.98949" lon="7.27039">
        <ele>1210.7</ele>
        <time>2025-01-18T11:24:37.000Z</time>
      </trkpt>
      <trkpt lat="43.98943" lon="7.27044">
        <ele>1210.8</ele>
        <time>2025-01-18T11:24:40.000Z</time>
      </trkpt>
      <trkpt lat="43.98938" lon="7.27049">
        <ele>1211</ele>
        <time>2025-01-18T11:24:43.000Z</time>
      </trkpt>
      <trkpt lat="43.98934" lon="7.27052">
        <ele>1211.1</ele>
        <time>2025-01-18T11:24:45.000Z</time>
      </trkpt>
      <trkpt lat="43.98928" lon="7.27053">
        <ele>1211.2</ele>
        <time>2025-01-18T11:24:47.000Z</time>
      </trkpt>
      <trkpt lat="43.98923" lon="7.27055">
        <ele>1211.4</ele>
        <time>2025-01-18T11:24:49.000Z</time>
      </trkpt>
      <trkpt lat="43.98919" lon="7.2706">
        <ele>1211.7</ele>
        <time>2025-01-18T11:24:52.000Z</time>
      </trkpt>
      <trkpt lat="43.98917" lon="7.27063">
        <ele>1212.9</ele>
        <time>2025-01-18T11:25:07.000Z</time>
      </trkpt>
      <trkpt lat="43.98917" lon="7.27063">
        <ele>1212.9</ele>
        <time>2025-01-18T11:25:08.000Z</time>
      </trkpt>
      <trkpt lat="43.98917" lon="7.27065">
        <ele>1212.8</ele>
        <time>2025-01-18T11:26:28.000Z</time>
      </trkpt>
      <trkpt lat="43.98917" lon="7.27064">
        <ele>1212.8</ele>
        <time>2025-01-18T11:26:29.000Z</time>
      </trkpt>
      <trkpt lat="43.98917" lon="7.27064">
        <ele>1212.8</ele>
        <time>2025-01-18T11:26:32.000Z</time>
      </trkpt>
      <trkpt lat="43.98917" lon="7.27064">
        <ele>1212.8</ele>
        <time>2025-01-18T11:26:33.000Z</time>
      </trkpt>
      <trkpt lat="43.98917" lon="7.27068">
        <ele>1212.9</ele>
        <time>2025-01-18T11:26:53.000Z</time>
      </trkpt>
      <trkpt lat="43.98917" lon="7.27071">
        <ele>1212.9</ele>
        <time>2025-01-18T11:26:54.000Z</time>
      </trkpt>
      <trkpt lat="43.98918" lon="7.27078">
        <ele>1212.8</ele>
        <time>2025-01-18T11:26:56.000Z</time>
      </trkpt>
      <trkpt lat="43.98919" lon="7.27085">
        <ele>1212.6</ele>
        <time>2025-01-18T11:26:58.000Z</time>
      </trkpt>
      <trkpt lat="43.98922" lon="7.27091">
        <ele>1212.2</ele>
        <time>2025-01-18T11:27:00.000Z</time>
      </trkpt>
      <trkpt lat="43.98925" lon="7.27098">
        <ele>1210.8</ele>
        <time>2025-01-18T11:27:03.000Z</time>
      </trkpt>
      <trkpt lat="43.98927" lon="7.27104">
        <ele>1207.9</ele>
        <time>2025-01-18T11:27:07.000Z</time>
      </trkpt>
      <trkpt lat="43.98924" lon="7.27108">
        <ele>1205.7</ele>
        <time>2025-01-18T11:27:14.000Z</time>
      </trkpt>
      <trkpt lat="43.98918" lon="7.27105">
        <ele>1204.8</ele>
        <time>2025-01-18T11:27:18.000Z</time>
      </trkpt>
      <trkpt lat="43.98911" lon="7.27105">
        <ele>1203.9</ele>
        <time>2025-01-18T11:27:21.000Z</time>
      </trkpt>
      <trkpt lat="43.98906" lon="7.27107">
        <ele>1202.9</ele>
        <time>2025-01-18T11:27:23.000Z</time>
      </trkpt>
      <trkpt lat="43.98901" lon="7.27108">
        <ele>1202</ele>
        <time>2025-01-18T11:27:25.000Z</time>
      </trkpt>
      <trkpt lat="43.98896" lon="7.27106">
        <ele>1200.1</ele>
        <time>2025-01-18T11:27:30.000Z</time>
      </trkpt>
      <trkpt lat="43.98892" lon="7.27108">
        <ele>1199.5</ele>
        <time>2025-01-18T11:27:33.000Z</time>
      </trkpt>
      <trkpt lat="43.98887" lon="7.27109">
        <ele>1198.9</ele>
        <time>2025-01-18T11:27:35.000Z</time>
      </trkpt>
      <trkpt lat="43.98882" lon="7.27111">
        <ele>1198.7</ele>
        <time>2025-01-18T11:27:37.000Z</time>
      </trkpt>
      <trkpt lat="43.98878" lon="7.27113">
        <ele>1198</ele>
        <time>2025-01-18T11:27:39.000Z</time>
      </trkpt>
      <trkpt lat="43.98872" lon="7.27114">
        <ele>1197.4</ele>
        <time>2025-01-18T11:27:41.000Z</time>
      </trkpt>
      <trkpt lat="43.98867" lon="7.27113">
        <ele>1196.8</ele>
        <time>2025-01-18T11:27:43.000Z</time>
      </trkpt>
      <trkpt lat="43.98861" lon="7.2711">
        <ele>1196.4</ele>
        <time>2025-01-18T11:27:45.000Z</time>
      </trkpt>
      <trkpt lat="43.98855" lon="7.27107">
        <ele>1195.5</ele>
        <time>2025-01-18T11:27:47.000Z</time>
      </trkpt>
      <trkpt lat="43.98848" lon="7.27105">
        <ele>1194.5</ele>
        <time>2025-01-18T11:27:49.000Z</time>
      </trkpt>
      <trkpt lat="43.9884" lon="7.27104">
        <ele>1193.2</ele>
        <time>2025-01-18T11:27:51.000Z</time>
      </trkpt>
      <trkpt lat="43.98832" lon="7.27103">
        <ele>1191.6</ele>
        <time>2025-01-18T11:27:53.000Z</time>
      </trkpt>
      <trkpt lat="43.98825" lon="7.27104">
        <ele>1190.4</ele>
        <time>2025-01-18T11:27:55.000Z</time>
      </trkpt>
      <trkpt lat="43.9882" lon="7.27105">
        <ele>1189</ele>
        <time>2025-01-18T11:27:57.000Z</time>
      </trkpt>
      <trkpt lat="43.98815" lon="7.27106">
        <ele>1187.5</ele>
        <time>2025-01-18T11:27:59.000Z</time>
      </trkpt>
      <trkpt lat="43.9881" lon="7.27106">
        <ele>1186.1</ele>
        <time>2025-01-18T11:28:01.000Z</time>
      </trkpt>
      <trkpt lat="43.98805" lon="7.27105">
        <ele>1184.3</ele>
        <time>2025-01-18T11:28:03.000Z</time>
      </trkpt>
      <trkpt lat="43.98798" lon="7.27104">
        <ele>1182.5</ele>
        <time>2025-01-18T11:28:05.000Z</time>
      </trkpt>
      <trkpt lat="43.98794" lon="7.27103">
        <ele>1181.2</ele>
        <time>2025-01-18T11:28:07.000Z</time>
      </trkpt>
      <trkpt lat="43.98788" lon="7.27103">
        <ele>1179.6</ele>
        <time>2025-01-18T11:28:09.000Z</time>
      </trkpt>
      <trkpt lat="43.98783" lon="7.27104">
        <ele>1178</ele>
        <time>2025-01-18T11:28:11.000Z</time>
      </trkpt>
      <trkpt lat="43.98778" lon="7.27105">
        <ele>1176.5</ele>
        <time>2025-01-18T11:28:13.000Z</time>
      </trkpt>
      <trkpt lat="43.98771" lon="7.27107">
        <ele>1174.8</ele>
        <time>2025-01-18T11:28:16.000Z</time>
      </trkpt>
      <trkpt lat="43.98765" lon="7.27107">
        <ele>1173.1</ele>
        <time>2025-01-18T11:28:18.000Z</time>
      </trkpt>
      <trkpt lat="43.98758" lon="7.27112">
        <ele>1171.4</ele>
        <time>2025-01-18T11:28:20.000Z</time>
      </trkpt>
      <trkpt lat="43.98754" lon="7.27118">
        <ele>1169.6</ele>
        <time>2025-01-18T11:28:22.000Z</time>
      </trkpt>
      <trkpt lat="43.98749" lon="7.27121">
        <ele>1168</ele>
        <time>2025-01-18T11:28:24.000Z</time>
      </trkpt>
      <trkpt lat="43.98745" lon="7.27123">
        <ele>1167</ele>
        <time>2025-01-18T11:28:26.000Z</time>
      </trkpt>
      <trkpt lat="43.9875" lon="7.27124">
        <ele>1164.5</ele>
        <time>2025-01-18T11:28:40.000Z</time>
      </trkpt>
      <trkpt lat="43.98744" lon="7.27128">
        <ele>1162.9</ele>
        <time>2025-01-18T11:28:45.000Z</time>
      </trkpt>
      <trkpt lat="43.98739" lon="7.2713">
        <ele>1162.2</ele>
        <time>2025-01-18T11:28:47.000Z</time>
      </trkpt>
      <trkpt lat="43.98734" lon="7.27132">
        <ele>1161.4</ele>
        <time>2025-01-18T11:28:49.000Z</time>
      </trkpt>
      <trkpt lat="43.98729" lon="7.27133">
        <ele>1160.8</ele>
        <time>2025-01-18T11:28:51.000Z</time>
      </trkpt>
      <trkpt lat="43.98724" lon="7.27131">
        <ele>1159.9</ele>
        <time>2025-01-18T11:28:53.000Z</time>
      </trkpt>
      <trkpt lat="43.9872" lon="7.27126">
        <ele>1158.7</ele>
        <time>2025-01-18T11:28:55.000Z</time>
      </trkpt>
      <trkpt lat="43.98715" lon="7.27126">
        <ele>1157.9</ele>
        <time>2025-01-18T11:28:57.000Z</time>
      </trkpt>
      <trkpt lat="43.98709" lon="7.27128">
        <ele>1156.9</ele>
        <time>2025-01-18T11:28:59.000Z</time>
      </trkpt>
      <trkpt lat="43.98705" lon="7.27131">
        <ele>1155.8</ele>
        <time>2025-01-18T11:29:01.000Z</time>
      </trkpt>
      <trkpt lat="43.987" lon="7.27137">
        <ele>1154.3</ele>
        <time>2025-01-18T11:29:03.000Z</time>
      </trkpt>
      <trkpt lat="43.98696" lon="7.27141">
        <ele>1153.5</ele>
        <time>2025-01-18T11:29:04.000Z</time>
      </trkpt>
      <trkpt lat="43.9869" lon="7.27147">
        <ele>1152.3</ele>
        <time>2025-01-18T11:29:06.000Z</time>
      </trkpt>
      <trkpt lat="43.98685" lon="7.2715">
        <ele>1151</ele>
        <time>2025-01-18T11:29:08.000Z</time>
      </trkpt>
      <trkpt lat="43.98678" lon="7.2715">
        <ele>1149.9</ele>
        <time>2025-01-18T11:29:10.000Z</time>
      </trkpt>
      <trkpt lat="43.98672" lon="7.27147">
        <ele>1149.1</ele>
        <time>2025-01-18T11:29:12.000Z</time>
      </trkpt>
      <trkpt lat="43.98666" lon="7.27143">
        <ele>1147.8</ele>
        <time>2025-01-18T11:29:14.000Z</time>
      </trkpt>
      <trkpt lat="43.9866" lon="7.27139">
        <ele>1147</ele>
        <time>2025-01-18T11:29:16.000Z</time>
      </trkpt>
      <trkpt lat="43.98656" lon="7.27133">
        <ele>1146.3</ele>
        <time>2025-01-18T11:29:18.000Z</time>
      </trkpt>
      <trkpt lat="43.98652" lon="7.27129">
        <ele>1145.5</ele>
        <time>2025-01-18T11:29:20.000Z</time>
      </trkpt>
      <trkpt lat="43.98647" lon="7.2713">
        <ele>1144.7</ele>
        <time>2025-01-18T11:29:22.000Z</time>
      </trkpt>
      <trkpt lat="43.98642" lon="7.27132">
        <ele>1143.5</ele>
        <time>2025-01-18T11:29:25.000Z</time>
      </trkpt>
      <trkpt lat="43.98636" lon="7.27134">
        <ele>1142.4</ele>
        <time>2025-01-18T11:29:28.000Z</time>
      </trkpt>
      <trkpt lat="43.98631" lon="7.27137">
        <ele>1142</ele>
        <time>2025-01-18T11:29:30.000Z</time>
      </trkpt>
      <trkpt lat="43.98626" lon="7.27141">
        <ele>1141.4</ele>
        <time>2025-01-18T11:29:32.000Z</time>
      </trkpt>
      <trkpt lat="43.9862" lon="7.27142">
        <ele>1141.3</ele>
        <time>2025-01-18T11:29:34.000Z</time>
      </trkpt>
      <trkpt lat="43.98615" lon="7.27142">
        <ele>1141.1</ele>
        <time>2025-01-18T11:29:36.000Z</time>
      </trkpt>
      <trkpt lat="43.98608" lon="7.27141">
        <ele>1141.1</ele>
        <time>2025-01-18T11:29:38.000Z</time>
      </trkpt>
      <trkpt lat="43.98604" lon="7.27142">
        <ele>1140.9</ele>
        <time>2025-01-18T11:29:40.000Z</time>
      </trkpt>
      <trkpt lat="43.98599" lon="7.27144">
        <ele>1140.9</ele>
        <time>2025-01-18T11:29:42.000Z</time>
      </trkpt>
      <trkpt lat="43.98593" lon="7.27147">
        <ele>1140.9</ele>
        <time>2025-01-18T11:29:44.000Z</time>
      </trkpt>
      <trkpt lat="43.98586" lon="7.2715">
        <ele>1140.9</ele>
        <time>2025-01-18T11:29:46.000Z</time>
      </trkpt>
      <trkpt lat="43.98579" lon="7.27151">
        <ele>1140.6</ele>
        <time>2025-01-18T11:29:48.000Z</time>
      </trkpt>
      <trkpt lat="43.98572" lon="7.27148">
        <ele>1140.2</ele>
        <time>2025-01-18T11:29:50.000Z</time>
      </trkpt>
      <trkpt lat="43.98568" lon="7.27145">
        <ele>1139.9</ele>
        <time>2025-01-18T11:29:51.000Z</time>
      </trkpt>
      <trkpt lat="43.98561" lon="7.27142">
        <ele>1139</ele>
        <time>2025-01-18T11:29:53.000Z</time>
      </trkpt>
      <trkpt lat="43.98553" lon="7.27147">
        <ele>1138.4</ele>
        <time>2025-01-18T11:29:55.000Z</time>
      </trkpt>
      <trkpt lat="43.98545" lon="7.27154">
        <ele>1138</ele>
        <time>2025-01-18T11:29:57.000Z</time>
      </trkpt>
      <trkpt lat="43.98539" lon="7.2716">
        <ele>1137.8</ele>
        <time>2025-01-18T11:29:59.000Z</time>
      </trkpt>
      <trkpt lat="43.98534" lon="7.27166">
        <ele>1137.5</ele>
        <time>2025-01-18T11:30:01.000Z</time>
      </trkpt>
      <trkpt lat="43.98531" lon="7.27171">
        <ele>1137.4</ele>
        <time>2025-01-18T11:30:03.000Z</time>
      </trkpt>
      <trkpt lat="43.98526" lon="7.27177">
        <ele>1137.3</ele>
        <time>2025-01-18T11:30:05.000Z</time>
      </trkpt>
      <trkpt lat="43.98521" lon="7.27181">
        <ele>1137.1</ele>
        <time>2025-01-18T11:30:07.000Z</time>
      </trkpt>
      <trkpt lat="43.98515" lon="7.27184">
        <ele>1136.9</ele>
        <time>2025-01-18T11:30:09.000Z</time>
      </trkpt>
      <trkpt lat="43.9851" lon="7.27183">
        <ele>1136.7</ele>
        <time>2025-01-18T11:30:11.000Z</time>
      </trkpt>
      <trkpt lat="43.98505" lon="7.27183">
        <ele>1136.6</ele>
        <time>2025-01-18T11:30:13.000Z</time>
      </trkpt>
      <trkpt lat="43.98501" lon="7.27185">
        <ele>1136.5</ele>
        <time>2025-01-18T11:30:15.000Z</time>
      </trkpt>
      <trkpt lat="43.98495" lon="7.27189">
        <ele>1136.4</ele>
        <time>2025-01-18T11:30:17.000Z</time>
      </trkpt>
      <trkpt lat="43.98492" lon="7.27196">
        <ele>1136.4</ele>
        <time>2025-01-18T11:30:19.000Z</time>
      </trkpt>
      <trkpt lat="43.98488" lon="7.27203">
        <ele>1136.3</ele>
        <time>2025-01-18T11:30:21.000Z</time>
      </trkpt>
      <trkpt lat="43.98486" lon="7.27211">
        <ele>1136.2</ele>
        <time>2025-01-18T11:30:23.000Z</time>
      </trkpt>
      <trkpt lat="43.98485" lon="7.2722">
        <ele>1136</ele>
        <time>2025-01-18T11:30:25.000Z</time>
      </trkpt>
      <trkpt lat="43.98482" lon="7.27228">
        <ele>1136</ele>
        <time>2025-01-18T11:30:27.000Z</time>
      </trkpt>
      <trkpt lat="43.98481" lon="7.27236">
        <ele>1135.8</ele>
        <time>2025-01-18T11:30:29.000Z</time>
      </trkpt>
      <trkpt lat="43.98479" lon="7.27245">
        <ele>1135.6</ele>
        <time>2025-01-18T11:30:31.000Z</time>
      </trkpt>
      <trkpt lat="43.98478" lon="7.27253">
        <ele>1135.5</ele>
        <time>2025-01-18T11:30:33.000Z</time>
      </trkpt>
      <trkpt lat="43.98475" lon="7.27259">
        <ele>1135.4</ele>
        <time>2025-01-18T11:30:35.000Z</time>
      </trkpt>
      <trkpt lat="43.98472" lon="7.27265">
        <ele>1135.1</ele>
        <time>2025-01-18T11:30:37.000Z</time>
      </trkpt>
      <trkpt lat="43.98466" lon="7.27271">
        <ele>1134.8</ele>
        <time>2025-01-18T11:30:39.000Z</time>
      </trkpt>
      <trkpt lat="43.9846" lon="7.27277">
        <ele>1134.6</ele>
        <time>2025-01-18T11:30:41.000Z</time>
      </trkpt>
      <trkpt lat="43.98454" lon="7.27282">
        <ele>1134.5</ele>
        <time>2025-01-18T11:30:43.000Z</time>
      </trkpt>
      <trkpt lat="43.98451" lon="7.2729">
        <ele>1134.4</ele>
        <time>2025-01-18T11:30:46.000Z</time>
      </trkpt>
      <trkpt lat="43.98451" lon="7.27297">
        <ele>1134.2</ele>
        <time>2025-01-18T11:30:49.000Z</time>
      </trkpt>
      <trkpt lat="43.98452" lon="7.27304">
        <ele>1134.1</ele>
        <time>2025-01-18T11:30:51.000Z</time>
      </trkpt>
      <trkpt lat="43.98452" lon="7.2731">
        <ele>1134</ele>
        <time>2025-01-18T11:30:53.000Z</time>
      </trkpt>
      <trkpt lat="43.98452" lon="7.2732">
        <ele>1133.8</ele>
        <time>2025-01-18T11:30:56.000Z</time>
      </trkpt>
      <trkpt lat="43.98452" lon="7.27327">
        <ele>1133.7</ele>
        <time>2025-01-18T11:30:58.000Z</time>
      </trkpt>
      <trkpt lat="43.9845" lon="7.27336">
        <ele>1133.6</ele>
        <time>2025-01-18T11:31:01.000Z</time>
      </trkpt>
      <trkpt lat="43.98448" lon="7.27344">
        <ele>1133.5</ele>
        <time>2025-01-18T11:31:04.000Z</time>
      </trkpt>
      <trkpt lat="43.98445" lon="7.2735">
        <ele>1133.5</ele>
        <time>2025-01-18T11:31:06.000Z</time>
      </trkpt>
      <trkpt lat="43.98443" lon="7.27357">
        <ele>1133.5</ele>
        <time>2025-01-18T11:31:09.000Z</time>
      </trkpt>
      <trkpt lat="43.98441" lon="7.27363">
        <ele>1133.4</ele>
        <time>2025-01-18T11:31:14.000Z</time>
      </trkpt>
      <trkpt lat="43.98441" lon="7.27364">
        <ele>1133.4</ele>
        <time>2025-01-18T11:31:15.000Z</time>
      </trkpt>
      <trkpt lat="43.98441" lon="7.27364">
        <ele>1133.4</ele>
        <time>2025-01-18T11:31:16.000Z</time>
      </trkpt>
      <trkpt lat="43.98441" lon="7.27363">
        <ele>1133.4</ele>
        <time>2025-01-18T11:31:20.000Z</time>
      </trkpt>
      <trkpt lat="43.98441" lon="7.27363">
        <ele>1133.4</ele>
        <time>2025-01-18T11:31:21.000Z</time>
      </trkpt>
      <trkpt lat="43.98442" lon="7.27364">
        <ele>1133.4</ele>
        <time>2025-01-18T11:31:22.000Z</time>
      </trkpt>
      <trkpt lat="43.98442" lon="7.27364">
        <ele>1133.4</ele>
        <time>2025-01-18T11:31:23.000Z</time>
      </trkpt>
      <trkpt lat="43.98442" lon="7.27364">
        <ele>1133.4</ele>
        <time>2025-01-18T11:31:24.000Z</time>
      </trkpt>
      <trkpt lat="43.98441" lon="7.27364">
        <ele>1133.3</ele>
        <time>2025-01-18T11:31:30.000Z</time>
      </trkpt>
      <trkpt lat="43.98441" lon="7.27364">
        <ele>1133.3</ele>
        <time>2025-01-18T11:31:31.000Z</time>
      </trkpt>
      <trkpt lat="43.98441" lon="7.27363">
        <ele>1133.3</ele>
        <time>2025-01-18T11:31:32.000Z</time>
      </trkpt>
      <trkpt lat="43.98442" lon="7.27363">
        <ele>1133.3</ele>
        <time>2025-01-18T11:31:33.000Z</time>
      </trkpt>
      <trkpt lat="43.98442" lon="7.27363">
        <ele>1133.3</ele>
        <time>2025-01-18T11:31:34.000Z</time>
      </trkpt>
      <trkpt lat="43.98442" lon="7.27362">
        <ele>1133.2</ele>
        <time>2025-01-18T11:31:44.000Z</time>
      </trkpt>
      <trkpt lat="43.98442" lon="7.27362">
        <ele>1133.2</ele>
        <time>2025-01-18T11:31:47.000Z</time>
      </trkpt>
      <trkpt lat="43.98443" lon="7.2736">
        <ele>1133.2</ele>
        <time>2025-01-18T11:31:50.000Z</time>
      </trkpt>
      <trkpt lat="43.98446" lon="7.27354">
        <ele>1133.1</ele>
        <time>2025-01-18T11:31:53.000Z</time>
      </trkpt>
      <trkpt lat="43.98449" lon="7.27347">
        <ele>1133.1</ele>
        <time>2025-01-18T11:31:56.000Z</time>
      </trkpt>
      <trkpt lat="43.9845" lon="7.2734">
        <ele>1133.1</ele>
        <time>2025-01-18T11:31:58.000Z</time>
      </trkpt>
      <trkpt lat="43.98451" lon="7.27334">
        <ele>1133.1</ele>
        <time>2025-01-18T11:32:00.000Z</time>
      </trkpt>
      <trkpt lat="43.98453" lon="7.27326">
        <ele>1133.1</ele>
        <time>2025-01-18T11:32:02.000Z</time>
      </trkpt>
      <trkpt lat="43.98455" lon="7.27318">
        <ele>1133.1</ele>
        <time>2025-01-18T11:32:05.000Z</time>
      </trkpt>
      <trkpt lat="43.98459" lon="7.27313">
        <ele>1133.2</ele>
        <time>2025-01-18T11:32:13.000Z</time>
      </trkpt>
      <trkpt lat="43.98458" lon="7.27313">
        <ele>1133.3</ele>
        <time>2025-01-18T11:32:15.000Z</time>
      </trkpt>
      <trkpt lat="43.98458" lon="7.27312">
        <ele>1133.3</ele>
        <time>2025-01-18T11:32:16.000Z</time>
      </trkpt>
      <trkpt lat="43.98458" lon="7.27312">
        <ele>1133.3</ele>
        <time>2025-01-18T11:32:17.000Z</time>
      </trkpt>
      <trkpt lat="43.98458" lon="7.27311">
        <ele>1133.3</ele>
        <time>2025-01-18T11:32:18.000Z</time>
      </trkpt>
      <trkpt lat="43.98458" lon="7.2731">
        <ele>1133.3</ele>
        <time>2025-01-18T11:32:19.000Z</time>
      </trkpt>
      <trkpt lat="43.98458" lon="7.27308">
        <ele>1133.4</ele>
        <time>2025-01-18T11:32:25.000Z</time>
      </trkpt>
      <trkpt lat="43.98459" lon="7.27308">
        <ele>1133.4</ele>
        <time>2025-01-18T11:32:26.000Z</time>
      </trkpt>
      <trkpt lat="43.98458" lon="7.27312">
        <ele>1133.3</ele>
        <time>2025-01-18T11:32:34.000Z</time>
      </trkpt>
      <trkpt lat="43.98457" lon="7.27313">
        <ele>1133.3</ele>
        <time>2025-01-18T11:32:35.000Z</time>
      </trkpt>
      <trkpt lat="43.98457" lon="7.27313">
        <ele>1133.3</ele>
        <time>2025-01-18T11:32:36.000Z</time>
      </trkpt>
      <trkpt lat="43.98458" lon="7.27312">
        <ele>1132.6</ele>
        <time>2025-01-18T11:33:58.000Z</time>
      </trkpt>
      <trkpt lat="43.98458" lon="7.27312">
        <ele>1132.6</ele>
        <time>2025-01-18T11:33:59.000Z</time>
      </trkpt>
      <trkpt lat="43.98458" lon="7.27312">
        <ele>1132.5</ele>
        <time>2025-01-18T11:34:02.000Z</time>
      </trkpt>
      <trkpt lat="43.98458" lon="7.27312">
        <ele>1132.5</ele>
        <time>2025-01-18T11:34:03.000Z</time>
      </trkpt>
      <trkpt lat="43.98458" lon="7.27312">
        <ele>1132.4</ele>
        <time>2025-01-18T11:34:20.000Z</time>
      </trkpt>
      <trkpt lat="43.98458" lon="7.27312">
        <ele>1132.4</ele>
        <time>2025-01-18T11:34:21.000Z</time>
      </trkpt>
      <trkpt lat="43.98458" lon="7.27312">
        <ele>1132.4</ele>
        <time>2025-01-18T11:34:22.000Z</time>
      </trkpt>
      <trkpt lat="43.98458" lon="7.27319">
        <ele>1132.3</ele>
        <time>2025-01-18T11:34:26.000Z</time>
      </trkpt>
      <trkpt lat="43.98457" lon="7.27326">
        <ele>1132.2</ele>
        <time>2025-01-18T11:34:29.000Z</time>
      </trkpt>
      <trkpt lat="43.98457" lon="7.27334">
        <ele>1131.8</ele>
        <time>2025-01-18T11:34:34.000Z</time>
      </trkpt>
      <trkpt lat="43.98456" lon="7.27342">
        <ele>1131.2</ele>
        <time>2025-01-18T11:34:39.000Z</time>
      </trkpt>
      <trkpt lat="43.98454" lon="7.2735">
        <ele>1130.8</ele>
        <time>2025-01-18T11:34:41.000Z</time>
      </trkpt>
      <trkpt lat="43.98453" lon="7.27357">
        <ele>1130</ele>
        <time>2025-01-18T11:34:43.000Z</time>
      </trkpt>
      <trkpt lat="43.98451" lon="7.27363">
        <ele>1129</ele>
        <time>2025-01-18T11:34:45.000Z</time>
      </trkpt>
      <trkpt lat="43.98449" lon="7.27369">
        <ele>1127.6</ele>
        <time>2025-01-18T11:34:47.000Z</time>
      </trkpt>
      <trkpt lat="43.98448" lon="7.27376">
        <ele>1126.5</ele>
        <time>2025-01-18T11:34:49.000Z</time>
      </trkpt>
      <trkpt lat="43.98446" lon="7.27382">
        <ele>1126</ele>
        <time>2025-01-18T11:34:51.000Z</time>
      </trkpt>
      <trkpt lat="43.98445" lon="7.2739">
        <ele>1125.7</ele>
        <time>2025-01-18T11:34:53.000Z</time>
      </trkpt>
      <trkpt lat="43.98445" lon="7.27398">
        <ele>1125.4</ele>
        <time>2025-01-18T11:34:55.000Z</time>
      </trkpt>
      <trkpt lat="43.98446" lon="7.27405">
        <ele>1125.2</ele>
        <time>2025-01-18T11:34:57.000Z</time>
      </trkpt>
      <trkpt lat="43.98447" lon="7.27413">
        <ele>1125.1</ele>
        <time>2025-01-18T11:35:00.000Z</time>
      </trkpt>
      <trkpt lat="43.98448" lon="7.27419">
        <ele>1125</ele>
        <time>2025-01-18T11:35:03.000Z</time>
      </trkpt>
      <trkpt lat="43.9845" lon="7.27426">
        <ele>1124.8</ele>
        <time>2025-01-18T11:35:07.000Z</time>
      </trkpt>
      <trkpt lat="43.98453" lon="7.2743">
        <ele>1124.9</ele>
        <time>2025-01-18T11:35:11.000Z</time>
      </trkpt>
      <trkpt lat="43.98453" lon="7.27438">
        <ele>1125</ele>
        <time>2025-01-18T11:35:18.000Z</time>
      </trkpt>
      <trkpt lat="43.98454" lon="7.27445">
        <ele>1125</ele>
        <time>2025-01-18T11:35:20.000Z</time>
      </trkpt>
      <trkpt lat="43.98456" lon="7.27452">
        <ele>1124.9</ele>
        <time>2025-01-18T11:35:22.000Z</time>
      </trkpt>
      <trkpt lat="43.98459" lon="7.27459">
        <ele>1124.9</ele>
        <time>2025-01-18T11:35:24.000Z</time>
      </trkpt>
      <trkpt lat="43.9846" lon="7.27467">
        <ele>1124.7</ele>
        <time>2025-01-18T11:35:26.000Z</time>
      </trkpt>
      <trkpt lat="43.98461" lon="7.27474">
        <ele>1124.4</ele>
        <time>2025-01-18T11:35:28.000Z</time>
      </trkpt>
      <trkpt lat="43.98463" lon="7.2748">
        <ele>1124.1</ele>
        <time>2025-01-18T11:35:31.000Z</time>
      </trkpt>
      <trkpt lat="43.98464" lon="7.27487">
        <ele>1124</ele>
        <time>2025-01-18T11:35:35.000Z</time>
      </trkpt>
      <trkpt lat="43.98466" lon="7.27494">
        <ele>1124</ele>
        <time>2025-01-18T11:35:40.000Z</time>
      </trkpt>
      <trkpt lat="43.9847" lon="7.275">
        <ele>1124</ele>
        <time>2025-01-18T11:35:47.000Z</time>
      </trkpt>
      <trkpt lat="43.98474" lon="7.27507">
        <ele>1124</ele>
        <time>2025-01-18T11:35:50.000Z</time>
      </trkpt>
      <trkpt lat="43.98476" lon="7.27514">
        <ele>1123.9</ele>
        <time>2025-01-18T11:35:52.000Z</time>
      </trkpt>
      <trkpt lat="43.98476" lon="7.27522">
        <ele>1123.9</ele>
        <time>2025-01-18T11:35:54.000Z</time>
      </trkpt>
      <trkpt lat="43.98474" lon="7.27529">
        <ele>1123.7</ele>
        <time>2025-01-18T11:35:56.000Z</time>
      </trkpt>
      <trkpt lat="43.98474" lon="7.27536">
        <ele>1123.5</ele>
        <time>2025-01-18T11:35:58.000Z</time>
      </trkpt>
      <trkpt lat="43.98472" lon="7.27541">
        <ele>1123.3</ele>
        <time>2025-01-18T11:36:00.000Z</time>
      </trkpt>
      <trkpt lat="43.98472" lon="7.27549">
        <ele>1123</ele>
        <time>2025-01-18T11:36:02.000Z</time>
      </trkpt>
      <trkpt lat="43.98473" lon="7.27556">
        <ele>1122.7</ele>
        <time>2025-01-18T11:36:04.000Z</time>
      </trkpt>
      <trkpt lat="43.98475" lon="7.27563">
        <ele>1122.4</ele>
        <time>2025-01-18T11:36:06.000Z</time>
      </trkpt>
      <trkpt lat="43.98477" lon="7.27572">
        <ele>1121.7</ele>
        <time>2025-01-18T11:36:08.000Z</time>
      </trkpt>
      <trkpt lat="43.98476" lon="7.27582">
        <ele>1120.4</ele>
        <time>2025-01-18T11:36:10.000Z</time>
      </trkpt>
      <trkpt lat="43.98476" lon="7.27592">
        <ele>1119.6</ele>
        <time>2025-01-18T11:36:12.000Z</time>
      </trkpt>
      <trkpt lat="43.98478" lon="7.276">
        <ele>1119.1</ele>
        <time>2025-01-18T11:36:14.000Z</time>
      </trkpt>
      <trkpt lat="43.98482" lon="7.2761">
        <ele>1118.6</ele>
        <time>2025-01-18T11:36:16.000Z</time>
      </trkpt>
      <trkpt lat="43.98486" lon="7.27622">
        <ele>1118.1</ele>
        <time>2025-01-18T11:36:18.000Z</time>
      </trkpt>
      <trkpt lat="43.98488" lon="7.27627">
        <ele>1118</ele>
        <time>2025-01-18T11:36:19.000Z</time>
      </trkpt>
      <trkpt lat="43.98492" lon="7.27635">
        <ele>1117.5</ele>
        <time>2025-01-18T11:36:21.000Z</time>
      </trkpt>
      <trkpt lat="43.98495" lon="7.27643">
        <ele>1116.3</ele>
        <time>2025-01-18T11:36:23.000Z</time>
      </trkpt>
      <trkpt lat="43.98497" lon="7.27653">
        <ele>1114.9</ele>
        <time>2025-01-18T11:36:25.000Z</time>
      </trkpt>
      <trkpt lat="43.985" lon="7.27664">
        <ele>1113.3</ele>
        <time>2025-01-18T11:36:27.000Z</time>
      </trkpt>
      <trkpt lat="43.985" lon="7.27671">
        <ele>1112.3</ele>
        <time>2025-01-18T11:36:28.000Z</time>
      </trkpt>
      <trkpt lat="43.98501" lon="7.27679">
        <ele>1111.6</ele>
        <time>2025-01-18T11:36:29.000Z</time>
      </trkpt>
      <trkpt lat="43.98502" lon="7.27687">
        <ele>1110.9</ele>
        <time>2025-01-18T11:36:30.000Z</time>
      </trkpt>
      <trkpt lat="43.98503" lon="7.27693">
        <ele>1110.3</ele>
        <time>2025-01-18T11:36:31.000Z</time>
      </trkpt>
      <trkpt lat="43.98502" lon="7.277">
        <ele>1108.5</ele>
        <time>2025-01-18T11:36:33.000Z</time>
      </trkpt>
      <trkpt lat="43.98497" lon="7.27705">
        <ele>1107.4</ele>
        <time>2025-01-18T11:36:35.000Z</time>
      </trkpt>
      <trkpt lat="43.98492" lon="7.2771">
        <ele>1105.8</ele>
        <time>2025-01-18T11:36:38.000Z</time>
      </trkpt>
      <trkpt lat="43.98487" lon="7.27711">
        <ele>1104.1</ele>
        <time>2025-01-18T11:36:40.000Z</time>
      </trkpt>
      <trkpt lat="43.98481" lon="7.27713">
        <ele>1102</ele>
        <time>2025-01-18T11:36:42.000Z</time>
      </trkpt>
      <trkpt lat="43.98476" lon="7.27716">
        <ele>1100</ele>
        <time>2025-01-18T11:36:44.000Z</time>
      </trkpt>
      <trkpt lat="43.98473" lon="7.27722">
        <ele>1097.2</ele>
        <time>2025-01-18T11:36:49.000Z</time>
      </trkpt>
      <trkpt lat="43.98469" lon="7.27729">
        <ele>1095.4</ele>
        <time>2025-01-18T11:36:53.000Z</time>
      </trkpt>
      <trkpt lat="43.98465" lon="7.27731">
        <ele>1094.1</ele>
        <time>2025-01-18T11:36:56.000Z</time>
      </trkpt>
      <trkpt lat="43.98463" lon="7.27724">
        <ele>1092.1</ele>
        <time>2025-01-18T11:37:01.000Z</time>
      </trkpt>
      <trkpt lat="43.9846" lon="7.27717">
        <ele>1090.7</ele>
        <time>2025-01-18T11:37:08.000Z</time>
      </trkpt>
      <trkpt lat="43.98454" lon="7.27717">
        <ele>1089.7</ele>
        <time>2025-01-18T11:37:15.000Z</time>
      </trkpt>
      <trkpt lat="43.98449" lon="7.2772">
        <ele>1088.8</ele>
        <time>2025-01-18T11:37:18.000Z</time>
      </trkpt>
      <trkpt lat="43.98447" lon="7.27726">
        <ele>1088.2</ele>
        <time>2025-01-18T11:37:20.000Z</time>
      </trkpt>
      <trkpt lat="43.98446" lon="7.27734">
        <ele>1086.8</ele>
        <time>2025-01-18T11:37:23.000Z</time>
      </trkpt>
      <trkpt lat="43.98445" lon="7.27741">
        <ele>1084.6</ele>
        <time>2025-01-18T11:37:29.000Z</time>
      </trkpt>
      <trkpt lat="43.98445" lon="7.27742">
        <ele>1084.4</ele>
        <time>2025-01-18T11:37:30.000Z</time>
      </trkpt>
      <trkpt lat="43.98445" lon="7.27742">
        <ele>1084.2</ele>
        <time>2025-01-18T11:37:31.000Z</time>
      </trkpt>
      <trkpt lat="43.98445" lon="7.27742">
        <ele>1084.1</ele>
        <time>2025-01-18T11:37:32.000Z</time>
      </trkpt>
      <trkpt lat="43.98445" lon="7.27742">
        <ele>1084</ele>
        <time>2025-01-18T11:37:33.000Z</time>
      </trkpt>
      <trkpt lat="43.98444" lon="7.27742">
        <ele>1084</ele>
        <time>2025-01-18T11:37:34.000Z</time>
      </trkpt>
      <trkpt lat="43.98441" lon="7.27746">
        <ele>1083</ele>
        <time>2025-01-18T11:37:42.000Z</time>
      </trkpt>
      <trkpt lat="43.98437" lon="7.27753">
        <ele>1082.3</ele>
        <time>2025-01-18T11:37:48.000Z</time>
      </trkpt>
      <trkpt lat="43.98437" lon="7.27761">
        <ele>1081</ele>
        <time>2025-01-18T11:37:52.000Z</time>
      </trkpt>
      <trkpt lat="43.98436" lon="7.27767">
        <ele>1079.4</ele>
        <time>2025-01-18T11:37:55.000Z</time>
      </trkpt>
      <trkpt lat="43.98434" lon="7.27773">
        <ele>1077.3</ele>
        <time>2025-01-18T11:38:02.000Z</time>
      </trkpt>
      <trkpt lat="43.98436" lon="7.27778">
        <ele>1074.3</ele>
        <time>2025-01-18T11:38:14.000Z</time>
      </trkpt>
      <trkpt lat="43.98437" lon="7.27785">
        <ele>1074.1</ele>
        <time>2025-01-18T11:38:19.000Z</time>
      </trkpt>
      <trkpt lat="43.98438" lon="7.27794">
        <ele>1073.5</ele>
        <time>2025-01-18T11:38:22.000Z</time>
      </trkpt>
      <trkpt lat="43.98438" lon="7.27802">
        <ele>1072.8</ele>
        <time>2025-01-18T11:38:24.000Z</time>
      </trkpt>
      <trkpt lat="43.98438" lon="7.27809">
        <ele>1071.9</ele>
        <time>2025-01-18T11:38:26.000Z</time>
      </trkpt>
      <trkpt lat="43.98435" lon="7.27816">
        <ele>1070.8</ele>
        <time>2025-01-18T11:38:29.000Z</time>
      </trkpt>
      <trkpt lat="43.98434" lon="7.27825">
        <ele>1069.3</ele>
        <time>2025-01-18T11:38:33.000Z</time>
      </trkpt>
      <trkpt lat="43.98435" lon="7.27834">
        <ele>1067.9</ele>
        <time>2025-01-18T11:38:36.000Z</time>
      </trkpt>
      <trkpt lat="43.98437" lon="7.27843">
        <ele>1066.1</ele>
        <time>2025-01-18T11:38:39.000Z</time>
      </trkpt>
      <trkpt lat="43.98435" lon="7.2785">
        <ele>1064.7</ele>
        <time>2025-01-18T11:38:42.000Z</time>
      </trkpt>
      <trkpt lat="43.98433" lon="7.27856">
        <ele>1063.8</ele>
        <time>2025-01-18T11:38:44.000Z</time>
      </trkpt>
      <trkpt lat="43.98429" lon="7.27861">
        <ele>1062.7</ele>
        <time>2025-01-18T11:38:46.000Z</time>
      </trkpt>
      <trkpt lat="43.98426" lon="7.27867">
        <ele>1061.6</ele>
        <time>2025-01-18T11:38:48.000Z</time>
      </trkpt>
      <trkpt lat="43.98422" lon="7.27873">
        <ele>1060.4</ele>
        <time>2025-01-18T11:38:50.000Z</time>
      </trkpt>
      <trkpt lat="43.98421" lon="7.27879">
        <ele>1059.4</ele>
        <time>2025-01-18T11:38:52.000Z</time>
      </trkpt>
      <trkpt lat="43.98419" lon="7.27884">
        <ele>1058.7</ele>
        <time>2025-01-18T11:38:54.000Z</time>
      </trkpt>
      <trkpt lat="43.98419" lon="7.27892">
        <ele>1058</ele>
        <time>2025-01-18T11:38:56.000Z</time>
      </trkpt>
      <trkpt lat="43.98418" lon="7.279">
        <ele>1056.8</ele>
        <time>2025-01-18T11:38:58.000Z</time>
      </trkpt>
      <trkpt lat="43.98415" lon="7.27908">
        <ele>1055.3</ele>
        <time>2025-01-18T11:39:00.000Z</time>
      </trkpt>
      <trkpt lat="43.98414" lon="7.27916">
        <ele>1053.8</ele>
        <time>2025-01-18T11:39:02.000Z</time>
      </trkpt>
      <trkpt lat="43.98416" lon="7.27924">
        <ele>1052.8</ele>
        <time>2025-01-18T11:39:04.000Z</time>
      </trkpt>
      <trkpt lat="43.98418" lon="7.27933">
        <ele>1051.5</ele>
        <time>2025-01-18T11:39:06.000Z</time>
      </trkpt>
      <trkpt lat="43.98418" lon="7.27943">
        <ele>1050.3</ele>
        <time>2025-01-18T11:39:08.000Z</time>
      </trkpt>
      <trkpt lat="43.98417" lon="7.27957">
        <ele>1049.3</ele>
        <time>2025-01-18T11:39:10.000Z</time>
      </trkpt>
      <trkpt lat="43.98417" lon="7.27964">
        <ele>1048.9</ele>
        <time>2025-01-18T11:39:11.000Z</time>
      </trkpt>
      <trkpt lat="43.98417" lon="7.27971">
        <ele>1048.4</ele>
        <time>2025-01-18T11:39:12.000Z</time>
      </trkpt>
      <trkpt lat="43.98417" lon="7.27978">
        <ele>1047.7</ele>
        <time>2025-01-18T11:39:13.000Z</time>
      </trkpt>
      <trkpt lat="43.98417" lon="7.27985">
        <ele>1047.2</ele>
        <time>2025-01-18T11:39:14.000Z</time>
      </trkpt>
      <trkpt lat="43.98418" lon="7.27996">
        <ele>1046.5</ele>
        <time>2025-01-18T11:39:16.000Z</time>
      </trkpt>
      <trkpt lat="43.98415" lon="7.28002">
        <ele>1045.5</ele>
        <time>2025-01-18T11:39:19.000Z</time>
      </trkpt>
      <trkpt lat="43.9841" lon="7.28002">
        <ele>1044.2</ele>
        <time>2025-01-18T11:39:22.000Z</time>
      </trkpt>
      <trkpt lat="43.98406" lon="7.28007">
        <ele>1042.8</ele>
        <time>2025-01-18T11:39:26.000Z</time>
      </trkpt>
      <trkpt lat="43.98402" lon="7.28013">
        <ele>1042.3</ele>
        <time>2025-01-18T11:39:28.000Z</time>
      </trkpt>
      <trkpt lat="43.98402" lon="7.28022">
        <ele>1041.4</ele>
        <time>2025-01-18T11:39:30.000Z</time>
      </trkpt>
      <trkpt lat="43.98399" lon="7.2803">
        <ele>1039.5</ele>
        <time>2025-01-18T11:39:32.000Z</time>
      </trkpt>
      <trkpt lat="43.98396" lon="7.28036">
        <ele>1037.7</ele>
        <time>2025-01-18T11:39:34.000Z</time>
      </trkpt>
      <trkpt lat="43.98393" lon="7.28042">
        <ele>1035.1</ele>
        <time>2025-01-18T11:39:37.000Z</time>
      </trkpt>
      <trkpt lat="43.98393" lon="7.28049">
        <ele>1032.2</ele>
        <time>2025-01-18T11:39:42.000Z</time>
      </trkpt>
      <trkpt lat="43.98393" lon="7.28057">
        <ele>1030.2</ele>
        <time>2025-01-18T11:39:47.000Z</time>
      </trkpt>
      <trkpt lat="43.98395" lon="7.28063">
        <ele>1048.1</ele>
        <time>2025-01-18T11:39:51.000Z</time>
      </trkpt>
      <trkpt lat="43.9839" lon="7.28063">
        <ele>1028.6</ele>
        <time>2025-01-18T11:39:57.000Z</time>
      </trkpt>
      <trkpt lat="43.98386" lon="7.28061">
        <ele>1026.6</ele>
        <time>2025-01-18T11:40:02.000Z</time>
      </trkpt>
      <trkpt lat="43.98391" lon="7.28062">
        <ele>1026.3</ele>
        <time>2025-01-18T11:40:10.000Z</time>
      </trkpt>
      <trkpt lat="43.98388" lon="7.28067">
        <ele>1025.8</ele>
        <time>2025-01-18T11:40:18.000Z</time>
      </trkpt>
      <trkpt lat="43.98383" lon="7.2807">
        <ele>1024.3</ele>
        <time>2025-01-18T11:40:23.000Z</time>
      </trkpt>
      <trkpt lat="43.98379" lon="7.28071">
        <ele>1023.1</ele>
        <time>2025-01-18T11:40:26.000Z</time>
      </trkpt>
      <trkpt lat="43.98374" lon="7.28073">
        <ele>1021.2</ele>
        <time>2025-01-18T11:40:30.000Z</time>
      </trkpt>
      <trkpt lat="43.98368" lon="7.28071">
        <ele>1018.4</ele>
        <time>2025-01-18T11:40:35.000Z</time>
      </trkpt>
      <trkpt lat="43.98363" lon="7.28071">
        <ele>1016</ele>
        <time>2025-01-18T11:40:38.000Z</time>
      </trkpt>
      <trkpt lat="43.98362" lon="7.28079">
        <ele>1013.2</ele>
        <time>2025-01-18T11:40:42.000Z</time>
      </trkpt>
      <trkpt lat="43.98364" lon="7.28086">
        <ele>1012</ele>
        <time>2025-01-18T11:40:44.000Z</time>
      </trkpt>
      <trkpt lat="43.98368" lon="7.28092">
        <ele>1010.1</ele>
        <time>2025-01-18T11:40:47.000Z</time>
      </trkpt>
      <trkpt lat="43.98372" lon="7.28097">
        <ele>1008.6</ele>
        <time>2025-01-18T11:40:49.000Z</time>
      </trkpt>
      <trkpt lat="43.98376" lon="7.28102">
        <ele>1006.2</ele>
        <time>2025-01-18T11:40:52.000Z</time>
      </trkpt>
      <trkpt lat="43.98376" lon="7.28108">
        <ele>1004.5</ele>
        <time>2025-01-18T11:40:55.000Z</time>
      </trkpt>
      <trkpt lat="43.98372" lon="7.28114">
        <ele>1003.1</ele>
        <time>2025-01-18T11:40:58.000Z</time>
      </trkpt>
      <trkpt lat="43.98369" lon="7.28118">
        <ele>1002.3</ele>
        <time>2025-01-18T11:41:00.000Z</time>
      </trkpt>
      <trkpt lat="43.98364" lon="7.2812">
        <ele>1000.9</ele>
        <time>2025-01-18T11:41:02.000Z</time>
      </trkpt>
      <trkpt lat="43.98358" lon="7.28121">
        <ele>998.4</ele>
        <time>2025-01-18T11:41:05.000Z</time>
      </trkpt>
      <trkpt lat="43.98354" lon="7.28126">
        <ele>997</ele>
        <time>2025-01-18T11:41:07.000Z</time>
      </trkpt>
      <trkpt lat="43.98351" lon="7.28131">
        <ele>995.4</ele>
        <time>2025-01-18T11:41:09.000Z</time>
      </trkpt>
      <trkpt lat="43.98351" lon="7.28138">
        <ele>993</ele>
        <time>2025-01-18T11:41:12.000Z</time>
      </trkpt>
      <trkpt lat="43.98351" lon="7.28144">
        <ele>991.1</ele>
        <time>2025-01-18T11:41:14.000Z</time>
      </trkpt>
      <trkpt lat="43.98355" lon="7.2815">
        <ele>988.7</ele>
        <time>2025-01-18T11:41:17.000Z</time>
      </trkpt>
      <trkpt lat="43.98359" lon="7.28155">
        <ele>987.7</ele>
        <time>2025-01-18T11:41:19.000Z</time>
      </trkpt>
      <trkpt lat="43.98363" lon="7.28161">
        <ele>985.8</ele>
        <time>2025-01-18T11:41:22.000Z</time>
      </trkpt>
      <trkpt lat="43.98369" lon="7.28167">
        <ele>983.9</ele>
        <time>2025-01-18T11:41:25.000Z</time>
      </trkpt>
      <trkpt lat="43.9837" lon="7.28171">
        <ele>982.8</ele>
        <time>2025-01-18T11:41:28.000Z</time>
      </trkpt>
      <trkpt lat="43.98373" lon="7.28176">
        <ele>982.4</ele>
        <time>2025-01-18T11:41:31.000Z</time>
      </trkpt>
      <trkpt lat="43.98375" lon="7.28177">
        <ele>982.3</ele>
        <time>2025-01-18T11:41:32.000Z</time>
      </trkpt>
      <trkpt lat="43.98377" lon="7.28178">
        <ele>982.2</ele>
        <time>2025-01-18T11:41:33.000Z</time>
      </trkpt>
      <trkpt lat="43.98377" lon="7.28179">
        <ele>982.1</ele>
        <time>2025-01-18T11:41:34.000Z</time>
      </trkpt>
      <trkpt lat="43.98378" lon="7.28179">
        <ele>982.1</ele>
        <time>2025-01-18T11:41:35.000Z</time>
      </trkpt>
      <trkpt lat="43.98378" lon="7.2818">
        <ele>982.1</ele>
        <time>2025-01-18T11:41:36.000Z</time>
      </trkpt>
      <trkpt lat="43.98383" lon="7.2818">
        <ele>981.9</ele>
        <time>2025-01-18T11:41:42.000Z</time>
      </trkpt>
      <trkpt lat="43.98383" lon="7.2818">
        <ele>981.9</ele>
        <time>2025-01-18T11:41:43.000Z</time>
      </trkpt>
      <trkpt lat="43.98384" lon="7.2818">
        <ele>981.9</ele>
        <time>2025-01-18T11:41:44.000Z</time>
      </trkpt>
      <trkpt lat="43.98386" lon="7.28181">
        <ele>981.6</ele>
        <time>2025-01-18T11:42:12.000Z</time>
      </trkpt>
      <trkpt lat="43.98386" lon="7.28182">
        <ele>981.6</ele>
        <time>2025-01-18T11:42:13.000Z</time>
      </trkpt>
      <trkpt lat="43.9839" lon="7.28186">
        <ele>981.5</ele>
        <time>2025-01-18T11:42:17.000Z</time>
      </trkpt>
      <trkpt lat="43.98394" lon="7.2819">
        <ele>981.4</ele>
        <time>2025-01-18T11:42:20.000Z</time>
      </trkpt>
      <trkpt lat="43.98392" lon="7.28199">
        <ele>981.1</ele>
        <time>2025-01-18T11:42:23.000Z</time>
      </trkpt>
      <trkpt lat="43.98391" lon="7.28208">
        <ele>980.7</ele>
        <time>2025-01-18T11:42:25.000Z</time>
      </trkpt>
      <trkpt lat="43.98389" lon="7.28218">
        <ele>979.9</ele>
        <time>2025-01-18T11:42:27.000Z</time>
      </trkpt>
      <trkpt lat="43.98392" lon="7.28226">
        <ele>978.5</ele>
        <time>2025-01-18T11:42:29.000Z</time>
      </trkpt>
      <trkpt lat="43.98393" lon="7.28233">
        <ele>976.1</ele>
        <time>2025-01-18T11:42:31.000Z</time>
      </trkpt>
      <trkpt lat="43.98395" lon="7.2824">
        <ele>973.7</ele>
        <time>2025-01-18T11:42:33.000Z</time>
      </trkpt>
      <trkpt lat="43.98397" lon="7.28246">
        <ele>971.2</ele>
        <time>2025-01-18T11:42:35.000Z</time>
      </trkpt>
      <trkpt lat="43.98398" lon="7.28252">
        <ele>969.3</ele>
        <time>2025-01-18T11:42:37.000Z</time>
      </trkpt>
      <trkpt lat="43.98398" lon="7.2826">
        <ele>967.8</ele>
        <time>2025-01-18T11:42:39.000Z</time>
      </trkpt>
      <trkpt lat="43.984" lon="7.28268">
        <ele>966.1</ele>
        <time>2025-01-18T11:42:41.000Z</time>
      </trkpt>
      <trkpt lat="43.98402" lon="7.28275">
        <ele>963.9</ele>
        <time>2025-01-18T11:42:43.000Z</time>
      </trkpt>
      <trkpt lat="43.98402" lon="7.28284">
        <ele>961.8</ele>
        <time>2025-01-18T11:42:45.000Z</time>
      </trkpt>
      <trkpt lat="43.98409" lon="7.28294">
        <ele>959.4</ele>
        <time>2025-01-18T11:42:47.000Z</time>
      </trkpt>
      <trkpt lat="43.98412" lon="7.28299">
        <ele>958.4</ele>
        <time>2025-01-18T11:42:48.000Z</time>
      </trkpt>
      <trkpt lat="43.98416" lon="7.28305">
        <ele>957.6</ele>
        <time>2025-01-18T11:42:49.000Z</time>
      </trkpt>
      <trkpt lat="43.98419" lon="7.28311">
        <ele>956.7</ele>
        <time>2025-01-18T11:42:50.000Z</time>
      </trkpt>
      <trkpt lat="43.98422" lon="7.28316">
        <ele>955.8</ele>
        <time>2025-01-18T11:42:51.000Z</time>
      </trkpt>
      <trkpt lat="43.98424" lon="7.28327">
        <ele>954.8</ele>
        <time>2025-01-18T11:42:53.000Z</time>
      </trkpt>
      <trkpt lat="43.98419" lon="7.28327">
        <ele>946.3</ele>
        <time>2025-01-18T11:43:07.000Z</time>
      </trkpt>
      <trkpt lat="43.98415" lon="7.28331">
        <ele>944.7</ele>
        <time>2025-01-18T11:43:09.000Z</time>
      </trkpt>
      <trkpt lat="43.98409" lon="7.28337">
        <ele>942.8</ele>
        <time>2025-01-18T11:43:12.000Z</time>
      </trkpt>
      <trkpt lat="43.98406" lon="7.28345">
        <ele>940.8</ele>
        <time>2025-01-18T11:43:15.000Z</time>
      </trkpt>
      <trkpt lat="43.98402" lon="7.28353">
        <ele>939.6</ele>
        <time>2025-01-18T11:43:17.000Z</time>
      </trkpt>
      <trkpt lat="43.98398" lon="7.28359">
        <ele>938.7</ele>
        <time>2025-01-18T11:43:19.000Z</time>
      </trkpt>
      <trkpt lat="43.98394" lon="7.28365">
        <ele>938.2</ele>
        <time>2025-01-18T11:43:21.000Z</time>
      </trkpt>
      <trkpt lat="43.98389" lon="7.28372">
        <ele>937.5</ele>
        <time>2025-01-18T11:43:23.000Z</time>
      </trkpt>
      <trkpt lat="43.98385" lon="7.28379">
        <ele>936.6</ele>
        <time>2025-01-18T11:43:25.000Z</time>
      </trkpt>
      <trkpt lat="43.98386" lon="7.28388">
        <ele>935.2</ele>
        <time>2025-01-18T11:43:27.000Z</time>
      </trkpt>
      <trkpt lat="43.98389" lon="7.28397">
        <ele>933.7</ele>
        <time>2025-01-18T11:43:29.000Z</time>
      </trkpt>
      <trkpt lat="43.98393" lon="7.28405">
        <ele>931.8</ele>
        <time>2025-01-18T11:43:31.000Z</time>
      </trkpt>
      <trkpt lat="43.98396" lon="7.28414">
        <ele>929.9</ele>
        <time>2025-01-18T11:43:33.000Z</time>
      </trkpt>
      <trkpt lat="43.98395" lon="7.28421">
        <ele>925.8</ele>
        <time>2025-01-18T11:43:40.000Z</time>
      </trkpt>
      <trkpt lat="43.98394" lon="7.28425">
        <ele>924.3</ele>
        <time>2025-01-18T11:43:48.000Z</time>
      </trkpt>
      <trkpt lat="43.98394" lon="7.28425">
        <ele>924.2</ele>
        <time>2025-01-18T11:43:49.000Z</time>
      </trkpt>
      <trkpt lat="43.9839" lon="7.28426">
        <ele>923.7</ele>
        <time>2025-01-18T11:44:03.000Z</time>
      </trkpt>
      <trkpt lat="43.98385" lon="7.28428">
        <ele>923.6</ele>
        <time>2025-01-18T11:44:11.000Z</time>
      </trkpt>
      <trkpt lat="43.9838" lon="7.2843">
        <ele>923.5</ele>
        <time>2025-01-18T11:44:48.000Z</time>
      </trkpt>
      <trkpt lat="43.98382" lon="7.28429">
        <ele>922.9</ele>
        <time>2025-01-18T11:45:29.000Z</time>
      </trkpt>
      <trkpt lat="43.98382" lon="7.28429">
        <ele>923</ele>
        <time>2025-01-18T11:45:30.000Z</time>
      </trkpt>
      <trkpt lat="43.98381" lon="7.28428">
        <ele>923</ele>
        <time>2025-01-18T11:45:36.000Z</time>
      </trkpt>
      <trkpt lat="43.98381" lon="7.28428">
        <ele>923</ele>
        <time>2025-01-18T11:45:37.000Z</time>
      </trkpt>
      <trkpt lat="43.9838" lon="7.28429">
        <ele>923.1</ele>
        <time>2025-01-18T11:45:38.000Z</time>
      </trkpt>
      <trkpt lat="43.98383" lon="7.2843">
        <ele>923.2</ele>
        <time>2025-01-18T11:45:49.000Z</time>
      </trkpt>
      <trkpt lat="43.98384" lon="7.2843">
        <ele>923.2</ele>
        <time>2025-01-18T11:45:50.000Z</time>
      </trkpt>
      <trkpt lat="43.98384" lon="7.28431">
        <ele>923.1</ele>
        <time>2025-01-18T11:45:51.000Z</time>
      </trkpt>
      <trkpt lat="43.98385" lon="7.28432">
        <ele>923.1</ele>
        <time>2025-01-18T11:45:52.000Z</time>
      </trkpt>
      <trkpt lat="43.98386" lon="7.28434">
        <ele>923</ele>
        <time>2025-01-18T11:45:53.000Z</time>
      </trkpt>
      <trkpt lat="43.98386" lon="7.28436">
        <ele>923</ele>
        <time>2025-01-18T11:45:54.000Z</time>
      </trkpt>
      <trkpt lat="43.98385" lon="7.28442">
        <ele>922.2</ele>
        <time>2025-01-18T11:45:57.000Z</time>
      </trkpt>
      <trkpt lat="43.98383" lon="7.28449">
        <ele>919.1</ele>
        <time>2025-01-18T11:46:03.000Z</time>
      </trkpt>
      <trkpt lat="43.98382" lon="7.28455">
        <ele>918.3</ele>
        <time>2025-01-18T11:46:07.000Z</time>
      </trkpt>
      <trkpt lat="43.98384" lon="7.28461">
        <ele>917.6</ele>
        <time>2025-01-18T11:46:18.000Z</time>
      </trkpt>
      <trkpt lat="43.9838" lon="7.28465">
        <ele>917.2</ele>
        <time>2025-01-18T11:46:26.000Z</time>
      </trkpt>
      <trkpt lat="43.98377" lon="7.28464">
        <ele>917.2</ele>
        <time>2025-01-18T11:46:28.000Z</time>
      </trkpt>
      <trkpt lat="43.98376" lon="7.28465">
        <ele>917.1</ele>
        <time>2025-01-18T11:46:29.000Z</time>
      </trkpt>
      <trkpt lat="43.98371" lon="7.28463">
        <ele>917</ele>
        <time>2025-01-18T11:46:36.000Z</time>
      </trkpt>
      <trkpt lat="43.98371" lon="7.28463">
        <ele>917</ele>
        <time>2025-01-18T11:46:37.000Z</time>
      </trkpt>
      <trkpt lat="43.98369" lon="7.28463">
        <ele>917</ele>
        <time>2025-01-18T11:46:38.000Z</time>
      </trkpt>
      <trkpt lat="43.98369" lon="7.28463">
        <ele>917</ele>
        <time>2025-01-18T11:46:39.000Z</time>
      </trkpt>
      <trkpt lat="43.98369" lon="7.28463">
        <ele>917</ele>
        <time>2025-01-18T11:46:40.000Z</time>
      </trkpt>
      <trkpt lat="43.98369" lon="7.28464">
        <ele>917</ele>
        <time>2025-01-18T11:46:41.000Z</time>
      </trkpt>
      <trkpt lat="43.98368" lon="7.28466">
        <ele>916.9</ele>
        <time>2025-01-18T11:46:44.000Z</time>
      </trkpt>
      <trkpt lat="43.98369" lon="7.28467">
        <ele>916.9</ele>
        <time>2025-01-18T11:46:45.000Z</time>
      </trkpt>
      <trkpt lat="43.98369" lon="7.28467">
        <ele>916.8</ele>
        <time>2025-01-18T11:46:46.000Z</time>
      </trkpt>
      <trkpt lat="43.98371" lon="7.28473">
        <ele>914.6</ele>
        <time>2025-01-18T11:47:00.000Z</time>
      </trkpt>
      <trkpt lat="43.98373" lon="7.28472">
        <ele>914.5</ele>
        <time>2025-01-18T11:47:02.000Z</time>
      </trkpt>
      <trkpt lat="43.98374" lon="7.28472">
        <ele>914.4</ele>
        <time>2025-01-18T11:47:03.000Z</time>
      </trkpt>
      <trkpt lat="43.98374" lon="7.28472">
        <ele>914.3</ele>
        <time>2025-01-18T11:47:04.000Z</time>
      </trkpt>
      <trkpt lat="43.98375" lon="7.28472">
        <ele>914.2</ele>
        <time>2025-01-18T11:47:05.000Z</time>
      </trkpt>
      <trkpt lat="43.9838" lon="7.28473">
        <ele>914</ele>
        <time>2025-01-18T11:47:08.000Z</time>
      </trkpt>
      <trkpt lat="43.98377" lon="7.28478">
        <ele>912.6</ele>
        <time>2025-01-18T11:47:19.000Z</time>
      </trkpt>
      <trkpt lat="43.98377" lon="7.28484">
        <ele>911.5</ele>
        <time>2025-01-18T11:47:29.000Z</time>
      </trkpt>
      <trkpt lat="43.98375" lon="7.28491">
        <ele>910.5</ele>
        <time>2025-01-18T11:47:36.000Z</time>
      </trkpt>
      <trkpt lat="43.98372" lon="7.28496">
        <ele>909.7</ele>
        <time>2025-01-18T11:47:41.000Z</time>
      </trkpt>
      <trkpt lat="43.98369" lon="7.28501">
        <ele>908.9</ele>
        <time>2025-01-18T11:47:44.000Z</time>
      </trkpt>
      <trkpt lat="43.98367" lon="7.28507">
        <ele>906.7</ele>
        <time>2025-01-18T11:47:52.000Z</time>
      </trkpt>
      <trkpt lat="43.9837" lon="7.28514">
        <ele>905.5</ele>
        <time>2025-01-18T11:47:58.000Z</time>
      </trkpt>
      <trkpt lat="43.98371" lon="7.28521">
        <ele>904.7</ele>
        <time>2025-01-18T11:48:04.000Z</time>
      </trkpt>
      <trkpt lat="43.98369" lon="7.28527">
        <ele>903.2</ele>
        <time>2025-01-18T11:48:10.000Z</time>
      </trkpt>
      <trkpt lat="43.98371" lon="7.28534">
        <ele>901.6</ele>
        <time>2025-01-18T11:48:19.000Z</time>
      </trkpt>
      <trkpt lat="43.98376" lon="7.28539">
        <ele>900.9</ele>
        <time>2025-01-18T11:48:24.000Z</time>
      </trkpt>
      <trkpt lat="43.98379" lon="7.28544">
        <ele>900.5</ele>
        <time>2025-01-18T11:48:28.000Z</time>
      </trkpt>
      <trkpt lat="43.98376" lon="7.2855">
        <ele>900.1</ele>
        <time>2025-01-18T11:48:33.000Z</time>
      </trkpt>
      <trkpt lat="43.98373" lon="7.28555">
        <ele>899.8</ele>
        <time>2025-01-18T11:48:36.000Z</time>
      </trkpt>
      <trkpt lat="43.9837" lon="7.28562">
        <ele>899.3</ele>
        <time>2025-01-18T11:48:38.000Z</time>
      </trkpt>
      <trkpt lat="43.98367" lon="7.28568">
        <ele>898.6</ele>
        <time>2025-01-18T11:48:40.000Z</time>
      </trkpt>
      <trkpt lat="43.98363" lon="7.28576">
        <ele>897.9</ele>
        <time>2025-01-18T11:48:42.000Z</time>
      </trkpt>
      <trkpt lat="43.9836" lon="7.28583">
        <ele>897.6</ele>
        <time>2025-01-18T11:48:44.000Z</time>
      </trkpt>
      <trkpt lat="43.98357" lon="7.28589">
        <ele>897.1</ele>
        <time>2025-01-18T11:48:46.000Z</time>
      </trkpt>
      <trkpt lat="43.98353" lon="7.28596">
        <ele>896.7</ele>
        <time>2025-01-18T11:48:48.000Z</time>
      </trkpt>
      <trkpt lat="43.98352" lon="7.28603">
        <ele>896.4</ele>
        <time>2025-01-18T11:48:50.000Z</time>
      </trkpt>
      <trkpt lat="43.98354" lon="7.28611">
        <ele>895.8</ele>
        <time>2025-01-18T11:48:52.000Z</time>
      </trkpt>
      <trkpt lat="43.98352" lon="7.28617">
        <ele>894.8</ele>
        <time>2025-01-18T11:48:54.000Z</time>
      </trkpt>
      <trkpt lat="43.98349" lon="7.28626">
        <ele>893</ele>
        <time>2025-01-18T11:48:57.000Z</time>
      </trkpt>
      <trkpt lat="43.98348" lon="7.28632">
        <ele>891.4</ele>
        <time>2025-01-18T11:48:59.000Z</time>
      </trkpt>
      <trkpt lat="43.98346" lon="7.28639">
        <ele>889.6</ele>
        <time>2025-01-18T11:49:01.000Z</time>
      </trkpt>
      <trkpt lat="43.98344" lon="7.28647">
        <ele>887.8</ele>
        <time>2025-01-18T11:49:03.000Z</time>
      </trkpt>
      <trkpt lat="43.98342" lon="7.28655">
        <ele>886</ele>
        <time>2025-01-18T11:49:05.000Z</time>
      </trkpt>
      <trkpt lat="43.9834" lon="7.28666">
        <ele>884.1</ele>
        <time>2025-01-18T11:49:07.000Z</time>
      </trkpt>
      <trkpt lat="43.98338" lon="7.28673">
        <ele>882.9</ele>
        <time>2025-01-18T11:49:09.000Z</time>
      </trkpt>
      <trkpt lat="43.98334" lon="7.28678">
        <ele>882.3</ele>
        <time>2025-01-18T11:49:11.000Z</time>
      </trkpt>
      <trkpt lat="43.9833" lon="7.28684">
        <ele>881.6</ele>
        <time>2025-01-18T11:49:13.000Z</time>
      </trkpt>
      <trkpt lat="43.98324" lon="7.28692">
        <ele>880.4</ele>
        <time>2025-01-18T11:49:15.000Z</time>
      </trkpt>
      <trkpt lat="43.9832" lon="7.28698">
        <ele>879.1</ele>
        <time>2025-01-18T11:49:17.000Z</time>
      </trkpt>
      <trkpt lat="43.98315" lon="7.28704">
        <ele>877.9</ele>
        <time>2025-01-18T11:49:19.000Z</time>
      </trkpt>
      <trkpt lat="43.98311" lon="7.28709">
        <ele>876.4</ele>
        <time>2025-01-18T11:49:21.000Z</time>
      </trkpt>
      <trkpt lat="43.98308" lon="7.28715">
        <ele>874.9</ele>
        <time>2025-01-18T11:49:23.000Z</time>
      </trkpt>
      <trkpt lat="43.98305" lon="7.28722">
        <ele>873.1</ele>
        <time>2025-01-18T11:49:26.000Z</time>
      </trkpt>
      <trkpt lat="43.98302" lon="7.2873">
        <ele>870.9</ele>
        <time>2025-01-18T11:49:29.000Z</time>
      </trkpt>
      <trkpt lat="43.98298" lon="7.28737">
        <ele>869.3</ele>
        <time>2025-01-18T11:49:31.000Z</time>
      </trkpt>
      <trkpt lat="43.98296" lon="7.28743">
        <ele>867.8</ele>
        <time>2025-01-18T11:49:33.000Z</time>
      </trkpt>
      <trkpt lat="43.98295" lon="7.2875">
        <ele>866.2</ele>
        <time>2025-01-18T11:49:36.000Z</time>
      </trkpt>
      <trkpt lat="43.98293" lon="7.28756">
        <ele>864.9</ele>
        <time>2025-01-18T11:49:39.000Z</time>
      </trkpt>
      <trkpt lat="43.98291" lon="7.28762">
        <ele>864.2</ele>
        <time>2025-01-18T11:49:43.000Z</time>
      </trkpt>
      <trkpt lat="43.98287" lon="7.28766">
        <ele>863.5</ele>
        <time>2025-01-18T11:49:51.000Z</time>
      </trkpt>
      <trkpt lat="43.98283" lon="7.28771">
        <ele>862.9</ele>
        <time>2025-01-18T11:49:55.000Z</time>
      </trkpt>
      <trkpt lat="43.98281" lon="7.28778">
        <ele>861.6</ele>
        <time>2025-01-18T11:50:03.000Z</time>
      </trkpt>
      <trkpt lat="43.98276" lon="7.28785">
        <ele>861.2</ele>
        <time>2025-01-18T11:50:06.000Z</time>
      </trkpt>
      <trkpt lat="43.98273" lon="7.28792">
        <ele>860.7</ele>
        <time>2025-01-18T11:50:08.000Z</time>
      </trkpt>
      <trkpt lat="43.98269" lon="7.28797">
        <ele>860</ele>
        <time>2025-01-18T11:50:10.000Z</time>
      </trkpt>
      <trkpt lat="43.98264" lon="7.28798">
        <ele>858.8</ele>
        <time>2025-01-18T11:50:13.000Z</time>
      </trkpt>
      <trkpt lat="43.98259" lon="7.28796">
        <ele>857.6</ele>
        <time>2025-01-18T11:50:16.000Z</time>
      </trkpt>
      <trkpt lat="43.98253" lon="7.28795">
        <ele>857</ele>
        <time>2025-01-18T11:50:18.000Z</time>
      </trkpt>
      <trkpt lat="43.98247" lon="7.28793">
        <ele>856.5</ele>
        <time>2025-01-18T11:50:20.000Z</time>
      </trkpt>
      <trkpt lat="43.98243" lon="7.28793">
        <ele>855.7</ele>
        <time>2025-01-18T11:50:22.000Z</time>
      </trkpt>
      <trkpt lat="43.98236" lon="7.28793">
        <ele>854.8</ele>
        <time>2025-01-18T11:50:24.000Z</time>
      </trkpt>
      <trkpt lat="43.98231" lon="7.28792">
        <ele>853.3</ele>
        <time>2025-01-18T11:50:27.000Z</time>
      </trkpt>
      <trkpt lat="43.98226" lon="7.2879">
        <ele>852.4</ele>
        <time>2025-01-18T11:50:30.000Z</time>
      </trkpt>
      <trkpt lat="43.98222" lon="7.28788">
        <ele>851.9</ele>
        <time>2025-01-18T11:50:35.000Z</time>
      </trkpt>
      <trkpt lat="43.9822" lon="7.28794">
        <ele>850</ele>
        <time>2025-01-18T11:50:48.000Z</time>
      </trkpt>
      <trkpt lat="43.98219" lon="7.28798">
        <ele>849.5</ele>
        <time>2025-01-18T11:50:55.000Z</time>
      </trkpt>
      <trkpt lat="43.98218" lon="7.28798">
        <ele>849.4</ele>
        <time>2025-01-18T11:50:56.000Z</time>
      </trkpt>
      <trkpt lat="43.98217" lon="7.28798">
        <ele>849.4</ele>
        <time>2025-01-18T11:50:57.000Z</time>
      </trkpt>
      <trkpt lat="43.98217" lon="7.28798">
        <ele>849.4</ele>
        <time>2025-01-18T11:50:58.000Z</time>
      </trkpt>
      <trkpt lat="43.98217" lon="7.28797">
        <ele>849.4</ele>
        <time>2025-01-18T11:50:59.000Z</time>
      </trkpt>
      <trkpt lat="43.98219" lon="7.288">
        <ele>849.8</ele>
        <time>2025-01-18T11:51:07.000Z</time>
      </trkpt>
      <trkpt lat="43.98219" lon="7.288">
        <ele>849.8</ele>
        <time>2025-01-18T11:51:08.000Z</time>
      </trkpt>
      <trkpt lat="43.9822" lon="7.288">
        <ele>849.9</ele>
        <time>2025-01-18T11:51:09.000Z</time>
      </trkpt>
      <trkpt lat="43.98221" lon="7.28801">
        <ele>849.9</ele>
        <time>2025-01-18T11:51:10.000Z</time>
      </trkpt>
      <trkpt lat="43.98222" lon="7.28801">
        <ele>849.9</ele>
        <time>2025-01-18T11:51:11.000Z</time>
      </trkpt>
      <trkpt lat="43.98223" lon="7.28801">
        <ele>850</ele>
        <time>2025-01-18T11:51:12.000Z</time>
      </trkpt>
      <trkpt lat="43.98224" lon="7.28801">
        <ele>850</ele>
        <time>2025-01-18T11:51:13.000Z</time>
      </trkpt>
      <trkpt lat="43.98225" lon="7.28801">
        <ele>850</ele>
        <time>2025-01-18T11:51:14.000Z</time>
      </trkpt>
      <trkpt lat="43.98225" lon="7.28802">
        <ele>850</ele>
        <time>2025-01-18T11:51:15.000Z</time>
      </trkpt>
      <trkpt lat="43.98225" lon="7.28804">
        <ele>850</ele>
        <time>2025-01-18T11:51:16.000Z</time>
      </trkpt>
      <trkpt lat="43.98225" lon="7.28813">
        <ele>849.9</ele>
        <time>2025-01-18T11:51:19.000Z</time>
      </trkpt>
      <trkpt lat="43.9823" lon="7.28822">
        <ele>849.5</ele>
        <time>2025-01-18T11:51:21.000Z</time>
      </trkpt>
      <trkpt lat="43.98233" lon="7.28828">
        <ele>848.8</ele>
        <time>2025-01-18T11:51:23.000Z</time>
      </trkpt>
      <trkpt lat="43.98236" lon="7.28837">
        <ele>847.2</ele>
        <time>2025-01-18T11:51:26.000Z</time>
      </trkpt>
      <trkpt lat="43.98237" lon="7.28843">
        <ele>845.6</ele>
        <time>2025-01-18T11:51:28.000Z</time>
      </trkpt>
      <trkpt lat="43.98235" lon="7.28852">
        <ele>842.8</ele>
        <time>2025-01-18T11:51:31.000Z</time>
      </trkpt>
      <trkpt lat="43.9823" lon="7.28855">
        <ele>841.9</ele>
        <time>2025-01-18T11:51:34.000Z</time>
      </trkpt>
      <trkpt lat="43.98226" lon="7.2886">
        <ele>841.7</ele>
        <time>2025-01-18T11:51:37.000Z</time>
      </trkpt>
      <trkpt lat="43.98221" lon="7.28863">
        <ele>841.7</ele>
        <time>2025-01-18T11:51:42.000Z</time>
      </trkpt>
      <trkpt lat="43.98221" lon="7.28863">
        <ele>841.7</ele>
        <time>2025-01-18T11:51:43.000Z</time>
      </trkpt>
      <trkpt lat="43.9822" lon="7.28863">
        <ele>841.7</ele>
        <time>2025-01-18T11:51:44.000Z</time>
      </trkpt>
      <trkpt lat="43.98222" lon="7.28869">
        <ele>841.7</ele>
        <time>2025-01-18T11:52:02.000Z</time>
      </trkpt>
      <trkpt lat="43.98219" lon="7.28875">
        <ele>841.8</ele>
        <time>2025-01-18T11:52:29.000Z</time>
      </trkpt>
      <trkpt lat="43.98218" lon="7.28876">
        <ele>841.8</ele>
        <time>2025-01-18T11:52:35.000Z</time>
      </trkpt>
      <trkpt lat="43.98218" lon="7.28877">
        <ele>841.8</ele>
        <time>2025-01-18T11:52:36.000Z</time>
      </trkpt>
      <trkpt lat="43.98215" lon="7.28883">
        <ele>841.7</ele>
        <time>2025-01-18T11:52:39.000Z</time>
      </trkpt>
      <trkpt lat="43.98214" lon="7.2889">
        <ele>841.3</ele>
        <time>2025-01-18T11:52:43.000Z</time>
      </trkpt>
      <trkpt lat="43.98213" lon="7.28897">
        <ele>840.6</ele>
        <time>2025-01-18T11:52:46.000Z</time>
      </trkpt>
      <trkpt lat="43.98215" lon="7.28904">
        <ele>839.4</ele>
        <time>2025-01-18T11:52:48.000Z</time>
      </trkpt>
      <trkpt lat="43.98212" lon="7.28912">
        <ele>837.5</ele>
        <time>2025-01-18T11:52:50.000Z</time>
      </trkpt>
      <trkpt lat="43.98212" lon="7.2892">
        <ele>834.7</ele>
        <time>2025-01-18T11:52:52.000Z</time>
      </trkpt>
      <trkpt lat="43.98213" lon="7.28928">
        <ele>832</ele>
        <time>2025-01-18T11:52:54.000Z</time>
      </trkpt>
      <trkpt lat="43.98211" lon="7.28936">
        <ele>830.3</ele>
        <time>2025-01-18T11:52:56.000Z</time>
      </trkpt>
      <trkpt lat="43.9821" lon="7.28943">
        <ele>828.8</ele>
        <time>2025-01-18T11:52:58.000Z</time>
      </trkpt>
      <trkpt lat="43.98211" lon="7.2895">
        <ele>827.5</ele>
        <time>2025-01-18T11:53:00.000Z</time>
      </trkpt>
      <trkpt lat="43.98212" lon="7.28958">
        <ele>826.4</ele>
        <time>2025-01-18T11:53:02.000Z</time>
      </trkpt>
      <trkpt lat="43.98212" lon="7.28965">
        <ele>825</ele>
        <time>2025-01-18T11:53:04.000Z</time>
      </trkpt>
      <trkpt lat="43.98214" lon="7.28972">
        <ele>823.4</ele>
        <time>2025-01-18T11:53:06.000Z</time>
      </trkpt>
      <trkpt lat="43.98212" lon="7.28981">
        <ele>822</ele>
        <time>2025-01-18T11:53:08.000Z</time>
      </trkpt>
      <trkpt lat="43.98212" lon="7.28989">
        <ele>820.9</ele>
        <time>2025-01-18T11:53:10.000Z</time>
      </trkpt>
      <trkpt lat="43.98213" lon="7.28998">
        <ele>819.7</ele>
        <time>2025-01-18T11:53:12.000Z</time>
      </trkpt>
      <trkpt lat="43.98213" lon="7.29006">
        <ele>818.6</ele>
        <time>2025-01-18T11:53:14.000Z</time>
      </trkpt>
      <trkpt lat="43.98214" lon="7.29013">
        <ele>817.6</ele>
        <time>2025-01-18T11:53:16.000Z</time>
      </trkpt>
      <trkpt lat="43.98214" lon="7.29021">
        <ele>816</ele>
        <time>2025-01-18T11:53:18.000Z</time>
      </trkpt>
      <trkpt lat="43.98214" lon="7.29029">
        <ele>814.3</ele>
        <time>2025-01-18T11:53:20.000Z</time>
      </trkpt>
      <trkpt lat="43.98212" lon="7.29038">
        <ele>812.7</ele>
        <time>2025-01-18T11:53:22.000Z</time>
      </trkpt>
      <trkpt lat="43.98212" lon="7.29044">
        <ele>811</ele>
        <time>2025-01-18T11:53:24.000Z</time>
      </trkpt>
      <trkpt lat="43.98214" lon="7.29053">
        <ele>809.2</ele>
        <time>2025-01-18T11:53:26.000Z</time>
      </trkpt>
      <trkpt lat="43.98213" lon="7.29061">
        <ele>807.2</ele>
        <time>2025-01-18T11:53:28.000Z</time>
      </trkpt>
      <trkpt lat="43.98211" lon="7.2907">
        <ele>805.3</ele>
        <time>2025-01-18T11:53:30.000Z</time>
      </trkpt>
      <trkpt lat="43.98211" lon="7.2908">
        <ele>803.9</ele>
        <time>2025-01-18T11:53:32.000Z</time>
      </trkpt>
      <trkpt lat="43.9821" lon="7.29087">
        <ele>802.4</ele>
        <time>2025-01-18T11:53:34.000Z</time>
      </trkpt>
      <trkpt lat="43.98208" lon="7.29092">
        <ele>801.1</ele>
        <time>2025-01-18T11:53:36.000Z</time>
      </trkpt>
      <trkpt lat="43.98205" lon="7.29098">
        <ele>799.6</ele>
        <time>2025-01-18T11:53:38.000Z</time>
      </trkpt>
      <trkpt lat="43.98202" lon="7.29105">
        <ele>798</ele>
        <time>2025-01-18T11:53:41.000Z</time>
      </trkpt>
      <trkpt lat="43.98205" lon="7.2911">
        <ele>796.7</ele>
        <time>2025-01-18T11:53:44.000Z</time>
      </trkpt>
      <trkpt lat="43.98209" lon="7.29113">
        <ele>795.4</ele>
        <time>2025-01-18T11:53:47.000Z</time>
      </trkpt>
      <trkpt lat="43.98209" lon="7.29119">
        <ele>792.3</ele>
        <time>2025-01-18T11:53:55.000Z</time>
      </trkpt>
      <trkpt lat="43.98212" lon="7.29123">
        <ele>790.5</ele>
        <time>2025-01-18T11:53:59.000Z</time>
      </trkpt>
      <trkpt lat="43.98218" lon="7.29127">
        <ele>788.9</ele>
        <time>2025-01-18T11:54:02.000Z</time>
      </trkpt>
      <trkpt lat="43.98222" lon="7.29127">
        <ele>787.5</ele>
        <time>2025-01-18T11:54:04.000Z</time>
      </trkpt>
      <trkpt lat="43.98225" lon="7.29122">
        <ele>785.3</ele>
        <time>2025-01-18T11:54:08.000Z</time>
      </trkpt>
      <trkpt lat="43.98227" lon="7.29116">
        <ele>782.1</ele>
        <time>2025-01-18T11:54:17.000Z</time>
      </trkpt>
      <trkpt lat="43.98229" lon="7.29126">
        <ele>778.4</ele>
        <time>2025-01-18T11:54:24.000Z</time>
      </trkpt>
      <trkpt lat="43.9823" lon="7.29132">
        <ele>777.1</ele>
        <time>2025-01-18T11:54:26.000Z</time>
      </trkpt>
      <trkpt lat="43.98232" lon="7.29139">
        <ele>775.1</ele>
        <time>2025-01-18T11:54:29.000Z</time>
      </trkpt>
      <trkpt lat="43.98232" lon="7.29147">
        <ele>773.2</ele>
        <time>2025-01-18T11:54:32.000Z</time>
      </trkpt>
      <trkpt lat="43.98229" lon="7.29154">
        <ele>770.6</ele>
        <time>2025-01-18T11:54:37.000Z</time>
      </trkpt>
      <trkpt lat="43.98225" lon="7.29158">
        <ele>769.8</ele>
        <time>2025-01-18T11:54:39.000Z</time>
      </trkpt>
      <trkpt lat="43.9822" lon="7.29163">
        <ele>767.9</ele>
        <time>2025-01-18T11:54:42.000Z</time>
      </trkpt>
      <trkpt lat="43.98216" lon="7.29167">
        <ele>766.6</ele>
        <time>2025-01-18T11:54:44.000Z</time>
      </trkpt>
      <trkpt lat="43.98213" lon="7.29173">
        <ele>764.4</ele>
        <time>2025-01-18T11:54:47.000Z</time>
      </trkpt>
      <trkpt lat="43.98208" lon="7.29181">
        <ele>762.2</ele>
        <time>2025-01-18T11:54:50.000Z</time>
      </trkpt>
      <trkpt lat="43.98204" lon="7.29187">
        <ele>760.1</ele>
        <time>2025-01-18T11:54:53.000Z</time>
      </trkpt>
      <trkpt lat="43.98201" lon="7.29192">
        <ele>759.2</ele>
        <time>2025-01-18T11:54:55.000Z</time>
      </trkpt>
      <trkpt lat="43.98197" lon="7.29199">
        <ele>757.9</ele>
        <time>2025-01-18T11:54:57.000Z</time>
      </trkpt>
      <trkpt lat="43.98193" lon="7.29205">
        <ele>756.6</ele>
        <time>2025-01-18T11:54:59.000Z</time>
      </trkpt>
      <trkpt lat="43.98189" lon="7.29209">
        <ele>755.3</ele>
        <time>2025-01-18T11:55:01.000Z</time>
      </trkpt>
      <trkpt lat="43.98185" lon="7.29213">
        <ele>753.3</ele>
        <time>2025-01-18T11:55:04.000Z</time>
      </trkpt>
      <trkpt lat="43.98187" lon="7.29222">
        <ele>751.2</ele>
        <time>2025-01-18T11:55:08.000Z</time>
      </trkpt>
      <trkpt lat="43.98186" lon="7.29229">
        <ele>749.8</ele>
        <time>2025-01-18T11:55:11.000Z</time>
      </trkpt>
      <trkpt lat="43.98184" lon="7.29236">
        <ele>748.2</ele>
        <time>2025-01-18T11:55:14.000Z</time>
      </trkpt>
      <trkpt lat="43.98184" lon="7.29244">
        <ele>747.7</ele>
        <time>2025-01-18T11:55:17.000Z</time>
      </trkpt>
      <trkpt lat="43.98179" lon="7.29246">
        <ele>747.4</ele>
        <time>2025-01-18T11:55:20.000Z</time>
      </trkpt>
      <trkpt lat="43.98177" lon="7.29254">
        <ele>747.3</ele>
        <time>2025-01-18T11:55:23.000Z</time>
      </trkpt>
      <trkpt lat="43.98174" lon="7.2926">
        <ele>747</ele>
        <time>2025-01-18T11:55:26.000Z</time>
      </trkpt>
      <trkpt lat="43.98171" lon="7.29264">
        <ele>746.8</ele>
        <time>2025-01-18T11:55:30.000Z</time>
      </trkpt>
      <trkpt lat="43.98171" lon="7.29265">
        <ele>746.7</ele>
        <time>2025-01-18T11:55:31.000Z</time>
      </trkpt>
      <trkpt lat="43.98175" lon="7.29262">
        <ele>746.5</ele>
        <time>2025-01-18T11:55:37.000Z</time>
      </trkpt>
      <trkpt lat="43.98179" lon="7.29262">
        <ele>746.5</ele>
        <time>2025-01-18T11:55:40.000Z</time>
      </trkpt>
      <trkpt lat="43.9818" lon="7.29259">
        <ele>746.4</ele>
        <time>2025-01-18T11:55:45.000Z</time>
      </trkpt>
      <trkpt lat="43.98181" lon="7.2926">
        <ele>746.4</ele>
        <time>2025-01-18T11:55:46.000Z</time>
      </trkpt>
      <trkpt lat="43.98181" lon="7.29259">
        <ele>746.4</ele>
        <time>2025-01-18T11:55:47.000Z</time>
      </trkpt>
      <trkpt lat="43.98178" lon="7.29261">
        <ele>746.3</ele>
        <time>2025-01-18T11:55:48.000Z</time>
      </trkpt>
      <trkpt lat="43.98175" lon="7.29263">
        <ele>746.3</ele>
        <time>2025-01-18T11:55:49.000Z</time>
      </trkpt>
      <trkpt lat="43.98169" lon="7.29268">
        <ele>746.3</ele>
        <time>2025-01-18T11:55:51.000Z</time>
      </trkpt>
      <trkpt lat="43.98167" lon="7.29268">
        <ele>746.3</ele>
        <time>2025-01-18T11:55:52.000Z</time>
      </trkpt>
      <trkpt lat="43.98162" lon="7.2927">
        <ele>746.2</ele>
        <time>2025-01-18T11:55:55.000Z</time>
      </trkpt>
      <trkpt lat="43.98158" lon="7.29274">
        <ele>746.1</ele>
        <time>2025-01-18T11:56:04.000Z</time>
      </trkpt>
      <trkpt lat="43.9816" lon="7.29272">
        <ele>746.1</ele>
        <time>2025-01-18T11:56:09.000Z</time>
      </trkpt>
      <trkpt lat="43.98161" lon="7.29272">
        <ele>746.1</ele>
        <time>2025-01-18T11:56:10.000Z</time>
      </trkpt>
      <trkpt lat="43.98163" lon="7.29272">
        <ele>746.1</ele>
        <time>2025-01-18T11:56:11.000Z</time>
      </trkpt>
      <trkpt lat="43.98163" lon="7.29271">
        <ele>746.1</ele>
        <time>2025-01-18T11:56:12.000Z</time>
      </trkpt>
      <trkpt lat="43.98161" lon="7.29269">
        <ele>746.1</ele>
        <time>2025-01-18T11:56:13.000Z</time>
      </trkpt>
      <trkpt lat="43.98162" lon="7.29265">
        <ele>746</ele>
        <time>2025-01-18T11:56:30.000Z</time>
      </trkpt>
      <trkpt lat="43.98162" lon="7.29266">
        <ele>746</ele>
        <time>2025-01-18T11:56:31.000Z</time>
      </trkpt>
      <trkpt lat="43.98162" lon="7.29266">
        <ele>746</ele>
        <time>2025-01-18T11:56:34.000Z</time>
      </trkpt>
      <trkpt lat="43.98161" lon="7.29266">
        <ele>746</ele>
        <time>2025-01-18T11:56:35.000Z</time>
      </trkpt>
      <trkpt lat="43.98159" lon="7.29266">
        <ele>746</ele>
        <time>2025-01-18T11:56:36.000Z</time>
      </trkpt>
      <trkpt lat="43.98163" lon="7.29272">
        <ele>746</ele>
        <time>2025-01-18T11:56:40.000Z</time>
      </trkpt>
      <trkpt lat="43.98163" lon="7.29275">
        <ele>745.9</ele>
        <time>2025-01-18T11:56:41.000Z</time>
      </trkpt>
      <trkpt lat="43.9816" lon="7.29283">
        <ele>745.9</ele>
        <time>2025-01-18T11:56:44.000Z</time>
      </trkpt>
      <trkpt lat="43.98159" lon="7.29292">
        <ele>745.9</ele>
        <time>2025-01-18T11:56:46.000Z</time>
      </trkpt>
      <trkpt lat="43.98159" lon="7.29301">
        <ele>745.8</ele>
        <time>2025-01-18T11:56:48.000Z</time>
      </trkpt>
      <trkpt lat="43.9816" lon="7.29309">
        <ele>745.7</ele>
        <time>2025-01-18T11:56:50.000Z</time>
      </trkpt>
      <trkpt lat="43.98161" lon="7.29318">
        <ele>745.4</ele>
        <time>2025-01-18T11:56:52.000Z</time>
      </trkpt>
      <trkpt lat="43.98158" lon="7.29328">
        <ele>744.8</ele>
        <time>2025-01-18T11:56:54.000Z</time>
      </trkpt>
      <trkpt lat="43.98159" lon="7.29337">
        <ele>743.9</ele>
        <time>2025-01-18T11:56:56.000Z</time>
      </trkpt>
      <trkpt lat="43.98159" lon="7.29346">
        <ele>742.5</ele>
        <time>2025-01-18T11:56:58.000Z</time>
      </trkpt>
      <trkpt lat="43.9816" lon="7.29355">
        <ele>740.9</ele>
        <time>2025-01-18T11:57:00.000Z</time>
      </trkpt>
      <trkpt lat="43.98162" lon="7.29361">
        <ele>739.2</ele>
        <time>2025-01-18T11:57:02.000Z</time>
      </trkpt>
      <trkpt lat="43.98167" lon="7.29364">
        <ele>737.5</ele>
        <time>2025-01-18T11:57:04.000Z</time>
      </trkpt>
      <trkpt lat="43.98174" lon="7.29366">
        <ele>735.2</ele>
        <time>2025-01-18T11:57:08.000Z</time>
      </trkpt>
      <trkpt lat="43.98176" lon="7.29372">
        <ele>733.5</ele>
        <time>2025-01-18T11:57:12.000Z</time>
      </trkpt>
      <trkpt lat="43.98174" lon="7.2938">
        <ele>732</ele>
        <time>2025-01-18T11:57:15.000Z</time>
      </trkpt>
      <trkpt lat="43.98173" lon="7.29387">
        <ele>730.6</ele>
        <time>2025-01-18T11:57:17.000Z</time>
      </trkpt>
      <trkpt lat="43.98175" lon="7.29394">
        <ele>729.4</ele>
        <time>2025-01-18T11:57:19.000Z</time>
      </trkpt>
      <trkpt lat="43.9818" lon="7.29395">
        <ele>728.2</ele>
        <time>2025-01-18T11:57:22.000Z</time>
      </trkpt>
      <trkpt lat="43.98188" lon="7.29396">
        <ele>726.9</ele>
        <time>2025-01-18T11:57:24.000Z</time>
      </trkpt>
      <trkpt lat="43.98192" lon="7.294">
        <ele>725</ele>
        <time>2025-01-18T11:57:28.000Z</time>
      </trkpt>
      <trkpt lat="43.9819" lon="7.29406">
        <ele>722.8</ele>
        <time>2025-01-18T11:57:34.000Z</time>
      </trkpt>
      <trkpt lat="43.98193" lon="7.29414">
        <ele>721.2</ele>
        <time>2025-01-18T11:57:37.000Z</time>
      </trkpt>
      <trkpt lat="43.98199" lon="7.29417">
        <ele>718.2</ele>
        <time>2025-01-18T11:57:42.000Z</time>
      </trkpt>
      <trkpt lat="43.98204" lon="7.29416">
        <ele>716.6</ele>
        <time>2025-01-18T11:57:45.000Z</time>
      </trkpt>
      <trkpt lat="43.98209" lon="7.29415">
        <ele>715</ele>
        <time>2025-01-18T11:57:49.000Z</time>
      </trkpt>
      <trkpt lat="43.98206" lon="7.29421">
        <ele>713</ele>
        <time>2025-01-18T11:57:57.000Z</time>
      </trkpt>
      <trkpt lat="43.98201" lon="7.29423">
        <ele>712.1</ele>
        <time>2025-01-18T11:58:00.000Z</time>
      </trkpt>
      <trkpt lat="43.98197" lon="7.29427">
        <ele>711.9</ele>
        <time>2025-01-18T11:58:04.000Z</time>
      </trkpt>
      <trkpt lat="43.98195" lon="7.29428">
        <ele>711.7</ele>
        <time>2025-01-18T11:58:07.000Z</time>
      </trkpt>
      <trkpt lat="43.98195" lon="7.29428">
        <ele>711.6</ele>
        <time>2025-01-18T11:58:08.000Z</time>
      </trkpt>
      <trkpt lat="43.98196" lon="7.29425">
        <ele>711.5</ele>
        <time>2025-01-18T11:58:12.000Z</time>
      </trkpt>
      <trkpt lat="43.98195" lon="7.29425">
        <ele>711.4</ele>
        <time>2025-01-18T11:58:13.000Z</time>
      </trkpt>
      <trkpt lat="43.98193" lon="7.29418">
        <ele>711.4</ele>
        <time>2025-01-18T11:58:15.000Z</time>
      </trkpt>
      <trkpt lat="43.98194" lon="7.29418">
        <ele>711.4</ele>
        <time>2025-01-18T11:58:17.000Z</time>
      </trkpt>
      <trkpt lat="43.98194" lon="7.29418">
        <ele>711.4</ele>
        <time>2025-01-18T11:58:18.000Z</time>
      </trkpt>
      <trkpt lat="43.98192" lon="7.29418">
        <ele>711.3</ele>
        <time>2025-01-18T11:58:22.000Z</time>
      </trkpt>
      <trkpt lat="43.98192" lon="7.29419">
        <ele>711.3</ele>
        <time>2025-01-18T11:58:23.000Z</time>
      </trkpt>
      <trkpt lat="43.98189" lon="7.29425">
        <ele>711.3</ele>
        <time>2025-01-18T11:58:26.000Z</time>
      </trkpt>
      <trkpt lat="43.98187" lon="7.29426">
        <ele>711.3</ele>
        <time>2025-01-18T11:58:27.000Z</time>
      </trkpt>
      <trkpt lat="43.98187" lon="7.29427">
        <ele>711.3</ele>
        <time>2025-01-18T11:58:28.000Z</time>
      </trkpt>
      <trkpt lat="43.98185" lon="7.29433">
        <ele>711.2</ele>
        <time>2025-01-18T11:58:34.000Z</time>
      </trkpt>
      <trkpt lat="43.98186" lon="7.29433">
        <ele>711.2</ele>
        <time>2025-01-18T11:58:35.000Z</time>
      </trkpt>
      <trkpt lat="43.98186" lon="7.29433">
        <ele>711.2</ele>
        <time>2025-01-18T11:58:36.000Z</time>
      </trkpt>
      <trkpt lat="43.98186" lon="7.29433">
        <ele>711.2</ele>
        <time>2025-01-18T11:58:37.000Z</time>
      </trkpt>
      <trkpt lat="43.98186" lon="7.29434">
        <ele>711.2</ele>
        <time>2025-01-18T11:58:38.000Z</time>
      </trkpt>
      <trkpt lat="43.98185" lon="7.29433">
        <ele>711.2</ele>
        <time>2025-01-18T11:58:39.000Z</time>
      </trkpt>
      <trkpt lat="43.98183" lon="7.29433">
        <ele>711.2</ele>
        <time>2025-01-18T11:58:40.000Z</time>
      </trkpt>
      <trkpt lat="43.98182" lon="7.29434">
        <ele>711.3</ele>
        <time>2025-01-18T11:58:41.000Z</time>
      </trkpt>
      <trkpt lat="43.98177" lon="7.29435">
        <ele>711.3</ele>
        <time>2025-01-18T11:58:44.000Z</time>
      </trkpt>
      <trkpt lat="43.98172" lon="7.29439">
        <ele>711.3</ele>
        <time>2025-01-18T11:58:46.000Z</time>
      </trkpt>
      <trkpt lat="43.98167" lon="7.29436">
        <ele>711.5</ele>
        <time>2025-01-18T11:58:52.000Z</time>
      </trkpt>
      <trkpt lat="43.98164" lon="7.2943">
        <ele>712.1</ele>
        <time>2025-01-18T11:58:57.000Z</time>
      </trkpt>
      <trkpt lat="43.98159" lon="7.29428">
        <ele>712.5</ele>
        <time>2025-01-18T11:59:00.000Z</time>
      </trkpt>
      <trkpt lat="43.98153" lon="7.29425">
        <ele>712.8</ele>
        <time>2025-01-18T11:59:03.000Z</time>
      </trkpt>
      <trkpt lat="43.98148" lon="7.29428">
        <ele>712.7</ele>
        <time>2025-01-18T11:59:05.000Z</time>
      </trkpt>
      <trkpt lat="43.98144" lon="7.29433">
        <ele>712.5</ele>
        <time>2025-01-18T11:59:08.000Z</time>
      </trkpt>
      <trkpt lat="43.98135" lon="7.29435">
        <ele>712.3</ele>
        <time>2025-01-18T11:59:10.000Z</time>
      </trkpt>
      <trkpt lat="43.98131" lon="7.29443">
        <ele>711.8</ele>
        <time>2025-01-18T11:59:12.000Z</time>
      </trkpt>
      <trkpt lat="43.98127" lon="7.29449">
        <ele>711.6</ele>
        <time>2025-01-18T11:59:14.000Z</time>
      </trkpt>
      <trkpt lat="43.98124" lon="7.29453">
        <ele>711.4</ele>
        <time>2025-01-18T11:59:16.000Z</time>
      </trkpt>
      <trkpt lat="43.9812" lon="7.29448">
        <ele>711.3</ele>
        <time>2025-01-18T11:59:17.000Z</time>
      </trkpt>
      <trkpt lat="43.98112" lon="7.29445">
        <ele>710.9</ele>
        <time>2025-01-18T11:59:19.000Z</time>
      </trkpt>
      <trkpt lat="43.98107" lon="7.29446">
        <ele>709.5</ele>
        <time>2025-01-18T11:59:23.000Z</time>
      </trkpt>
      <trkpt lat="43.98102" lon="7.29443">
        <ele>708.7</ele>
        <time>2025-01-18T11:59:26.000Z</time>
      </trkpt>
      <trkpt lat="43.98102" lon="7.2945">
        <ele>707.3</ele>
        <time>2025-01-18T11:59:32.000Z</time>
      </trkpt>
      <trkpt lat="43.98097" lon="7.29454">
        <ele>706.5</ele>
        <time>2025-01-18T11:59:38.000Z</time>
      </trkpt>
      <trkpt lat="43.98091" lon="7.29451">
        <ele>705.9</ele>
        <time>2025-01-18T11:59:41.000Z</time>
      </trkpt>
      <trkpt lat="43.98086" lon="7.29453">
        <ele>704.9</ele>
        <time>2025-01-18T11:59:45.000Z</time>
      </trkpt>
      <trkpt lat="43.98086" lon="7.29453">
        <ele>704.6</ele>
        <time>2025-01-18T11:59:47.000Z</time>
      </trkpt>
      <trkpt lat="43.98086" lon="7.29454">
        <ele>704.5</ele>
        <time>2025-01-18T11:59:48.000Z</time>
      </trkpt>
      <trkpt lat="43.98081" lon="7.29452">
        <ele>704.1</ele>
        <time>2025-01-18T11:59:54.000Z</time>
      </trkpt>
      <trkpt lat="43.98079" lon="7.29455">
        <ele>704.1</ele>
        <time>2025-01-18T12:00:00.000Z</time>
      </trkpt>
      <trkpt lat="43.98078" lon="7.29456">
        <ele>704.1</ele>
        <time>2025-01-18T12:00:01.000Z</time>
      </trkpt>
      <trkpt lat="43.98074" lon="7.29459">
        <ele>704</ele>
        <time>2025-01-18T12:00:04.000Z</time>
      </trkpt>
      <trkpt lat="43.9807" lon="7.29463">
        <ele>704</ele>
        <time>2025-01-18T12:00:07.000Z</time>
      </trkpt>
      <trkpt lat="43.98066" lon="7.29468">
        <ele>704</ele>
        <time>2025-01-18T12:00:09.000Z</time>
      </trkpt>
      <trkpt lat="43.98063" lon="7.29474">
        <ele>704</ele>
        <time>2025-01-18T12:00:11.000Z</time>
      </trkpt>
      <trkpt lat="43.98058" lon="7.29478">
        <ele>703.9</ele>
        <time>2025-01-18T12:00:13.000Z</time>
      </trkpt>
      <trkpt lat="43.98054" lon="7.29483">
        <ele>703.9</ele>
        <time>2025-01-18T12:00:15.000Z</time>
      </trkpt>
      <trkpt lat="43.98049" lon="7.29487">
        <ele>703.8</ele>
        <time>2025-01-18T12:00:17.000Z</time>
      </trkpt>
      <trkpt lat="43.98044" lon="7.29487">
        <ele>703.8</ele>
        <time>2025-01-18T12:00:19.000Z</time>
      </trkpt>
      <trkpt lat="43.98038" lon="7.29486">
        <ele>703.7</ele>
        <time>2025-01-18T12:00:21.000Z</time>
      </trkpt>
      <trkpt lat="43.98033" lon="7.29486">
        <ele>703.7</ele>
        <time>2025-01-18T12:00:23.000Z</time>
      </trkpt>
      <trkpt lat="43.98029" lon="7.29485">
        <ele>703.7</ele>
        <time>2025-01-18T12:00:24.000Z</time>
      </trkpt>
      <trkpt lat="43.98023" lon="7.29483">
        <ele>703.6</ele>
        <time>2025-01-18T12:00:26.000Z</time>
      </trkpt>
      <trkpt lat="43.98016" lon="7.29482">
        <ele>703.6</ele>
        <time>2025-01-18T12:00:28.000Z</time>
      </trkpt>
      <trkpt lat="43.9801" lon="7.2948">
        <ele>703.6</ele>
        <time>2025-01-18T12:00:30.000Z</time>
      </trkpt>
      <trkpt lat="43.98003" lon="7.29478">
        <ele>703.6</ele>
        <time>2025-01-18T12:00:32.000Z</time>
      </trkpt>
      <trkpt lat="43.97997" lon="7.2948">
        <ele>703.6</ele>
        <time>2025-01-18T12:00:34.000Z</time>
      </trkpt>
      <trkpt lat="43.9799" lon="7.29477">
        <ele>703.6</ele>
        <time>2025-01-18T12:00:36.000Z</time>
      </trkpt>
      <trkpt lat="43.97982" lon="7.29482">
        <ele>703.6</ele>
        <time>2025-01-18T12:00:38.000Z</time>
      </trkpt>
      <trkpt lat="43.97976" lon="7.29487">
        <ele>703.5</ele>
        <time>2025-01-18T12:00:40.000Z</time>
      </trkpt>
      <trkpt lat="43.97969" lon="7.29488">
        <ele>703.6</ele>
        <time>2025-01-18T12:00:42.000Z</time>
      </trkpt>
      <trkpt lat="43.97962" lon="7.29488">
        <ele>703.6</ele>
        <time>2025-01-18T12:00:44.000Z</time>
      </trkpt>
      <trkpt lat="43.97957" lon="7.29486">
        <ele>703.6</ele>
        <time>2025-01-18T12:00:45.000Z</time>
      </trkpt>
      <trkpt lat="43.97953" lon="7.29486">
        <ele>703.6</ele>
        <time>2025-01-18T12:00:46.000Z</time>
      </trkpt>
      <trkpt lat="43.97948" lon="7.29485">
        <ele>703.5</ele>
        <time>2025-01-18T12:00:47.000Z</time>
      </trkpt>
      <trkpt lat="43.9794" lon="7.29484">
        <ele>703.5</ele>
        <time>2025-01-18T12:00:49.000Z</time>
      </trkpt>
      <trkpt lat="43.97935" lon="7.29479">
        <ele>703.4</ele>
        <time>2025-01-18T12:00:51.000Z</time>
      </trkpt>
      <trkpt lat="43.9793" lon="7.29476">
        <ele>703.4</ele>
        <time>2025-01-18T12:00:53.000Z</time>
      </trkpt>
      <trkpt lat="43.97924" lon="7.29471">
        <ele>703.4</ele>
        <time>2025-01-18T12:00:55.000Z</time>
      </trkpt>
      <trkpt lat="43.97919" lon="7.29471">
        <ele>703.3</ele>
        <time>2025-01-18T12:00:58.000Z</time>
      </trkpt>
      <trkpt lat="43.97918" lon="7.2948">
        <ele>703.2</ele>
        <time>2025-01-18T12:01:00.000Z</time>
      </trkpt>
      <trkpt lat="43.97917" lon="7.29488">
        <ele>703.2</ele>
        <time>2025-01-18T12:01:02.000Z</time>
      </trkpt>
      <trkpt lat="43.97915" lon="7.29495">
        <ele>703.1</ele>
        <time>2025-01-18T12:01:04.000Z</time>
      </trkpt>
      <trkpt lat="43.97911" lon="7.29501">
        <ele>703</ele>
        <time>2025-01-18T12:01:06.000Z</time>
      </trkpt>
      <trkpt lat="43.97908" lon="7.29509">
        <ele>703</ele>
        <time>2025-01-18T12:01:08.000Z</time>
      </trkpt>
      <trkpt lat="43.97907" lon="7.29519">
        <ele>702.9</ele>
        <time>2025-01-18T12:01:10.000Z</time>
      </trkpt>
      <trkpt lat="43.97905" lon="7.29528">
        <ele>702.7</ele>
        <time>2025-01-18T12:01:12.000Z</time>
      </trkpt>
      <trkpt lat="43.979" lon="7.29536">
        <ele>702.6</ele>
        <time>2025-01-18T12:01:14.000Z</time>
      </trkpt>
      <trkpt lat="43.97895" lon="7.29542">
        <ele>702.4</ele>
        <time>2025-01-18T12:01:16.000Z</time>
      </trkpt>
      <trkpt lat="43.97892" lon="7.29548">
        <ele>702.2</ele>
        <time>2025-01-18T12:01:18.000Z</time>
      </trkpt>
      <trkpt lat="43.97887" lon="7.29553">
        <ele>702.1</ele>
        <time>2025-01-18T12:01:20.000Z</time>
      </trkpt>
      <trkpt lat="43.97881" lon="7.29556">
        <ele>702</ele>
        <time>2025-01-18T12:01:22.000Z</time>
      </trkpt>
      <trkpt lat="43.97874" lon="7.29557">
        <ele>701.6</ele>
        <time>2025-01-18T12:01:24.000Z</time>
      </trkpt>
      <trkpt lat="43.9787" lon="7.29557">
        <ele>701.3</ele>
        <time>2025-01-18T12:01:25.000Z</time>
      </trkpt>
      <trkpt lat="43.97864" lon="7.29557">
        <ele>701.2</ele>
        <time>2025-01-18T12:01:26.000Z</time>
      </trkpt>
      <trkpt lat="43.97859" lon="7.29558">
        <ele>701</ele>
        <time>2025-01-18T12:01:27.000Z</time>
      </trkpt>
      <trkpt lat="43.97853" lon="7.29557">
        <ele>700.7</ele>
        <time>2025-01-18T12:01:29.000Z</time>
      </trkpt>
      <trkpt lat="43.97848" lon="7.29553">
        <ele>700.3</ele>
        <time>2025-01-18T12:01:31.000Z</time>
      </trkpt>
      <trkpt lat="43.97842" lon="7.29549">
        <ele>700.1</ele>
        <time>2025-01-18T12:01:33.000Z</time>
      </trkpt>
      <trkpt lat="43.97837" lon="7.29543">
        <ele>699.9</ele>
        <time>2025-01-18T12:01:35.000Z</time>
      </trkpt>
      <trkpt lat="43.97833" lon="7.29535">
        <ele>699.8</ele>
        <time>2025-01-18T12:01:37.000Z</time>
      </trkpt>
      <trkpt lat="43.97833" lon="7.29527">
        <ele>699.4</ele>
        <time>2025-01-18T12:01:40.000Z</time>
      </trkpt>
      <trkpt lat="43.97831" lon="7.2952">
        <ele>699.4</ele>
        <time>2025-01-18T12:01:42.000Z</time>
      </trkpt>
      <trkpt lat="43.97827" lon="7.29516">
        <ele>699.3</ele>
        <time>2025-01-18T12:01:44.000Z</time>
      </trkpt>
      <trkpt lat="43.97825" lon="7.29524">
        <ele>699</ele>
        <time>2025-01-18T12:01:50.000Z</time>
      </trkpt>
      <trkpt lat="43.97821" lon="7.29529">
        <ele>698.9</ele>
        <time>2025-01-18T12:01:53.000Z</time>
      </trkpt>
      <trkpt lat="43.97818" lon="7.29536">
        <ele>698.8</ele>
        <time>2025-01-18T12:01:55.000Z</time>
      </trkpt>
      <trkpt lat="43.9782" lon="7.29546">
        <ele>698.7</ele>
        <time>2025-01-18T12:01:57.000Z</time>
      </trkpt>
      <trkpt lat="43.9782" lon="7.29554">
        <ele>698.6</ele>
        <time>2025-01-18T12:01:59.000Z</time>
      </trkpt>
      <trkpt lat="43.97819" lon="7.29561">
        <ele>698.4</ele>
        <time>2025-01-18T12:02:01.000Z</time>
      </trkpt>
      <trkpt lat="43.9782" lon="7.29568">
        <ele>698.2</ele>
        <time>2025-01-18T12:02:03.000Z</time>
      </trkpt>
      <trkpt lat="43.97821" lon="7.29577">
        <ele>698.1</ele>
        <time>2025-01-18T12:02:05.000Z</time>
      </trkpt>
      <trkpt lat="43.97821" lon="7.29584">
        <ele>698</ele>
        <time>2025-01-18T12:02:07.000Z</time>
      </trkpt>
      <trkpt lat="43.97822" lon="7.29592">
        <ele>698</ele>
        <time>2025-01-18T12:02:09.000Z</time>
      </trkpt>
      <trkpt lat="43.97826" lon="7.29599">
        <ele>698</ele>
        <time>2025-01-18T12:02:11.000Z</time>
      </trkpt>
      <trkpt lat="43.97829" lon="7.29606">
        <ele>697.9</ele>
        <time>2025-01-18T12:02:13.000Z</time>
      </trkpt>
      <trkpt lat="43.97832" lon="7.29612">
        <ele>697.9</ele>
        <time>2025-01-18T12:02:15.000Z</time>
      </trkpt>
      <trkpt lat="43.97832" lon="7.29619">
        <ele>697.9</ele>
        <time>2025-01-18T12:02:17.000Z</time>
      </trkpt>
      <trkpt lat="43.97831" lon="7.29627">
        <ele>697.9</ele>
        <time>2025-01-18T12:02:19.000Z</time>
      </trkpt>
      <trkpt lat="43.97831" lon="7.29636">
        <ele>698</ele>
        <time>2025-01-18T12:02:21.000Z</time>
      </trkpt>
      <trkpt lat="43.97829" lon="7.29645">
        <ele>697.9</ele>
        <time>2025-01-18T12:02:23.000Z</time>
      </trkpt>
      <trkpt lat="43.97824" lon="7.2965">
        <ele>697.8</ele>
        <time>2025-01-18T12:02:25.000Z</time>
      </trkpt>
      <trkpt lat="43.97819" lon="7.2965">
        <ele>697.8</ele>
        <time>2025-01-18T12:02:27.000Z</time>
      </trkpt>
      <trkpt lat="43.97813" lon="7.29646">
        <ele>697.7</ele>
        <time>2025-01-18T12:02:29.000Z</time>
      </trkpt>
      <trkpt lat="43.97808" lon="7.29641">
        <ele>697.5</ele>
        <time>2025-01-18T12:02:31.000Z</time>
      </trkpt>
      <trkpt lat="43.978" lon="7.29634">
        <ele>697.4</ele>
        <time>2025-01-18T12:02:33.000Z</time>
      </trkpt>
      <trkpt lat="43.97796" lon="7.29631">
        <ele>697.2</ele>
        <time>2025-01-18T12:02:34.000Z</time>
      </trkpt>
      <trkpt lat="43.97789" lon="7.29628">
        <ele>696.9</ele>
        <time>2025-01-18T12:02:36.000Z</time>
      </trkpt>
      <trkpt lat="43.97784" lon="7.29623">
        <ele>696.1</ele>
        <time>2025-01-18T12:02:39.000Z</time>
      </trkpt>
      <trkpt lat="43.97785" lon="7.29625">
        <ele>695.4</ele>
        <time>2025-01-18T12:02:43.000Z</time>
      </trkpt>
      <trkpt lat="43.97783" lon="7.29624">
        <ele>695.3</ele>
        <time>2025-01-18T12:02:44.000Z</time>
      </trkpt>
      <trkpt lat="43.9778" lon="7.29622">
        <ele>695</ele>
        <time>2025-01-18T12:02:47.000Z</time>
      </trkpt>
      <trkpt lat="43.9778" lon="7.29623">
        <ele>694.8</ele>
        <time>2025-01-18T12:02:48.000Z</time>
      </trkpt>
      <trkpt lat="43.97775" lon="7.29624">
        <ele>694.5</ele>
        <time>2025-01-18T12:02:53.000Z</time>
      </trkpt>
      <trkpt lat="43.9777" lon="7.29624">
        <ele>694.4</ele>
        <time>2025-01-18T12:02:55.000Z</time>
      </trkpt>
      <trkpt lat="43.97764" lon="7.29625">
        <ele>694</ele>
        <time>2025-01-18T12:02:57.000Z</time>
      </trkpt>
      <trkpt lat="43.97759" lon="7.29626">
        <ele>692.6</ele>
        <time>2025-01-18T12:03:00.000Z</time>
      </trkpt>
      <trkpt lat="43.97757" lon="7.29633">
        <ele>691</ele>
        <time>2025-01-18T12:03:03.000Z</time>
      </trkpt>
      <trkpt lat="43.97761" lon="7.29638">
        <ele>689.4</ele>
        <time>2025-01-18T12:03:08.000Z</time>
      </trkpt>
      <trkpt lat="43.97762" lon="7.29644">
        <ele>688.8</ele>
        <time>2025-01-18T12:03:12.000Z</time>
      </trkpt>
      <trkpt lat="43.97766" lon="7.2965">
        <ele>688.7</ele>
        <time>2025-01-18T12:03:15.000Z</time>
      </trkpt>
      <trkpt lat="43.9777" lon="7.29656">
        <ele>688.4</ele>
        <time>2025-01-18T12:03:26.000Z</time>
      </trkpt>
      <trkpt lat="43.97772" lon="7.29666">
        <ele>688.4</ele>
        <time>2025-01-18T12:03:29.000Z</time>
      </trkpt>
      <trkpt lat="43.97769" lon="7.29672">
        <ele>688.4</ele>
        <time>2025-01-18T12:03:31.000Z</time>
      </trkpt>
      <trkpt lat="43.9777" lon="7.29681">
        <ele>688.4</ele>
        <time>2025-01-18T12:03:33.000Z</time>
      </trkpt>
      <trkpt lat="43.97772" lon="7.29689">
        <ele>688.3</ele>
        <time>2025-01-18T12:03:35.000Z</time>
      </trkpt>
      <trkpt lat="43.97773" lon="7.29699">
        <ele>688.2</ele>
        <time>2025-01-18T12:03:37.000Z</time>
      </trkpt>
      <trkpt lat="43.97775" lon="7.2971">
        <ele>688.1</ele>
        <time>2025-01-18T12:03:39.000Z</time>
      </trkpt>
      <trkpt lat="43.97775" lon="7.29719">
        <ele>688</ele>
        <time>2025-01-18T12:03:41.000Z</time>
      </trkpt>
      <trkpt lat="43.97774" lon="7.2973">
        <ele>687.8</ele>
        <time>2025-01-18T12:03:43.000Z</time>
      </trkpt>
      <trkpt lat="43.97771" lon="7.29735">
        <ele>687.8</ele>
        <time>2025-01-18T12:03:44.000Z</time>
      </trkpt>
      <trkpt lat="43.97767" lon="7.29746">
        <ele>687.7</ele>
        <time>2025-01-18T12:03:46.000Z</time>
      </trkpt>
      <trkpt lat="43.97766" lon="7.29756">
        <ele>687.7</ele>
        <time>2025-01-18T12:03:48.000Z</time>
      </trkpt>
      <trkpt lat="43.9776" lon="7.29768">
        <ele>687.6</ele>
        <time>2025-01-18T12:03:50.000Z</time>
      </trkpt>
      <trkpt lat="43.97757" lon="7.29775">
        <ele>687.4</ele>
        <time>2025-01-18T12:03:52.000Z</time>
      </trkpt>
      <trkpt lat="43.9775" lon="7.29782">
        <ele>687.3</ele>
        <time>2025-01-18T12:03:55.000Z</time>
      </trkpt>
      <trkpt lat="43.97747" lon="7.29787">
        <ele>687.3</ele>
        <time>2025-01-18T12:03:56.000Z</time>
      </trkpt>
      <trkpt lat="43.97744" lon="7.29792">
        <ele>687.2</ele>
        <time>2025-01-18T12:03:57.000Z</time>
      </trkpt>
      <trkpt lat="43.97741" lon="7.29803">
        <ele>687.1</ele>
        <time>2025-01-18T12:03:59.000Z</time>
      </trkpt>
      <trkpt lat="43.9774" lon="7.29814">
        <ele>687</ele>
        <time>2025-01-18T12:04:01.000Z</time>
      </trkpt>
      <trkpt lat="43.97738" lon="7.2982">
        <ele>687</ele>
        <time>2025-01-18T12:04:03.000Z</time>
      </trkpt>
      <trkpt lat="43.97731" lon="7.29824">
        <ele>686.9</ele>
        <time>2025-01-18T12:04:06.000Z</time>
      </trkpt>
      <trkpt lat="43.97726" lon="7.29826">
        <ele>686.8</ele>
        <time>2025-01-18T12:04:07.000Z</time>
      </trkpt>
      <trkpt lat="43.97719" lon="7.29828">
        <ele>686.8</ele>
        <time>2025-01-18T12:04:08.000Z</time>
      </trkpt>
      <trkpt lat="43.97714" lon="7.29831">
        <ele>686.7</ele>
        <time>2025-01-18T12:04:10.000Z</time>
      </trkpt>
      <trkpt lat="43.97715" lon="7.29838">
        <ele>686.6</ele>
        <time>2025-01-18T12:04:15.000Z</time>
      </trkpt>
      <trkpt lat="43.97719" lon="7.29845">
        <ele>686.6</ele>
        <time>2025-01-18T12:04:17.000Z</time>
      </trkpt>
      <trkpt lat="43.97719" lon="7.29854">
        <ele>686.6</ele>
        <time>2025-01-18T12:04:19.000Z</time>
      </trkpt>
      <trkpt lat="43.97713" lon="7.29862">
        <ele>686.5</ele>
        <time>2025-01-18T12:04:21.000Z</time>
      </trkpt>
      <trkpt lat="43.97712" lon="7.29869">
        <ele>686.5</ele>
        <time>2025-01-18T12:04:22.000Z</time>
      </trkpt>
      <trkpt lat="43.97707" lon="7.29877">
        <ele>686.4</ele>
        <time>2025-01-18T12:04:24.000Z</time>
      </trkpt>
      <trkpt lat="43.97702" lon="7.29887">
        <ele>686.3</ele>
        <time>2025-01-18T12:04:26.000Z</time>
      </trkpt>
      <trkpt lat="43.97695" lon="7.29895">
        <ele>686.3</ele>
        <time>2025-01-18T12:04:28.000Z</time>
      </trkpt>
      <trkpt lat="43.9769" lon="7.29903">
        <ele>686.2</ele>
        <time>2025-01-18T12:04:30.000Z</time>
      </trkpt>
      <trkpt lat="43.97686" lon="7.2991">
        <ele>686.2</ele>
        <time>2025-01-18T12:04:32.000Z</time>
      </trkpt>
      <trkpt lat="43.9768" lon="7.29916">
        <ele>686.1</ele>
        <time>2025-01-18T12:04:34.000Z</time>
      </trkpt>
      <trkpt lat="43.97677" lon="7.29925">
        <ele>686.1</ele>
        <time>2025-01-18T12:04:36.000Z</time>
      </trkpt>
      <trkpt lat="43.97674" lon="7.29931">
        <ele>686</ele>
        <time>2025-01-18T12:04:37.000Z</time>
      </trkpt>
      <trkpt lat="43.97671" lon="7.29936">
        <ele>686</ele>
        <time>2025-01-18T12:04:38.000Z</time>
      </trkpt>
      <trkpt lat="43.97667" lon="7.29939">
        <ele>685.9</ele>
        <time>2025-01-18T12:04:39.000Z</time>
      </trkpt>
      <trkpt lat="43.97664" lon="7.29946">
        <ele>685.8</ele>
        <time>2025-01-18T12:04:40.000Z</time>
      </trkpt>
      <trkpt lat="43.9766" lon="7.29949">
        <ele>685.8</ele>
        <time>2025-01-18T12:04:41.000Z</time>
      </trkpt>
      <trkpt lat="43.97656" lon="7.29957">
        <ele>685.8</ele>
        <time>2025-01-18T12:04:43.000Z</time>
      </trkpt>
      <trkpt lat="43.97655" lon="7.29965">
        <ele>685.7</ele>
        <time>2025-01-18T12:04:45.000Z</time>
      </trkpt>
      <trkpt lat="43.97654" lon="7.29973">
        <ele>685.7</ele>
        <time>2025-01-18T12:04:47.000Z</time>
      </trkpt>
      <trkpt lat="43.9765" lon="7.29983">
        <ele>685.5</ele>
        <time>2025-01-18T12:04:49.000Z</time>
      </trkpt>
      <trkpt lat="43.97645" lon="7.29992">
        <ele>685.5</ele>
        <time>2025-01-18T12:04:51.000Z</time>
      </trkpt>
      <trkpt lat="43.97643" lon="7.29999">
        <ele>685.5</ele>
        <time>2025-01-18T12:04:53.000Z</time>
      </trkpt>
      <trkpt lat="43.97639" lon="7.30011">
        <ele>685.4</ele>
        <time>2025-01-18T12:04:55.000Z</time>
      </trkpt>
      <trkpt lat="43.97636" lon="7.30021">
        <ele>685.3</ele>
        <time>2025-01-18T12:04:57.000Z</time>
      </trkpt>
      <trkpt lat="43.97633" lon="7.30029">
        <ele>685.3</ele>
        <time>2025-01-18T12:04:59.000Z</time>
      </trkpt>
      <trkpt lat="43.97629" lon="7.30035">
        <ele>685.1</ele>
        <time>2025-01-18T12:05:01.000Z</time>
      </trkpt>
      <trkpt lat="43.97624" lon="7.30041">
        <ele>684.9</ele>
        <time>2025-01-18T12:05:03.000Z</time>
      </trkpt>
      <trkpt lat="43.97619" lon="7.30045">
        <ele>684.7</ele>
        <time>2025-01-18T12:05:05.000Z</time>
      </trkpt>
      <trkpt lat="43.97614" lon="7.30047">
        <ele>684.4</ele>
        <time>2025-01-18T12:05:07.000Z</time>
      </trkpt>
      <trkpt lat="43.97609" lon="7.30052">
        <ele>684.1</ele>
        <time>2025-01-18T12:05:10.000Z</time>
      </trkpt>
      <trkpt lat="43.97605" lon="7.30057">
        <ele>683.9</ele>
        <time>2025-01-18T12:05:13.000Z</time>
      </trkpt>
      <trkpt lat="43.97604" lon="7.30064">
        <ele>683.8</ele>
        <time>2025-01-18T12:05:17.000Z</time>
      </trkpt>
      <trkpt lat="43.97607" lon="7.3007">
        <ele>683.5</ele>
        <time>2025-01-18T12:05:19.000Z</time>
      </trkpt>
      <trkpt lat="43.97611" lon="7.30077">
        <ele>683.2</ele>
        <time>2025-01-18T12:05:21.000Z</time>
      </trkpt>
      <trkpt lat="43.97612" lon="7.30087">
        <ele>683</ele>
        <time>2025-01-18T12:05:23.000Z</time>
      </trkpt>
      <trkpt lat="43.97609" lon="7.30097">
        <ele>682.7</ele>
        <time>2025-01-18T12:05:25.000Z</time>
      </trkpt>
      <trkpt lat="43.97607" lon="7.30108">
        <ele>682.2</ele>
        <time>2025-01-18T12:05:27.000Z</time>
      </trkpt>
      <trkpt lat="43.97603" lon="7.30119">
        <ele>681.9</ele>
        <time>2025-01-18T12:05:29.000Z</time>
      </trkpt>
      <trkpt lat="43.976" lon="7.30129">
        <ele>681.6</ele>
        <time>2025-01-18T12:05:31.000Z</time>
      </trkpt>
      <trkpt lat="43.97595" lon="7.30137">
        <ele>681.4</ele>
        <time>2025-01-18T12:05:33.000Z</time>
      </trkpt>
      <trkpt lat="43.97592" lon="7.30143">
        <ele>681.3</ele>
        <time>2025-01-18T12:05:34.000Z</time>
      </trkpt>
      <trkpt lat="43.97589" lon="7.3015">
        <ele>681.2</ele>
        <time>2025-01-18T12:05:36.000Z</time>
      </trkpt>
      <trkpt lat="43.97584" lon="7.30155">
        <ele>681.1</ele>
        <time>2025-01-18T12:05:38.000Z</time>
      </trkpt>
      <trkpt lat="43.97577" lon="7.30159">
        <ele>681</ele>
        <time>2025-01-18T12:05:40.000Z</time>
      </trkpt>
      <trkpt lat="43.97571" lon="7.30161">
        <ele>680.9</ele>
        <time>2025-01-18T12:05:42.000Z</time>
      </trkpt>
      <trkpt lat="43.97565" lon="7.3016">
        <ele>680.8</ele>
        <time>2025-01-18T12:05:44.000Z</time>
      </trkpt>
      <trkpt lat="43.97558" lon="7.30159">
        <ele>680.6</ele>
        <time>2025-01-18T12:05:46.000Z</time>
      </trkpt>
      <trkpt lat="43.97551" lon="7.30157">
        <ele>680.5</ele>
        <time>2025-01-18T12:05:48.000Z</time>
      </trkpt>
      <trkpt lat="43.97544" lon="7.30154">
        <ele>680.4</ele>
        <time>2025-01-18T12:05:50.000Z</time>
      </trkpt>
      <trkpt lat="43.97539" lon="7.30151">
        <ele>680.3</ele>
        <time>2025-01-18T12:05:52.000Z</time>
      </trkpt>
      <trkpt lat="43.97531" lon="7.30145">
        <ele>680</ele>
        <time>2025-01-18T12:05:54.000Z</time>
      </trkpt>
      <trkpt lat="43.97525" lon="7.30141">
        <ele>679.8</ele>
        <time>2025-01-18T12:05:56.000Z</time>
      </trkpt>
      <trkpt lat="43.9752" lon="7.30139">
        <ele>679.6</ele>
        <time>2025-01-18T12:05:58.000Z</time>
      </trkpt>
      <trkpt lat="43.97515" lon="7.30138">
        <ele>679.5</ele>
        <time>2025-01-18T12:06:00.000Z</time>
      </trkpt>
      <trkpt lat="43.9751" lon="7.30139">
        <ele>679.4</ele>
        <time>2025-01-18T12:06:02.000Z</time>
      </trkpt>
      <trkpt lat="43.97506" lon="7.30147">
        <ele>679.2</ele>
        <time>2025-01-18T12:06:05.000Z</time>
      </trkpt>
      <trkpt lat="43.97502" lon="7.30154">
        <ele>679</ele>
        <time>2025-01-18T12:06:07.000Z</time>
      </trkpt>
      <trkpt lat="43.97502" lon="7.30161">
        <ele>678.9</ele>
        <time>2025-01-18T12:06:08.000Z</time>
      </trkpt>
      <trkpt lat="43.97498" lon="7.30171">
        <ele>678.5</ele>
        <time>2025-01-18T12:06:10.000Z</time>
      </trkpt>
      <trkpt lat="43.97498" lon="7.30184">
        <ele>678.1</ele>
        <time>2025-01-18T12:06:12.000Z</time>
      </trkpt>
      <trkpt lat="43.97499" lon="7.30192">
        <ele>677.8</ele>
        <time>2025-01-18T12:06:13.000Z</time>
      </trkpt>
      <trkpt lat="43.97497" lon="7.30199">
        <ele>677.5</ele>
        <time>2025-01-18T12:06:14.000Z</time>
      </trkpt>
      <trkpt lat="43.97497" lon="7.30207">
        <ele>677.2</ele>
        <time>2025-01-18T12:06:15.000Z</time>
      </trkpt>
      <trkpt lat="43.97495" lon="7.30215">
        <ele>676.8</ele>
        <time>2025-01-18T12:06:16.000Z</time>
      </trkpt>
      <trkpt lat="43.97496" lon="7.30221">
        <ele>676.4</ele>
        <time>2025-01-18T12:06:17.000Z</time>
      </trkpt>
      <trkpt lat="43.97492" lon="7.30229">
        <ele>675.8</ele>
        <time>2025-01-18T12:06:19.000Z</time>
      </trkpt>
      <trkpt lat="43.97485" lon="7.30235">
        <ele>675.1</ele>
        <time>2025-01-18T12:06:21.000Z</time>
      </trkpt>
      <trkpt lat="43.97481" lon="7.30238">
        <ele>674.5</ele>
        <time>2025-01-18T12:06:23.000Z</time>
      </trkpt>
      <trkpt lat="43.97478" lon="7.30245">
        <ele>673.9</ele>
        <time>2025-01-18T12:06:25.000Z</time>
      </trkpt>
      <trkpt lat="43.97478" lon="7.30257">
        <ele>673.5</ele>
        <time>2025-01-18T12:06:27.000Z</time>
      </trkpt>
      <trkpt lat="43.97475" lon="7.30268">
        <ele>673.1</ele>
        <time>2025-01-18T12:06:29.000Z</time>
      </trkpt>
      <trkpt lat="43.97472" lon="7.30279">
        <ele>672.2</ele>
        <time>2025-01-18T12:06:31.000Z</time>
      </trkpt>
      <trkpt lat="43.97469" lon="7.30285">
        <ele>671.7</ele>
        <time>2025-01-18T12:06:32.000Z</time>
      </trkpt>
      <trkpt lat="43.97466" lon="7.3029">
        <ele>671.1</ele>
        <time>2025-01-18T12:06:33.000Z</time>
      </trkpt>
      <trkpt lat="43.97461" lon="7.30297">
        <ele>670.4</ele>
        <time>2025-01-18T12:06:35.000Z</time>
      </trkpt>
      <trkpt lat="43.97458" lon="7.30304">
        <ele>669.8</ele>
        <time>2025-01-18T12:06:37.000Z</time>
      </trkpt>
      <trkpt lat="43.97454" lon="7.3031">
        <ele>669.4</ele>
        <time>2025-01-18T12:06:39.000Z</time>
      </trkpt>
      <trkpt lat="43.9745" lon="7.30317">
        <ele>669.2</ele>
        <time>2025-01-18T12:06:41.000Z</time>
      </trkpt>
      <trkpt lat="43.97446" lon="7.30324">
        <ele>668.9</ele>
        <time>2025-01-18T12:06:43.000Z</time>
      </trkpt>
      <trkpt lat="43.97442" lon="7.3033">
        <ele>668.6</ele>
        <time>2025-01-18T12:06:45.000Z</time>
      </trkpt>
      <trkpt lat="43.97438" lon="7.30337">
        <ele>668.3</ele>
        <time>2025-01-18T12:06:48.000Z</time>
      </trkpt>
      <trkpt lat="43.97435" lon="7.30345">
        <ele>668.1</ele>
        <time>2025-01-18T12:06:51.000Z</time>
      </trkpt>
      <trkpt lat="43.97431" lon="7.30352">
        <ele>668</ele>
        <time>2025-01-18T12:06:53.000Z</time>
      </trkpt>
      <trkpt lat="43.97426" lon="7.30358">
        <ele>667.9</ele>
        <time>2025-01-18T12:06:55.000Z</time>
      </trkpt>
      <trkpt lat="43.97421" lon="7.30363">
        <ele>667.8</ele>
        <time>2025-01-18T12:06:57.000Z</time>
      </trkpt>
      <trkpt lat="43.97416" lon="7.30368">
        <ele>667.8</ele>
        <time>2025-01-18T12:07:00.000Z</time>
      </trkpt>
      <trkpt lat="43.97412" lon="7.30372">
        <ele>667.7</ele>
        <time>2025-01-18T12:07:02.000Z</time>
      </trkpt>
      <trkpt lat="43.97408" lon="7.30375">
        <ele>667.8</ele>
        <time>2025-01-18T12:07:04.000Z</time>
      </trkpt>
      <trkpt lat="43.97404" lon="7.30378">
        <ele>667.7</ele>
        <time>2025-01-18T12:07:06.000Z</time>
      </trkpt>
      <trkpt lat="43.974" lon="7.30382">
        <ele>667.7</ele>
        <time>2025-01-18T12:07:08.000Z</time>
      </trkpt>
      <trkpt lat="43.97395" lon="7.3039">
        <ele>667.7</ele>
        <time>2025-01-18T12:07:11.000Z</time>
      </trkpt>
      <trkpt lat="43.97391" lon="7.30397">
        <ele>667.7</ele>
        <time>2025-01-18T12:07:13.000Z</time>
      </trkpt>
      <trkpt lat="43.97387" lon="7.30404">
        <ele>667.8</ele>
        <time>2025-01-18T12:07:15.000Z</time>
      </trkpt>
      <trkpt lat="43.97384" lon="7.3041">
        <ele>667.7</ele>
        <time>2025-01-18T12:07:17.000Z</time>
      </trkpt>
      <trkpt lat="43.97381" lon="7.30415">
        <ele>667.7</ele>
        <time>2025-01-18T12:07:19.000Z</time>
      </trkpt>
      <trkpt lat="43.97378" lon="7.3042">
        <ele>667.8</ele>
        <time>2025-01-18T12:07:22.000Z</time>
      </trkpt>
      <trkpt lat="43.97372" lon="7.30422">
        <ele>668</ele>
        <time>2025-01-18T12:07:28.000Z</time>
      </trkpt>
      <trkpt lat="43.97367" lon="7.30424">
        <ele>668.8</ele>
        <time>2025-01-18T12:07:34.000Z</time>
      </trkpt>
      <trkpt lat="43.97364" lon="7.30429">
        <ele>668.8</ele>
        <time>2025-01-18T12:07:38.000Z</time>
      </trkpt>
      <trkpt lat="43.97362" lon="7.30433">
        <ele>668.8</ele>
        <time>2025-01-18T12:07:42.000Z</time>
      </trkpt>
      <trkpt lat="43.97361" lon="7.30434">
        <ele>668.7</ele>
        <time>2025-01-18T12:07:43.000Z</time>
      </trkpt>
      <trkpt lat="43.97362" lon="7.30434">
        <ele>668.7</ele>
        <time>2025-01-18T12:07:44.000Z</time>
      </trkpt>
      <trkpt lat="43.9736" lon="7.30434">
        <ele>668.6</ele>
        <time>2025-01-18T12:07:53.000Z</time>
      </trkpt>
      <trkpt lat="43.97361" lon="7.30434">
        <ele>668.6</ele>
        <time>2025-01-18T12:07:54.000Z</time>
      </trkpt>
      <trkpt lat="43.97359" lon="7.30438">
        <ele>668.5</ele>
        <time>2025-01-18T12:08:02.000Z</time>
      </trkpt>
      <trkpt lat="43.9736" lon="7.30438">
        <ele>668.5</ele>
        <time>2025-01-18T12:08:03.000Z</time>
      </trkpt>
      <trkpt lat="43.9736" lon="7.30443">
        <ele>668.4</ele>
        <time>2025-01-18T12:08:20.000Z</time>
      </trkpt>
      <trkpt lat="43.9736" lon="7.30445">
        <ele>668.4</ele>
        <time>2025-01-18T12:08:21.000Z</time>
      </trkpt>
      <trkpt lat="43.97359" lon="7.30447">
        <ele>668.3</ele>
        <time>2025-01-18T12:08:22.000Z</time>
      </trkpt>
      <trkpt lat="43.97357" lon="7.30454">
        <ele>667.9</ele>
        <time>2025-01-18T12:08:25.000Z</time>
      </trkpt>
      <trkpt lat="43.97356" lon="7.30461">
        <ele>667.1</ele>
        <time>2025-01-18T12:08:27.000Z</time>
      </trkpt>
      <trkpt lat="43.97357" lon="7.30471">
        <ele>665.1</ele>
        <time>2025-01-18T12:08:30.000Z</time>
      </trkpt>
      <trkpt lat="43.97354" lon="7.30478">
        <ele>663.5</ele>
        <time>2025-01-18T12:08:32.000Z</time>
      </trkpt>
      <trkpt lat="43.97351" lon="7.30484">
        <ele>662.2</ele>
        <time>2025-01-18T12:08:34.000Z</time>
      </trkpt>
      <trkpt lat="43.9735" lon="7.30491">
        <ele>660.5</ele>
        <time>2025-01-18T12:08:37.000Z</time>
      </trkpt>
      <trkpt lat="43.97353" lon="7.30496">
        <ele>659.2</ele>
        <time>2025-01-18T12:08:41.000Z</time>
      </trkpt>
      <trkpt lat="43.97357" lon="7.30494">
        <ele>658.2</ele>
        <time>2025-01-18T12:08:44.000Z</time>
      </trkpt>
      <trkpt lat="43.97363" lon="7.30491">
        <ele>657.2</ele>
        <time>2025-01-18T12:08:46.000Z</time>
      </trkpt>
      <trkpt lat="43.97369" lon="7.30489">
        <ele>656.3</ele>
        <time>2025-01-18T12:08:48.000Z</time>
      </trkpt>
      <trkpt lat="43.97374" lon="7.30492">
        <ele>655.6</ele>
        <time>2025-01-18T12:08:50.000Z</time>
      </trkpt>
      <trkpt lat="43.97378" lon="7.30498">
        <ele>654.6</ele>
        <time>2025-01-18T12:08:53.000Z</time>
      </trkpt>
      <trkpt lat="43.97375" lon="7.30504">
        <ele>652.7</ele>
        <time>2025-01-18T12:08:57.000Z</time>
      </trkpt>
      <trkpt lat="43.97372" lon="7.30509">
        <ele>651.6</ele>
        <time>2025-01-18T12:08:59.000Z</time>
      </trkpt>
      <trkpt lat="43.97371" lon="7.30516">
        <ele>650.5</ele>
        <time>2025-01-18T12:09:01.000Z</time>
      </trkpt>
      <trkpt lat="43.97369" lon="7.30525">
        <ele>649.7</ele>
        <time>2025-01-18T12:09:03.000Z</time>
      </trkpt>
      <trkpt lat="43.97366" lon="7.30532">
        <ele>649</ele>
        <time>2025-01-18T12:09:05.000Z</time>
      </trkpt>
      <trkpt lat="43.97366" lon="7.30539">
        <ele>648.3</ele>
        <time>2025-01-18T12:09:08.000Z</time>
      </trkpt>
      <trkpt lat="43.97364" lon="7.30548">
        <ele>647.2</ele>
        <time>2025-01-18T12:09:11.000Z</time>
      </trkpt>
      <trkpt lat="43.97361" lon="7.30553">
        <ele>645.7</ele>
        <time>2025-01-18T12:09:14.000Z</time>
      </trkpt>
      <trkpt lat="43.97366" lon="7.30556">
        <ele>644</ele>
        <time>2025-01-18T12:09:17.000Z</time>
      </trkpt>
      <trkpt lat="43.9737" lon="7.30559">
        <ele>639.6</ele>
        <time>2025-01-18T12:09:22.000Z</time>
      </trkpt>
      <trkpt lat="43.97373" lon="7.30564">
        <ele>637.2</ele>
        <time>2025-01-18T12:09:25.000Z</time>
      </trkpt>
      <trkpt lat="43.97377" lon="7.30569">
        <ele>635.2</ele>
        <time>2025-01-18T12:09:28.000Z</time>
      </trkpt>
      <trkpt lat="43.97379" lon="7.30578">
        <ele>634.1</ele>
        <time>2025-01-18T12:09:31.000Z</time>
      </trkpt>
      <trkpt lat="43.97379" lon="7.30584">
        <ele>633</ele>
        <time>2025-01-18T12:09:33.000Z</time>
      </trkpt>
      <trkpt lat="43.97378" lon="7.30591">
        <ele>632</ele>
        <time>2025-01-18T12:09:35.000Z</time>
      </trkpt>
      <trkpt lat="43.97378" lon="7.30599">
        <ele>630.9</ele>
        <time>2025-01-18T12:09:38.000Z</time>
      </trkpt>
      <trkpt lat="43.97378" lon="7.30607">
        <ele>630.1</ele>
        <time>2025-01-18T12:09:40.000Z</time>
      </trkpt>
      <trkpt lat="43.97377" lon="7.30614">
        <ele>628.8</ele>
        <time>2025-01-18T12:09:42.000Z</time>
      </trkpt>
      <trkpt lat="43.97376" lon="7.3062">
        <ele>627.5</ele>
        <time>2025-01-18T12:09:44.000Z</time>
      </trkpt>
      <trkpt lat="43.97378" lon="7.30628">
        <ele>627.1</ele>
        <time>2025-01-18T12:09:46.000Z</time>
      </trkpt>
      <trkpt lat="43.97378" lon="7.30637">
        <ele>626.6</ele>
        <time>2025-01-18T12:09:48.000Z</time>
      </trkpt>
      <trkpt lat="43.97378" lon="7.30645">
        <ele>625.7</ele>
        <time>2025-01-18T12:09:50.000Z</time>
      </trkpt>
      <trkpt lat="43.97378" lon="7.30652">
        <ele>624.8</ele>
        <time>2025-01-18T12:09:52.000Z</time>
      </trkpt>
      <trkpt lat="43.97377" lon="7.30661">
        <ele>623.1</ele>
        <time>2025-01-18T12:09:55.000Z</time>
      </trkpt>
      <trkpt lat="43.97378" lon="7.3067">
        <ele>621.7</ele>
        <time>2025-01-18T12:09:58.000Z</time>
      </trkpt>
      <trkpt lat="43.97381" lon="7.30676">
        <ele>618.8</ele>
        <time>2025-01-18T12:10:05.000Z</time>
      </trkpt>
      <trkpt lat="43.97381" lon="7.30677">
        <ele>618.1</ele>
        <time>2025-01-18T12:10:09.000Z</time>
      </trkpt>
      <trkpt lat="43.97376" lon="7.30679">
        <ele>618</ele>
        <time>2025-01-18T12:10:17.000Z</time>
      </trkpt>
      <trkpt lat="43.97375" lon="7.3068">
        <ele>617.9</ele>
        <time>2025-01-18T12:10:22.000Z</time>
      </trkpt>
      <trkpt lat="43.97375" lon="7.3068">
        <ele>617.9</ele>
        <time>2025-01-18T12:10:23.000Z</time>
      </trkpt>
      <trkpt lat="43.97374" lon="7.30681">
        <ele>617.7</ele>
        <time>2025-01-18T12:10:30.000Z</time>
      </trkpt>
      <trkpt lat="43.97374" lon="7.30681">
        <ele>617.7</ele>
        <time>2025-01-18T12:10:31.000Z</time>
      </trkpt>
      <trkpt lat="43.97374" lon="7.30681">
        <ele>617.7</ele>
        <time>2025-01-18T12:10:32.000Z</time>
      </trkpt>
      <trkpt lat="43.97374" lon="7.30682">
        <ele>617.6</ele>
        <time>2025-01-18T12:10:38.000Z</time>
      </trkpt>
      <trkpt lat="43.97374" lon="7.30682">
        <ele>617.6</ele>
        <time>2025-01-18T12:10:39.000Z</time>
      </trkpt>
      <trkpt lat="43.97374" lon="7.30681">
        <ele>617.6</ele>
        <time>2025-01-18T12:10:45.000Z</time>
      </trkpt>
      <trkpt lat="43.97375" lon="7.30681">
        <ele>617.6</ele>
        <time>2025-01-18T12:10:46.000Z</time>
      </trkpt>
      <trkpt lat="43.97375" lon="7.30682">
        <ele>617.6</ele>
        <time>2025-01-18T12:10:50.000Z</time>
      </trkpt>
      <trkpt lat="43.97376" lon="7.30682">
        <ele>617.6</ele>
        <time>2025-01-18T12:10:51.000Z</time>
      </trkpt>
      <trkpt lat="43.9738" lon="7.30684">
        <ele>617.5</ele>
        <time>2025-01-18T12:11:07.000Z</time>
      </trkpt>
      <trkpt lat="43.9738" lon="7.30684">
        <ele>617.5</ele>
        <time>2025-01-18T12:11:10.000Z</time>
      </trkpt>
      <trkpt lat="43.9738" lon="7.30684">
        <ele>617.5</ele>
        <time>2025-01-18T12:11:11.000Z</time>
      </trkpt>
      <trkpt lat="43.97379" lon="7.30684">
        <ele>617.5</ele>
        <time>2025-01-18T12:11:12.000Z</time>
      </trkpt>
      <trkpt lat="43.97378" lon="7.30684">
        <ele>617.5</ele>
        <time>2025-01-18T12:11:13.000Z</time>
      </trkpt>
      <trkpt lat="43.97377" lon="7.30685">
        <ele>617.5</ele>
        <time>2025-01-18T12:11:14.000Z</time>
      </trkpt>
      <trkpt lat="43.97377" lon="7.30685">
        <ele>617.5</ele>
        <time>2025-01-18T12:11:15.000Z</time>
      </trkpt>
      <trkpt lat="43.97377" lon="7.30686">
        <ele>617.5</ele>
        <time>2025-01-18T12:11:16.000Z</time>
      </trkpt>
      <trkpt lat="43.97377" lon="7.30685">
        <ele>617.5</ele>
        <time>2025-01-18T12:11:17.000Z</time>
      </trkpt>
      <trkpt lat="43.97377" lon="7.30685">
        <ele>617.5</ele>
        <time>2025-01-18T12:11:18.000Z</time>
      </trkpt>
      <trkpt lat="43.97377" lon="7.30686">
        <ele>617.5</ele>
        <time>2025-01-18T12:11:19.000Z</time>
      </trkpt>
      <trkpt lat="43.97378" lon="7.30692">
        <ele>617.2</ele>
        <time>2025-01-18T12:11:27.000Z</time>
      </trkpt>
      <trkpt lat="43.97381" lon="7.30698">
        <ele>616.1</ele>
        <time>2025-01-18T12:11:31.000Z</time>
      </trkpt>
      <trkpt lat="43.97385" lon="7.30704">
        <ele>614.3</ele>
        <time>2025-01-18T12:11:33.000Z</time>
      </trkpt>
      <trkpt lat="43.97389" lon="7.30708">
        <ele>612.3</ele>
        <time>2025-01-18T12:11:35.000Z</time>
      </trkpt>
      <trkpt lat="43.97392" lon="7.30714">
        <ele>610.2</ele>
        <time>2025-01-18T12:11:38.000Z</time>
      </trkpt>
      <trkpt lat="43.97395" lon="7.3072">
        <ele>608.1</ele>
        <time>2025-01-18T12:11:43.000Z</time>
      </trkpt>
      <trkpt lat="43.97399" lon="7.30724">
        <ele>605.6</ele>
        <time>2025-01-18T12:11:48.000Z</time>
      </trkpt>
      <trkpt lat="43.97399" lon="7.30722">
        <ele>603.1</ele>
        <time>2025-01-18T12:11:57.000Z</time>
      </trkpt>
      <trkpt lat="43.97399" lon="7.30721">
        <ele>603.1</ele>
        <time>2025-01-18T12:12:02.000Z</time>
      </trkpt>
      <trkpt lat="43.97399" lon="7.30721">
        <ele>603.1</ele>
        <time>2025-01-18T12:12:03.000Z</time>
      </trkpt>
      <trkpt lat="43.974" lon="7.30728">
        <ele>602.4</ele>
        <time>2025-01-18T12:12:09.000Z</time>
      </trkpt>
      <trkpt lat="43.97403" lon="7.30735">
        <ele>601.2</ele>
        <time>2025-01-18T12:12:12.000Z</time>
      </trkpt>
      <trkpt lat="43.97405" lon="7.30742">
        <ele>599.2</ele>
        <time>2025-01-18T12:12:15.000Z</time>
      </trkpt>
      <trkpt lat="43.97408" lon="7.3075">
        <ele>596.3</ele>
        <time>2025-01-18T12:12:19.000Z</time>
      </trkpt>
      <trkpt lat="43.97408" lon="7.30757">
        <ele>593.6</ele>
        <time>2025-01-18T12:12:22.000Z</time>
      </trkpt>
      <trkpt lat="43.97407" lon="7.30763">
        <ele>591.8</ele>
        <time>2025-01-18T12:12:25.000Z</time>
      </trkpt>
      <trkpt lat="43.97408" lon="7.30769">
        <ele>589</ele>
        <time>2025-01-18T12:12:29.000Z</time>
      </trkpt>
      <trkpt lat="43.97407" lon="7.30776">
        <ele>587</ele>
        <time>2025-01-18T12:12:32.000Z</time>
      </trkpt>
      <trkpt lat="43.97404" lon="7.30783">
        <ele>584.1</ele>
        <time>2025-01-18T12:12:36.000Z</time>
      </trkpt>
      <trkpt lat="43.97399" lon="7.30784">
        <ele>582.8</ele>
        <time>2025-01-18T12:12:38.000Z</time>
      </trkpt>
      <trkpt lat="43.97396" lon="7.30792">
        <ele>580.2</ele>
        <time>2025-01-18T12:12:42.000Z</time>
      </trkpt>
      <trkpt lat="43.97396" lon="7.308">
        <ele>578.1</ele>
        <time>2025-01-18T12:12:45.000Z</time>
      </trkpt>
      <trkpt lat="43.97399" lon="7.30805">
        <ele>577.1</ele>
        <time>2025-01-18T12:12:47.000Z</time>
      </trkpt>
      <trkpt lat="43.97403" lon="7.30808">
        <ele>575.6</ele>
        <time>2025-01-18T12:12:49.000Z</time>
      </trkpt>
      <trkpt lat="43.97405" lon="7.30816">
        <ele>574.5</ele>
        <time>2025-01-18T12:12:52.000Z</time>
      </trkpt>
      <trkpt lat="43.97411" lon="7.30824">
        <ele>573.6</ele>
        <time>2025-01-18T12:12:54.000Z</time>
      </trkpt>
      <trkpt lat="43.97415" lon="7.30828">
        <ele>573</ele>
        <time>2025-01-18T12:12:55.000Z</time>
      </trkpt>
      <trkpt lat="43.97422" lon="7.30833">
        <ele>572</ele>
        <time>2025-01-18T12:12:57.000Z</time>
      </trkpt>
      <trkpt lat="43.97426" lon="7.30837">
        <ele>570.8</ele>
        <time>2025-01-18T12:13:00.000Z</time>
      </trkpt>
      <trkpt lat="43.97426" lon="7.30841">
        <ele>570</ele>
        <time>2025-01-18T12:13:04.000Z</time>
      </trkpt>
      <trkpt lat="43.97426" lon="7.30842">
        <ele>570</ele>
        <time>2025-01-18T12:13:05.000Z</time>
      </trkpt>
      <trkpt lat="43.97426" lon="7.30842">
        <ele>569.9</ele>
        <time>2025-01-18T12:13:06.000Z</time>
      </trkpt>
      <trkpt lat="43.97425" lon="7.30841">
        <ele>569.9</ele>
        <time>2025-01-18T12:13:07.000Z</time>
      </trkpt>
      <trkpt lat="43.97422" lon="7.30837">
        <ele>569.8</ele>
        <time>2025-01-18T12:13:13.000Z</time>
      </trkpt>
      <trkpt lat="43.97422" lon="7.30836">
        <ele>569.7</ele>
        <time>2025-01-18T12:13:14.000Z</time>
      </trkpt>
      <trkpt lat="43.97421" lon="7.30836">
        <ele>569.7</ele>
        <time>2025-01-18T12:13:15.000Z</time>
      </trkpt>
      <trkpt lat="43.97424" lon="7.30838">
        <ele>569.5</ele>
        <time>2025-01-18T12:13:22.000Z</time>
      </trkpt>
      <trkpt lat="43.97423" lon="7.30837">
        <ele>569.5</ele>
        <time>2025-01-18T12:13:23.000Z</time>
      </trkpt>
      <trkpt lat="43.97423" lon="7.30837">
        <ele>569.5</ele>
        <time>2025-01-18T12:13:24.000Z</time>
      </trkpt>
      <trkpt lat="43.97421" lon="7.30837">
        <ele>569.5</ele>
        <time>2025-01-18T12:13:25.000Z</time>
      </trkpt>
      <trkpt lat="43.9742" lon="7.30838">
        <ele>569.5</ele>
        <time>2025-01-18T12:13:26.000Z</time>
      </trkpt>
      <trkpt lat="43.97415" lon="7.30843">
        <ele>569.4</ele>
        <time>2025-01-18T12:13:29.000Z</time>
      </trkpt>
      <trkpt lat="43.97411" lon="7.30848">
        <ele>569.2</ele>
        <time>2025-01-18T12:13:31.000Z</time>
      </trkpt>
      <trkpt lat="43.97408" lon="7.30855">
        <ele>568.8</ele>
        <time>2025-01-18T12:13:33.000Z</time>
      </trkpt>
      <trkpt lat="43.97408" lon="7.30867">
        <ele>568.1</ele>
        <time>2025-01-18T12:13:35.000Z</time>
      </trkpt>
      <trkpt lat="43.9741" lon="7.30874">
        <ele>567.6</ele>
        <time>2025-01-18T12:13:36.000Z</time>
      </trkpt>
      <trkpt lat="43.9741" lon="7.30881">
        <ele>567</ele>
        <time>2025-01-18T12:13:37.000Z</time>
      </trkpt>
      <trkpt lat="43.9741" lon="7.30887">
        <ele>566.6</ele>
        <time>2025-01-18T12:13:38.000Z</time>
      </trkpt>
      <trkpt lat="43.9741" lon="7.30895">
        <ele>565.3</ele>
        <time>2025-01-18T12:13:40.000Z</time>
      </trkpt>
      <trkpt lat="43.97413" lon="7.30904">
        <ele>563.3</ele>
        <time>2025-01-18T12:13:42.000Z</time>
      </trkpt>
      <trkpt lat="43.97418" lon="7.30912">
        <ele>561.1</ele>
        <time>2025-01-18T12:13:44.000Z</time>
      </trkpt>
      <trkpt lat="43.97417" lon="7.30919">
        <ele>560</ele>
        <time>2025-01-18T12:13:46.000Z</time>
      </trkpt>
      <trkpt lat="43.97416" lon="7.30929">
        <ele>558.6</ele>
        <time>2025-01-18T12:13:48.000Z</time>
      </trkpt>
      <trkpt lat="43.97416" lon="7.30936">
        <ele>557.8</ele>
        <time>2025-01-18T12:13:49.000Z</time>
      </trkpt>
      <trkpt lat="43.97416" lon="7.30943">
        <ele>557</ele>
        <time>2025-01-18T12:13:50.000Z</time>
      </trkpt>
      <trkpt lat="43.97416" lon="7.3095">
        <ele>556.1</ele>
        <time>2025-01-18T12:13:51.000Z</time>
      </trkpt>
      <trkpt lat="43.97416" lon="7.30957">
        <ele>555.4</ele>
        <time>2025-01-18T12:13:52.000Z</time>
      </trkpt>
      <trkpt lat="43.97413" lon="7.30964">
        <ele>553.9</ele>
        <time>2025-01-18T12:13:54.000Z</time>
      </trkpt>
      <trkpt lat="43.97409" lon="7.3097">
        <ele>552.8</ele>
        <time>2025-01-18T12:13:56.000Z</time>
      </trkpt>
      <trkpt lat="43.97407" lon="7.30977">
        <ele>551.8</ele>
        <time>2025-01-18T12:13:58.000Z</time>
      </trkpt>
      <trkpt lat="43.97403" lon="7.30982">
        <ele>551.3</ele>
        <time>2025-01-18T12:14:00.000Z</time>
      </trkpt>
      <trkpt lat="43.97398" lon="7.30986">
        <ele>550.7</ele>
        <time>2025-01-18T12:14:02.000Z</time>
      </trkpt>
      <trkpt lat="43.97394" lon="7.3099">
        <ele>550.2</ele>
        <time>2025-01-18T12:14:04.000Z</time>
      </trkpt>
      <trkpt lat="43.9739" lon="7.30994">
        <ele>549.6</ele>
        <time>2025-01-18T12:14:06.000Z</time>
      </trkpt>
      <trkpt lat="43.97387" lon="7.30998">
        <ele>548.4</ele>
        <time>2025-01-18T12:14:08.000Z</time>
      </trkpt>
      <trkpt lat="43.97383" lon="7.31002">
        <ele>546.7</ele>
        <time>2025-01-18T12:14:10.000Z</time>
      </trkpt>
      <trkpt lat="43.97379" lon="7.31006">
        <ele>545.2</ele>
        <time>2025-01-18T12:14:12.000Z</time>
      </trkpt>
      <trkpt lat="43.97375" lon="7.31017">
        <ele>543.8</ele>
        <time>2025-01-18T12:14:14.000Z</time>
      </trkpt>
      <trkpt lat="43.97371" lon="7.31024">
        <ele>542.7</ele>
        <time>2025-01-18T12:14:16.000Z</time>
      </trkpt>
      <trkpt lat="43.97368" lon="7.31029">
        <ele>541.9</ele>
        <time>2025-01-18T12:14:18.000Z</time>
      </trkpt>
      <trkpt lat="43.97364" lon="7.31035">
        <ele>541.3</ele>
        <time>2025-01-18T12:14:21.000Z</time>
      </trkpt>
      <trkpt lat="43.97362" lon="7.31041">
        <ele>540.9</ele>
        <time>2025-01-18T12:14:23.000Z</time>
      </trkpt>
      <trkpt lat="43.9736" lon="7.31049">
        <ele>540.2</ele>
        <time>2025-01-18T12:14:26.000Z</time>
      </trkpt>
      <trkpt lat="43.97366" lon="7.3105">
        <ele>538.4</ele>
        <time>2025-01-18T12:14:31.000Z</time>
      </trkpt>
      <trkpt lat="43.97373" lon="7.31045">
        <ele>537.1</ele>
        <time>2025-01-18T12:14:34.000Z</time>
      </trkpt>
      <trkpt lat="43.97378" lon="7.31042">
        <ele>536</ele>
        <time>2025-01-18T12:14:36.000Z</time>
      </trkpt>
      <trkpt lat="43.97376" lon="7.31048">
        <ele>531.1</ele>
        <time>2025-01-18T12:14:44.000Z</time>
      </trkpt>
      <trkpt lat="43.97382" lon="7.31047">
        <ele>528.1</ele>
        <time>2025-01-18T12:14:51.000Z</time>
      </trkpt>
      <trkpt lat="43.97387" lon="7.31049">
        <ele>525.9</ele>
        <time>2025-01-18T12:14:56.000Z</time>
      </trkpt>
      <trkpt lat="43.97384" lon="7.31054">
        <ele>524.6</ele>
        <time>2025-01-18T12:14:59.000Z</time>
      </trkpt>
      <trkpt lat="43.97379" lon="7.3106">
        <ele>523.4</ele>
        <time>2025-01-18T12:15:02.000Z</time>
      </trkpt>
      <trkpt lat="43.97377" lon="7.31053">
        <ele>520.1</ele>
        <time>2025-01-18T12:15:11.000Z</time>
      </trkpt>
      <trkpt lat="43.97382" lon="7.31053">
        <ele>519.1</ele>
        <time>2025-01-18T12:15:14.000Z</time>
      </trkpt>
      <trkpt lat="43.97381" lon="7.31062">
        <ele>516.8</ele>
        <time>2025-01-18T12:15:19.000Z</time>
      </trkpt>
      <trkpt lat="43.9738" lon="7.31069">
        <ele>515.4</ele>
        <time>2025-01-18T12:15:21.000Z</time>
      </trkpt>
      <trkpt lat="43.97378" lon="7.31076">
        <ele>513.8</ele>
        <time>2025-01-18T12:15:23.000Z</time>
      </trkpt>
      <trkpt lat="43.97379" lon="7.31069">
        <ele>511.2</ele>
        <time>2025-01-18T12:15:28.000Z</time>
      </trkpt>
      <trkpt lat="43.97384" lon="7.31066">
        <ele>509.9</ele>
        <time>2025-01-18T12:15:33.000Z</time>
      </trkpt>
      <trkpt lat="43.97384" lon="7.31065">
        <ele>509.8</ele>
        <time>2025-01-18T12:15:34.000Z</time>
      </trkpt>
      <trkpt lat="43.97384" lon="7.31065">
        <ele>509.7</ele>
        <time>2025-01-18T12:15:35.000Z</time>
      </trkpt>
      <trkpt lat="43.97384" lon="7.31065">
        <ele>509.6</ele>
        <time>2025-01-18T12:15:36.000Z</time>
      </trkpt>
      <trkpt lat="43.97389" lon="7.31067">
        <ele>509.3</ele>
        <time>2025-01-18T12:15:47.000Z</time>
      </trkpt>
      <trkpt lat="43.97393" lon="7.31072">
        <ele>509</ele>
        <time>2025-01-18T12:16:07.000Z</time>
      </trkpt>
      <trkpt lat="43.9739" lon="7.31068">
        <ele>508.9</ele>
        <time>2025-01-18T12:16:19.000Z</time>
      </trkpt>
      <trkpt lat="43.9739" lon="7.31068">
        <ele>508.9</ele>
        <time>2025-01-18T12:16:20.000Z</time>
      </trkpt>
      <trkpt lat="43.97389" lon="7.3107">
        <ele>508.9</ele>
        <time>2025-01-18T12:16:21.000Z</time>
      </trkpt>
      <trkpt lat="43.97389" lon="7.3107">
        <ele>508.9</ele>
        <time>2025-01-18T12:16:22.000Z</time>
      </trkpt>
      <trkpt lat="43.97389" lon="7.3107">
        <ele>508.9</ele>
        <time>2025-01-18T12:16:23.000Z</time>
      </trkpt>
      <trkpt lat="43.97389" lon="7.3107">
        <ele>508.9</ele>
        <time>2025-01-18T12:16:24.000Z</time>
      </trkpt>
      <trkpt lat="43.97393" lon="7.31073">
        <ele>508.8</ele>
        <time>2025-01-18T12:16:35.000Z</time>
      </trkpt>
      <trkpt lat="43.97393" lon="7.31076">
        <ele>508.8</ele>
        <time>2025-01-18T12:16:42.000Z</time>
      </trkpt>
      <trkpt lat="43.97393" lon="7.31075">
        <ele>508.8</ele>
        <time>2025-01-18T12:16:43.000Z</time>
      </trkpt>
      <trkpt lat="43.97393" lon="7.31075">
        <ele>508.8</ele>
        <time>2025-01-18T12:16:49.000Z</time>
      </trkpt>
      <trkpt lat="43.97393" lon="7.31075">
        <ele>508.8</ele>
        <time>2025-01-18T12:16:50.000Z</time>
      </trkpt>
      <trkpt lat="43.97393" lon="7.31075">
        <ele>508.8</ele>
        <time>2025-01-18T12:16:51.000Z</time>
      </trkpt>
      <trkpt lat="43.97391" lon="7.31072">
        <ele>508.6</ele>
        <time>2025-01-18T12:17:18.000Z</time>
      </trkpt>
      <trkpt lat="43.97391" lon="7.31073">
        <ele>508.6</ele>
        <time>2025-01-18T12:17:19.000Z</time>
      </trkpt>
      <trkpt lat="43.97391" lon="7.31073">
        <ele>508.6</ele>
        <time>2025-01-18T12:17:20.000Z</time>
      </trkpt>
      <trkpt lat="43.97391" lon="7.31073">
        <ele>508.6</ele>
        <time>2025-01-18T12:17:21.000Z</time>
      </trkpt>
      <trkpt lat="43.9739" lon="7.31074">
        <ele>508.5</ele>
        <time>2025-01-18T12:17:24.000Z</time>
      </trkpt>
      <trkpt lat="43.9739" lon="7.31073">
        <ele>508.5</ele>
        <time>2025-01-18T12:17:25.000Z</time>
      </trkpt>
      <trkpt lat="43.9739" lon="7.31072">
        <ele>508.5</ele>
        <time>2025-01-18T12:17:26.000Z</time>
      </trkpt>
      <trkpt lat="43.9739" lon="7.31072">
        <ele>508.5</ele>
        <time>2025-01-18T12:17:27.000Z</time>
      </trkpt>
      <trkpt lat="43.9739" lon="7.31069">
        <ele>508.5</ele>
        <time>2025-01-18T12:17:28.000Z</time>
      </trkpt>
      <trkpt lat="43.97391" lon="7.31068">
        <ele>508.4</ele>
        <time>2025-01-18T12:17:29.000Z</time>
      </trkpt>
      <trkpt lat="43.9739" lon="7.31067">
        <ele>508.4</ele>
        <time>2025-01-18T12:17:30.000Z</time>
      </trkpt>
      <trkpt lat="43.97391" lon="7.31067">
        <ele>508.4</ele>
        <time>2025-01-18T12:17:31.000Z</time>
      </trkpt>
      <trkpt lat="43.9739" lon="7.31066">
        <ele>508.4</ele>
        <time>2025-01-18T12:17:32.000Z</time>
      </trkpt>
      <trkpt lat="43.9739" lon="7.31065">
        <ele>508.4</ele>
        <time>2025-01-18T12:17:33.000Z</time>
      </trkpt>
      <trkpt lat="43.9739" lon="7.31065">
        <ele>508.4</ele>
        <time>2025-01-18T12:17:34.000Z</time>
      </trkpt>
      <trkpt lat="43.97391" lon="7.31065">
        <ele>508.3</ele>
        <time>2025-01-18T12:17:40.000Z</time>
      </trkpt>
      <trkpt lat="43.97392" lon="7.31064">
        <ele>508.3</ele>
        <time>2025-01-18T12:17:41.000Z</time>
      </trkpt>
      <trkpt lat="43.97393" lon="7.31056">
        <ele>508.3</ele>
        <time>2025-01-18T12:17:45.000Z</time>
      </trkpt>
      <trkpt lat="43.97397" lon="7.31048">
        <ele>508.3</ele>
        <time>2025-01-18T12:17:48.000Z</time>
      </trkpt>
      <trkpt lat="43.97401" lon="7.31043">
        <ele>508.5</ele>
        <time>2025-01-18T12:17:51.000Z</time>
      </trkpt>
      <trkpt lat="43.97407" lon="7.31037">
        <ele>508.7</ele>
        <time>2025-01-18T12:17:54.000Z</time>
      </trkpt>
      <trkpt lat="43.97411" lon="7.31034">
        <ele>509</ele>
        <time>2025-01-18T12:17:56.000Z</time>
      </trkpt>
      <trkpt lat="43.97415" lon="7.31031">
        <ele>509.3</ele>
        <time>2025-01-18T12:17:58.000Z</time>
      </trkpt>
      <trkpt lat="43.9742" lon="7.31028">
        <ele>509.8</ele>
        <time>2025-01-18T12:18:00.000Z</time>
      </trkpt>
      <trkpt lat="43.97425" lon="7.31027">
        <ele>510.4</ele>
        <time>2025-01-18T12:18:02.000Z</time>
      </trkpt>
      <trkpt lat="43.97431" lon="7.31026">
        <ele>511.4</ele>
        <time>2025-01-18T12:18:06.000Z</time>
      </trkpt>
      <trkpt lat="43.97436" lon="7.31023">
        <ele>512.3</ele>
        <time>2025-01-18T12:18:10.000Z</time>
      </trkpt>
      <trkpt lat="43.97441" lon="7.31021">
        <ele>513.1</ele>
        <time>2025-01-18T12:18:14.000Z</time>
      </trkpt>
      <trkpt lat="43.97446" lon="7.31018">
        <ele>513.6</ele>
        <time>2025-01-18T12:18:17.000Z</time>
      </trkpt>
      <trkpt lat="43.97451" lon="7.31014">
        <ele>514.2</ele>
        <time>2025-01-18T12:18:21.000Z</time>
      </trkpt>
      <trkpt lat="43.97456" lon="7.31012">
        <ele>514.9</ele>
        <time>2025-01-18T12:18:26.000Z</time>
      </trkpt>
      <trkpt lat="43.9746" lon="7.31007">
        <ele>515.3</ele>
        <time>2025-01-18T12:18:29.000Z</time>
      </trkpt>
      <trkpt lat="43.97463" lon="7.31001">
        <ele>515.9</ele>
        <time>2025-01-18T12:18:33.000Z</time>
      </trkpt>
      <trkpt lat="43.97466" lon="7.30996">
        <ele>516.4</ele>
        <time>2025-01-18T12:18:37.000Z</time>
      </trkpt>
      <trkpt lat="43.97471" lon="7.30991">
        <ele>516.7</ele>
        <time>2025-01-18T12:18:40.000Z</time>
      </trkpt>
      <trkpt lat="43.97475" lon="7.30985">
        <ele>517.1</ele>
        <time>2025-01-18T12:18:43.000Z</time>
      </trkpt>
      <trkpt lat="43.97478" lon="7.30979">
        <ele>517.7</ele>
        <time>2025-01-18T12:18:47.000Z</time>
      </trkpt>
      <trkpt lat="43.9748" lon="7.30973">
        <ele>518.3</ele>
        <time>2025-01-18T12:18:51.000Z</time>
      </trkpt>
      <trkpt lat="43.97481" lon="7.30965">
        <ele>518.8</ele>
        <time>2025-01-18T12:18:55.000Z</time>
      </trkpt>
      <trkpt lat="43.97483" lon="7.30958">
        <ele>519.3</ele>
        <time>2025-01-18T12:18:58.000Z</time>
      </trkpt>
      <trkpt lat="43.97484" lon="7.3095">
        <ele>519.9</ele>
        <time>2025-01-18T12:19:02.000Z</time>
      </trkpt>
      <trkpt lat="43.97483" lon="7.30944">
        <ele>520.6</ele>
        <time>2025-01-18T12:19:06.000Z</time>
      </trkpt>
      <trkpt lat="43.97481" lon="7.30937">
        <ele>521.2</ele>
        <time>2025-01-18T12:19:10.000Z</time>
      </trkpt>
      <trkpt lat="43.97483" lon="7.30929">
        <ele>521.6</ele>
        <time>2025-01-18T12:19:14.000Z</time>
      </trkpt>
      <trkpt lat="43.97484" lon="7.30922">
        <ele>522.1</ele>
        <time>2025-01-18T12:19:18.000Z</time>
      </trkpt>
      <trkpt lat="43.97488" lon="7.30916">
        <ele>522.5</ele>
        <time>2025-01-18T12:19:21.000Z</time>
      </trkpt>
      <trkpt lat="43.9749" lon="7.30909">
        <ele>523.1</ele>
        <time>2025-01-18T12:19:25.000Z</time>
      </trkpt>
      <trkpt lat="43.97492" lon="7.30903">
        <ele>523.6</ele>
        <time>2025-01-18T12:19:28.000Z</time>
      </trkpt>
      <trkpt lat="43.97492" lon="7.30896">
        <ele>524.1</ele>
        <time>2025-01-18T12:19:31.000Z</time>
      </trkpt>
      <trkpt lat="43.97495" lon="7.30892">
        <ele>524.6</ele>
        <time>2025-01-18T12:19:34.000Z</time>
      </trkpt>
      <trkpt lat="43.97497" lon="7.30886">
        <ele>525</ele>
        <time>2025-01-18T12:19:37.000Z</time>
      </trkpt>
      <trkpt lat="43.975" lon="7.3088">
        <ele>525.6</ele>
        <time>2025-01-18T12:19:41.000Z</time>
      </trkpt>
      <trkpt lat="43.97503" lon="7.30874">
        <ele>526.2</ele>
        <time>2025-01-18T12:19:45.000Z</time>
      </trkpt>
      <trkpt lat="43.97505" lon="7.30868">
        <ele>526.8</ele>
        <time>2025-01-18T12:19:49.000Z</time>
      </trkpt>
      <trkpt lat="43.97507" lon="7.3086">
        <ele>527.4</ele>
        <time>2025-01-18T12:19:53.000Z</time>
      </trkpt>
      <trkpt lat="43.97509" lon="7.30854">
        <ele>527.8</ele>
        <time>2025-01-18T12:19:56.000Z</time>
      </trkpt>
      <trkpt lat="43.97511" lon="7.30846">
        <ele>528.2</ele>
        <time>2025-01-18T12:19:59.000Z</time>
      </trkpt>
      <trkpt lat="43.97512" lon="7.30839">
        <ele>528.6</ele>
        <time>2025-01-18T12:20:01.000Z</time>
      </trkpt>
      <trkpt lat="43.97515" lon="7.30833">
        <ele>529.3</ele>
        <time>2025-01-18T12:20:05.000Z</time>
      </trkpt>
      <trkpt lat="43.97518" lon="7.30825">
        <ele>530</ele>
        <time>2025-01-18T12:20:09.000Z</time>
      </trkpt>
      <trkpt lat="43.97519" lon="7.30817">
        <ele>530.6</ele>
        <time>2025-01-18T12:20:13.000Z</time>
      </trkpt>
      <trkpt lat="43.97519" lon="7.3081">
        <ele>531.5</ele>
        <time>2025-01-18T12:20:18.000Z</time>
      </trkpt>
      <trkpt lat="43.97521" lon="7.30803">
        <ele>532</ele>
        <time>2025-01-18T12:20:22.000Z</time>
      </trkpt>
      <trkpt lat="43.97523" lon="7.30796">
        <ele>532.7</ele>
        <time>2025-01-18T12:20:27.000Z</time>
      </trkpt>
      <trkpt lat="43.97524" lon="7.3079">
        <ele>533.3</ele>
        <time>2025-01-18T12:20:31.000Z</time>
      </trkpt>
      <trkpt lat="43.97524" lon="7.30782">
        <ele>533.8</ele>
        <time>2025-01-18T12:20:35.000Z</time>
      </trkpt>
      <trkpt lat="43.97526" lon="7.30775">
        <ele>534.2</ele>
        <time>2025-01-18T12:20:38.000Z</time>
      </trkpt>
      <trkpt lat="43.97528" lon="7.30769">
        <ele>534.6</ele>
        <time>2025-01-18T12:20:41.000Z</time>
      </trkpt>
      <trkpt lat="43.9753" lon="7.30762">
        <ele>535.1</ele>
        <time>2025-01-18T12:20:44.000Z</time>
      </trkpt>
      <trkpt lat="43.97531" lon="7.30755">
        <ele>535.6</ele>
        <time>2025-01-18T12:20:47.000Z</time>
      </trkpt>
      <trkpt lat="43.97534" lon="7.30749">
        <ele>536.1</ele>
        <time>2025-01-18T12:20:50.000Z</time>
      </trkpt>
      <trkpt lat="43.97534" lon="7.30742">
        <ele>536.8</ele>
        <time>2025-01-18T12:20:54.000Z</time>
      </trkpt>
      <trkpt lat="43.97534" lon="7.30734">
        <ele>537.4</ele>
        <time>2025-01-18T12:20:58.000Z</time>
      </trkpt>
      <trkpt lat="43.97536" lon="7.30728">
        <ele>538.1</ele>
        <time>2025-01-18T12:21:02.000Z</time>
      </trkpt>
      <trkpt lat="43.97538" lon="7.30722">
        <ele>538.5</ele>
        <time>2025-01-18T12:21:05.000Z</time>
      </trkpt>
      <trkpt lat="43.97538" lon="7.30715">
        <ele>539.2</ele>
        <time>2025-01-18T12:21:09.000Z</time>
      </trkpt>
      <trkpt lat="43.97539" lon="7.30707">
        <ele>539.9</ele>
        <time>2025-01-18T12:21:13.000Z</time>
      </trkpt>
      <trkpt lat="43.97539" lon="7.30701">
        <ele>540.4</ele>
        <time>2025-01-18T12:21:16.000Z</time>
      </trkpt>
      <trkpt lat="43.97543" lon="7.30694">
        <ele>541</ele>
        <time>2025-01-18T12:21:20.000Z</time>
      </trkpt>
      <trkpt lat="43.97551" lon="7.30691">
        <ele>541.4</ele>
        <time>2025-01-18T12:21:22.000Z</time>
      </trkpt>
      <trkpt lat="43.97555" lon="7.30687">
        <ele>541.9</ele>
        <time>2025-01-18T12:21:25.000Z</time>
      </trkpt>
      <trkpt lat="43.97561" lon="7.30684">
        <ele>542.5</ele>
        <time>2025-01-18T12:21:29.000Z</time>
      </trkpt>
      <trkpt lat="43.97567" lon="7.30684">
        <ele>543</ele>
        <time>2025-01-18T12:21:32.000Z</time>
      </trkpt>
      <trkpt lat="43.97572" lon="7.3068">
        <ele>543.3</ele>
        <time>2025-01-18T12:21:34.000Z</time>
      </trkpt>
      <trkpt lat="43.97575" lon="7.30674">
        <ele>544</ele>
        <time>2025-01-18T12:21:38.000Z</time>
      </trkpt>
      <trkpt lat="43.97578" lon="7.30669">
        <ele>544.9</ele>
        <time>2025-01-18T12:21:43.000Z</time>
      </trkpt>
      <trkpt lat="43.97583" lon="7.30665">
        <ele>545.4</ele>
        <time>2025-01-18T12:21:46.000Z</time>
      </trkpt>
      <trkpt lat="43.97587" lon="7.30661">
        <ele>546.1</ele>
        <time>2025-01-18T12:21:50.000Z</time>
      </trkpt>
      <trkpt lat="43.97589" lon="7.30655">
        <ele>546.6</ele>
        <time>2025-01-18T12:21:53.000Z</time>
      </trkpt>
      <trkpt lat="43.97591" lon="7.30649">
        <ele>547.1</ele>
        <time>2025-01-18T12:21:56.000Z</time>
      </trkpt>
      <trkpt lat="43.97594" lon="7.30644">
        <ele>547.3</ele>
        <time>2025-01-18T12:21:58.000Z</time>
      </trkpt>
      <trkpt lat="43.97594" lon="7.30635">
        <ele>547.7</ele>
        <time>2025-01-18T12:22:01.000Z</time>
      </trkpt>
      <trkpt lat="43.97593" lon="7.30627">
        <ele>548</ele>
        <time>2025-01-18T12:22:04.000Z</time>
      </trkpt>
      <trkpt lat="43.9759" lon="7.30621">
        <ele>548.3</ele>
        <time>2025-01-18T12:22:07.000Z</time>
      </trkpt>
      <trkpt lat="43.97587" lon="7.30616">
        <ele>548.6</ele>
        <time>2025-01-18T12:22:10.000Z</time>
      </trkpt>
      <trkpt lat="43.97582" lon="7.30612">
        <ele>548.8</ele>
        <time>2025-01-18T12:22:12.000Z</time>
      </trkpt>
      <trkpt lat="43.97576" lon="7.30612">
        <ele>549.1</ele>
        <time>2025-01-18T12:22:15.000Z</time>
      </trkpt>
      <trkpt lat="43.9757" lon="7.30615">
        <ele>549.4</ele>
        <time>2025-01-18T12:22:19.000Z</time>
      </trkpt>
      <trkpt lat="43.97567" lon="7.3062">
        <ele>549.6</ele>
        <time>2025-01-18T12:22:22.000Z</time>
      </trkpt>
      <trkpt lat="43.97562" lon="7.30625">
        <ele>549.9</ele>
        <time>2025-01-18T12:22:25.000Z</time>
      </trkpt>
      <trkpt lat="43.97557" lon="7.30629">
        <ele>550.3</ele>
        <time>2025-01-18T12:22:28.000Z</time>
      </trkpt>
      <trkpt lat="43.97553" lon="7.30635">
        <ele>550.7</ele>
        <time>2025-01-18T12:22:31.000Z</time>
      </trkpt>
      <trkpt lat="43.97548" lon="7.30639">
        <ele>551</ele>
        <time>2025-01-18T12:22:34.000Z</time>
      </trkpt>
      <trkpt lat="43.97544" lon="7.30643">
        <ele>551.5</ele>
        <time>2025-01-18T12:22:37.000Z</time>
      </trkpt>
      <trkpt lat="43.9754" lon="7.30646">
        <ele>551.8</ele>
        <time>2025-01-18T12:22:40.000Z</time>
      </trkpt>
      <trkpt lat="43.97536" lon="7.30653">
        <ele>552.2</ele>
        <time>2025-01-18T12:22:43.000Z</time>
      </trkpt>
      <trkpt lat="43.97532" lon="7.30659">
        <ele>552.8</ele>
        <time>2025-01-18T12:22:47.000Z</time>
      </trkpt>
      <trkpt lat="43.97529" lon="7.30664">
        <ele>553.2</ele>
        <time>2025-01-18T12:22:50.000Z</time>
      </trkpt>
      <trkpt lat="43.97525" lon="7.3067">
        <ele>553.6</ele>
        <time>2025-01-18T12:22:54.000Z</time>
      </trkpt>
      <trkpt lat="43.97521" lon="7.30675">
        <ele>554</ele>
        <time>2025-01-18T12:22:57.000Z</time>
      </trkpt>
      <trkpt lat="43.97519" lon="7.30682">
        <ele>554.4</ele>
        <time>2025-01-18T12:23:00.000Z</time>
      </trkpt>
      <trkpt lat="43.97516" lon="7.30688">
        <ele>554.8</ele>
        <time>2025-01-18T12:23:02.000Z</time>
      </trkpt>
      <trkpt lat="43.97513" lon="7.30693">
        <ele>555.4</ele>
        <time>2025-01-18T12:23:05.000Z</time>
      </trkpt>
      <trkpt lat="43.9751" lon="7.30698">
        <ele>555.9</ele>
        <time>2025-01-18T12:23:08.000Z</time>
      </trkpt>
      <trkpt lat="43.97506" lon="7.30703">
        <ele>556.6</ele>
        <time>2025-01-18T12:23:12.000Z</time>
      </trkpt>
      <trkpt lat="43.975" lon="7.30707">
        <ele>557.1</ele>
        <time>2025-01-18T12:23:15.000Z</time>
      </trkpt>
      <trkpt lat="43.97495" lon="7.30711">
        <ele>557.5</ele>
        <time>2025-01-18T12:23:18.000Z</time>
      </trkpt>
      <trkpt lat="43.97491" lon="7.30715">
        <ele>558.1</ele>
        <time>2025-01-18T12:23:22.000Z</time>
      </trkpt>
      <trkpt lat="43.97487" lon="7.30719">
        <ele>558.5</ele>
        <time>2025-01-18T12:23:26.000Z</time>
      </trkpt>
      <trkpt lat="43.97482" lon="7.30723">
        <ele>559.1</ele>
        <time>2025-01-18T12:23:30.000Z</time>
      </trkpt>
      <trkpt lat="43.97478" lon="7.30727">
        <ele>559.5</ele>
        <time>2025-01-18T12:23:34.000Z</time>
      </trkpt>
      <trkpt lat="43.97475" lon="7.30733">
        <ele>560.2</ele>
        <time>2025-01-18T12:23:38.000Z</time>
      </trkpt>
      <trkpt lat="43.97472" lon="7.30738">
        <ele>560.8</ele>
        <time>2025-01-18T12:23:42.000Z</time>
      </trkpt>
      <trkpt lat="43.97468" lon="7.30742">
        <ele>561.3</ele>
        <time>2025-01-18T12:23:45.000Z</time>
      </trkpt>
      <trkpt lat="43.97465" lon="7.30747">
        <ele>561.7</ele>
        <time>2025-01-18T12:23:48.000Z</time>
      </trkpt>
      <trkpt lat="43.97462" lon="7.30754">
        <ele>562.3</ele>
        <time>2025-01-18T12:23:52.000Z</time>
      </trkpt>
      <trkpt lat="43.97459" lon="7.3076">
        <ele>562.8</ele>
        <time>2025-01-18T12:23:55.000Z</time>
      </trkpt>
      <trkpt lat="43.97455" lon="7.30765">
        <ele>563.3</ele>
        <time>2025-01-18T12:23:58.000Z</time>
      </trkpt>
      <trkpt lat="43.97453" lon="7.30772">
        <ele>563.9</ele>
        <time>2025-01-18T12:24:02.000Z</time>
      </trkpt>
      <trkpt lat="43.97449" lon="7.30776">
        <ele>564.4</ele>
        <time>2025-01-18T12:24:05.000Z</time>
      </trkpt>
      <trkpt lat="43.97445" lon="7.30782">
        <ele>565.1</ele>
        <time>2025-01-18T12:24:09.000Z</time>
      </trkpt>
      <trkpt lat="43.97442" lon="7.30786">
        <ele>565.5</ele>
        <time>2025-01-18T12:24:12.000Z</time>
      </trkpt>
      <trkpt lat="43.97436" lon="7.30789">
        <ele>565.9</ele>
        <time>2025-01-18T12:24:14.000Z</time>
      </trkpt>
      <trkpt lat="43.97433" lon="7.30796">
        <ele>566.4</ele>
        <time>2025-01-18T12:24:17.000Z</time>
      </trkpt>
      <trkpt lat="43.97429" lon="7.30803">
        <ele>567.1</ele>
        <time>2025-01-18T12:24:21.000Z</time>
      </trkpt>
      <trkpt lat="43.97428" lon="7.3081">
        <ele>567.7</ele>
        <time>2025-01-18T12:24:25.000Z</time>
      </trkpt>
      <trkpt lat="43.97427" lon="7.30817">
        <ele>568.7</ele>
        <time>2025-01-18T12:24:32.000Z</time>
      </trkpt>
      <trkpt lat="43.97425" lon="7.30824">
        <ele>569.3</ele>
        <time>2025-01-18T12:24:37.000Z</time>
      </trkpt>
      <trkpt lat="43.9742" lon="7.30828">
        <ele>569.8</ele>
        <time>2025-01-18T12:24:41.000Z</time>
      </trkpt>
      <trkpt lat="43.97416" lon="7.30832">
        <ele>570.2</ele>
        <time>2025-01-18T12:24:44.000Z</time>
      </trkpt>
      <trkpt lat="43.97414" lon="7.30837">
        <ele>570.7</ele>
        <time>2025-01-18T12:24:47.000Z</time>
      </trkpt>
      <trkpt lat="43.9741" lon="7.30842">
        <ele>571.4</ele>
        <time>2025-01-18T12:24:51.000Z</time>
      </trkpt>
      <trkpt lat="43.97405" lon="7.30845">
        <ele>571.8</ele>
        <time>2025-01-18T12:24:54.000Z</time>
      </trkpt>
      <trkpt lat="43.97401" lon="7.30847">
        <ele>572.2</ele>
        <time>2025-01-18T12:24:56.000Z</time>
      </trkpt>
      <trkpt lat="43.97395" lon="7.30848">
        <ele>572.7</ele>
        <time>2025-01-18T12:24:59.000Z</time>
      </trkpt>
      <trkpt lat="43.97391" lon="7.30851">
        <ele>573.2</ele>
        <time>2025-01-18T12:25:03.000Z</time>
      </trkpt>
      <trkpt lat="43.97388" lon="7.30856">
        <ele>573.7</ele>
        <time>2025-01-18T12:25:06.000Z</time>
      </trkpt>
      <trkpt lat="43.97385" lon="7.30861">
        <ele>574.1</ele>
        <time>2025-01-18T12:25:09.000Z</time>
      </trkpt>
      <trkpt lat="43.97383" lon="7.30867">
        <ele>574.8</ele>
        <time>2025-01-18T12:25:14.000Z</time>
      </trkpt>
      <trkpt lat="43.97378" lon="7.30872">
        <ele>575.3</ele>
        <time>2025-01-18T12:25:18.000Z</time>
      </trkpt>
      <trkpt lat="43.97373" lon="7.30875">
        <ele>575.7</ele>
        <time>2025-01-18T12:25:21.000Z</time>
      </trkpt>
      <trkpt lat="43.97368" lon="7.30878">
        <ele>576.1</ele>
        <time>2025-01-18T12:25:24.000Z</time>
      </trkpt>
      <trkpt lat="43.97369" lon="7.30885">
        <ele>577.6</ele>
        <time>2025-01-18T12:25:34.000Z</time>
      </trkpt>
      <trkpt lat="43.97364" lon="7.3089">
        <ele>578</ele>
        <time>2025-01-18T12:25:37.000Z</time>
      </trkpt>
      <trkpt lat="43.97359" lon="7.30893">
        <ele>578.4</ele>
        <time>2025-01-18T12:25:39.000Z</time>
      </trkpt>
      <trkpt lat="43.97355" lon="7.30897">
        <ele>578.7</ele>
        <time>2025-01-18T12:25:41.000Z</time>
      </trkpt>
      <trkpt lat="43.9735" lon="7.30904">
        <ele>579.3</ele>
        <time>2025-01-18T12:25:44.000Z</time>
      </trkpt>
      <trkpt lat="43.97345" lon="7.30905">
        <ele>579.7</ele>
        <time>2025-01-18T12:25:46.000Z</time>
      </trkpt>
      <trkpt lat="43.9734" lon="7.30906">
        <ele>580.1</ele>
        <time>2025-01-18T12:25:48.000Z</time>
      </trkpt>
      <trkpt lat="43.97335" lon="7.30907">
        <ele>580.5</ele>
        <time>2025-01-18T12:25:50.000Z</time>
      </trkpt>
      <trkpt lat="43.97331" lon="7.30906">
        <ele>580.7</ele>
        <time>2025-01-18T12:25:51.000Z</time>
      </trkpt>
      <trkpt lat="43.97326" lon="7.30908">
        <ele>581</ele>
        <time>2025-01-18T12:25:53.000Z</time>
      </trkpt>
      <trkpt lat="43.97321" lon="7.30909">
        <ele>581.4</ele>
        <time>2025-01-18T12:25:55.000Z</time>
      </trkpt>
      <trkpt lat="43.97314" lon="7.3091">
        <ele>582.1</ele>
        <time>2025-01-18T12:25:59.000Z</time>
      </trkpt>
      <trkpt lat="43.9731" lon="7.30908">
        <ele>582.4</ele>
        <time>2025-01-18T12:26:01.000Z</time>
      </trkpt>
      <trkpt lat="43.97305" lon="7.30905">
        <ele>582.9</ele>
        <time>2025-01-18T12:26:04.000Z</time>
      </trkpt>
      <trkpt lat="43.973" lon="7.30899">
        <ele>583.3</ele>
        <time>2025-01-18T12:26:07.000Z</time>
      </trkpt>
      <trkpt lat="43.97296" lon="7.30894">
        <ele>583.7</ele>
        <time>2025-01-18T12:26:10.000Z</time>
      </trkpt>
      <trkpt lat="43.97293" lon="7.30889">
        <ele>584.1</ele>
        <time>2025-01-18T12:26:13.000Z</time>
      </trkpt>
      <trkpt lat="43.9729" lon="7.3088">
        <ele>584.6</ele>
        <time>2025-01-18T12:26:17.000Z</time>
      </trkpt>
      <trkpt lat="43.97289" lon="7.30874">
        <ele>584.9</ele>
        <time>2025-01-18T12:26:19.000Z</time>
      </trkpt>
      <trkpt lat="43.97286" lon="7.30867">
        <ele>585.3</ele>
        <time>2025-01-18T12:26:22.000Z</time>
      </trkpt>
      <trkpt lat="43.97281" lon="7.3086">
        <ele>585.9</ele>
        <time>2025-01-18T12:26:26.000Z</time>
      </trkpt>
      <trkpt lat="43.97277" lon="7.30855">
        <ele>586.3</ele>
        <time>2025-01-18T12:26:29.000Z</time>
      </trkpt>
      <trkpt lat="43.97275" lon="7.30847">
        <ele>586.7</ele>
        <time>2025-01-18T12:26:32.000Z</time>
      </trkpt>
      <trkpt lat="43.97272" lon="7.30841">
        <ele>587</ele>
        <time>2025-01-18T12:26:35.000Z</time>
      </trkpt>
      <trkpt lat="43.97269" lon="7.30834">
        <ele>587.4</ele>
        <time>2025-01-18T12:26:38.000Z</time>
      </trkpt>
      <trkpt lat="43.97265" lon="7.30828">
        <ele>587.8</ele>
        <time>2025-01-18T12:26:42.000Z</time>
      </trkpt>
      <trkpt lat="43.97264" lon="7.30821">
        <ele>588.2</ele>
        <time>2025-01-18T12:26:45.000Z</time>
      </trkpt>
      <trkpt lat="43.97261" lon="7.30814">
        <ele>588.5</ele>
        <time>2025-01-18T12:26:48.000Z</time>
      </trkpt>
      <trkpt lat="43.97259" lon="7.30807">
        <ele>588.8</ele>
        <time>2025-01-18T12:26:51.000Z</time>
      </trkpt>
      <trkpt lat="43.97257" lon="7.308">
        <ele>589.1</ele>
        <time>2025-01-18T12:26:54.000Z</time>
      </trkpt>
      <trkpt lat="43.97253" lon="7.30792">
        <ele>589.4</ele>
        <time>2025-01-18T12:26:57.000Z</time>
      </trkpt>
      <trkpt lat="43.97252" lon="7.30785">
        <ele>589.7</ele>
        <time>2025-01-18T12:27:00.000Z</time>
      </trkpt>
      <trkpt lat="43.97251" lon="7.30777">
        <ele>590.1</ele>
        <time>2025-01-18T12:27:03.000Z</time>
      </trkpt>
      <trkpt lat="43.97248" lon="7.3077">
        <ele>590.6</ele>
        <time>2025-01-18T12:27:06.000Z</time>
      </trkpt>
      <trkpt lat="43.97245" lon="7.30763">
        <ele>591.1</ele>
        <time>2025-01-18T12:27:09.000Z</time>
      </trkpt>
      <trkpt lat="43.97243" lon="7.30755">
        <ele>591.6</ele>
        <time>2025-01-18T12:27:12.000Z</time>
      </trkpt>
      <trkpt lat="43.97241" lon="7.30747">
        <ele>592.1</ele>
        <time>2025-01-18T12:27:15.000Z</time>
      </trkpt>
      <trkpt lat="43.97238" lon="7.30739">
        <ele>592.8</ele>
        <time>2025-01-18T12:27:19.000Z</time>
      </trkpt>
      <trkpt lat="43.97236" lon="7.30732">
        <ele>593.1</ele>
        <time>2025-01-18T12:27:22.000Z</time>
      </trkpt>
      <trkpt lat="43.97235" lon="7.30725">
        <ele>593.6</ele>
        <time>2025-01-18T12:27:25.000Z</time>
      </trkpt>
      <trkpt lat="43.97233" lon="7.30719">
        <ele>594.1</ele>
        <time>2025-01-18T12:27:28.000Z</time>
      </trkpt>
      <trkpt lat="43.97231" lon="7.30712">
        <ele>594.5</ele>
        <time>2025-01-18T12:27:32.000Z</time>
      </trkpt>
      <trkpt lat="43.9723" lon="7.30705">
        <ele>594.9</ele>
        <time>2025-01-18T12:27:35.000Z</time>
      </trkpt>
      <trkpt lat="43.97229" lon="7.30699">
        <ele>595.2</ele>
        <time>2025-01-18T12:27:38.000Z</time>
      </trkpt>
      <trkpt lat="43.97227" lon="7.30692">
        <ele>595.5</ele>
        <time>2025-01-18T12:27:41.000Z</time>
      </trkpt>
      <trkpt lat="43.97225" lon="7.30686">
        <ele>595.7</ele>
        <time>2025-01-18T12:27:44.000Z</time>
      </trkpt>
      <trkpt lat="43.97223" lon="7.3068">
        <ele>596</ele>
        <time>2025-01-18T12:27:47.000Z</time>
      </trkpt>
      <trkpt lat="43.97222" lon="7.30672">
        <ele>596.4</ele>
        <time>2025-01-18T12:27:51.000Z</time>
      </trkpt>
      <trkpt lat="43.9722" lon="7.30665">
        <ele>596.6</ele>
        <time>2025-01-18T12:27:54.000Z</time>
      </trkpt>
      <trkpt lat="43.97217" lon="7.30657">
        <ele>597</ele>
        <time>2025-01-18T12:27:58.000Z</time>
      </trkpt>
      <trkpt lat="43.97215" lon="7.3065">
        <ele>597.3</ele>
        <time>2025-01-18T12:28:01.000Z</time>
      </trkpt>
      <trkpt lat="43.97213" lon="7.30643">
        <ele>597.7</ele>
        <time>2025-01-18T12:28:04.000Z</time>
      </trkpt>
      <trkpt lat="43.9721" lon="7.30637">
        <ele>598.1</ele>
        <time>2025-01-18T12:28:07.000Z</time>
      </trkpt>
      <trkpt lat="43.9721" lon="7.3063">
        <ele>598.5</ele>
        <time>2025-01-18T12:28:10.000Z</time>
      </trkpt>
      <trkpt lat="43.97211" lon="7.30623">
        <ele>599</ele>
        <time>2025-01-18T12:28:13.000Z</time>
      </trkpt>
      <trkpt lat="43.9721" lon="7.30617">
        <ele>599.4</ele>
        <time>2025-01-18T12:28:16.000Z</time>
      </trkpt>
      <trkpt lat="43.97208" lon="7.3061">
        <ele>599.9</ele>
        <time>2025-01-18T12:28:19.000Z</time>
      </trkpt>
      <trkpt lat="43.97206" lon="7.30603">
        <ele>600.4</ele>
        <time>2025-01-18T12:28:23.000Z</time>
      </trkpt>
      <trkpt lat="43.97205" lon="7.30596">
        <ele>600.8</ele>
        <time>2025-01-18T12:28:26.000Z</time>
      </trkpt>
      <trkpt lat="43.97203" lon="7.3059">
        <ele>601</ele>
        <time>2025-01-18T12:28:28.000Z</time>
      </trkpt>
      <trkpt lat="43.97201" lon="7.30582">
        <ele>601.3</ele>
        <time>2025-01-18T12:28:31.000Z</time>
      </trkpt>
      <trkpt lat="43.97201" lon="7.30575">
        <ele>601.7</ele>
        <time>2025-01-18T12:28:35.000Z</time>
      </trkpt>
      <trkpt lat="43.97201" lon="7.30568">
        <ele>602</ele>
        <time>2025-01-18T12:28:38.000Z</time>
      </trkpt>
      <trkpt lat="43.97199" lon="7.30562">
        <ele>602.3</ele>
        <time>2025-01-18T12:28:41.000Z</time>
      </trkpt>
      <trkpt lat="43.97196" lon="7.30556">
        <ele>603</ele>
        <time>2025-01-18T12:28:46.000Z</time>
      </trkpt>
      <trkpt lat="43.97191" lon="7.30551">
        <ele>603.4</ele>
        <time>2025-01-18T12:28:49.000Z</time>
      </trkpt>
      <trkpt lat="43.97188" lon="7.30546">
        <ele>603.7</ele>
        <time>2025-01-18T12:28:51.000Z</time>
      </trkpt>
      <trkpt lat="43.97184" lon="7.30538">
        <ele>604.1</ele>
        <time>2025-01-18T12:28:54.000Z</time>
      </trkpt>
      <trkpt lat="43.97183" lon="7.30531">
        <ele>604.5</ele>
        <time>2025-01-18T12:28:57.000Z</time>
      </trkpt>
      <trkpt lat="43.9718" lon="7.30524">
        <ele>604.9</ele>
        <time>2025-01-18T12:29:00.000Z</time>
      </trkpt>
      <trkpt lat="43.97176" lon="7.30518">
        <ele>605.2</ele>
        <time>2025-01-18T12:29:03.000Z</time>
      </trkpt>
      <trkpt lat="43.97173" lon="7.30511">
        <ele>605.7</ele>
        <time>2025-01-18T12:29:07.000Z</time>
      </trkpt>
      <trkpt lat="43.97168" lon="7.30507">
        <ele>606</ele>
        <time>2025-01-18T12:29:10.000Z</time>
      </trkpt>
      <trkpt lat="43.97163" lon="7.30502">
        <ele>606.3</ele>
        <time>2025-01-18T12:29:13.000Z</time>
      </trkpt>
      <trkpt lat="43.97159" lon="7.30497">
        <ele>606.7</ele>
        <time>2025-01-18T12:29:16.000Z</time>
      </trkpt>
      <trkpt lat="43.97154" lon="7.30494">
        <ele>607</ele>
        <time>2025-01-18T12:29:19.000Z</time>
      </trkpt>
      <trkpt lat="43.97149" lon="7.30491">
        <ele>607.3</ele>
        <time>2025-01-18T12:29:22.000Z</time>
      </trkpt>
      <trkpt lat="43.97146" lon="7.30486">
        <ele>607.6</ele>
        <time>2025-01-18T12:29:25.000Z</time>
      </trkpt>
      <trkpt lat="43.97141" lon="7.30482">
        <ele>607.9</ele>
        <time>2025-01-18T12:29:28.000Z</time>
      </trkpt>
      <trkpt lat="43.97135" lon="7.30477">
        <ele>608.1</ele>
        <time>2025-01-18T12:29:31.000Z</time>
      </trkpt>
      <trkpt lat="43.97131" lon="7.30473">
        <ele>608.5</ele>
        <time>2025-01-18T12:29:34.000Z</time>
      </trkpt>
      <trkpt lat="43.97126" lon="7.3047">
        <ele>608.8</ele>
        <time>2025-01-18T12:29:37.000Z</time>
      </trkpt>
      <trkpt lat="43.97121" lon="7.30466">
        <ele>609.2</ele>
        <time>2025-01-18T12:29:40.000Z</time>
      </trkpt>
      <trkpt lat="43.97117" lon="7.30462">
        <ele>609.6</ele>
        <time>2025-01-18T12:29:43.000Z</time>
      </trkpt>
      <trkpt lat="43.97113" lon="7.30458">
        <ele>609.9</ele>
        <time>2025-01-18T12:29:46.000Z</time>
      </trkpt>
      <trkpt lat="43.97109" lon="7.30454">
        <ele>610.3</ele>
        <time>2025-01-18T12:29:49.000Z</time>
      </trkpt>
      <trkpt lat="43.97105" lon="7.3045">
        <ele>610.7</ele>
        <time>2025-01-18T12:29:52.000Z</time>
      </trkpt>
      <trkpt lat="43.97102" lon="7.30444">
        <ele>611</ele>
        <time>2025-01-18T12:29:55.000Z</time>
      </trkpt>
      <trkpt lat="43.971" lon="7.30438">
        <ele>611.4</ele>
        <time>2025-01-18T12:29:58.000Z</time>
      </trkpt>
      <trkpt lat="43.97098" lon="7.30432">
        <ele>611.8</ele>
        <time>2025-01-18T12:30:01.000Z</time>
      </trkpt>
      <trkpt lat="43.97096" lon="7.30424">
        <ele>612.2</ele>
        <time>2025-01-18T12:30:04.000Z</time>
      </trkpt>
      <trkpt lat="43.97094" lon="7.30418">
        <ele>612.6</ele>
        <time>2025-01-18T12:30:07.000Z</time>
      </trkpt>
      <trkpt lat="43.97092" lon="7.30411">
        <ele>612.9</ele>
        <time>2025-01-18T12:30:10.000Z</time>
      </trkpt>
      <trkpt lat="43.9709" lon="7.30404">
        <ele>613.2</ele>
        <time>2025-01-18T12:30:13.000Z</time>
      </trkpt>
      <trkpt lat="43.97089" lon="7.30397">
        <ele>613.6</ele>
        <time>2025-01-18T12:30:16.000Z</time>
      </trkpt>
      <trkpt lat="43.97087" lon="7.30391">
        <ele>613.9</ele>
        <time>2025-01-18T12:30:19.000Z</time>
      </trkpt>
      <trkpt lat="43.97084" lon="7.30384">
        <ele>614.2</ele>
        <time>2025-01-18T12:30:23.000Z</time>
      </trkpt>
      <trkpt lat="43.97082" lon="7.30377">
        <ele>614.6</ele>
        <time>2025-01-18T12:30:26.000Z</time>
      </trkpt>
      <trkpt lat="43.97078" lon="7.30372">
        <ele>615</ele>
        <time>2025-01-18T12:30:29.000Z</time>
      </trkpt>
      <trkpt lat="43.97077" lon="7.30366">
        <ele>615.4</ele>
        <time>2025-01-18T12:30:32.000Z</time>
      </trkpt>
      <trkpt lat="43.97073" lon="7.30359">
        <ele>615.7</ele>
        <time>2025-01-18T12:30:35.000Z</time>
      </trkpt>
      <trkpt lat="43.97069" lon="7.30355">
        <ele>615.9</ele>
        <time>2025-01-18T12:30:37.000Z</time>
      </trkpt>
      <trkpt lat="43.97064" lon="7.3035">
        <ele>616.2</ele>
        <time>2025-01-18T12:30:40.000Z</time>
      </trkpt>
      <trkpt lat="43.97061" lon="7.30346">
        <ele>616.5</ele>
        <time>2025-01-18T12:30:42.000Z</time>
      </trkpt>
      <trkpt lat="43.97056" lon="7.30341">
        <ele>616.8</ele>
        <time>2025-01-18T12:30:45.000Z</time>
      </trkpt>
      <trkpt lat="43.9705" lon="7.30338">
        <ele>617.1</ele>
        <time>2025-01-18T12:30:48.000Z</time>
      </trkpt>
      <trkpt lat="43.97046" lon="7.30332">
        <ele>617.4</ele>
        <time>2025-01-18T12:30:51.000Z</time>
      </trkpt>
      <trkpt lat="43.97044" lon="7.30327">
        <ele>617.9</ele>
        <time>2025-01-18T12:30:54.000Z</time>
      </trkpt>
      <trkpt lat="43.97043" lon="7.3032">
        <ele>618.3</ele>
        <time>2025-01-18T12:30:57.000Z</time>
      </trkpt>
      <trkpt lat="43.97043" lon="7.30313">
        <ele>618.8</ele>
        <time>2025-01-18T12:31:00.000Z</time>
      </trkpt>
      <trkpt lat="43.97042" lon="7.30306">
        <ele>619.2</ele>
        <time>2025-01-18T12:31:03.000Z</time>
      </trkpt>
      <trkpt lat="43.97045" lon="7.30299">
        <ele>619.5</ele>
        <time>2025-01-18T12:31:06.000Z</time>
      </trkpt>
      <trkpt lat="43.97048" lon="7.30292">
        <ele>619.9</ele>
        <time>2025-01-18T12:31:09.000Z</time>
      </trkpt>
      <trkpt lat="43.97048" lon="7.30285">
        <ele>620.4</ele>
        <time>2025-01-18T12:31:12.000Z</time>
      </trkpt>
      <trkpt lat="43.97048" lon="7.30279">
        <ele>620.8</ele>
        <time>2025-01-18T12:31:15.000Z</time>
      </trkpt>
      <trkpt lat="43.97045" lon="7.30271">
        <ele>621.2</ele>
        <time>2025-01-18T12:31:18.000Z</time>
      </trkpt>
      <trkpt lat="43.97044" lon="7.30265">
        <ele>621.6</ele>
        <time>2025-01-18T12:31:21.000Z</time>
      </trkpt>
      <trkpt lat="43.97042" lon="7.30259">
        <ele>622.1</ele>
        <time>2025-01-18T12:31:26.000Z</time>
      </trkpt>
      <trkpt lat="43.97043" lon="7.30264">
        <ele>622.6</ele>
        <time>2025-01-18T12:31:32.000Z</time>
      </trkpt>
      <trkpt lat="43.97043" lon="7.30264">
        <ele>622.6</ele>
        <time>2025-01-18T12:31:33.000Z</time>
      </trkpt>
      <trkpt lat="43.97043" lon="7.30264">
        <ele>622.6</ele>
        <time>2025-01-18T12:31:34.000Z</time>
      </trkpt>
      <trkpt lat="43.97044" lon="7.30267">
        <ele>622.9</ele>
        <time>2025-01-18T12:33:00.000Z</time>
      </trkpt>
      <trkpt lat="43.97045" lon="7.30267">
        <ele>622.9</ele>
        <time>2025-01-18T12:33:01.000Z</time>
      </trkpt>
      <trkpt lat="43.97045" lon="7.30267">
        <ele>622.9</ele>
        <time>2025-01-18T12:33:02.000Z</time>
      </trkpt>
      <trkpt lat="43.97045" lon="7.30267">
        <ele>622.9</ele>
        <time>2025-01-18T12:33:03.000Z</time>
      </trkpt>
      <trkpt lat="43.97044" lon="7.30268">
        <ele>623.8</ele>
        <time>2025-01-18T12:33:40.000Z</time>
      </trkpt>
      <trkpt lat="43.97044" lon="7.30268">
        <ele>623.8</ele>
        <time>2025-01-18T12:33:41.000Z</time>
      </trkpt>
      <trkpt lat="43.97044" lon="7.30268">
        <ele>623.9</ele>
        <time>2025-01-18T12:33:44.000Z</time>
      </trkpt>
      <trkpt lat="43.97044" lon="7.30268">
        <ele>624</ele>
        <time>2025-01-18T12:33:45.000Z</time>
      </trkpt>
      <trkpt lat="43.97044" lon="7.30268">
        <ele>624</ele>
        <time>2025-01-18T12:33:46.000Z</time>
      </trkpt>
      <trkpt lat="43.97045" lon="7.30268">
        <ele>624.1</ele>
        <time>2025-01-18T12:35:04.000Z</time>
      </trkpt>
      <trkpt lat="43.97045" lon="7.30269">
        <ele>624.1</ele>
        <time>2025-01-18T12:35:05.000Z</time>
      </trkpt>
      <trkpt lat="43.97045" lon="7.30269">
        <ele>624.2</ele>
        <time>2025-01-18T12:35:06.000Z</time>
      </trkpt>
      <trkpt lat="43.97045" lon="7.30269">
        <ele>624.2</ele>
        <time>2025-01-18T12:35:07.000Z</time>
      </trkpt>
      <trkpt lat="43.97045" lon="7.30269">
        <ele>624.2</ele>
        <time>2025-01-18T12:35:08.000Z</time>
      </trkpt>
      <trkpt lat="43.97045" lon="7.30269">
        <ele>624.2</ele>
        <time>2025-01-18T12:35:09.000Z</time>
      </trkpt>
      <trkpt lat="43.97046" lon="7.30268">
        <ele>624.3</ele>
        <time>2025-01-18T12:35:20.000Z</time>
      </trkpt>
      <trkpt lat="43.97046" lon="7.30267">
        <ele>624.3</ele>
        <time>2025-01-18T12:35:21.000Z</time>
      </trkpt>
      <trkpt lat="43.97046" lon="7.30267">
        <ele>624.2</ele>
        <time>2025-01-18T12:35:22.000Z</time>
      </trkpt>
      <trkpt lat="43.97046" lon="7.30267">
        <ele>624.3</ele>
        <time>2025-01-18T12:35:25.000Z</time>
      </trkpt>
      <trkpt lat="43.97046" lon="7.30267">
        <ele>624.3</ele>
        <time>2025-01-18T12:35:26.000Z</time>
      </trkpt>
      <trkpt lat="43.97046" lon="7.30267">
        <ele>624.3</ele>
        <time>2025-01-18T12:35:27.000Z</time>
      </trkpt>
      <trkpt lat="43.97046" lon="7.30267">
        <ele>624.3</ele>
        <time>2025-01-18T12:35:28.000Z</time>
      </trkpt>
      <trkpt lat="43.97046" lon="7.30267">
        <ele>624.3</ele>
        <time>2025-01-18T12:35:29.000Z</time>
      </trkpt>
      <trkpt lat="43.97046" lon="7.30267">
        <ele>624.3</ele>
        <time>2025-01-18T12:35:30.000Z</time>
      </trkpt>
      <trkpt lat="43.97046" lon="7.30267">
        <ele>624.3</ele>
        <time>2025-01-18T12:35:31.000Z</time>
      </trkpt>
      <trkpt lat="43.97046" lon="7.30267">
        <ele>624.2</ele>
        <time>2025-01-18T12:35:32.000Z</time>
      </trkpt>
      <trkpt lat="43.97046" lon="7.30267">
        <ele>624.2</ele>
        <time>2025-01-18T12:35:33.000Z</time>
      </trkpt>
      <trkpt lat="43.97046" lon="7.30266">
        <ele>624.2</ele>
        <time>2025-01-18T12:35:34.000Z</time>
      </trkpt>
      <trkpt lat="43.97042" lon="7.30261">
        <ele>624.3</ele>
        <time>2025-01-18T12:35:38.000Z</time>
      </trkpt>
      <trkpt lat="43.97042" lon="7.30254">
        <ele>624.3</ele>
        <time>2025-01-18T12:35:43.000Z</time>
      </trkpt>
      <trkpt lat="43.97041" lon="7.30248">
        <ele>624.4</ele>
        <time>2025-01-18T12:35:46.000Z</time>
      </trkpt>
      <trkpt lat="43.9704" lon="7.30242">
        <ele>624.4</ele>
        <time>2025-01-18T12:35:49.000Z</time>
      </trkpt>
      <trkpt lat="43.97038" lon="7.30234">
        <ele>624.7</ele>
        <time>2025-01-18T12:35:53.000Z</time>
      </trkpt>
      <trkpt lat="43.97036" lon="7.30227">
        <ele>624.9</ele>
        <time>2025-01-18T12:35:56.000Z</time>
      </trkpt>
      <trkpt lat="43.97033" lon="7.30221">
        <ele>625.2</ele>
        <time>2025-01-18T12:35:59.000Z</time>
      </trkpt>
      <trkpt lat="43.97029" lon="7.30215">
        <ele>625.6</ele>
        <time>2025-01-18T12:36:02.000Z</time>
      </trkpt>
      <trkpt lat="43.97024" lon="7.3021">
        <ele>625.9</ele>
        <time>2025-01-18T12:36:04.000Z</time>
      </trkpt>
      <trkpt lat="43.9702" lon="7.30205">
        <ele>626.1</ele>
        <time>2025-01-18T12:36:06.000Z</time>
      </trkpt>
      <trkpt lat="43.97016" lon="7.30199">
        <ele>626.5</ele>
        <time>2025-01-18T12:36:09.000Z</time>
      </trkpt>
      <trkpt lat="43.97014" lon="7.30193">
        <ele>627</ele>
        <time>2025-01-18T12:36:12.000Z</time>
      </trkpt>
      <trkpt lat="43.97013" lon="7.30186">
        <ele>627.4</ele>
        <time>2025-01-18T12:36:15.000Z</time>
      </trkpt>
      <trkpt lat="43.97011" lon="7.30178">
        <ele>627.9</ele>
        <time>2025-01-18T12:36:18.000Z</time>
      </trkpt>
      <trkpt lat="43.97009" lon="7.30172">
        <ele>628.2</ele>
        <time>2025-01-18T12:36:21.000Z</time>
      </trkpt>
      <trkpt lat="43.97006" lon="7.30165">
        <ele>628.6</ele>
        <time>2025-01-18T12:36:24.000Z</time>
      </trkpt>
      <trkpt lat="43.97003" lon="7.30161">
        <ele>628.8</ele>
        <time>2025-01-18T12:36:26.000Z</time>
      </trkpt>
      <trkpt lat="43.97" lon="7.30155">
        <ele>629.1</ele>
        <time>2025-01-18T12:36:29.000Z</time>
      </trkpt>
      <trkpt lat="43.96998" lon="7.30149">
        <ele>629.3</ele>
        <time>2025-01-18T12:36:33.000Z</time>
      </trkpt>
      <trkpt lat="43.96995" lon="7.30144">
        <ele>629.6</ele>
        <time>2025-01-18T12:36:36.000Z</time>
      </trkpt>
      <trkpt lat="43.96992" lon="7.30139">
        <ele>629.8</ele>
        <time>2025-01-18T12:36:39.000Z</time>
      </trkpt>
      <trkpt lat="43.96989" lon="7.30133">
        <ele>630.1</ele>
        <time>2025-01-18T12:36:42.000Z</time>
      </trkpt>
      <trkpt lat="43.96986" lon="7.30126">
        <ele>630.5</ele>
        <time>2025-01-18T12:36:45.000Z</time>
      </trkpt>
      <trkpt lat="43.96982" lon="7.3012">
        <ele>630.9</ele>
        <time>2025-01-18T12:36:48.000Z</time>
      </trkpt>
      <trkpt lat="43.96978" lon="7.30114">
        <ele>631.3</ele>
        <time>2025-01-18T12:36:51.000Z</time>
      </trkpt>
      <trkpt lat="43.96975" lon="7.30108">
        <ele>631.6</ele>
        <time>2025-01-18T12:36:54.000Z</time>
      </trkpt>
      <trkpt lat="43.96971" lon="7.30103">
        <ele>632</ele>
        <time>2025-01-18T12:36:57.000Z</time>
      </trkpt>
      <trkpt lat="43.96968" lon="7.30099">
        <ele>632.3</ele>
        <time>2025-01-18T12:37:00.000Z</time>
      </trkpt>
      <trkpt lat="43.96963" lon="7.30095">
        <ele>632.7</ele>
        <time>2025-01-18T12:37:03.000Z</time>
      </trkpt>
      <trkpt lat="43.9696" lon="7.30091">
        <ele>633</ele>
        <time>2025-01-18T12:37:06.000Z</time>
      </trkpt>
      <trkpt lat="43.96956" lon="7.30086">
        <ele>633.5</ele>
        <time>2025-01-18T12:37:09.000Z</time>
      </trkpt>
      <trkpt lat="43.96952" lon="7.30081">
        <ele>633.9</ele>
        <time>2025-01-18T12:37:12.000Z</time>
      </trkpt>
      <trkpt lat="43.96949" lon="7.30077">
        <ele>634.2</ele>
        <time>2025-01-18T12:37:15.000Z</time>
      </trkpt>
      <trkpt lat="43.96945" lon="7.30071">
        <ele>634.6</ele>
        <time>2025-01-18T12:37:18.000Z</time>
      </trkpt>
      <trkpt lat="43.96941" lon="7.30067">
        <ele>634.9</ele>
        <time>2025-01-18T12:37:21.000Z</time>
      </trkpt>
      <trkpt lat="43.96938" lon="7.30062">
        <ele>635.3</ele>
        <time>2025-01-18T12:37:25.000Z</time>
      </trkpt>
      <trkpt lat="43.96934" lon="7.30056">
        <ele>635.8</ele>
        <time>2025-01-18T12:37:29.000Z</time>
      </trkpt>
      <trkpt lat="43.9693" lon="7.30053">
        <ele>636.2</ele>
        <time>2025-01-18T12:37:33.000Z</time>
      </trkpt>
      <trkpt lat="43.96926" lon="7.30047">
        <ele>636.8</ele>
        <time>2025-01-18T12:37:37.000Z</time>
      </trkpt>
      <trkpt lat="43.96923" lon="7.30042">
        <ele>637.3</ele>
        <time>2025-01-18T12:37:40.000Z</time>
      </trkpt>
      <trkpt lat="43.96919" lon="7.30039">
        <ele>637.8</ele>
        <time>2025-01-18T12:37:43.000Z</time>
      </trkpt>
      <trkpt lat="43.96915" lon="7.30036">
        <ele>638.2</ele>
        <time>2025-01-18T12:37:46.000Z</time>
      </trkpt>
      <trkpt lat="43.96911" lon="7.30032">
        <ele>638.7</ele>
        <time>2025-01-18T12:37:49.000Z</time>
      </trkpt>
      <trkpt lat="43.96905" lon="7.30028">
        <ele>639.4</ele>
        <time>2025-01-18T12:37:53.000Z</time>
      </trkpt>
      <trkpt lat="43.969" lon="7.30025">
        <ele>639.8</ele>
        <time>2025-01-18T12:37:56.000Z</time>
      </trkpt>
      <trkpt lat="43.96896" lon="7.30021">
        <ele>640.3</ele>
        <time>2025-01-18T12:37:59.000Z</time>
      </trkpt>
      <trkpt lat="43.96892" lon="7.30018">
        <ele>640.7</ele>
        <time>2025-01-18T12:38:02.000Z</time>
      </trkpt>
      <trkpt lat="43.96887" lon="7.30013">
        <ele>641.3</ele>
        <time>2025-01-18T12:38:06.000Z</time>
      </trkpt>
      <trkpt lat="43.96884" lon="7.30008">
        <ele>641.9</ele>
        <time>2025-01-18T12:38:10.000Z</time>
      </trkpt>
      <trkpt lat="43.96879" lon="7.30003">
        <ele>642.5</ele>
        <time>2025-01-18T12:38:14.000Z</time>
      </trkpt>
      <trkpt lat="43.96875" lon="7.29997">
        <ele>643.2</ele>
        <time>2025-01-18T12:38:18.000Z</time>
      </trkpt>
      <trkpt lat="43.9687" lon="7.29993">
        <ele>643.6</ele>
        <time>2025-01-18T12:38:22.000Z</time>
      </trkpt>
      <trkpt lat="43.96865" lon="7.2999">
        <ele>644.1</ele>
        <time>2025-01-18T12:38:26.000Z</time>
      </trkpt>
      <trkpt lat="43.96859" lon="7.29989">
        <ele>644.7</ele>
        <time>2025-01-18T12:38:30.000Z</time>
      </trkpt>
      <trkpt lat="43.96853" lon="7.29988">
        <ele>645.2</ele>
        <time>2025-01-18T12:38:33.000Z</time>
      </trkpt>
      <trkpt lat="43.96848" lon="7.29984">
        <ele>645.7</ele>
        <time>2025-01-18T12:38:37.000Z</time>
      </trkpt>
      <trkpt lat="43.96844" lon="7.29981">
        <ele>646.3</ele>
        <time>2025-01-18T12:38:41.000Z</time>
      </trkpt>
      <trkpt lat="43.96842" lon="7.29975">
        <ele>646.9</ele>
        <time>2025-01-18T12:38:45.000Z</time>
      </trkpt>
      <trkpt lat="43.96838" lon="7.29971">
        <ele>647.3</ele>
        <time>2025-01-18T12:38:48.000Z</time>
      </trkpt>
      <trkpt lat="43.96835" lon="7.29964">
        <ele>647.7</ele>
        <time>2025-01-18T12:38:51.000Z</time>
      </trkpt>
      <trkpt lat="43.9683" lon="7.29958">
        <ele>648.1</ele>
        <time>2025-01-18T12:38:54.000Z</time>
      </trkpt>
      <trkpt lat="43.96825" lon="7.29953">
        <ele>648.4</ele>
        <time>2025-01-18T12:38:57.000Z</time>
      </trkpt>
      <trkpt lat="43.96823" lon="7.29948">
        <ele>648.8</ele>
        <time>2025-01-18T12:39:00.000Z</time>
      </trkpt>
      <trkpt lat="43.9682" lon="7.29942">
        <ele>649.3</ele>
        <time>2025-01-18T12:39:04.000Z</time>
      </trkpt>
      <trkpt lat="43.96817" lon="7.29935">
        <ele>649.8</ele>
        <time>2025-01-18T12:39:08.000Z</time>
      </trkpt>
      <trkpt lat="43.96814" lon="7.29929">
        <ele>650.1</ele>
        <time>2025-01-18T12:39:11.000Z</time>
      </trkpt>
      <trkpt lat="43.9681" lon="7.29922">
        <ele>650.3</ele>
        <time>2025-01-18T12:39:14.000Z</time>
      </trkpt>
      <trkpt lat="43.96807" lon="7.29916">
        <ele>650.7</ele>
        <time>2025-01-18T12:39:17.000Z</time>
      </trkpt>
      <trkpt lat="43.96803" lon="7.29911">
        <ele>651.1</ele>
        <time>2025-01-18T12:39:21.000Z</time>
      </trkpt>
      <trkpt lat="43.968" lon="7.29905">
        <ele>651.4</ele>
        <time>2025-01-18T12:39:24.000Z</time>
      </trkpt>
      <trkpt lat="43.96797" lon="7.29899">
        <ele>651.9</ele>
        <time>2025-01-18T12:39:27.000Z</time>
      </trkpt>
      <trkpt lat="43.96793" lon="7.29894">
        <ele>652.2</ele>
        <time>2025-01-18T12:39:30.000Z</time>
      </trkpt>
      <trkpt lat="43.96789" lon="7.29889">
        <ele>652.6</ele>
        <time>2025-01-18T12:39:33.000Z</time>
      </trkpt>
      <trkpt lat="43.96786" lon="7.29884">
        <ele>652.9</ele>
        <time>2025-01-18T12:39:36.000Z</time>
      </trkpt>
      <trkpt lat="43.96784" lon="7.29878">
        <ele>653.3</ele>
        <time>2025-01-18T12:39:39.000Z</time>
      </trkpt>
      <trkpt lat="43.9678" lon="7.29872">
        <ele>653.6</ele>
        <time>2025-01-18T12:39:42.000Z</time>
      </trkpt>
      <trkpt lat="43.96778" lon="7.29867">
        <ele>653.9</ele>
        <time>2025-01-18T12:39:44.000Z</time>
      </trkpt>
      <trkpt lat="43.96775" lon="7.29859">
        <ele>654.3</ele>
        <time>2025-01-18T12:39:47.000Z</time>
      </trkpt>
      <trkpt lat="43.96772" lon="7.29853">
        <ele>654.6</ele>
        <time>2025-01-18T12:39:50.000Z</time>
      </trkpt>
      <trkpt lat="43.9677" lon="7.29847">
        <ele>654.9</ele>
        <time>2025-01-18T12:39:53.000Z</time>
      </trkpt>
      <trkpt lat="43.96767" lon="7.29839">
        <ele>655.3</ele>
        <time>2025-01-18T12:39:56.000Z</time>
      </trkpt>
      <trkpt lat="43.96766" lon="7.29831">
        <ele>655.7</ele>
        <time>2025-01-18T12:39:59.000Z</time>
      </trkpt>
      <trkpt lat="43.9676" lon="7.29827">
        <ele>656.1</ele>
        <time>2025-01-18T12:40:02.000Z</time>
      </trkpt>
      <trkpt lat="43.96756" lon="7.29824">
        <ele>656.3</ele>
        <time>2025-01-18T12:40:04.000Z</time>
      </trkpt>
      <trkpt lat="43.96752" lon="7.29821">
        <ele>656.7</ele>
        <time>2025-01-18T12:40:07.000Z</time>
      </trkpt>
      <trkpt lat="43.96748" lon="7.29815">
        <ele>657.1</ele>
        <time>2025-01-18T12:40:10.000Z</time>
      </trkpt>
      <trkpt lat="43.96746" lon="7.2981">
        <ele>657.6</ele>
        <time>2025-01-18T12:40:13.000Z</time>
      </trkpt>
      <trkpt lat="43.96743" lon="7.29805">
        <ele>658.1</ele>
        <time>2025-01-18T12:40:16.000Z</time>
      </trkpt>
      <trkpt lat="43.96738" lon="7.29803">
        <ele>658.7</ele>
        <time>2025-01-18T12:40:21.000Z</time>
      </trkpt>
      <trkpt lat="43.96734" lon="7.29801">
        <ele>659.1</ele>
        <time>2025-01-18T12:40:24.000Z</time>
      </trkpt>
      <trkpt lat="43.96727" lon="7.29801">
        <ele>659.4</ele>
        <time>2025-01-18T12:40:27.000Z</time>
      </trkpt>
      <trkpt lat="43.96723" lon="7.29801">
        <ele>659.6</ele>
        <time>2025-01-18T12:40:29.000Z</time>
      </trkpt>
      <trkpt lat="43.96717" lon="7.29802">
        <ele>659.9</ele>
        <time>2025-01-18T12:40:31.000Z</time>
      </trkpt>
      <trkpt lat="43.96711" lon="7.29801">
        <ele>660.2</ele>
        <time>2025-01-18T12:40:33.000Z</time>
      </trkpt>
      <trkpt lat="43.96706" lon="7.29803">
        <ele>660.4</ele>
        <time>2025-01-18T12:40:35.000Z</time>
      </trkpt>
      <trkpt lat="43.96701" lon="7.29806">
        <ele>660.7</ele>
        <time>2025-01-18T12:40:37.000Z</time>
      </trkpt>
      <trkpt lat="43.96695" lon="7.29807">
        <ele>661.2</ele>
        <time>2025-01-18T12:40:40.000Z</time>
      </trkpt>
      <trkpt lat="43.9669" lon="7.29806">
        <ele>661.6</ele>
        <time>2025-01-18T12:40:43.000Z</time>
      </trkpt>
      <trkpt lat="43.96685" lon="7.29806">
        <ele>662.1</ele>
        <time>2025-01-18T12:40:46.000Z</time>
      </trkpt>
      <trkpt lat="43.9668" lon="7.29806">
        <ele>662.5</ele>
        <time>2025-01-18T12:40:49.000Z</time>
      </trkpt>
      <trkpt lat="43.96675" lon="7.29804">
        <ele>663</ele>
        <time>2025-01-18T12:40:52.000Z</time>
      </trkpt>
      <trkpt lat="43.9667" lon="7.29802">
        <ele>663.6</ele>
        <time>2025-01-18T12:40:55.000Z</time>
      </trkpt>
      <trkpt lat="43.96666" lon="7.29801">
        <ele>664.3</ele>
        <time>2025-01-18T12:40:58.000Z</time>
      </trkpt>
      <trkpt lat="43.96661" lon="7.29799">
        <ele>665.1</ele>
        <time>2025-01-18T12:41:01.000Z</time>
      </trkpt>
      <trkpt lat="43.96656" lon="7.29799">
        <ele>665.7</ele>
        <time>2025-01-18T12:41:04.000Z</time>
      </trkpt>
      <trkpt lat="43.96652" lon="7.29797">
        <ele>666.3</ele>
        <time>2025-01-18T12:41:07.000Z</time>
      </trkpt>
      <trkpt lat="43.96647" lon="7.29794">
        <ele>666.9</ele>
        <time>2025-01-18T12:41:10.000Z</time>
      </trkpt>
      <trkpt lat="43.96644" lon="7.29789">
        <ele>667.4</ele>
        <time>2025-01-18T12:41:13.000Z</time>
      </trkpt>
      <trkpt lat="43.9664" lon="7.29784">
        <ele>667.9</ele>
        <time>2025-01-18T12:41:16.000Z</time>
      </trkpt>
      <trkpt lat="43.96637" lon="7.2978">
        <ele>668.4</ele>
        <time>2025-01-18T12:41:19.000Z</time>
      </trkpt>
      <trkpt lat="43.96633" lon="7.29775">
        <ele>668.9</ele>
        <time>2025-01-18T12:41:22.000Z</time>
      </trkpt>
      <trkpt lat="43.96629" lon="7.2977">
        <ele>669.6</ele>
        <time>2025-01-18T12:41:26.000Z</time>
      </trkpt>
      <trkpt lat="43.96625" lon="7.29764">
        <ele>670.2</ele>
        <time>2025-01-18T12:41:30.000Z</time>
      </trkpt>
      <trkpt lat="43.96622" lon="7.29759">
        <ele>670.6</ele>
        <time>2025-01-18T12:41:33.000Z</time>
      </trkpt>
      <trkpt lat="43.96619" lon="7.29752">
        <ele>671.2</ele>
        <time>2025-01-18T12:41:37.000Z</time>
      </trkpt>
      <trkpt lat="43.96617" lon="7.29747">
        <ele>671.6</ele>
        <time>2025-01-18T12:41:40.000Z</time>
      </trkpt>
      <trkpt lat="43.96615" lon="7.2974">
        <ele>672.1</ele>
        <time>2025-01-18T12:41:43.000Z</time>
      </trkpt>
      <trkpt lat="43.96614" lon="7.29732">
        <ele>672.5</ele>
        <time>2025-01-18T12:41:47.000Z</time>
      </trkpt>
      <trkpt lat="43.96612" lon="7.29726">
        <ele>673</ele>
        <time>2025-01-18T12:41:51.000Z</time>
      </trkpt>
      <trkpt lat="43.9661" lon="7.2972">
        <ele>673.4</ele>
        <time>2025-01-18T12:41:54.000Z</time>
      </trkpt>
      <trkpt lat="43.9661" lon="7.29713">
        <ele>673.8</ele>
        <time>2025-01-18T12:41:57.000Z</time>
      </trkpt>
      <trkpt lat="43.96609" lon="7.29706">
        <ele>674.1</ele>
        <time>2025-01-18T12:42:00.000Z</time>
      </trkpt>
      <trkpt lat="43.96608" lon="7.297">
        <ele>674.4</ele>
        <time>2025-01-18T12:42:03.000Z</time>
      </trkpt>
      <trkpt lat="43.96609" lon="7.29693">
        <ele>674.7</ele>
        <time>2025-01-18T12:42:06.000Z</time>
      </trkpt>
      <trkpt lat="43.96609" lon="7.29686">
        <ele>675</ele>
        <time>2025-01-18T12:42:09.000Z</time>
      </trkpt>
      <trkpt lat="43.9661" lon="7.2968">
        <ele>675.6</ele>
        <time>2025-01-18T12:42:13.000Z</time>
      </trkpt>
      <trkpt lat="43.9661" lon="7.29672">
        <ele>676.2</ele>
        <time>2025-01-18T12:42:17.000Z</time>
      </trkpt>
      <trkpt lat="43.96613" lon="7.29665">
        <ele>676.6</ele>
        <time>2025-01-18T12:42:20.000Z</time>
      </trkpt>
      <trkpt lat="43.96615" lon="7.29658">
        <ele>677.2</ele>
        <time>2025-01-18T12:42:23.000Z</time>
      </trkpt>
      <trkpt lat="43.96617" lon="7.29653">
        <ele>677.8</ele>
        <time>2025-01-18T12:42:26.000Z</time>
      </trkpt>
      <trkpt lat="43.9662" lon="7.29646">
        <ele>678.3</ele>
        <time>2025-01-18T12:42:29.000Z</time>
      </trkpt>
      <trkpt lat="43.96621" lon="7.29638">
        <ele>678.8</ele>
        <time>2025-01-18T12:42:33.000Z</time>
      </trkpt>
      <trkpt lat="43.96623" lon="7.29632">
        <ele>679.4</ele>
        <time>2025-01-18T12:42:37.000Z</time>
      </trkpt>
      <trkpt lat="43.96625" lon="7.29625">
        <ele>679.7</ele>
        <time>2025-01-18T12:42:41.000Z</time>
      </trkpt>
      <trkpt lat="43.96625" lon="7.29617">
        <ele>680.2</ele>
        <time>2025-01-18T12:42:44.000Z</time>
      </trkpt>
      <trkpt lat="43.96626" lon="7.29611">
        <ele>680.5</ele>
        <time>2025-01-18T12:42:47.000Z</time>
      </trkpt>
      <trkpt lat="43.96627" lon="7.29602">
        <ele>681</ele>
        <time>2025-01-18T12:42:50.000Z</time>
      </trkpt>
      <trkpt lat="43.96627" lon="7.29593">
        <ele>681.4</ele>
        <time>2025-01-18T12:42:53.000Z</time>
      </trkpt>
      <trkpt lat="43.96626" lon="7.29586">
        <ele>681.7</ele>
        <time>2025-01-18T12:42:56.000Z</time>
      </trkpt>
      <trkpt lat="43.96621" lon="7.2958">
        <ele>682.1</ele>
        <time>2025-01-18T12:42:59.000Z</time>
      </trkpt>
      <trkpt lat="43.96615" lon="7.29574">
        <ele>682.6</ele>
        <time>2025-01-18T12:43:02.000Z</time>
      </trkpt>
      <trkpt lat="43.9661" lon="7.29569">
        <ele>683</ele>
        <time>2025-01-18T12:43:05.000Z</time>
      </trkpt>
      <trkpt lat="43.96606" lon="7.29565">
        <ele>683.3</ele>
        <time>2025-01-18T12:43:07.000Z</time>
      </trkpt>
      <trkpt lat="43.96603" lon="7.2956">
        <ele>683.7</ele>
        <time>2025-01-18T12:43:10.000Z</time>
      </trkpt>
      <trkpt lat="43.96598" lon="7.29557">
        <ele>684.1</ele>
        <time>2025-01-18T12:43:13.000Z</time>
      </trkpt>
      <trkpt lat="43.96594" lon="7.29552">
        <ele>684.5</ele>
        <time>2025-01-18T12:43:16.000Z</time>
      </trkpt>
      <trkpt lat="43.96589" lon="7.29547">
        <ele>685.1</ele>
        <time>2025-01-18T12:43:19.000Z</time>
      </trkpt>
      <trkpt lat="43.96584" lon="7.29542">
        <ele>685.6</ele>
        <time>2025-01-18T12:43:22.000Z</time>
      </trkpt>
      <trkpt lat="43.96582" lon="7.29536">
        <ele>686</ele>
        <time>2025-01-18T12:43:25.000Z</time>
      </trkpt>
      <trkpt lat="43.96579" lon="7.29531">
        <ele>686.5</ele>
        <time>2025-01-18T12:43:28.000Z</time>
      </trkpt>
      <trkpt lat="43.96576" lon="7.29526">
        <ele>686.9</ele>
        <time>2025-01-18T12:43:31.000Z</time>
      </trkpt>
      <trkpt lat="43.96572" lon="7.29519">
        <ele>687.6</ele>
        <time>2025-01-18T12:43:35.000Z</time>
      </trkpt>
      <trkpt lat="43.96568" lon="7.29514">
        <ele>688.1</ele>
        <time>2025-01-18T12:43:39.000Z</time>
      </trkpt>
      <trkpt lat="43.96564" lon="7.29508">
        <ele>688.8</ele>
        <time>2025-01-18T12:43:43.000Z</time>
      </trkpt>
      <trkpt lat="43.9656" lon="7.29502">
        <ele>689.3</ele>
        <time>2025-01-18T12:43:47.000Z</time>
      </trkpt>
      <trkpt lat="43.96557" lon="7.29498">
        <ele>689.5</ele>
        <time>2025-01-18T12:43:50.000Z</time>
      </trkpt>
      <trkpt lat="43.96553" lon="7.29493">
        <ele>690.1</ele>
        <time>2025-01-18T12:43:53.000Z</time>
      </trkpt>
      <trkpt lat="43.96548" lon="7.2949">
        <ele>691.2</ele>
        <time>2025-01-18T12:43:57.000Z</time>
      </trkpt>
      <trkpt lat="43.96545" lon="7.29485">
        <ele>692</ele>
        <time>2025-01-18T12:44:01.000Z</time>
      </trkpt>
      <trkpt lat="43.9654" lon="7.29481">
        <ele>692.6</ele>
        <time>2025-01-18T12:44:05.000Z</time>
      </trkpt>
      <trkpt lat="43.96535" lon="7.29477">
        <ele>693</ele>
        <time>2025-01-18T12:44:08.000Z</time>
      </trkpt>
      <trkpt lat="43.96532" lon="7.29473">
        <ele>693.5</ele>
        <time>2025-01-18T12:44:12.000Z</time>
      </trkpt>
      <trkpt lat="43.96529" lon="7.29467">
        <ele>694</ele>
        <time>2025-01-18T12:44:15.000Z</time>
      </trkpt>
      <trkpt lat="43.96526" lon="7.29461">
        <ele>694.4</ele>
        <time>2025-01-18T12:44:18.000Z</time>
      </trkpt>
      <trkpt lat="43.96523" lon="7.29456">
        <ele>694.9</ele>
        <time>2025-01-18T12:44:21.000Z</time>
      </trkpt>
      <trkpt lat="43.96519" lon="7.29452">
        <ele>695.4</ele>
        <time>2025-01-18T12:44:24.000Z</time>
      </trkpt>
      <trkpt lat="43.96515" lon="7.29447">
        <ele>695.8</ele>
        <time>2025-01-18T12:44:27.000Z</time>
      </trkpt>
      <trkpt lat="43.96512" lon="7.29443">
        <ele>696.3</ele>
        <time>2025-01-18T12:44:30.000Z</time>
      </trkpt>
      <trkpt lat="43.96508" lon="7.29437">
        <ele>697.1</ele>
        <time>2025-01-18T12:44:34.000Z</time>
      </trkpt>
      <trkpt lat="43.96505" lon="7.29432">
        <ele>697.9</ele>
        <time>2025-01-18T12:44:38.000Z</time>
      </trkpt>
      <trkpt lat="43.96501" lon="7.29428">
        <ele>698.4</ele>
        <time>2025-01-18T12:44:41.000Z</time>
      </trkpt>
      <trkpt lat="43.96497" lon="7.29424">
        <ele>698.9</ele>
        <time>2025-01-18T12:44:44.000Z</time>
      </trkpt>
      <trkpt lat="43.96493" lon="7.29421">
        <ele>699.6</ele>
        <time>2025-01-18T12:44:48.000Z</time>
      </trkpt>
      <trkpt lat="43.96489" lon="7.29417">
        <ele>700.3</ele>
        <time>2025-01-18T12:44:52.000Z</time>
      </trkpt>
      <trkpt lat="43.96486" lon="7.29411">
        <ele>700.9</ele>
        <time>2025-01-18T12:44:56.000Z</time>
      </trkpt>
      <trkpt lat="43.96482" lon="7.29406">
        <ele>701.3</ele>
        <time>2025-01-18T12:44:59.000Z</time>
      </trkpt>
      <trkpt lat="43.96478" lon="7.29401">
        <ele>701.9</ele>
        <time>2025-01-18T12:45:03.000Z</time>
      </trkpt>
      <trkpt lat="43.96475" lon="7.29396">
        <ele>702.4</ele>
        <time>2025-01-18T12:45:06.000Z</time>
      </trkpt>
      <trkpt lat="43.96471" lon="7.29391">
        <ele>702.9</ele>
        <time>2025-01-18T12:45:09.000Z</time>
      </trkpt>
      <trkpt lat="43.96468" lon="7.29386">
        <ele>703.4</ele>
        <time>2025-01-18T12:45:12.000Z</time>
      </trkpt>
      <trkpt lat="43.96464" lon="7.29382">
        <ele>703.9</ele>
        <time>2025-01-18T12:45:15.000Z</time>
      </trkpt>
      <trkpt lat="43.9646" lon="7.29378">
        <ele>704.4</ele>
        <time>2025-01-18T12:45:18.000Z</time>
      </trkpt>
      <trkpt lat="43.96454" lon="7.29375">
        <ele>704.7</ele>
        <time>2025-01-18T12:45:21.000Z</time>
      </trkpt>
      <trkpt lat="43.96448" lon="7.29372">
        <ele>705</ele>
        <time>2025-01-18T12:45:24.000Z</time>
      </trkpt>
      <trkpt lat="43.96443" lon="7.29371">
        <ele>705.2</ele>
        <time>2025-01-18T12:45:26.000Z</time>
      </trkpt>
      <trkpt lat="43.96438" lon="7.2937">
        <ele>705.5</ele>
        <time>2025-01-18T12:45:29.000Z</time>
      </trkpt>
      <trkpt lat="43.96432" lon="7.29369">
        <ele>705.8</ele>
        <time>2025-01-18T12:45:32.000Z</time>
      </trkpt>
      <trkpt lat="43.96428" lon="7.29371">
        <ele>706.2</ele>
        <time>2025-01-18T12:45:35.000Z</time>
      </trkpt>
      <trkpt lat="43.96422" lon="7.29372">
        <ele>706.8</ele>
        <time>2025-01-18T12:45:39.000Z</time>
      </trkpt>
      <trkpt lat="43.96418" lon="7.29375">
        <ele>707.2</ele>
        <time>2025-01-18T12:45:42.000Z</time>
      </trkpt>
      <trkpt lat="43.96414" lon="7.29379">
        <ele>707.6</ele>
        <time>2025-01-18T12:45:46.000Z</time>
      </trkpt>
      <trkpt lat="43.96409" lon="7.29382">
        <ele>707.9</ele>
        <time>2025-01-18T12:45:50.000Z</time>
      </trkpt>
      <trkpt lat="43.96408" lon="7.29383">
        <ele>708</ele>
        <time>2025-01-18T12:45:53.000Z</time>
      </trkpt>
      <trkpt lat="43.96408" lon="7.29383">
        <ele>708.1</ele>
        <time>2025-01-18T12:45:54.000Z</time>
      </trkpt>
      <trkpt lat="43.96407" lon="7.29384">
        <ele>708.1</ele>
        <time>2025-01-18T12:45:55.000Z</time>
      </trkpt>
      <trkpt lat="43.96407" lon="7.29384">
        <ele>708.1</ele>
        <time>2025-01-18T12:45:56.000Z</time>
      </trkpt>
      <trkpt lat="43.96406" lon="7.29385">
        <ele>708.2</ele>
        <time>2025-01-18T12:45:59.000Z</time>
      </trkpt>
      <trkpt lat="43.96406" lon="7.29385">
        <ele>708.2</ele>
        <time>2025-01-18T12:46:00.000Z</time>
      </trkpt>
      <trkpt lat="43.96406" lon="7.29385">
        <ele>708.3</ele>
        <time>2025-01-18T12:46:01.000Z</time>
      </trkpt>
      <trkpt lat="43.96404" lon="7.29391">
        <ele>708.3</ele>
        <time>2025-01-18T12:46:54.000Z</time>
      </trkpt>
      <trkpt lat="43.96404" lon="7.29389">
        <ele>708.5</ele>
        <time>2025-01-18T12:47:05.000Z</time>
      </trkpt>
      <trkpt lat="43.96404" lon="7.29388">
        <ele>708.5</ele>
        <time>2025-01-18T12:47:06.000Z</time>
      </trkpt>
      <trkpt lat="43.96405" lon="7.29386">
        <ele>708.5</ele>
        <time>2025-01-18T12:47:12.000Z</time>
      </trkpt>
      <trkpt lat="43.96404" lon="7.29386">
        <ele>708.5</ele>
        <time>2025-01-18T12:47:13.000Z</time>
      </trkpt>
      <trkpt lat="43.96404" lon="7.29386">
        <ele>708.5</ele>
        <time>2025-01-18T12:47:14.000Z</time>
      </trkpt>
      <trkpt lat="43.96404" lon="7.29385">
        <ele>708.5</ele>
        <time>2025-01-18T12:47:15.000Z</time>
      </trkpt>
      <trkpt lat="43.96409" lon="7.29386">
        <ele>708.4</ele>
        <time>2025-01-18T12:47:20.000Z</time>
      </trkpt>
      <trkpt lat="43.96413" lon="7.2939">
        <ele>708.4</ele>
        <time>2025-01-18T12:47:23.000Z</time>
      </trkpt>
      <trkpt lat="43.96415" lon="7.29389">
        <ele>708.3</ele>
        <time>2025-01-18T12:47:29.000Z</time>
      </trkpt>
      <trkpt lat="43.96414" lon="7.29389">
        <ele>708.3</ele>
        <time>2025-01-18T12:47:30.000Z</time>
      </trkpt>
      <trkpt lat="43.96414" lon="7.29389">
        <ele>708.2</ele>
        <time>2025-01-18T12:47:31.000Z</time>
      </trkpt>
      <trkpt lat="43.96413" lon="7.29388">
        <ele>708.1</ele>
        <time>2025-01-18T12:47:37.000Z</time>
      </trkpt>
      <trkpt lat="43.96411" lon="7.29388">
        <ele>708</ele>
        <time>2025-01-18T12:47:42.000Z</time>
      </trkpt>
      <trkpt lat="43.9641" lon="7.29389">
        <ele>708</ele>
        <time>2025-01-18T12:47:43.000Z</time>
      </trkpt>
      <trkpt lat="43.9641" lon="7.2939">
        <ele>708</ele>
        <time>2025-01-18T12:47:44.000Z</time>
      </trkpt>
      <trkpt lat="43.96409" lon="7.29391">
        <ele>708</ele>
        <time>2025-01-18T12:47:48.000Z</time>
      </trkpt>
      <trkpt lat="43.96409" lon="7.29391">
        <ele>707.9</ele>
        <time>2025-01-18T12:47:49.000Z</time>
      </trkpt>
      <trkpt lat="43.96408" lon="7.29391">
        <ele>707.9</ele>
        <time>2025-01-18T12:47:50.000Z</time>
      </trkpt>
      <trkpt lat="43.96409" lon="7.29391">
        <ele>707.9</ele>
        <time>2025-01-18T12:47:51.000Z</time>
      </trkpt>
      <trkpt lat="43.96406" lon="7.29392">
        <ele>707.6</ele>
        <time>2025-01-18T12:48:08.000Z</time>
      </trkpt>
      <trkpt lat="43.96407" lon="7.29391">
        <ele>707.6</ele>
        <time>2025-01-18T12:48:12.000Z</time>
      </trkpt>
      <trkpt lat="43.96407" lon="7.29389">
        <ele>707.6</ele>
        <time>2025-01-18T12:48:13.000Z</time>
      </trkpt>
      <trkpt lat="43.9641" lon="7.29384">
        <ele>707.7</ele>
        <time>2025-01-18T12:48:22.000Z</time>
      </trkpt>
      <trkpt lat="43.96411" lon="7.29387">
        <ele>707.7</ele>
        <time>2025-01-18T12:48:27.000Z</time>
      </trkpt>
      <trkpt lat="43.96411" lon="7.29388">
        <ele>707.7</ele>
        <time>2025-01-18T12:48:28.000Z</time>
      </trkpt>
      <trkpt lat="43.96411" lon="7.29388">
        <ele>707.6</ele>
        <time>2025-01-18T12:48:29.000Z</time>
      </trkpt>
      <trkpt lat="43.96412" lon="7.29389">
        <ele>707.6</ele>
        <time>2025-01-18T12:48:30.000Z</time>
      </trkpt>
      <trkpt lat="43.96407" lon="7.29387">
        <ele>707.4</ele>
        <time>2025-01-18T12:48:41.000Z</time>
      </trkpt>
      <trkpt lat="43.96402" lon="7.2939">
        <ele>706.8</ele>
        <time>2025-01-18T12:48:44.000Z</time>
      </trkpt>
      <trkpt lat="43.96399" lon="7.29392">
        <ele>704.9</ele>
        <time>2025-01-18T12:48:49.000Z</time>
      </trkpt>
      <trkpt lat="43.96398" lon="7.2939">
        <ele>704.5</ele>
        <time>2025-01-18T12:48:50.000Z</time>
      </trkpt>
      <trkpt lat="43.96397" lon="7.29391">
        <ele>704.2</ele>
        <time>2025-01-18T12:48:51.000Z</time>
      </trkpt>
      <trkpt lat="43.96396" lon="7.29391">
        <ele>703.9</ele>
        <time>2025-01-18T12:48:52.000Z</time>
      </trkpt>
      <trkpt lat="43.96396" lon="7.2939">
        <ele>703.6</ele>
        <time>2025-01-18T12:48:53.000Z</time>
      </trkpt>
      <trkpt lat="43.96393" lon="7.29386">
        <ele>702.8</ele>
        <time>2025-01-18T12:48:57.000Z</time>
      </trkpt>
      <trkpt lat="43.96387" lon="7.2939">
        <ele>702.2</ele>
        <time>2025-01-18T12:49:00.000Z</time>
      </trkpt>
      <trkpt lat="43.96383" lon="7.29395">
        <ele>701.6</ele>
        <time>2025-01-18T12:49:03.000Z</time>
      </trkpt>
      <trkpt lat="43.96381" lon="7.29399">
        <ele>701</ele>
        <time>2025-01-18T12:49:09.000Z</time>
      </trkpt>
      <trkpt lat="43.96381" lon="7.294">
        <ele>700.9</ele>
        <time>2025-01-18T12:49:10.000Z</time>
      </trkpt>
      <trkpt lat="43.96381" lon="7.29401">
        <ele>700.9</ele>
        <time>2025-01-18T12:49:11.000Z</time>
      </trkpt>
      <trkpt lat="43.96378" lon="7.29406">
        <ele>700.8</ele>
        <time>2025-01-18T12:49:14.000Z</time>
      </trkpt>
      <trkpt lat="43.96378" lon="7.29407">
        <ele>700.8</ele>
        <time>2025-01-18T12:49:15.000Z</time>
      </trkpt>
      <trkpt lat="43.96378" lon="7.29409">
        <ele>700.7</ele>
        <time>2025-01-18T12:49:16.000Z</time>
      </trkpt>
      <trkpt lat="43.96377" lon="7.2941">
        <ele>700.6</ele>
        <time>2025-01-18T12:49:17.000Z</time>
      </trkpt>
      <trkpt lat="43.96373" lon="7.29413">
        <ele>699.8</ele>
        <time>2025-01-18T12:49:20.000Z</time>
      </trkpt>
      <trkpt lat="43.96367" lon="7.29414">
        <ele>698.5</ele>
        <time>2025-01-18T12:49:23.000Z</time>
      </trkpt>
      <trkpt lat="43.96361" lon="7.29412">
        <ele>697.1</ele>
        <time>2025-01-18T12:49:26.000Z</time>
      </trkpt>
      <trkpt lat="43.96355" lon="7.29414">
        <ele>696.4</ele>
        <time>2025-01-18T12:49:28.000Z</time>
      </trkpt>
      <trkpt lat="43.96348" lon="7.29417">
        <ele>696.1</ele>
        <time>2025-01-18T12:49:30.000Z</time>
      </trkpt>
      <trkpt lat="43.96342" lon="7.29423">
        <ele>695.8</ele>
        <time>2025-01-18T12:49:32.000Z</time>
      </trkpt>
      <trkpt lat="43.96338" lon="7.29426">
        <ele>695.6</ele>
        <time>2025-01-18T12:49:34.000Z</time>
      </trkpt>
      <trkpt lat="43.96333" lon="7.29428">
        <ele>695.3</ele>
        <time>2025-01-18T12:49:37.000Z</time>
      </trkpt>
      <trkpt lat="43.96328" lon="7.29432">
        <ele>695.2</ele>
        <time>2025-01-18T12:49:39.000Z</time>
      </trkpt>
      <trkpt lat="43.96324" lon="7.29438">
        <ele>694.9</ele>
        <time>2025-01-18T12:49:42.000Z</time>
      </trkpt>
      <trkpt lat="43.9632" lon="7.29442">
        <ele>694.8</ele>
        <time>2025-01-18T12:49:44.000Z</time>
      </trkpt>
      <trkpt lat="43.96316" lon="7.29446">
        <ele>694.8</ele>
        <time>2025-01-18T12:49:46.000Z</time>
      </trkpt>
      <trkpt lat="43.96312" lon="7.2945">
        <ele>694.7</ele>
        <time>2025-01-18T12:49:49.000Z</time>
      </trkpt>
      <trkpt lat="43.96308" lon="7.29454">
        <ele>694.5</ele>
        <time>2025-01-18T12:49:54.000Z</time>
      </trkpt>
      <trkpt lat="43.96307" lon="7.29454">
        <ele>694.4</ele>
        <time>2025-01-18T12:49:55.000Z</time>
      </trkpt>
      <trkpt lat="43.96308" lon="7.29454">
        <ele>694.4</ele>
        <time>2025-01-18T12:49:56.000Z</time>
      </trkpt>
      <trkpt lat="43.96305" lon="7.29453">
        <ele>694.3</ele>
        <time>2025-01-18T12:50:18.000Z</time>
      </trkpt>
      <trkpt lat="43.96305" lon="7.29453">
        <ele>694.3</ele>
        <time>2025-01-18T12:50:19.000Z</time>
      </trkpt>
      <trkpt lat="43.96304" lon="7.29452">
        <ele>694.3</ele>
        <time>2025-01-18T12:50:27.000Z</time>
      </trkpt>
      <trkpt lat="43.96304" lon="7.29452">
        <ele>694.2</ele>
        <time>2025-01-18T12:50:28.000Z</time>
      </trkpt>
      <trkpt lat="43.96304" lon="7.29452">
        <ele>694.3</ele>
        <time>2025-01-18T12:50:39.000Z</time>
      </trkpt>
      <trkpt lat="43.96303" lon="7.29453">
        <ele>694.3</ele>
        <time>2025-01-18T12:50:40.000Z</time>
      </trkpt>
      <trkpt lat="43.96299" lon="7.29454">
        <ele>694.4</ele>
        <time>2025-01-18T12:50:44.000Z</time>
      </trkpt>
      <trkpt lat="43.96295" lon="7.29459">
        <ele>694.3</ele>
        <time>2025-01-18T12:50:50.000Z</time>
      </trkpt>
      <trkpt lat="43.96293" lon="7.29466">
        <ele>694.1</ele>
        <time>2025-01-18T12:50:56.000Z</time>
      </trkpt>
      <trkpt lat="43.96291" lon="7.29471">
        <ele>693.4</ele>
        <time>2025-01-18T12:51:02.000Z</time>
      </trkpt>
      <trkpt lat="43.96292" lon="7.29478">
        <ele>691.1</ele>
        <time>2025-01-18T12:51:13.000Z</time>
      </trkpt>
      <trkpt lat="43.96289" lon="7.29483">
        <ele>688.9</ele>
        <time>2025-01-18T12:51:25.000Z</time>
      </trkpt>
      <trkpt lat="43.96285" lon="7.29487">
        <ele>688.3</ele>
        <time>2025-01-18T12:51:30.000Z</time>
      </trkpt>
      <trkpt lat="43.96282" lon="7.29482">
        <ele>688.1</ele>
        <time>2025-01-18T12:51:44.000Z</time>
      </trkpt>
      <trkpt lat="43.9628" lon="7.2948">
        <ele>688.1</ele>
        <time>2025-01-18T12:51:50.000Z</time>
      </trkpt>
      <trkpt lat="43.9628" lon="7.2948">
        <ele>688.1</ele>
        <time>2025-01-18T12:51:51.000Z</time>
      </trkpt>
      <trkpt lat="43.9628" lon="7.2948">
        <ele>688.2</ele>
        <time>2025-01-18T12:51:52.000Z</time>
      </trkpt>
      <trkpt lat="43.96279" lon="7.29481">
        <ele>688.2</ele>
        <time>2025-01-18T12:51:55.000Z</time>
      </trkpt>
      <trkpt lat="43.96279" lon="7.29481">
        <ele>688.3</ele>
        <time>2025-01-18T12:51:56.000Z</time>
      </trkpt>
      <trkpt lat="43.96279" lon="7.29481">
        <ele>688.3</ele>
        <time>2025-01-18T12:51:57.000Z</time>
      </trkpt>
      <trkpt lat="43.96279" lon="7.29481">
        <ele>688.3</ele>
        <time>2025-01-18T12:51:58.000Z</time>
      </trkpt>
      <trkpt lat="43.96279" lon="7.29481">
        <ele>688.3</ele>
        <time>2025-01-18T12:51:59.000Z</time>
      </trkpt>
      <trkpt lat="43.96278" lon="7.29481">
        <ele>688.4</ele>
        <time>2025-01-18T12:52:03.000Z</time>
      </trkpt>
      <trkpt lat="43.96277" lon="7.29482">
        <ele>688.4</ele>
        <time>2025-01-18T12:52:04.000Z</time>
      </trkpt>
      <trkpt lat="43.96273" lon="7.29483">
        <ele>688.9</ele>
        <time>2025-01-18T12:52:12.000Z</time>
      </trkpt>
      <trkpt lat="43.96267" lon="7.29485">
        <ele>688.9</ele>
        <time>2025-01-18T12:52:15.000Z</time>
      </trkpt>
      <trkpt lat="43.96263" lon="7.29487">
        <ele>689</ele>
        <time>2025-01-18T12:52:17.000Z</time>
      </trkpt>
      <trkpt lat="43.96258" lon="7.29493">
        <ele>689.2</ele>
        <time>2025-01-18T12:52:20.000Z</time>
      </trkpt>
      <trkpt lat="43.96255" lon="7.29498">
        <ele>689.5</ele>
        <time>2025-01-18T12:52:23.000Z</time>
      </trkpt>
      <trkpt lat="43.96253" lon="7.29504">
        <ele>689.9</ele>
        <time>2025-01-18T12:52:26.000Z</time>
      </trkpt>
      <trkpt lat="43.96252" lon="7.29512">
        <ele>690.6</ele>
        <time>2025-01-18T12:52:30.000Z</time>
      </trkpt>
      <trkpt lat="43.96251" lon="7.29518">
        <ele>691.7</ele>
        <time>2025-01-18T12:52:35.000Z</time>
      </trkpt>
      <trkpt lat="43.96249" lon="7.29524">
        <ele>692.5</ele>
        <time>2025-01-18T12:52:38.000Z</time>
      </trkpt>
      <trkpt lat="43.96247" lon="7.29526">
        <ele>694.5</ele>
        <time>2025-01-18T12:52:50.000Z</time>
      </trkpt>
      <trkpt lat="43.96247" lon="7.29526">
        <ele>694.6</ele>
        <time>2025-01-18T12:52:51.000Z</time>
      </trkpt>
      <trkpt lat="43.96246" lon="7.29526">
        <ele>694.6</ele>
        <time>2025-01-18T12:52:52.000Z</time>
      </trkpt>
      <trkpt lat="43.96245" lon="7.29533">
        <ele>694.8</ele>
        <time>2025-01-18T12:52:57.000Z</time>
      </trkpt>
      <trkpt lat="43.96243" lon="7.2954">
        <ele>695.3</ele>
        <time>2025-01-18T12:53:07.000Z</time>
      </trkpt>
      <trkpt lat="43.96242" lon="7.2955">
        <ele>695.2</ele>
        <time>2025-01-18T12:53:11.000Z</time>
      </trkpt>
      <trkpt lat="43.9624" lon="7.29557">
        <ele>695.2</ele>
        <time>2025-01-18T12:53:14.000Z</time>
      </trkpt>
      <trkpt lat="43.96238" lon="7.29561">
        <ele>694.9</ele>
        <time>2025-01-18T12:53:22.000Z</time>
      </trkpt>
      <trkpt lat="43.96238" lon="7.2956">
        <ele>694.9</ele>
        <time>2025-01-18T12:53:23.000Z</time>
      </trkpt>
      <trkpt lat="43.96238" lon="7.2956">
        <ele>694.9</ele>
        <time>2025-01-18T12:53:24.000Z</time>
      </trkpt>
      <trkpt lat="43.96238" lon="7.2956">
        <ele>694.8</ele>
        <time>2025-01-18T12:53:25.000Z</time>
      </trkpt>
      <trkpt lat="43.96237" lon="7.29559">
        <ele>694.8</ele>
        <time>2025-01-18T12:53:26.000Z</time>
      </trkpt>
      <trkpt lat="43.96237" lon="7.29559">
        <ele>694.8</ele>
        <time>2025-01-18T12:53:27.000Z</time>
      </trkpt>
      <trkpt lat="43.96237" lon="7.29559">
        <ele>694.8</ele>
        <time>2025-01-18T12:53:28.000Z</time>
      </trkpt>
      <trkpt lat="43.96238" lon="7.29559">
        <ele>694.7</ele>
        <time>2025-01-18T12:53:37.000Z</time>
      </trkpt>
      <trkpt lat="43.96239" lon="7.29559">
        <ele>694.7</ele>
        <time>2025-01-18T12:53:38.000Z</time>
      </trkpt>
      <trkpt lat="43.96238" lon="7.29559">
        <ele>694.7</ele>
        <time>2025-01-18T12:53:39.000Z</time>
      </trkpt>
      <trkpt lat="43.96236" lon="7.29561">
        <ele>694.7</ele>
        <time>2025-01-18T12:53:43.000Z</time>
      </trkpt>
      <trkpt lat="43.96236" lon="7.29561">
        <ele>694.7</ele>
        <time>2025-01-18T12:53:44.000Z</time>
      </trkpt>
      <trkpt lat="43.96233" lon="7.29563">
        <ele>694.8</ele>
        <time>2025-01-18T12:54:00.000Z</time>
      </trkpt>
      <trkpt lat="43.96229" lon="7.29563">
        <ele>695</ele>
        <time>2025-01-18T12:54:19.000Z</time>
      </trkpt>
      <trkpt lat="43.96229" lon="7.29562">
        <ele>695</ele>
        <time>2025-01-18T12:54:20.000Z</time>
      </trkpt>
      <trkpt lat="43.9623" lon="7.29563">
        <ele>695</ele>
        <time>2025-01-18T12:54:21.000Z</time>
      </trkpt>
      <trkpt lat="43.9623" lon="7.29563">
        <ele>695</ele>
        <time>2025-01-18T12:54:22.000Z</time>
      </trkpt>
      <trkpt lat="43.9623" lon="7.29563">
        <ele>695</ele>
        <time>2025-01-18T12:54:23.000Z</time>
      </trkpt>
      <trkpt lat="43.96231" lon="7.29563">
        <ele>695.1</ele>
        <time>2025-01-18T12:54:24.000Z</time>
      </trkpt>
      <trkpt lat="43.96231" lon="7.29563">
        <ele>695</ele>
        <time>2025-01-18T12:54:27.000Z</time>
      </trkpt>
      <trkpt lat="43.96231" lon="7.29563">
        <ele>695</ele>
        <time>2025-01-18T12:54:28.000Z</time>
      </trkpt>
      <trkpt lat="43.96231" lon="7.29563">
        <ele>695</ele>
        <time>2025-01-18T12:54:29.000Z</time>
      </trkpt>
      <trkpt lat="43.9623" lon="7.29564">
        <ele>695</ele>
        <time>2025-01-18T12:55:28.000Z</time>
      </trkpt>
      <trkpt lat="43.96231" lon="7.29564">
        <ele>695</ele>
        <time>2025-01-18T12:55:29.000Z</time>
      </trkpt>
      <trkpt lat="43.96228" lon="7.29571">
        <ele>695.2</ele>
        <time>2025-01-18T12:55:39.000Z</time>
      </trkpt>
      <trkpt lat="43.96224" lon="7.29575">
        <ele>695.2</ele>
        <time>2025-01-18T12:55:42.000Z</time>
      </trkpt>
      <trkpt lat="43.96219" lon="7.29578">
        <ele>695.3</ele>
        <time>2025-01-18T12:55:44.000Z</time>
      </trkpt>
      <trkpt lat="43.96215" lon="7.29581">
        <ele>695.3</ele>
        <time>2025-01-18T12:55:46.000Z</time>
      </trkpt>
      <trkpt lat="43.96211" lon="7.29583">
        <ele>695.3</ele>
        <time>2025-01-18T12:55:48.000Z</time>
      </trkpt>
      <trkpt lat="43.96205" lon="7.29584">
        <ele>695.4</ele>
        <time>2025-01-18T12:55:51.000Z</time>
      </trkpt>
      <trkpt lat="43.962" lon="7.29585">
        <ele>695.4</ele>
        <time>2025-01-18T12:55:53.000Z</time>
      </trkpt>
      <trkpt lat="43.96195" lon="7.29587">
        <ele>695.5</ele>
        <time>2025-01-18T12:55:55.000Z</time>
      </trkpt>
      <trkpt lat="43.96191" lon="7.29591">
        <ele>695.5</ele>
        <time>2025-01-18T12:55:57.000Z</time>
      </trkpt>
      <trkpt lat="43.96186" lon="7.29594">
        <ele>695.5</ele>
        <time>2025-01-18T12:55:59.000Z</time>
      </trkpt>
      <trkpt lat="43.96181" lon="7.29597">
        <ele>695.5</ele>
        <time>2025-01-18T12:56:01.000Z</time>
      </trkpt>
      <trkpt lat="43.96174" lon="7.29599">
        <ele>695.5</ele>
        <time>2025-01-18T12:56:04.000Z</time>
      </trkpt>
      <trkpt lat="43.9617" lon="7.29596">
        <ele>695.5</ele>
        <time>2025-01-18T12:56:07.000Z</time>
      </trkpt>
      <trkpt lat="43.96167" lon="7.2959">
        <ele>695.4</ele>
        <time>2025-01-18T12:56:09.000Z</time>
      </trkpt>
      <trkpt lat="43.96161" lon="7.29584">
        <ele>695.4</ele>
        <time>2025-01-18T12:56:11.000Z</time>
      </trkpt>
      <trkpt lat="43.96155" lon="7.29578">
        <ele>695.4</ele>
        <time>2025-01-18T12:56:13.000Z</time>
      </trkpt>
      <trkpt lat="43.96151" lon="7.29571">
        <ele>695.3</ele>
        <time>2025-01-18T12:56:15.000Z</time>
      </trkpt>
      <trkpt lat="43.96147" lon="7.29565">
        <ele>695.3</ele>
        <time>2025-01-18T12:56:17.000Z</time>
      </trkpt>
      <trkpt lat="43.96141" lon="7.29559">
        <ele>695.2</ele>
        <time>2025-01-18T12:56:19.000Z</time>
      </trkpt>
      <trkpt lat="43.96134" lon="7.29555">
        <ele>695.1</ele>
        <time>2025-01-18T12:56:21.000Z</time>
      </trkpt>
      <trkpt lat="43.96128" lon="7.29551">
        <ele>694.9</ele>
        <time>2025-01-18T12:56:23.000Z</time>
      </trkpt>
      <trkpt lat="43.96122" lon="7.29549">
        <ele>694.6</ele>
        <time>2025-01-18T12:56:25.000Z</time>
      </trkpt>
      <trkpt lat="43.96115" lon="7.29547">
        <ele>694.1</ele>
        <time>2025-01-18T12:56:27.000Z</time>
      </trkpt>
      <trkpt lat="43.96109" lon="7.29544">
        <ele>693.5</ele>
        <time>2025-01-18T12:56:29.000Z</time>
      </trkpt>
      <trkpt lat="43.96105" lon="7.29539">
        <ele>692.5</ele>
        <time>2025-01-18T12:56:31.000Z</time>
      </trkpt>
      <trkpt lat="43.961" lon="7.29534">
        <ele>691.2</ele>
        <time>2025-01-18T12:56:33.000Z</time>
      </trkpt>
      <trkpt lat="43.96096" lon="7.2953">
        <ele>689.8</ele>
        <time>2025-01-18T12:56:35.000Z</time>
      </trkpt>
      <trkpt lat="43.96091" lon="7.29529">
        <ele>688.3</ele>
        <time>2025-01-18T12:56:38.000Z</time>
      </trkpt>
      <trkpt lat="43.96088" lon="7.29527">
        <ele>686.9</ele>
        <time>2025-01-18T12:56:45.000Z</time>
      </trkpt>
      <trkpt lat="43.96088" lon="7.29527">
        <ele>686.8</ele>
        <time>2025-01-18T12:56:46.000Z</time>
      </trkpt>
      <trkpt lat="43.96088" lon="7.29527">
        <ele>686.7</ele>
        <time>2025-01-18T12:56:47.000Z</time>
      </trkpt>
      <trkpt lat="43.96088" lon="7.29526">
        <ele>686.6</ele>
        <time>2025-01-18T12:57:06.000Z</time>
      </trkpt>
      <trkpt lat="43.96088" lon="7.29527">
        <ele>686.6</ele>
        <time>2025-01-18T12:57:07.000Z</time>
      </trkpt>
      <trkpt lat="43.96087" lon="7.29527">
        <ele>686.6</ele>
        <time>2025-01-18T12:57:08.000Z</time>
      </trkpt>
      <trkpt lat="43.96081" lon="7.2953">
        <ele>686.5</ele>
        <time>2025-01-18T12:57:11.000Z</time>
      </trkpt>
      <trkpt lat="43.96076" lon="7.29529">
        <ele>686.3</ele>
        <time>2025-01-18T12:57:13.000Z</time>
      </trkpt>
      <trkpt lat="43.96071" lon="7.29524">
        <ele>686</ele>
        <time>2025-01-18T12:57:15.000Z</time>
      </trkpt>
      <trkpt lat="43.9607" lon="7.29517">
        <ele>685.4</ele>
        <time>2025-01-18T12:57:17.000Z</time>
      </trkpt>
      <trkpt lat="43.96071" lon="7.29509">
        <ele>683.6</ele>
        <time>2025-01-18T12:57:20.000Z</time>
      </trkpt>
      <trkpt lat="43.9607" lon="7.29502">
        <ele>681.5</ele>
        <time>2025-01-18T12:57:24.000Z</time>
      </trkpt>
      <trkpt lat="43.9607" lon="7.295">
        <ele>680.4</ele>
        <time>2025-01-18T12:57:30.000Z</time>
      </trkpt>
      <trkpt lat="43.9607" lon="7.295">
        <ele>680.3</ele>
        <time>2025-01-18T12:57:31.000Z</time>
      </trkpt>
      <trkpt lat="43.96069" lon="7.29503">
        <ele>680.1</ele>
        <time>2025-01-18T12:57:48.000Z</time>
      </trkpt>
      <trkpt lat="43.96068" lon="7.29503">
        <ele>680</ele>
        <time>2025-01-18T12:57:49.000Z</time>
      </trkpt>
      <trkpt lat="43.96068" lon="7.29503">
        <ele>680</ele>
        <time>2025-01-18T12:57:50.000Z</time>
      </trkpt>
      <trkpt lat="43.96068" lon="7.29503">
        <ele>680.1</ele>
        <time>2025-01-18T12:57:51.000Z</time>
      </trkpt>
      <trkpt lat="43.96068" lon="7.29503">
        <ele>680.3</ele>
        <time>2025-01-18T12:57:52.000Z</time>
      </trkpt>
      <trkpt lat="43.96066" lon="7.29504">
        <ele>680.1</ele>
        <time>2025-01-18T12:58:02.000Z</time>
      </trkpt>
      <trkpt lat="43.96063" lon="7.29509">
        <ele>680</ele>
        <time>2025-01-18T12:58:05.000Z</time>
      </trkpt>
      <trkpt lat="43.9606" lon="7.29516">
        <ele>679.7</ele>
        <time>2025-01-18T12:58:07.000Z</time>
      </trkpt>
      <trkpt lat="43.96057" lon="7.29522">
        <ele>679.3</ele>
        <time>2025-01-18T12:58:09.000Z</time>
      </trkpt>
      <trkpt lat="43.96054" lon="7.29527">
        <ele>678.4</ele>
        <time>2025-01-18T12:58:12.000Z</time>
      </trkpt>
      <trkpt lat="43.96048" lon="7.29528">
        <ele>676.4</ele>
        <time>2025-01-18T12:58:17.000Z</time>
      </trkpt>
      <trkpt lat="43.96042" lon="7.29526">
        <ele>675.1</ele>
        <time>2025-01-18T12:58:20.000Z</time>
      </trkpt>
      <trkpt lat="43.96036" lon="7.29525">
        <ele>674</ele>
        <time>2025-01-18T12:58:22.000Z</time>
      </trkpt>
      <trkpt lat="43.96031" lon="7.29524">
        <ele>672.5</ele>
        <time>2025-01-18T12:58:24.000Z</time>
      </trkpt>
      <trkpt lat="43.96025" lon="7.29522">
        <ele>671.2</ele>
        <time>2025-01-18T12:58:26.000Z</time>
      </trkpt>
      <trkpt lat="43.9602" lon="7.29521">
        <ele>670</ele>
        <time>2025-01-18T12:58:28.000Z</time>
      </trkpt>
      <trkpt lat="43.96014" lon="7.2952">
        <ele>668.6</ele>
        <time>2025-01-18T12:58:30.000Z</time>
      </trkpt>
      <trkpt lat="43.96008" lon="7.29518">
        <ele>667.3</ele>
        <time>2025-01-18T12:58:32.000Z</time>
      </trkpt>
      <trkpt lat="43.96002" lon="7.29515">
        <ele>666.3</ele>
        <time>2025-01-18T12:58:34.000Z</time>
      </trkpt>
      <trkpt lat="43.95997" lon="7.29513">
        <ele>665.4</ele>
        <time>2025-01-18T12:58:36.000Z</time>
      </trkpt>
      <trkpt lat="43.95989" lon="7.29514">
        <ele>663.5</ele>
        <time>2025-01-18T12:58:39.000Z</time>
      </trkpt>
      <trkpt lat="43.95984" lon="7.29515">
        <ele>662.2</ele>
        <time>2025-01-18T12:58:41.000Z</time>
      </trkpt>
      <trkpt lat="43.95979" lon="7.29514">
        <ele>661.1</ele>
        <time>2025-01-18T12:58:43.000Z</time>
      </trkpt>
      <trkpt lat="43.95973" lon="7.29511">
        <ele>660</ele>
        <time>2025-01-18T12:58:46.000Z</time>
      </trkpt>
      <trkpt lat="43.95969" lon="7.29508">
        <ele>659.1</ele>
        <time>2025-01-18T12:58:48.000Z</time>
      </trkpt>
      <trkpt lat="43.95964" lon="7.29503">
        <ele>658.4</ele>
        <time>2025-01-18T12:58:51.000Z</time>
      </trkpt>
      <trkpt lat="43.95959" lon="7.29499">
        <ele>657.7</ele>
        <time>2025-01-18T12:58:54.000Z</time>
      </trkpt>
      <trkpt lat="43.95953" lon="7.29498">
        <ele>656.6</ele>
        <time>2025-01-18T12:58:57.000Z</time>
      </trkpt>
      <trkpt lat="43.95948" lon="7.29497">
        <ele>655.1</ele>
        <time>2025-01-18T12:59:00.000Z</time>
      </trkpt>
      <trkpt lat="43.95942" lon="7.29498">
        <ele>653.2</ele>
        <time>2025-01-18T12:59:04.000Z</time>
      </trkpt>
      <trkpt lat="43.95935" lon="7.29497">
        <ele>652</ele>
        <time>2025-01-18T12:59:07.000Z</time>
      </trkpt>
      <trkpt lat="43.9593" lon="7.29496">
        <ele>651.5</ele>
        <time>2025-01-18T12:59:09.000Z</time>
      </trkpt>
      <trkpt lat="43.95924" lon="7.29496">
        <ele>650.9</ele>
        <time>2025-01-18T12:59:11.000Z</time>
      </trkpt>
      <trkpt lat="43.95915" lon="7.29497">
        <ele>650.1</ele>
        <time>2025-01-18T12:59:13.000Z</time>
      </trkpt>
      <trkpt lat="43.95907" lon="7.29501">
        <ele>649.5</ele>
        <time>2025-01-18T12:59:15.000Z</time>
      </trkpt>
      <trkpt lat="43.95901" lon="7.29505">
        <ele>649.1</ele>
        <time>2025-01-18T12:59:17.000Z</time>
      </trkpt>
      <trkpt lat="43.95897" lon="7.29504">
        <ele>648.2</ele>
        <time>2025-01-18T12:59:19.000Z</time>
      </trkpt>
      <trkpt lat="43.95891" lon="7.29505">
        <ele>647.1</ele>
        <time>2025-01-18T12:59:22.000Z</time>
      </trkpt>
      <trkpt lat="43.95887" lon="7.29509">
        <ele>646.6</ele>
        <time>2025-01-18T12:59:24.000Z</time>
      </trkpt>
      <trkpt lat="43.95881" lon="7.29511">
        <ele>646.2</ele>
        <time>2025-01-18T12:59:26.000Z</time>
      </trkpt>
      <trkpt lat="43.95876" lon="7.29513">
        <ele>645.2</ele>
        <time>2025-01-18T12:59:28.000Z</time>
      </trkpt>
      <trkpt lat="43.95872" lon="7.29517">
        <ele>644.1</ele>
        <time>2025-01-18T12:59:30.000Z</time>
      </trkpt>
      <trkpt lat="43.95868" lon="7.29523">
        <ele>643.1</ele>
        <time>2025-01-18T12:59:32.000Z</time>
      </trkpt>
      <trkpt lat="43.95863" lon="7.2953">
        <ele>642.1</ele>
        <time>2025-01-18T12:59:34.000Z</time>
      </trkpt>
      <trkpt lat="43.9586" lon="7.29536">
        <ele>641.2</ele>
        <time>2025-01-18T12:59:36.000Z</time>
      </trkpt>
      <trkpt lat="43.95858" lon="7.29543">
        <ele>640.5</ele>
        <time>2025-01-18T12:59:40.000Z</time>
      </trkpt>
      <trkpt lat="43.95853" lon="7.29547">
        <ele>639.8</ele>
        <time>2025-01-18T12:59:43.000Z</time>
      </trkpt>
      <trkpt lat="43.95848" lon="7.29547">
        <ele>638.9</ele>
        <time>2025-01-18T12:59:47.000Z</time>
      </trkpt>
      <trkpt lat="43.95844" lon="7.29542">
        <ele>638.2</ele>
        <time>2025-01-18T12:59:50.000Z</time>
      </trkpt>
      <trkpt lat="43.95839" lon="7.29541">
        <ele>637.2</ele>
        <time>2025-01-18T12:59:53.000Z</time>
      </trkpt>
      <trkpt lat="43.95833" lon="7.29546">
        <ele>635.3</ele>
        <time>2025-01-18T12:59:56.000Z</time>
      </trkpt>
      <trkpt lat="43.95827" lon="7.29546">
        <ele>633.7</ele>
        <time>2025-01-18T12:59:59.000Z</time>
      </trkpt>
      <trkpt lat="43.95822" lon="7.29546">
        <ele>633</ele>
        <time>2025-01-18T13:00:01.000Z</time>
      </trkpt>
      <trkpt lat="43.95817" lon="7.29549">
        <ele>631.9</ele>
        <time>2025-01-18T13:00:03.000Z</time>
      </trkpt>
      <trkpt lat="43.95814" lon="7.29554">
        <ele>630.6</ele>
        <time>2025-01-18T13:00:06.000Z</time>
      </trkpt>
      <trkpt lat="43.95809" lon="7.29555">
        <ele>628.8</ele>
        <time>2025-01-18T13:00:10.000Z</time>
      </trkpt>
      <trkpt lat="43.95806" lon="7.29555">
        <ele>627.4</ele>
        <time>2025-01-18T13:00:15.000Z</time>
      </trkpt>
      <trkpt lat="43.95805" lon="7.29555">
        <ele>627.2</ele>
        <time>2025-01-18T13:00:16.000Z</time>
      </trkpt>
      <trkpt lat="43.958" lon="7.29554">
        <ele>626.8</ele>
        <time>2025-01-18T13:00:20.000Z</time>
      </trkpt>
      <trkpt lat="43.95798" lon="7.29554">
        <ele>626.5</ele>
        <time>2025-01-18T13:00:22.000Z</time>
      </trkpt>
      <trkpt lat="43.95798" lon="7.29553">
        <ele>626.5</ele>
        <time>2025-01-18T13:00:23.000Z</time>
      </trkpt>
      <trkpt lat="43.95797" lon="7.29554">
        <ele>626.5</ele>
        <time>2025-01-18T13:00:24.000Z</time>
      </trkpt>
      <trkpt lat="43.95796" lon="7.29553">
        <ele>626.6</ele>
        <time>2025-01-18T13:00:25.000Z</time>
      </trkpt>
      <trkpt lat="43.95796" lon="7.29553">
        <ele>626.5</ele>
        <time>2025-01-18T13:00:26.000Z</time>
      </trkpt>
      <trkpt lat="43.95793" lon="7.29551">
        <ele>626.9</ele>
        <time>2025-01-18T13:00:32.000Z</time>
      </trkpt>
      <trkpt lat="43.95792" lon="7.2955">
        <ele>626.9</ele>
        <time>2025-01-18T13:00:33.000Z</time>
      </trkpt>
      <trkpt lat="43.95795" lon="7.29543">
        <ele>626.7</ele>
        <time>2025-01-18T13:00:39.000Z</time>
      </trkpt>
      <trkpt lat="43.958" lon="7.29541">
        <ele>626.7</ele>
        <time>2025-01-18T13:00:42.000Z</time>
      </trkpt>
      <trkpt lat="43.95806" lon="7.2954">
        <ele>626.7</ele>
        <time>2025-01-18T13:00:44.000Z</time>
      </trkpt>
      <trkpt lat="43.95809" lon="7.29535">
        <ele>626.8</ele>
        <time>2025-01-18T13:00:47.000Z</time>
      </trkpt>
      <trkpt lat="43.95811" lon="7.29527">
        <ele>626.8</ele>
        <time>2025-01-18T13:00:50.000Z</time>
      </trkpt>
      <trkpt lat="43.95814" lon="7.29521">
        <ele>626.9</ele>
        <time>2025-01-18T13:00:53.000Z</time>
      </trkpt>
      <trkpt lat="43.95814" lon="7.29513">
        <ele>627.1</ele>
        <time>2025-01-18T13:00:57.000Z</time>
      </trkpt>
      <trkpt lat="43.95816" lon="7.29511">
        <ele>627.2</ele>
        <time>2025-01-18T13:01:00.000Z</time>
      </trkpt>
      <trkpt lat="43.95817" lon="7.29511">
        <ele>627.2</ele>
        <time>2025-01-18T13:01:01.000Z</time>
      </trkpt>
      <trkpt lat="43.9582" lon="7.29505">
        <ele>627.3</ele>
        <time>2025-01-18T13:01:05.000Z</time>
      </trkpt>
      <trkpt lat="43.95826" lon="7.29503">
        <ele>627.3</ele>
        <time>2025-01-18T13:01:09.000Z</time>
      </trkpt>
      <trkpt lat="43.95825" lon="7.295">
        <ele>627.6</ele>
        <time>2025-01-18T13:01:20.000Z</time>
      </trkpt>
      <trkpt lat="43.95819" lon="7.29498">
        <ele>627.6</ele>
        <time>2025-01-18T13:01:29.000Z</time>
      </trkpt>
      <trkpt lat="43.95814" lon="7.295">
        <ele>627.6</ele>
        <time>2025-01-18T13:01:35.000Z</time>
      </trkpt>
      <trkpt lat="43.95813" lon="7.29501">
        <ele>627.7</ele>
        <time>2025-01-18T13:01:36.000Z</time>
      </trkpt>
      <trkpt lat="43.95813" lon="7.29501">
        <ele>627.7</ele>
        <time>2025-01-18T13:01:37.000Z</time>
      </trkpt>
      <trkpt lat="43.95811" lon="7.295">
        <ele>627.6</ele>
        <time>2025-01-18T13:01:38.000Z</time>
      </trkpt>
      <trkpt lat="43.95811" lon="7.29501">
        <ele>627.6</ele>
        <time>2025-01-18T13:01:39.000Z</time>
      </trkpt>
      <trkpt lat="43.95806" lon="7.29505">
        <ele>627.7</ele>
        <time>2025-01-18T13:01:45.000Z</time>
      </trkpt>
      <trkpt lat="43.95803" lon="7.29511">
        <ele>627.7</ele>
        <time>2025-01-18T13:01:49.000Z</time>
      </trkpt>
      <trkpt lat="43.95799" lon="7.29517">
        <ele>627.6</ele>
        <time>2025-01-18T13:01:52.000Z</time>
      </trkpt>
      <trkpt lat="43.95796" lon="7.29524">
        <ele>627.5</ele>
        <time>2025-01-18T13:01:55.000Z</time>
      </trkpt>
      <trkpt lat="43.95794" lon="7.29533">
        <ele>627.4</ele>
        <time>2025-01-18T13:01:58.000Z</time>
      </trkpt>
      <trkpt lat="43.95793" lon="7.29541">
        <ele>627.2</ele>
        <time>2025-01-18T13:02:01.000Z</time>
      </trkpt>
      <trkpt lat="43.95793" lon="7.2955">
        <ele>626.8</ele>
        <time>2025-01-18T13:02:04.000Z</time>
      </trkpt>
      <trkpt lat="43.95793" lon="7.29556">
        <ele>625.5</ele>
        <time>2025-01-18T13:02:12.000Z</time>
      </trkpt>
      <trkpt lat="43.95789" lon="7.2955">
        <ele>624.3</ele>
        <time>2025-01-18T13:02:21.000Z</time>
      </trkpt>
      <trkpt lat="43.95785" lon="7.29545">
        <ele>623.8</ele>
        <time>2025-01-18T13:02:23.000Z</time>
      </trkpt>
      <trkpt lat="43.95782" lon="7.2954">
        <ele>622.9</ele>
        <time>2025-01-18T13:02:25.000Z</time>
      </trkpt>
      <trkpt lat="43.95779" lon="7.29535">
        <ele>621.9</ele>
        <time>2025-01-18T13:02:27.000Z</time>
      </trkpt>
      <trkpt lat="43.95776" lon="7.2953">
        <ele>620.3</ele>
        <time>2025-01-18T13:02:29.000Z</time>
      </trkpt>
      <trkpt lat="43.95774" lon="7.29524">
        <ele>618.8</ele>
        <time>2025-01-18T13:02:31.000Z</time>
      </trkpt>
      <trkpt lat="43.95771" lon="7.29518">
        <ele>617</ele>
        <time>2025-01-18T13:02:33.000Z</time>
      </trkpt>
      <trkpt lat="43.95767" lon="7.29511">
        <ele>614.3</ele>
        <time>2025-01-18T13:02:36.000Z</time>
      </trkpt>
      <trkpt lat="43.95764" lon="7.29506">
        <ele>612.3</ele>
        <time>2025-01-18T13:02:38.000Z</time>
      </trkpt>
      <trkpt lat="43.95761" lon="7.29501">
        <ele>610.2</ele>
        <time>2025-01-18T13:02:40.000Z</time>
      </trkpt>
      <trkpt lat="43.95756" lon="7.29496">
        <ele>608.1</ele>
        <time>2025-01-18T13:02:42.000Z</time>
      </trkpt>
      <trkpt lat="43.95752" lon="7.29489">
        <ele>606.6</ele>
        <time>2025-01-18T13:02:44.000Z</time>
      </trkpt>
      <trkpt lat="43.9575" lon="7.29483">
        <ele>605.4</ele>
        <time>2025-01-18T13:02:46.000Z</time>
      </trkpt>
      <trkpt lat="43.95747" lon="7.29478">
        <ele>603.6</ele>
        <time>2025-01-18T13:02:48.000Z</time>
      </trkpt>
      <trkpt lat="43.9574" lon="7.29475">
        <ele>601.5</ele>
        <time>2025-01-18T13:02:50.000Z</time>
      </trkpt>
      <trkpt lat="43.95734" lon="7.29474">
        <ele>600</ele>
        <time>2025-01-18T13:02:52.000Z</time>
      </trkpt>
      <trkpt lat="43.95727" lon="7.2947">
        <ele>599</ele>
        <time>2025-01-18T13:02:54.000Z</time>
      </trkpt>
      <trkpt lat="43.95722" lon="7.29465">
        <ele>597.9</ele>
        <time>2025-01-18T13:02:56.000Z</time>
      </trkpt>
      <trkpt lat="43.95716" lon="7.2946">
        <ele>596.7</ele>
        <time>2025-01-18T13:02:58.000Z</time>
      </trkpt>
      <trkpt lat="43.95711" lon="7.29454">
        <ele>595.8</ele>
        <time>2025-01-18T13:03:00.000Z</time>
      </trkpt>
      <trkpt lat="43.95708" lon="7.29447">
        <ele>594.1</ele>
        <time>2025-01-18T13:03:03.000Z</time>
      </trkpt>
      <trkpt lat="43.95704" lon="7.29443">
        <ele>592.4</ele>
        <time>2025-01-18T13:03:05.000Z</time>
      </trkpt>
      <trkpt lat="43.95698" lon="7.29437">
        <ele>591</ele>
        <time>2025-01-18T13:03:07.000Z</time>
      </trkpt>
      <trkpt lat="43.95692" lon="7.29431">
        <ele>589.9</ele>
        <time>2025-01-18T13:03:09.000Z</time>
      </trkpt>
      <trkpt lat="43.95688" lon="7.29428">
        <ele>588.4</ele>
        <time>2025-01-18T13:03:11.000Z</time>
      </trkpt>
      <trkpt lat="43.95681" lon="7.29421">
        <ele>587.2</ele>
        <time>2025-01-18T13:03:13.000Z</time>
      </trkpt>
      <trkpt lat="43.95675" lon="7.29415">
        <ele>586.3</ele>
        <time>2025-01-18T13:03:15.000Z</time>
      </trkpt>
      <trkpt lat="43.95668" lon="7.29409">
        <ele>585.2</ele>
        <time>2025-01-18T13:03:17.000Z</time>
      </trkpt>
      <trkpt lat="43.95662" lon="7.29401">
        <ele>583.6</ele>
        <time>2025-01-18T13:03:19.000Z</time>
      </trkpt>
      <trkpt lat="43.95659" lon="7.29393">
        <ele>582.4</ele>
        <time>2025-01-18T13:03:21.000Z</time>
      </trkpt>
      <trkpt lat="43.95655" lon="7.29387">
        <ele>581</ele>
        <time>2025-01-18T13:03:24.000Z</time>
      </trkpt>
      <trkpt lat="43.95653" lon="7.29379">
        <ele>579.5</ele>
        <time>2025-01-18T13:03:27.000Z</time>
      </trkpt>
      <trkpt lat="43.95651" lon="7.29372">
        <ele>577.2</ele>
        <time>2025-01-18T13:03:30.000Z</time>
      </trkpt>
      <trkpt lat="43.9565" lon="7.29365">
        <ele>576.5</ele>
        <time>2025-01-18T13:03:32.000Z</time>
      </trkpt>
      <trkpt lat="43.95649" lon="7.29359">
        <ele>575.6</ele>
        <time>2025-01-18T13:03:34.000Z</time>
      </trkpt>
      <trkpt lat="43.95648" lon="7.29352">
        <ele>574.5</ele>
        <time>2025-01-18T13:03:37.000Z</time>
      </trkpt>
      <trkpt lat="43.95644" lon="7.29345">
        <ele>573.6</ele>
        <time>2025-01-18T13:03:39.000Z</time>
      </trkpt>
      <trkpt lat="43.9564" lon="7.29337">
        <ele>572.4</ele>
        <time>2025-01-18T13:03:41.000Z</time>
      </trkpt>
      <trkpt lat="43.95636" lon="7.2933">
        <ele>570.9</ele>
        <time>2025-01-18T13:03:44.000Z</time>
      </trkpt>
      <trkpt lat="43.95632" lon="7.29326">
        <ele>569.6</ele>
        <time>2025-01-18T13:03:46.000Z</time>
      </trkpt>
      <trkpt lat="43.95629" lon="7.29321">
        <ele>568.1</ele>
        <time>2025-01-18T13:03:48.000Z</time>
      </trkpt>
      <trkpt lat="43.95626" lon="7.29316">
        <ele>567</ele>
        <time>2025-01-18T13:03:50.000Z</time>
      </trkpt>
      <trkpt lat="43.95622" lon="7.29309">
        <ele>565.7</ele>
        <time>2025-01-18T13:03:53.000Z</time>
      </trkpt>
      <trkpt lat="43.95619" lon="7.29303">
        <ele>564.1</ele>
        <time>2025-01-18T13:04:00.000Z</time>
      </trkpt>
      <trkpt lat="43.9562" lon="7.293">
        <ele>563.6</ele>
        <time>2025-01-18T13:04:06.000Z</time>
      </trkpt>
      <trkpt lat="43.95619" lon="7.29299">
        <ele>563.5</ele>
        <time>2025-01-18T13:04:07.000Z</time>
      </trkpt>
      <trkpt lat="43.9562" lon="7.29297">
        <ele>563.3</ele>
        <time>2025-01-18T13:04:12.000Z</time>
      </trkpt>
      <trkpt lat="43.9562" lon="7.29296">
        <ele>563.2</ele>
        <time>2025-01-18T13:04:13.000Z</time>
      </trkpt>
      <trkpt lat="43.9562" lon="7.29295">
        <ele>563.2</ele>
        <time>2025-01-18T13:04:14.000Z</time>
      </trkpt>
      <trkpt lat="43.95619" lon="7.29293">
        <ele>563.2</ele>
        <time>2025-01-18T13:04:15.000Z</time>
      </trkpt>
      <trkpt lat="43.95619" lon="7.29292">
        <ele>563.1</ele>
        <time>2025-01-18T13:04:16.000Z</time>
      </trkpt>
      <trkpt lat="43.95616" lon="7.29291">
        <ele>563.1</ele>
        <time>2025-01-18T13:04:20.000Z</time>
      </trkpt>
      <trkpt lat="43.95615" lon="7.2929">
        <ele>563.1</ele>
        <time>2025-01-18T13:04:21.000Z</time>
      </trkpt>
      <trkpt lat="43.95618" lon="7.29291">
        <ele>562.9</ele>
        <time>2025-01-18T13:04:55.000Z</time>
      </trkpt>
      <trkpt lat="43.95618" lon="7.2929">
        <ele>562.9</ele>
        <time>2025-01-18T13:04:56.000Z</time>
      </trkpt>
      <trkpt lat="43.95617" lon="7.29288">
        <ele>562.9</ele>
        <time>2025-01-18T13:04:57.000Z</time>
      </trkpt>
      <trkpt lat="43.95612" lon="7.29285">
        <ele>562.7</ele>
        <time>2025-01-18T13:05:00.000Z</time>
      </trkpt>
      <trkpt lat="43.95608" lon="7.29285">
        <ele>562.4</ele>
        <time>2025-01-18T13:05:04.000Z</time>
      </trkpt>
      <trkpt lat="43.95603" lon="7.29282">
        <ele>560.2</ele>
        <time>2025-01-18T13:05:15.000Z</time>
      </trkpt>
      <trkpt lat="43.956" lon="7.29279">
        <ele>557.2</ele>
        <time>2025-01-18T13:05:35.000Z</time>
      </trkpt>
      <trkpt lat="43.956" lon="7.29279">
        <ele>557.1</ele>
        <time>2025-01-18T13:05:36.000Z</time>
      </trkpt>
      <trkpt lat="43.95599" lon="7.29279">
        <ele>557</ele>
        <time>2025-01-18T13:05:37.000Z</time>
      </trkpt>
      <trkpt lat="43.95594" lon="7.29278">
        <ele>556.7</ele>
        <time>2025-01-18T13:05:53.000Z</time>
      </trkpt>
      <trkpt lat="43.95589" lon="7.29278">
        <ele>556.6</ele>
        <time>2025-01-18T13:06:01.000Z</time>
      </trkpt>
      <trkpt lat="43.95584" lon="7.29277">
        <ele>556.5</ele>
        <time>2025-01-18T13:06:08.000Z</time>
      </trkpt>
      <trkpt lat="43.95587" lon="7.29274">
        <ele>556.5</ele>
        <time>2025-01-18T13:06:30.000Z</time>
      </trkpt>
      <trkpt lat="43.95586" lon="7.29274">
        <ele>556.4</ele>
        <time>2025-01-18T13:06:31.000Z</time>
      </trkpt>
      <trkpt lat="43.95582" lon="7.29271">
        <ele>555.5</ele>
        <time>2025-01-18T13:06:36.000Z</time>
      </trkpt>
      <trkpt lat="43.95581" lon="7.29263">
        <ele>553.8</ele>
        <time>2025-01-18T13:06:40.000Z</time>
      </trkpt>
      <trkpt lat="43.95575" lon="7.29259">
        <ele>551.2</ele>
        <time>2025-01-18T13:06:43.000Z</time>
      </trkpt>
      <trkpt lat="43.9557" lon="7.29255">
        <ele>549.6</ele>
        <time>2025-01-18T13:06:45.000Z</time>
      </trkpt>
      <trkpt lat="43.95566" lon="7.29253">
        <ele>548.7</ele>
        <time>2025-01-18T13:06:47.000Z</time>
      </trkpt>
      <trkpt lat="43.95561" lon="7.29249">
        <ele>548</ele>
        <time>2025-01-18T13:06:49.000Z</time>
      </trkpt>
      <trkpt lat="43.95556" lon="7.29249">
        <ele>547.3</ele>
        <time>2025-01-18T13:06:51.000Z</time>
      </trkpt>
      <trkpt lat="43.9555" lon="7.29248">
        <ele>546.3</ele>
        <time>2025-01-18T13:06:53.000Z</time>
      </trkpt>
      <trkpt lat="43.95546" lon="7.29248">
        <ele>545.1</ele>
        <time>2025-01-18T13:06:55.000Z</time>
      </trkpt>
      <trkpt lat="43.9554" lon="7.29248">
        <ele>543.6</ele>
        <time>2025-01-18T13:06:57.000Z</time>
      </trkpt>
      <trkpt lat="43.95535" lon="7.29247">
        <ele>542</ele>
        <time>2025-01-18T13:06:59.000Z</time>
      </trkpt>
      <trkpt lat="43.95529" lon="7.29247">
        <ele>540.8</ele>
        <time>2025-01-18T13:07:01.000Z</time>
      </trkpt>
      <trkpt lat="43.95523" lon="7.29244">
        <ele>539.3</ele>
        <time>2025-01-18T13:07:03.000Z</time>
      </trkpt>
      <trkpt lat="43.95518" lon="7.29242">
        <ele>537.9</ele>
        <time>2025-01-18T13:07:05.000Z</time>
      </trkpt>
      <trkpt lat="43.95513" lon="7.29238">
        <ele>536.6</ele>
        <time>2025-01-18T13:07:07.000Z</time>
      </trkpt>
      <trkpt lat="43.95509" lon="7.29233">
        <ele>535.4</ele>
        <time>2025-01-18T13:07:09.000Z</time>
      </trkpt>
      <trkpt lat="43.95506" lon="7.29227">
        <ele>534.2</ele>
        <time>2025-01-18T13:07:11.000Z</time>
      </trkpt>
      <trkpt lat="43.95502" lon="7.29222">
        <ele>532.9</ele>
        <time>2025-01-18T13:07:13.000Z</time>
      </trkpt>
      <trkpt lat="43.95499" lon="7.29216">
        <ele>531.4</ele>
        <time>2025-01-18T13:07:15.000Z</time>
      </trkpt>
      <trkpt lat="43.95494" lon="7.2921">
        <ele>529.7</ele>
        <time>2025-01-18T13:07:17.000Z</time>
      </trkpt>
      <trkpt lat="43.9549" lon="7.29205">
        <ele>528.2</ele>
        <time>2025-01-18T13:07:19.000Z</time>
      </trkpt>
      <trkpt lat="43.95485" lon="7.29201">
        <ele>527</ele>
        <time>2025-01-18T13:07:21.000Z</time>
      </trkpt>
      <trkpt lat="43.95481" lon="7.29196">
        <ele>525.8</ele>
        <time>2025-01-18T13:07:23.000Z</time>
      </trkpt>
      <trkpt lat="43.95478" lon="7.29191">
        <ele>523.9</ele>
        <time>2025-01-18T13:07:29.000Z</time>
      </trkpt>
      <trkpt lat="43.95476" lon="7.29185">
        <ele>523.7</ele>
        <time>2025-01-18T13:07:34.000Z</time>
      </trkpt>
      <trkpt lat="43.95472" lon="7.29182">
        <ele>523.6</ele>
        <time>2025-01-18T13:07:39.000Z</time>
      </trkpt>
      <trkpt lat="43.95467" lon="7.29181">
        <ele>523.7</ele>
        <time>2025-01-18T13:07:44.000Z</time>
      </trkpt>
      <trkpt lat="43.95462" lon="7.29181">
        <ele>523.9</ele>
        <time>2025-01-18T13:07:47.000Z</time>
      </trkpt>
      <trkpt lat="43.95456" lon="7.29183">
        <ele>524.3</ele>
        <time>2025-01-18T13:07:51.000Z</time>
      </trkpt>
      <trkpt lat="43.95451" lon="7.29185">
        <ele>524.6</ele>
        <time>2025-01-18T13:07:53.000Z</time>
      </trkpt>
      <trkpt lat="43.95447" lon="7.29186">
        <ele>525.1</ele>
        <time>2025-01-18T13:07:56.000Z</time>
      </trkpt>
      <trkpt lat="43.95443" lon="7.29189">
        <ele>526.2</ele>
        <time>2025-01-18T13:08:00.000Z</time>
      </trkpt>
      <trkpt lat="43.95437" lon="7.29192">
        <ele>527.4</ele>
        <time>2025-01-18T13:08:05.000Z</time>
      </trkpt>
      <trkpt lat="43.95433" lon="7.29195">
        <ele>529</ele>
        <time>2025-01-18T13:08:11.000Z</time>
      </trkpt>
      <trkpt lat="43.95428" lon="7.29195">
        <ele>530.3</ele>
        <time>2025-01-18T13:08:18.000Z</time>
      </trkpt>
      <trkpt lat="43.95423" lon="7.29197">
        <ele>531.2</ele>
        <time>2025-01-18T13:08:33.000Z</time>
      </trkpt>
      <trkpt lat="43.95419" lon="7.29195">
        <ele>531.1</ele>
        <time>2025-01-18T13:08:37.000Z</time>
      </trkpt>
      <trkpt lat="43.95415" lon="7.29192">
        <ele>531.1</ele>
        <time>2025-01-18T13:08:43.000Z</time>
      </trkpt>
      <trkpt lat="43.95411" lon="7.29187">
        <ele>531.1</ele>
        <time>2025-01-18T13:08:50.000Z</time>
      </trkpt>
      <trkpt lat="43.95407" lon="7.29183">
        <ele>531.1</ele>
        <time>2025-01-18T13:08:54.000Z</time>
      </trkpt>
      <trkpt lat="43.95404" lon="7.29175">
        <ele>531.1</ele>
        <time>2025-01-18T13:08:58.000Z</time>
      </trkpt>
      <trkpt lat="43.95404" lon="7.29167">
        <ele>531.2</ele>
        <time>2025-01-18T13:09:01.000Z</time>
      </trkpt>
      <trkpt lat="43.95405" lon="7.2916">
        <ele>531.2</ele>
        <time>2025-01-18T13:09:05.000Z</time>
      </trkpt>
      <trkpt lat="43.95408" lon="7.29156">
        <ele>531.3</ele>
        <time>2025-01-18T13:09:08.000Z</time>
      </trkpt>
      <trkpt lat="43.9541" lon="7.2915">
        <ele>531.5</ele>
        <time>2025-01-18T13:09:12.000Z</time>
      </trkpt>
      <trkpt lat="43.9541" lon="7.29143">
        <ele>531.5</ele>
        <time>2025-01-18T13:09:15.000Z</time>
      </trkpt>
      <trkpt lat="43.9541" lon="7.29136">
        <ele>531.3</ele>
        <time>2025-01-18T13:09:17.000Z</time>
      </trkpt>
      <trkpt lat="43.95408" lon="7.2913">
        <ele>529.4</ele>
        <time>2025-01-18T13:09:22.000Z</time>
      </trkpt>
      <trkpt lat="43.95405" lon="7.29123">
        <ele>526.9</ele>
        <time>2025-01-18T13:09:25.000Z</time>
      </trkpt>
      <trkpt lat="43.95399" lon="7.2912">
        <ele>522.1</ele>
        <time>2025-01-18T13:09:30.000Z</time>
      </trkpt>
      <trkpt lat="43.95395" lon="7.29116">
        <ele>519.9</ele>
        <time>2025-01-18T13:09:34.000Z</time>
      </trkpt>
      <trkpt lat="43.95389" lon="7.29111">
        <ele>518</ele>
        <time>2025-01-18T13:09:37.000Z</time>
      </trkpt>
      <trkpt lat="43.95382" lon="7.29107">
        <ele>516.5</ele>
        <time>2025-01-18T13:09:39.000Z</time>
      </trkpt>
      <trkpt lat="43.95376" lon="7.29105">
        <ele>515.8</ele>
        <time>2025-01-18T13:09:40.000Z</time>
      </trkpt>
      <trkpt lat="43.95371" lon="7.29103">
        <ele>515.1</ele>
        <time>2025-01-18T13:09:41.000Z</time>
      </trkpt>
      <trkpt lat="43.95366" lon="7.29101">
        <ele>514.5</ele>
        <time>2025-01-18T13:09:42.000Z</time>
      </trkpt>
      <trkpt lat="43.95361" lon="7.29101">
        <ele>513.9</ele>
        <time>2025-01-18T13:09:43.000Z</time>
      </trkpt>
      <trkpt lat="43.95355" lon="7.291">
        <ele>513.4</ele>
        <time>2025-01-18T13:09:45.000Z</time>
      </trkpt>
      <trkpt lat="43.95349" lon="7.29101">
        <ele>513.1</ele>
        <time>2025-01-18T13:09:47.000Z</time>
      </trkpt>
      <trkpt lat="43.95346" lon="7.29107">
        <ele>513</ele>
        <time>2025-01-18T13:09:49.000Z</time>
      </trkpt>
      <trkpt lat="43.95341" lon="7.29112">
        <ele>512.5</ele>
        <time>2025-01-18T13:09:52.000Z</time>
      </trkpt>
      <trkpt lat="43.95335" lon="7.29117">
        <ele>511.8</ele>
        <time>2025-01-18T13:09:54.000Z</time>
      </trkpt>
      <trkpt lat="43.95328" lon="7.29123">
        <ele>510.8</ele>
        <time>2025-01-18T13:09:56.000Z</time>
      </trkpt>
      <trkpt lat="43.95321" lon="7.29128">
        <ele>509.1</ele>
        <time>2025-01-18T13:09:58.000Z</time>
      </trkpt>
      <trkpt lat="43.95314" lon="7.29136">
        <ele>507.5</ele>
        <time>2025-01-18T13:10:00.000Z</time>
      </trkpt>
      <trkpt lat="43.9531" lon="7.29139">
        <ele>506.8</ele>
        <time>2025-01-18T13:10:01.000Z</time>
      </trkpt>
      <trkpt lat="43.95301" lon="7.29141">
        <ele>505.5</ele>
        <time>2025-01-18T13:10:03.000Z</time>
      </trkpt>
      <trkpt lat="43.95292" lon="7.29141">
        <ele>504.4</ele>
        <time>2025-01-18T13:10:05.000Z</time>
      </trkpt>
      <trkpt lat="43.95287" lon="7.2914">
        <ele>503.7</ele>
        <time>2025-01-18T13:10:06.000Z</time>
      </trkpt>
      <trkpt lat="43.95282" lon="7.2914">
        <ele>503.3</ele>
        <time>2025-01-18T13:10:07.000Z</time>
      </trkpt>
      <trkpt lat="43.95275" lon="7.29142">
        <ele>502.9</ele>
        <time>2025-01-18T13:10:08.000Z</time>
      </trkpt>
      <trkpt lat="43.95268" lon="7.29144">
        <ele>502.5</ele>
        <time>2025-01-18T13:10:09.000Z</time>
      </trkpt>
      <trkpt lat="43.95263" lon="7.29146">
        <ele>502.1</ele>
        <time>2025-01-18T13:10:10.000Z</time>
      </trkpt>
      <trkpt lat="43.95259" lon="7.29147">
        <ele>501.7</ele>
        <time>2025-01-18T13:10:11.000Z</time>
      </trkpt>
      <trkpt lat="43.95253" lon="7.29149">
        <ele>501.3</ele>
        <time>2025-01-18T13:10:12.000Z</time>
      </trkpt>
      <trkpt lat="43.95248" lon="7.29151">
        <ele>500.9</ele>
        <time>2025-01-18T13:10:13.000Z</time>
      </trkpt>
      <trkpt lat="43.95244" lon="7.29154">
        <ele>500.7</ele>
        <time>2025-01-18T13:10:14.000Z</time>
      </trkpt>
      <trkpt lat="43.95236" lon="7.29159">
        <ele>500.4</ele>
        <time>2025-01-18T13:10:16.000Z</time>
      </trkpt>
      <trkpt lat="43.95232" lon="7.29166">
        <ele>500</ele>
        <time>2025-01-18T13:10:18.000Z</time>
      </trkpt>
      <trkpt lat="43.95227" lon="7.29168">
        <ele>499.4</ele>
        <time>2025-01-18T13:10:20.000Z</time>
      </trkpt>
      <trkpt lat="43.95221" lon="7.2917">
        <ele>498.9</ele>
        <time>2025-01-18T13:10:22.000Z</time>
      </trkpt>
      <trkpt lat="43.95213" lon="7.29175">
        <ele>498.4</ele>
        <time>2025-01-18T13:10:24.000Z</time>
      </trkpt>
      <trkpt lat="43.95206" lon="7.29181">
        <ele>497.6</ele>
        <time>2025-01-18T13:10:26.000Z</time>
      </trkpt>
      <trkpt lat="43.95199" lon="7.29187">
        <ele>496.7</ele>
        <time>2025-01-18T13:10:28.000Z</time>
      </trkpt>
      <trkpt lat="43.95198" lon="7.29198">
        <ele>496</ele>
        <time>2025-01-18T13:10:30.000Z</time>
      </trkpt>
      <trkpt lat="43.95196" lon="7.29207">
        <ele>495.4</ele>
        <time>2025-01-18T13:10:32.000Z</time>
      </trkpt>
      <trkpt lat="43.95191" lon="7.29214">
        <ele>494.8</ele>
        <time>2025-01-18T13:10:34.000Z</time>
      </trkpt>
      <trkpt lat="43.95185" lon="7.2922">
        <ele>493.7</ele>
        <time>2025-01-18T13:10:37.000Z</time>
      </trkpt>
      <trkpt lat="43.95184" lon="7.29227">
        <ele>492.3</ele>
        <time>2025-01-18T13:10:40.000Z</time>
      </trkpt>
      <trkpt lat="43.95188" lon="7.29232">
        <ele>490.8</ele>
        <time>2025-01-18T13:10:43.000Z</time>
      </trkpt>
      <trkpt lat="43.9519" lon="7.29239">
        <ele>489</ele>
        <time>2025-01-18T13:10:47.000Z</time>
      </trkpt>
      <trkpt lat="43.95186" lon="7.29243">
        <ele>487.6</ele>
        <time>2025-01-18T13:10:49.000Z</time>
      </trkpt>
      <trkpt lat="43.95181" lon="7.29246">
        <ele>486.5</ele>
        <time>2025-01-18T13:10:51.000Z</time>
      </trkpt>
      <trkpt lat="43.95174" lon="7.29249">
        <ele>485.1</ele>
        <time>2025-01-18T13:10:54.000Z</time>
      </trkpt>
      <trkpt lat="43.95169" lon="7.29251">
        <ele>483.6</ele>
        <time>2025-01-18T13:10:56.000Z</time>
      </trkpt>
      <trkpt lat="43.95162" lon="7.29248">
        <ele>481.3</ele>
        <time>2025-01-18T13:10:59.000Z</time>
      </trkpt>
      <trkpt lat="43.95158" lon="7.29246">
        <ele>480.2</ele>
        <time>2025-01-18T13:11:01.000Z</time>
      </trkpt>
      <trkpt lat="43.95152" lon="7.29243">
        <ele>479.2</ele>
        <time>2025-01-18T13:11:03.000Z</time>
      </trkpt>
      <trkpt lat="43.95147" lon="7.2924">
        <ele>478.1</ele>
        <time>2025-01-18T13:11:05.000Z</time>
      </trkpt>
      <trkpt lat="43.95142" lon="7.29238">
        <ele>476.7</ele>
        <time>2025-01-18T13:11:07.000Z</time>
      </trkpt>
      <trkpt lat="43.95136" lon="7.29235">
        <ele>475.6</ele>
        <time>2025-01-18T13:11:09.000Z</time>
      </trkpt>
      <trkpt lat="43.95131" lon="7.29232">
        <ele>474.6</ele>
        <time>2025-01-18T13:11:12.000Z</time>
      </trkpt>
      <trkpt lat="43.95131" lon="7.29231">
        <ele>474.1</ele>
        <time>2025-01-18T13:11:15.000Z</time>
      </trkpt>
      <trkpt lat="43.95131" lon="7.29231">
        <ele>474</ele>
        <time>2025-01-18T13:11:16.000Z</time>
      </trkpt>
      <trkpt lat="43.95132" lon="7.29231">
        <ele>473.9</ele>
        <time>2025-01-18T13:11:17.000Z</time>
      </trkpt>
      <trkpt lat="43.95131" lon="7.29231">
        <ele>473.9</ele>
        <time>2025-01-18T13:11:18.000Z</time>
      </trkpt>
      <trkpt lat="43.95128" lon="7.29226">
        <ele>473.4</ele>
        <time>2025-01-18T13:11:26.000Z</time>
      </trkpt>
      <trkpt lat="43.95124" lon="7.2922">
        <ele>472.9</ele>
        <time>2025-01-18T13:11:28.000Z</time>
      </trkpt>
      <trkpt lat="43.9512" lon="7.29215">
        <ele>472.1</ele>
        <time>2025-01-18T13:11:30.000Z</time>
      </trkpt>
      <trkpt lat="43.95115" lon="7.29212">
        <ele>470.7</ele>
        <time>2025-01-18T13:11:32.000Z</time>
      </trkpt>
      <trkpt lat="43.9511" lon="7.29213">
        <ele>469.1</ele>
        <time>2025-01-18T13:11:34.000Z</time>
      </trkpt>
      <trkpt lat="43.95104" lon="7.29214">
        <ele>467.7</ele>
        <time>2025-01-18T13:11:36.000Z</time>
      </trkpt>
      <trkpt lat="43.95098" lon="7.29212">
        <ele>466.3</ele>
        <time>2025-01-18T13:11:38.000Z</time>
      </trkpt>
      <trkpt lat="43.95093" lon="7.2921">
        <ele>465.1</ele>
        <time>2025-01-18T13:11:40.000Z</time>
      </trkpt>
      <trkpt lat="43.95087" lon="7.29208">
        <ele>464.1</ele>
        <time>2025-01-18T13:11:42.000Z</time>
      </trkpt>
      <trkpt lat="43.95082" lon="7.29204">
        <ele>463</ele>
        <time>2025-01-18T13:11:44.000Z</time>
      </trkpt>
      <trkpt lat="43.95077" lon="7.292">
        <ele>461.8</ele>
        <time>2025-01-18T13:11:46.000Z</time>
      </trkpt>
      <trkpt lat="43.95071" lon="7.29196">
        <ele>459.7</ele>
        <time>2025-01-18T13:11:49.000Z</time>
      </trkpt>
      <trkpt lat="43.95068" lon="7.29192">
        <ele>458.5</ele>
        <time>2025-01-18T13:11:51.000Z</time>
      </trkpt>
      <trkpt lat="43.95065" lon="7.29186">
        <ele>457.1</ele>
        <time>2025-01-18T13:11:53.000Z</time>
      </trkpt>
      <trkpt lat="43.95061" lon="7.2918">
        <ele>455.8</ele>
        <time>2025-01-18T13:11:55.000Z</time>
      </trkpt>
      <trkpt lat="43.95057" lon="7.29174">
        <ele>454.5</ele>
        <time>2025-01-18T13:11:57.000Z</time>
      </trkpt>
      <trkpt lat="43.95053" lon="7.2917">
        <ele>453.5</ele>
        <time>2025-01-18T13:11:59.000Z</time>
      </trkpt>
      <trkpt lat="43.95048" lon="7.29168">
        <ele>452.5</ele>
        <time>2025-01-18T13:12:01.000Z</time>
      </trkpt>
      <trkpt lat="43.95043" lon="7.29167">
        <ele>451.7</ele>
        <time>2025-01-18T13:12:03.000Z</time>
      </trkpt>
      <trkpt lat="43.9504" lon="7.29172">
        <ele>449.3</ele>
        <time>2025-01-18T13:12:08.000Z</time>
      </trkpt>
      <trkpt lat="43.95036" lon="7.29175">
        <ele>447.8</ele>
        <time>2025-01-18T13:12:11.000Z</time>
      </trkpt>
      <trkpt lat="43.95031" lon="7.29181">
        <ele>445.5</ele>
        <time>2025-01-18T13:12:14.000Z</time>
      </trkpt>
      <trkpt lat="43.95029" lon="7.29187">
        <ele>444.2</ele>
        <time>2025-01-18T13:12:16.000Z</time>
      </trkpt>
      <trkpt lat="43.95024" lon="7.29187">
        <ele>441.5</ele>
        <time>2025-01-18T13:12:20.000Z</time>
      </trkpt>
      <trkpt lat="43.95018" lon="7.2919">
        <ele>440.1</ele>
        <time>2025-01-18T13:12:23.000Z</time>
      </trkpt>
      <trkpt lat="43.95015" lon="7.29195">
        <ele>439</ele>
        <time>2025-01-18T13:12:25.000Z</time>
      </trkpt>
      <trkpt lat="43.95009" lon="7.29194">
        <ele>437.9</ele>
        <time>2025-01-18T13:12:27.000Z</time>
      </trkpt>
      <trkpt lat="43.95003" lon="7.29194">
        <ele>436.7</ele>
        <time>2025-01-18T13:12:29.000Z</time>
      </trkpt>
      <trkpt lat="43.94998" lon="7.292">
        <ele>435.6</ele>
        <time>2025-01-18T13:12:31.000Z</time>
      </trkpt>
      <trkpt lat="43.94996" lon="7.29205">
        <ele>435</ele>
        <time>2025-01-18T13:12:32.000Z</time>
      </trkpt>
      <trkpt lat="43.94996" lon="7.29212">
        <ele>433.5</ele>
        <time>2025-01-18T13:12:35.000Z</time>
      </trkpt>
      <trkpt lat="43.94991" lon="7.29204">
        <ele>432.1</ele>
        <time>2025-01-18T13:12:37.000Z</time>
      </trkpt>
      <trkpt lat="43.94985" lon="7.29198">
        <ele>428.6</ele>
        <time>2025-01-18T13:12:42.000Z</time>
      </trkpt>
      <trkpt lat="43.94981" lon="7.2919">
        <ele>427.5</ele>
        <time>2025-01-18T13:12:44.000Z</time>
      </trkpt>
      <trkpt lat="43.94979" lon="7.29182">
        <ele>426.6</ele>
        <time>2025-01-18T13:12:47.000Z</time>
      </trkpt>
      <trkpt lat="43.94979" lon="7.29179">
        <ele>426.4</ele>
        <time>2025-01-18T13:12:49.000Z</time>
      </trkpt>
      <trkpt lat="43.94979" lon="7.29175">
        <ele>426.3</ele>
        <time>2025-01-18T13:12:50.000Z</time>
      </trkpt>
      <trkpt lat="43.94981" lon="7.29172">
        <ele>426.2</ele>
        <time>2025-01-18T13:12:51.000Z</time>
      </trkpt>
      <trkpt lat="43.94984" lon="7.29166">
        <ele>426</ele>
        <time>2025-01-18T13:12:54.000Z</time>
      </trkpt>
      <trkpt lat="43.94979" lon="7.29166">
        <ele>425.4</ele>
        <time>2025-01-18T13:13:02.000Z</time>
      </trkpt>
      <trkpt lat="43.94976" lon="7.29173">
        <ele>424.9</ele>
        <time>2025-01-18T13:13:06.000Z</time>
      </trkpt>
      <trkpt lat="43.94972" lon="7.29179">
        <ele>424</ele>
        <time>2025-01-18T13:13:11.000Z</time>
      </trkpt>
      <trkpt lat="43.94968" lon="7.29179">
        <ele>422.9</ele>
        <time>2025-01-18T13:13:16.000Z</time>
      </trkpt>
      <trkpt lat="43.94963" lon="7.2918">
        <ele>421.6</ele>
        <time>2025-01-18T13:13:19.000Z</time>
      </trkpt>
      <trkpt lat="43.94959" lon="7.29177">
        <ele>420.4</ele>
        <time>2025-01-18T13:13:22.000Z</time>
      </trkpt>
      <trkpt lat="43.94955" lon="7.29176">
        <ele>419.2</ele>
        <time>2025-01-18T13:13:30.000Z</time>
      </trkpt>
      <trkpt lat="43.94954" lon="7.29176">
        <ele>419.2</ele>
        <time>2025-01-18T13:13:31.000Z</time>
      </trkpt>
      <trkpt lat="43.94956" lon="7.29177">
        <ele>419.1</ele>
        <time>2025-01-18T13:13:35.000Z</time>
      </trkpt>
      <trkpt lat="43.94951" lon="7.29171">
        <ele>418.8</ele>
        <time>2025-01-18T13:13:40.000Z</time>
      </trkpt>
      <trkpt lat="43.94947" lon="7.29164">
        <ele>418.7</ele>
        <time>2025-01-18T13:13:43.000Z</time>
      </trkpt>
      <trkpt lat="43.94945" lon="7.29157">
        <ele>418.5</ele>
        <time>2025-01-18T13:13:45.000Z</time>
      </trkpt>
      <trkpt lat="43.94942" lon="7.29148">
        <ele>418.4</ele>
        <time>2025-01-18T13:13:47.000Z</time>
      </trkpt>
      <trkpt lat="43.94938" lon="7.2914">
        <ele>418.3</ele>
        <time>2025-01-18T13:13:49.000Z</time>
      </trkpt>
      <trkpt lat="43.94935" lon="7.2913">
        <ele>418.1</ele>
        <time>2025-01-18T13:13:51.000Z</time>
      </trkpt>
      <trkpt lat="43.94934" lon="7.29121">
        <ele>417.9</ele>
        <time>2025-01-18T13:13:53.000Z</time>
      </trkpt>
      <trkpt lat="43.94934" lon="7.29115">
        <ele>417.7</ele>
        <time>2025-01-18T13:13:55.000Z</time>
      </trkpt>
      <trkpt lat="43.94934" lon="7.29108">
        <ele>417.4</ele>
        <time>2025-01-18T13:13:58.000Z</time>
      </trkpt>
      <trkpt lat="43.94937" lon="7.29099">
        <ele>417</ele>
        <time>2025-01-18T13:14:01.000Z</time>
      </trkpt>
      <trkpt lat="43.94939" lon="7.29089">
        <ele>416.7</ele>
        <time>2025-01-18T13:14:03.000Z</time>
      </trkpt>
      <trkpt lat="43.94939" lon="7.2908">
        <ele>416.4</ele>
        <time>2025-01-18T13:14:05.000Z</time>
      </trkpt>
      <trkpt lat="43.94942" lon="7.29072">
        <ele>415.9</ele>
        <time>2025-01-18T13:14:07.000Z</time>
      </trkpt>
      <trkpt lat="43.94942" lon="7.29061">
        <ele>415.5</ele>
        <time>2025-01-18T13:14:09.000Z</time>
      </trkpt>
      <trkpt lat="43.94941" lon="7.29048">
        <ele>414.9</ele>
        <time>2025-01-18T13:14:11.000Z</time>
      </trkpt>
      <trkpt lat="43.9494" lon="7.29042">
        <ele>414.6</ele>
        <time>2025-01-18T13:14:12.000Z</time>
      </trkpt>
      <trkpt lat="43.94938" lon="7.29036">
        <ele>414.2</ele>
        <time>2025-01-18T13:14:13.000Z</time>
      </trkpt>
      <trkpt lat="43.94937" lon="7.29025">
        <ele>413.5</ele>
        <time>2025-01-18T13:14:15.000Z</time>
      </trkpt>
      <trkpt lat="43.94935" lon="7.29015">
        <ele>412.7</ele>
        <time>2025-01-18T13:14:17.000Z</time>
      </trkpt>
      <trkpt lat="43.94935" lon="7.29004">
        <ele>412.1</ele>
        <time>2025-01-18T13:14:19.000Z</time>
      </trkpt>
      <trkpt lat="43.94936" lon="7.28994">
        <ele>411.5</ele>
        <time>2025-01-18T13:14:21.000Z</time>
      </trkpt>
      <trkpt lat="43.94936" lon="7.28986">
        <ele>411</ele>
        <time>2025-01-18T13:14:23.000Z</time>
      </trkpt>
      <trkpt lat="43.94937" lon="7.28979">
        <ele>410.5</ele>
        <time>2025-01-18T13:14:25.000Z</time>
      </trkpt>
      <trkpt lat="43.94939" lon="7.2897">
        <ele>410</ele>
        <time>2025-01-18T13:14:28.000Z</time>
      </trkpt>
      <trkpt lat="43.94939" lon="7.28962">
        <ele>409.7</ele>
        <time>2025-01-18T13:14:30.000Z</time>
      </trkpt>
      <trkpt lat="43.94938" lon="7.28954">
        <ele>409.3</ele>
        <time>2025-01-18T13:14:32.000Z</time>
      </trkpt>
      <trkpt lat="43.94936" lon="7.28946">
        <ele>409</ele>
        <time>2025-01-18T13:14:34.000Z</time>
      </trkpt>
      <trkpt lat="43.94934" lon="7.28937">
        <ele>408.7</ele>
        <time>2025-01-18T13:14:36.000Z</time>
      </trkpt>
      <trkpt lat="43.94932" lon="7.28928">
        <ele>408.3</ele>
        <time>2025-01-18T13:14:38.000Z</time>
      </trkpt>
      <trkpt lat="43.94931" lon="7.28918">
        <ele>408</ele>
        <time>2025-01-18T13:14:40.000Z</time>
      </trkpt>
      <trkpt lat="43.94929" lon="7.28908">
        <ele>407.7</ele>
        <time>2025-01-18T13:14:42.000Z</time>
      </trkpt>
      <trkpt lat="43.94928" lon="7.28897">
        <ele>407.5</ele>
        <time>2025-01-18T13:14:44.000Z</time>
      </trkpt>
      <trkpt lat="43.94927" lon="7.28891">
        <ele>407.4</ele>
        <time>2025-01-18T13:14:45.000Z</time>
      </trkpt>
      <trkpt lat="43.94926" lon="7.28878">
        <ele>407</ele>
        <time>2025-01-18T13:14:47.000Z</time>
      </trkpt>
      <trkpt lat="43.94925" lon="7.28872">
        <ele>406.8</ele>
        <time>2025-01-18T13:14:48.000Z</time>
      </trkpt>
      <trkpt lat="43.94924" lon="7.28865">
        <ele>406.7</ele>
        <time>2025-01-18T13:14:49.000Z</time>
      </trkpt>
      <trkpt lat="43.94924" lon="7.28858">
        <ele>406.5</ele>
        <time>2025-01-18T13:14:50.000Z</time>
      </trkpt>
      <trkpt lat="43.94923" lon="7.28851">
        <ele>406.4</ele>
        <time>2025-01-18T13:14:51.000Z</time>
      </trkpt>
      <trkpt lat="43.94921" lon="7.28845">
        <ele>406.2</ele>
        <time>2025-01-18T13:14:52.000Z</time>
      </trkpt>
      <trkpt lat="43.94918" lon="7.28839">
        <ele>406.1</ele>
        <time>2025-01-18T13:14:53.000Z</time>
      </trkpt>
      <trkpt lat="43.94916" lon="7.28834">
        <ele>405.9</ele>
        <time>2025-01-18T13:14:54.000Z</time>
      </trkpt>
      <trkpt lat="43.94912" lon="7.28829">
        <ele>405.7</ele>
        <time>2025-01-18T13:14:55.000Z</time>
      </trkpt>
      <trkpt lat="43.94909" lon="7.28824">
        <ele>405.5</ele>
        <time>2025-01-18T13:14:56.000Z</time>
      </trkpt>
      <trkpt lat="43.94902" lon="7.28815">
        <ele>405.1</ele>
        <time>2025-01-18T13:14:58.000Z</time>
      </trkpt>
      <trkpt lat="43.94899" lon="7.28809">
        <ele>404.9</ele>
        <time>2025-01-18T13:14:59.000Z</time>
      </trkpt>
      <trkpt lat="43.94895" lon="7.28804">
        <ele>404.6</ele>
        <time>2025-01-18T13:15:00.000Z</time>
      </trkpt>
      <trkpt lat="43.94891" lon="7.28799">
        <ele>404.4</ele>
        <time>2025-01-18T13:15:01.000Z</time>
      </trkpt>
      <trkpt lat="43.94886" lon="7.28794">
        <ele>404.1</ele>
        <time>2025-01-18T13:15:02.000Z</time>
      </trkpt>
      <trkpt lat="43.94882" lon="7.28789">
        <ele>403.9</ele>
        <time>2025-01-18T13:15:03.000Z</time>
      </trkpt>
      <trkpt lat="43.94877" lon="7.28782">
        <ele>403.7</ele>
        <time>2025-01-18T13:15:04.000Z</time>
      </trkpt>
      <trkpt lat="43.94871" lon="7.28776">
        <ele>403.3</ele>
        <time>2025-01-18T13:15:05.000Z</time>
      </trkpt>
      <trkpt lat="43.94866" lon="7.28769">
        <ele>403</ele>
        <time>2025-01-18T13:15:06.000Z</time>
      </trkpt>
      <trkpt lat="43.94862" lon="7.28762">
        <ele>402.7</ele>
        <time>2025-01-18T13:15:07.000Z</time>
      </trkpt>
      <trkpt lat="43.94856" lon="7.28757">
        <ele>402.4</ele>
        <time>2025-01-18T13:15:08.000Z</time>
      </trkpt>
      <trkpt lat="43.9485" lon="7.28753">
        <ele>402.1</ele>
        <time>2025-01-18T13:15:09.000Z</time>
      </trkpt>
      <trkpt lat="43.94844" lon="7.28749">
        <ele>401.9</ele>
        <time>2025-01-18T13:15:10.000Z</time>
      </trkpt>
      <trkpt lat="43.94837" lon="7.28745">
        <ele>401.7</ele>
        <time>2025-01-18T13:15:11.000Z</time>
      </trkpt>
      <trkpt lat="43.94831" lon="7.28742">
        <ele>401.4</ele>
        <time>2025-01-18T13:15:12.000Z</time>
      </trkpt>
      <trkpt lat="43.94824" lon="7.28738">
        <ele>401.1</ele>
        <time>2025-01-18T13:15:13.000Z</time>
      </trkpt>
      <trkpt lat="43.94818" lon="7.28734">
        <ele>400.8</ele>
        <time>2025-01-18T13:15:14.000Z</time>
      </trkpt>
      <trkpt lat="43.94812" lon="7.28729">
        <ele>400.5</ele>
        <time>2025-01-18T13:15:15.000Z</time>
      </trkpt>
      <trkpt lat="43.94806" lon="7.28723">
        <ele>400.1</ele>
        <time>2025-01-18T13:15:16.000Z</time>
      </trkpt>
      <trkpt lat="43.948" lon="7.28715">
        <ele>399.8</ele>
        <time>2025-01-18T13:15:17.000Z</time>
      </trkpt>
      <trkpt lat="43.94794" lon="7.28706">
        <ele>399.4</ele>
        <time>2025-01-18T13:15:18.000Z</time>
      </trkpt>
      <trkpt lat="43.94789" lon="7.28697">
        <ele>398.9</ele>
        <time>2025-01-18T13:15:19.000Z</time>
      </trkpt>
      <trkpt lat="43.94784" lon="7.28687">
        <ele>398.4</ele>
        <time>2025-01-18T13:15:20.000Z</time>
      </trkpt>
      <trkpt lat="43.94779" lon="7.28676">
        <ele>397.9</ele>
        <time>2025-01-18T13:15:21.000Z</time>
      </trkpt>
      <trkpt lat="43.94774" lon="7.28664">
        <ele>397.5</ele>
        <time>2025-01-18T13:15:22.000Z</time>
      </trkpt>
      <trkpt lat="43.94768" lon="7.28653">
        <ele>397</ele>
        <time>2025-01-18T13:15:23.000Z</time>
      </trkpt>
      <trkpt lat="43.94764" lon="7.28641">
        <ele>396.5</ele>
        <time>2025-01-18T13:15:24.000Z</time>
      </trkpt>
      <trkpt lat="43.9476" lon="7.2863">
        <ele>396.1</ele>
        <time>2025-01-18T13:15:25.000Z</time>
      </trkpt>
      <trkpt lat="43.94757" lon="7.2862">
        <ele>395.7</ele>
        <time>2025-01-18T13:15:26.000Z</time>
      </trkpt>
      <trkpt lat="43.94754" lon="7.2861">
        <ele>395.4</ele>
        <time>2025-01-18T13:15:27.000Z</time>
      </trkpt>
      <trkpt lat="43.9475" lon="7.286">
        <ele>395</ele>
        <time>2025-01-18T13:15:28.000Z</time>
      </trkpt>
      <trkpt lat="43.94747" lon="7.28591">
        <ele>394.7</ele>
        <time>2025-01-18T13:15:29.000Z</time>
      </trkpt>
      <trkpt lat="43.94743" lon="7.28581">
        <ele>394.2</ele>
        <time>2025-01-18T13:15:30.000Z</time>
      </trkpt>
      <trkpt lat="43.94741" lon="7.28571">
        <ele>393.8</ele>
        <time>2025-01-18T13:15:31.000Z</time>
      </trkpt>
      <trkpt lat="43.94738" lon="7.2856">
        <ele>393.4</ele>
        <time>2025-01-18T13:15:32.000Z</time>
      </trkpt>
      <trkpt lat="43.94735" lon="7.28549">
        <ele>392.9</ele>
        <time>2025-01-18T13:15:33.000Z</time>
      </trkpt>
      <trkpt lat="43.94732" lon="7.28539">
        <ele>392.4</ele>
        <time>2025-01-18T13:15:34.000Z</time>
      </trkpt>
      <trkpt lat="43.94729" lon="7.28529">
        <ele>391.9</ele>
        <time>2025-01-18T13:15:35.000Z</time>
      </trkpt>
      <trkpt lat="43.94725" lon="7.28518">
        <ele>391.3</ele>
        <time>2025-01-18T13:15:36.000Z</time>
      </trkpt>
      <trkpt lat="43.94721" lon="7.28509">
        <ele>390.8</ele>
        <time>2025-01-18T13:15:37.000Z</time>
      </trkpt>
      <trkpt lat="43.94718" lon="7.285">
        <ele>390.3</ele>
        <time>2025-01-18T13:15:38.000Z</time>
      </trkpt>
      <trkpt lat="43.94712" lon="7.2849">
        <ele>389.8</ele>
        <time>2025-01-18T13:15:39.000Z</time>
      </trkpt>
      <trkpt lat="43.94707" lon="7.28481">
        <ele>389.4</ele>
        <time>2025-01-18T13:15:40.000Z</time>
      </trkpt>
      <trkpt lat="43.94699" lon="7.28474">
        <ele>389</ele>
        <time>2025-01-18T13:15:41.000Z</time>
      </trkpt>
      <trkpt lat="43.94692" lon="7.28467">
        <ele>388.7</ele>
        <time>2025-01-18T13:15:42.000Z</time>
      </trkpt>
      <trkpt lat="43.94684" lon="7.2846">
        <ele>388.4</ele>
        <time>2025-01-18T13:15:43.000Z</time>
      </trkpt>
      <trkpt lat="43.94677" lon="7.28454">
        <ele>388.1</ele>
        <time>2025-01-18T13:15:44.000Z</time>
      </trkpt>
      <trkpt lat="43.94668" lon="7.28448">
        <ele>387.8</ele>
        <time>2025-01-18T13:15:45.000Z</time>
      </trkpt>
      <trkpt lat="43.9466" lon="7.28444">
        <ele>387.5</ele>
        <time>2025-01-18T13:15:46.000Z</time>
      </trkpt>
      <trkpt lat="43.94652" lon="7.2844">
        <ele>387.3</ele>
        <time>2025-01-18T13:15:47.000Z</time>
      </trkpt>
      <trkpt lat="43.94644" lon="7.28437">
        <ele>387.1</ele>
        <time>2025-01-18T13:15:48.000Z</time>
      </trkpt>
      <trkpt lat="43.94636" lon="7.28434">
        <ele>386.9</ele>
        <time>2025-01-18T13:15:49.000Z</time>
      </trkpt>
      <trkpt lat="43.94629" lon="7.28432">
        <ele>386.7</ele>
        <time>2025-01-18T13:15:50.000Z</time>
      </trkpt>
      <trkpt lat="43.94623" lon="7.28429">
        <ele>386.5</ele>
        <time>2025-01-18T13:15:51.000Z</time>
      </trkpt>
      <trkpt lat="43.94617" lon="7.28426">
        <ele>386.3</ele>
        <time>2025-01-18T13:15:52.000Z</time>
      </trkpt>
      <trkpt lat="43.94611" lon="7.28423">
        <ele>386</ele>
        <time>2025-01-18T13:15:53.000Z</time>
      </trkpt>
      <trkpt lat="43.94605" lon="7.2842">
        <ele>385.7</ele>
        <time>2025-01-18T13:15:54.000Z</time>
      </trkpt>
      <trkpt lat="43.94599" lon="7.28417">
        <ele>385.4</ele>
        <time>2025-01-18T13:15:55.000Z</time>
      </trkpt>
      <trkpt lat="43.94594" lon="7.28414">
        <ele>385.2</ele>
        <time>2025-01-18T13:15:56.000Z</time>
      </trkpt>
      <trkpt lat="43.94588" lon="7.2841">
        <ele>385</ele>
        <time>2025-01-18T13:15:57.000Z</time>
      </trkpt>
      <trkpt lat="43.94582" lon="7.28405">
        <ele>384.8</ele>
        <time>2025-01-18T13:15:58.000Z</time>
      </trkpt>
      <trkpt lat="43.94576" lon="7.28402">
        <ele>384.7</ele>
        <time>2025-01-18T13:15:59.000Z</time>
      </trkpt>
      <trkpt lat="43.9457" lon="7.28399">
        <ele>384.6</ele>
        <time>2025-01-18T13:16:00.000Z</time>
      </trkpt>
      <trkpt lat="43.94564" lon="7.28396">
        <ele>384.4</ele>
        <time>2025-01-18T13:16:01.000Z</time>
      </trkpt>
      <trkpt lat="43.94558" lon="7.28394">
        <ele>384.3</ele>
        <time>2025-01-18T13:16:02.000Z</time>
      </trkpt>
      <trkpt lat="43.94553" lon="7.28391">
        <ele>384.2</ele>
        <time>2025-01-18T13:16:03.000Z</time>
      </trkpt>
      <trkpt lat="43.94547" lon="7.28388">
        <ele>384</ele>
        <time>2025-01-18T13:16:04.000Z</time>
      </trkpt>
      <trkpt lat="43.94541" lon="7.28385">
        <ele>383.9</ele>
        <time>2025-01-18T13:16:05.000Z</time>
      </trkpt>
      <trkpt lat="43.94535" lon="7.28382">
        <ele>383.8</ele>
        <time>2025-01-18T13:16:06.000Z</time>
      </trkpt>
      <trkpt lat="43.9453" lon="7.28379">
        <ele>383.6</ele>
        <time>2025-01-18T13:16:07.000Z</time>
      </trkpt>
      <trkpt lat="43.94524" lon="7.28376">
        <ele>383.5</ele>
        <time>2025-01-18T13:16:08.000Z</time>
      </trkpt>
      <trkpt lat="43.94518" lon="7.28372">
        <ele>383.3</ele>
        <time>2025-01-18T13:16:09.000Z</time>
      </trkpt>
      <trkpt lat="43.94512" lon="7.28369">
        <ele>383.2</ele>
        <time>2025-01-18T13:16:10.000Z</time>
      </trkpt>
      <trkpt lat="43.94507" lon="7.28366">
        <ele>383.1</ele>
        <time>2025-01-18T13:16:11.000Z</time>
      </trkpt>
      <trkpt lat="43.94501" lon="7.28364">
        <ele>383</ele>
        <time>2025-01-18T13:16:12.000Z</time>
      </trkpt>
      <trkpt lat="43.94496" lon="7.28362">
        <ele>382.9</ele>
        <time>2025-01-18T13:16:13.000Z</time>
      </trkpt>
      <trkpt lat="43.94492" lon="7.28359">
        <ele>382.8</ele>
        <time>2025-01-18T13:16:14.000Z</time>
      </trkpt>
      <trkpt lat="43.94487" lon="7.28357">
        <ele>382.7</ele>
        <time>2025-01-18T13:16:15.000Z</time>
      </trkpt>
      <trkpt lat="43.94482" lon="7.28354">
        <ele>382.6</ele>
        <time>2025-01-18T13:16:16.000Z</time>
      </trkpt>
      <trkpt lat="43.94477" lon="7.28351">
        <ele>382.5</ele>
        <time>2025-01-18T13:16:17.000Z</time>
      </trkpt>
      <trkpt lat="43.94472" lon="7.28348">
        <ele>382.4</ele>
        <time>2025-01-18T13:16:18.000Z</time>
      </trkpt>
      <trkpt lat="43.94466" lon="7.28345">
        <ele>382.3</ele>
        <time>2025-01-18T13:16:19.000Z</time>
      </trkpt>
      <trkpt lat="43.94461" lon="7.28342">
        <ele>382.2</ele>
        <time>2025-01-18T13:16:20.000Z</time>
      </trkpt>
      <trkpt lat="43.94456" lon="7.28339">
        <ele>382.1</ele>
        <time>2025-01-18T13:16:21.000Z</time>
      </trkpt>
      <trkpt lat="43.94451" lon="7.28336">
        <ele>382</ele>
        <time>2025-01-18T13:16:22.000Z</time>
      </trkpt>
      <trkpt lat="43.94446" lon="7.28333">
        <ele>381.8</ele>
        <time>2025-01-18T13:16:23.000Z</time>
      </trkpt>
      <trkpt lat="43.94441" lon="7.2833">
        <ele>381.7</ele>
        <time>2025-01-18T13:16:24.000Z</time>
      </trkpt>
      <trkpt lat="43.94436" lon="7.28328">
        <ele>381.6</ele>
        <time>2025-01-18T13:16:25.000Z</time>
      </trkpt>
      <trkpt lat="43.94431" lon="7.28325">
        <ele>381.5</ele>
        <time>2025-01-18T13:16:26.000Z</time>
      </trkpt>
      <trkpt lat="43.94426" lon="7.28322">
        <ele>381.3</ele>
        <time>2025-01-18T13:16:27.000Z</time>
      </trkpt>
      <trkpt lat="43.94421" lon="7.2832">
        <ele>381.2</ele>
        <time>2025-01-18T13:16:28.000Z</time>
      </trkpt>
      <trkpt lat="43.94415" lon="7.28318">
        <ele>381</ele>
        <time>2025-01-18T13:16:29.000Z</time>
      </trkpt>
      <trkpt lat="43.9441" lon="7.28316">
        <ele>380.9</ele>
        <time>2025-01-18T13:16:30.000Z</time>
      </trkpt>
      <trkpt lat="43.94405" lon="7.28313">
        <ele>380.8</ele>
        <time>2025-01-18T13:16:31.000Z</time>
      </trkpt>
      <trkpt lat="43.944" lon="7.28311">
        <ele>380.6</ele>
        <time>2025-01-18T13:16:32.000Z</time>
      </trkpt>
      <trkpt lat="43.94395" lon="7.28308">
        <ele>380.5</ele>
        <time>2025-01-18T13:16:33.000Z</time>
      </trkpt>
      <trkpt lat="43.9439" lon="7.28306">
        <ele>380.4</ele>
        <time>2025-01-18T13:16:34.000Z</time>
      </trkpt>
      <trkpt lat="43.94385" lon="7.28304">
        <ele>380.2</ele>
        <time>2025-01-18T13:16:35.000Z</time>
      </trkpt>
      <trkpt lat="43.9438" lon="7.28301">
        <ele>380.1</ele>
        <time>2025-01-18T13:16:36.000Z</time>
      </trkpt>
      <trkpt lat="43.94375" lon="7.28299">
        <ele>380</ele>
        <time>2025-01-18T13:16:37.000Z</time>
      </trkpt>
      <trkpt lat="43.9437" lon="7.28297">
        <ele>379.9</ele>
        <time>2025-01-18T13:16:38.000Z</time>
      </trkpt>
      <trkpt lat="43.94365" lon="7.28295">
        <ele>379.7</ele>
        <time>2025-01-18T13:16:39.000Z</time>
      </trkpt>
      <trkpt lat="43.9436" lon="7.28292">
        <ele>379.6</ele>
        <time>2025-01-18T13:16:40.000Z</time>
      </trkpt>
      <trkpt lat="43.94356" lon="7.28289">
        <ele>379.5</ele>
        <time>2025-01-18T13:16:41.000Z</time>
      </trkpt>
      <trkpt lat="43.94351" lon="7.28287">
        <ele>379.4</ele>
        <time>2025-01-18T13:16:42.000Z</time>
      </trkpt>
      <trkpt lat="43.94346" lon="7.28284">
        <ele>379.3</ele>
        <time>2025-01-18T13:16:43.000Z</time>
      </trkpt>
      <trkpt lat="43.94342" lon="7.28283">
        <ele>379.2</ele>
        <time>2025-01-18T13:16:44.000Z</time>
      </trkpt>
      <trkpt lat="43.94333" lon="7.28282">
        <ele>379.1</ele>
        <time>2025-01-18T13:16:46.000Z</time>
      </trkpt>
      <trkpt lat="43.94328" lon="7.28281">
        <ele>379</ele>
        <time>2025-01-18T13:16:47.000Z</time>
      </trkpt>
      <trkpt lat="43.94323" lon="7.28279">
        <ele>378.9</ele>
        <time>2025-01-18T13:16:48.000Z</time>
      </trkpt>
      <trkpt lat="43.94319" lon="7.2828">
        <ele>378.7</ele>
        <time>2025-01-18T13:16:49.000Z</time>
      </trkpt>
      <trkpt lat="43.94311" lon="7.28285">
        <ele>378.5</ele>
        <time>2025-01-18T13:16:51.000Z</time>
      </trkpt>
      <trkpt lat="43.94303" lon="7.28289">
        <ele>378.4</ele>
        <time>2025-01-18T13:16:53.000Z</time>
      </trkpt>
      <trkpt lat="43.94295" lon="7.28288">
        <ele>378.2</ele>
        <time>2025-01-18T13:16:55.000Z</time>
      </trkpt>
      <trkpt lat="43.9429" lon="7.28288">
        <ele>378.2</ele>
        <time>2025-01-18T13:16:56.000Z</time>
      </trkpt>
      <trkpt lat="43.94283" lon="7.28288">
        <ele>378.2</ele>
        <time>2025-01-18T13:16:58.000Z</time>
      </trkpt>
      <trkpt lat="43.94275" lon="7.28288">
        <ele>378.1</ele>
        <time>2025-01-18T13:17:00.000Z</time>
      </trkpt>
      <trkpt lat="43.94271" lon="7.28287">
        <ele>378</ele>
        <time>2025-01-18T13:17:02.000Z</time>
      </trkpt>
      <trkpt lat="43.94266" lon="7.28287">
        <ele>377.8</ele>
        <time>2025-01-18T13:17:06.000Z</time>
      </trkpt>
      <trkpt lat="43.94266" lon="7.28287">
        <ele>377.7</ele>
        <time>2025-01-18T13:17:08.000Z</time>
      </trkpt>
      <trkpt lat="43.94267" lon="7.28288">
        <ele>377.7</ele>
        <time>2025-01-18T13:17:09.000Z</time>
      </trkpt>
      <trkpt lat="43.94268" lon="7.28288">
        <ele>377.6</ele>
        <time>2025-01-18T13:17:12.000Z</time>
      </trkpt>
      <trkpt lat="43.94269" lon="7.28289">
        <ele>377.6</ele>
        <time>2025-01-18T13:17:13.000Z</time>
      </trkpt>
      <trkpt lat="43.94269" lon="7.28289">
        <ele>377.4</ele>
        <time>2025-01-18T13:17:17.000Z</time>
      </trkpt>
      <trkpt lat="43.94269" lon="7.28289">
        <ele>377.4</ele>
        <time>2025-01-18T13:17:18.000Z</time>
      </trkpt>
      <trkpt lat="43.94268" lon="7.28288">
        <ele>377.4</ele>
        <time>2025-01-18T13:17:19.000Z</time>
      </trkpt>
      <trkpt lat="43.94266" lon="7.28288">
        <ele>377.3</ele>
        <time>2025-01-18T13:17:20.000Z</time>
      </trkpt>
      <trkpt lat="43.94265" lon="7.28287">
        <ele>377.3</ele>
        <time>2025-01-18T13:17:21.000Z</time>
      </trkpt>
      <trkpt lat="43.9426" lon="7.28286">
        <ele>377.3</ele>
        <time>2025-01-18T13:17:23.000Z</time>
      </trkpt>
      <trkpt lat="43.94255" lon="7.28283">
        <ele>377.2</ele>
        <time>2025-01-18T13:17:25.000Z</time>
      </trkpt>
      <trkpt lat="43.9425" lon="7.2828">
        <ele>377.2</ele>
        <time>2025-01-18T13:17:31.000Z</time>
      </trkpt>
      <trkpt lat="43.94244" lon="7.28278">
        <ele>377.2</ele>
        <time>2025-01-18T13:17:34.000Z</time>
      </trkpt>
      <trkpt lat="43.94237" lon="7.28282">
        <ele>377.2</ele>
        <time>2025-01-18T13:17:36.000Z</time>
      </trkpt>
      <trkpt lat="43.94231" lon="7.28287">
        <ele>377.2</ele>
        <time>2025-01-18T13:17:38.000Z</time>
      </trkpt>
      <trkpt lat="43.94225" lon="7.28292">
        <ele>377.1</ele>
        <time>2025-01-18T13:17:40.000Z</time>
      </trkpt>
      <trkpt lat="43.94217" lon="7.28298">
        <ele>377.1</ele>
        <time>2025-01-18T13:17:42.000Z</time>
      </trkpt>
      <trkpt lat="43.94213" lon="7.28302">
        <ele>377</ele>
        <time>2025-01-18T13:17:43.000Z</time>
      </trkpt>
      <trkpt lat="43.94208" lon="7.28306">
        <ele>377</ele>
        <time>2025-01-18T13:17:44.000Z</time>
      </trkpt>
      <trkpt lat="43.94202" lon="7.28311">
        <ele>377</ele>
        <time>2025-01-18T13:17:45.000Z</time>
      </trkpt>
      <trkpt lat="43.94197" lon="7.28315">
        <ele>377</ele>
        <time>2025-01-18T13:17:46.000Z</time>
      </trkpt>
      <trkpt lat="43.94193" lon="7.28319">
        <ele>377</ele>
        <time>2025-01-18T13:17:47.000Z</time>
      </trkpt>
      <trkpt lat="43.94188" lon="7.28323">
        <ele>377</ele>
        <time>2025-01-18T13:17:48.000Z</time>
      </trkpt>
      <trkpt lat="43.94184" lon="7.28327">
        <ele>377</ele>
        <time>2025-01-18T13:17:49.000Z</time>
      </trkpt>
      <trkpt lat="43.94179" lon="7.2833">
        <ele>377</ele>
        <time>2025-01-18T13:17:50.000Z</time>
      </trkpt>
      <trkpt lat="43.94174" lon="7.28334">
        <ele>377</ele>
        <time>2025-01-18T13:17:51.000Z</time>
      </trkpt>
      <trkpt lat="43.9417" lon="7.28339">
        <ele>377</ele>
        <time>2025-01-18T13:17:52.000Z</time>
      </trkpt>
      <trkpt lat="43.94165" lon="7.28342">
        <ele>377</ele>
        <time>2025-01-18T13:17:53.000Z</time>
      </trkpt>
      <trkpt lat="43.94159" lon="7.28345">
        <ele>377</ele>
        <time>2025-01-18T13:17:54.000Z</time>
      </trkpt>
      <trkpt lat="43.94154" lon="7.28348">
        <ele>377</ele>
        <time>2025-01-18T13:17:55.000Z</time>
      </trkpt>
      <trkpt lat="43.94148" lon="7.2835">
        <ele>377</ele>
        <time>2025-01-18T13:17:56.000Z</time>
      </trkpt>
      <trkpt lat="43.94142" lon="7.28351">
        <ele>377</ele>
        <time>2025-01-18T13:17:57.000Z</time>
      </trkpt>
      <trkpt lat="43.94136" lon="7.28353">
        <ele>377</ele>
        <time>2025-01-18T13:17:58.000Z</time>
      </trkpt>
      <trkpt lat="43.94131" lon="7.28355">
        <ele>376.9</ele>
        <time>2025-01-18T13:17:59.000Z</time>
      </trkpt>
      <trkpt lat="43.94124" lon="7.28357">
        <ele>376.9</ele>
        <time>2025-01-18T13:18:00.000Z</time>
      </trkpt>
      <trkpt lat="43.94118" lon="7.28359">
        <ele>376.9</ele>
        <time>2025-01-18T13:18:01.000Z</time>
      </trkpt>
      <trkpt lat="43.94112" lon="7.2836">
        <ele>376.9</ele>
        <time>2025-01-18T13:18:02.000Z</time>
      </trkpt>
      <trkpt lat="43.94105" lon="7.28362">
        <ele>376.9</ele>
        <time>2025-01-18T13:18:03.000Z</time>
      </trkpt>
      <trkpt lat="43.94097" lon="7.28362">
        <ele>376.9</ele>
        <time>2025-01-18T13:18:04.000Z</time>
      </trkpt>
      <trkpt lat="43.9409" lon="7.28363">
        <ele>376.8</ele>
        <time>2025-01-18T13:18:05.000Z</time>
      </trkpt>
      <trkpt lat="43.94083" lon="7.28365">
        <ele>376.8</ele>
        <time>2025-01-18T13:18:06.000Z</time>
      </trkpt>
      <trkpt lat="43.94076" lon="7.28366">
        <ele>376.8</ele>
        <time>2025-01-18T13:18:07.000Z</time>
      </trkpt>
      <trkpt lat="43.9407" lon="7.28368">
        <ele>376.7</ele>
        <time>2025-01-18T13:18:08.000Z</time>
      </trkpt>
      <trkpt lat="43.94063" lon="7.28369">
        <ele>376.7</ele>
        <time>2025-01-18T13:18:09.000Z</time>
      </trkpt>
      <trkpt lat="43.94056" lon="7.28371">
        <ele>376.6</ele>
        <time>2025-01-18T13:18:10.000Z</time>
      </trkpt>
      <trkpt lat="43.94049" lon="7.28372">
        <ele>376.6</ele>
        <time>2025-01-18T13:18:11.000Z</time>
      </trkpt>
      <trkpt lat="43.94043" lon="7.28373">
        <ele>376.6</ele>
        <time>2025-01-18T13:18:12.000Z</time>
      </trkpt>
      <trkpt lat="43.94037" lon="7.28374">
        <ele>376.5</ele>
        <time>2025-01-18T13:18:13.000Z</time>
      </trkpt>
      <trkpt lat="43.94031" lon="7.28374">
        <ele>376.5</ele>
        <time>2025-01-18T13:18:14.000Z</time>
      </trkpt>
      <trkpt lat="43.94025" lon="7.28373">
        <ele>376.4</ele>
        <time>2025-01-18T13:18:15.000Z</time>
      </trkpt>
      <trkpt lat="43.9402" lon="7.28372">
        <ele>376.4</ele>
        <time>2025-01-18T13:18:16.000Z</time>
      </trkpt>
      <trkpt lat="43.94014" lon="7.28371">
        <ele>376.3</ele>
        <time>2025-01-18T13:18:17.000Z</time>
      </trkpt>
      <trkpt lat="43.94009" lon="7.2837">
        <ele>376.3</ele>
        <time>2025-01-18T13:18:18.000Z</time>
      </trkpt>
      <trkpt lat="43.94002" lon="7.28369">
        <ele>376.2</ele>
        <time>2025-01-18T13:18:20.000Z</time>
      </trkpt>
      <trkpt lat="43.93998" lon="7.28369">
        <ele>375.7</ele>
        <time>2025-01-18T13:18:30.000Z</time>
      </trkpt>
      <trkpt lat="43.93999" lon="7.28368">
        <ele>375.7</ele>
        <time>2025-01-18T13:18:31.000Z</time>
      </trkpt>
      <trkpt lat="43.93999" lon="7.28367">
        <ele>375.6</ele>
        <time>2025-01-18T13:18:32.000Z</time>
      </trkpt>
      <trkpt lat="43.93998" lon="7.28366">
        <ele>375.6</ele>
        <time>2025-01-18T13:18:33.000Z</time>
      </trkpt>
      <trkpt lat="43.93992" lon="7.28364">
        <ele>375.6</ele>
        <time>2025-01-18T13:18:39.000Z</time>
      </trkpt>
      <trkpt lat="43.93986" lon="7.28362">
        <ele>375.5</ele>
        <time>2025-01-18T13:18:41.000Z</time>
      </trkpt>
      <trkpt lat="43.93979" lon="7.28356">
        <ele>375.5</ele>
        <time>2025-01-18T13:18:43.000Z</time>
      </trkpt>
      <trkpt lat="43.93974" lon="7.28354">
        <ele>375.5</ele>
        <time>2025-01-18T13:18:44.000Z</time>
      </trkpt>
      <trkpt lat="43.93969" lon="7.28351">
        <ele>375.5</ele>
        <time>2025-01-18T13:18:45.000Z</time>
      </trkpt>
      <trkpt lat="43.93964" lon="7.28349">
        <ele>375.5</ele>
        <time>2025-01-18T13:18:46.000Z</time>
      </trkpt>
      <trkpt lat="43.93958" lon="7.28345">
        <ele>375.4</ele>
        <time>2025-01-18T13:18:47.000Z</time>
      </trkpt>
      <trkpt lat="43.93952" lon="7.28341">
        <ele>375.4</ele>
        <time>2025-01-18T13:18:48.000Z</time>
      </trkpt>
      <trkpt lat="43.93945" lon="7.28337">
        <ele>375.4</ele>
        <time>2025-01-18T13:18:49.000Z</time>
      </trkpt>
      <trkpt lat="43.93941" lon="7.28332">
        <ele>375.4</ele>
        <time>2025-01-18T13:18:50.000Z</time>
      </trkpt>
      <trkpt lat="43.93935" lon="7.28324">
        <ele>375.3</ele>
        <time>2025-01-18T13:18:51.000Z</time>
      </trkpt>
      <trkpt lat="43.93931" lon="7.28317">
        <ele>375.3</ele>
        <time>2025-01-18T13:18:52.000Z</time>
      </trkpt>
      <trkpt lat="43.93927" lon="7.28311">
        <ele>375.2</ele>
        <time>2025-01-18T13:18:53.000Z</time>
      </trkpt>
      <trkpt lat="43.93924" lon="7.28304">
        <ele>375.2</ele>
        <time>2025-01-18T13:18:54.000Z</time>
      </trkpt>
      <trkpt lat="43.93921" lon="7.28298">
        <ele>375.2</ele>
        <time>2025-01-18T13:18:55.000Z</time>
      </trkpt>
      <trkpt lat="43.93919" lon="7.28292">
        <ele>375.2</ele>
        <time>2025-01-18T13:18:56.000Z</time>
      </trkpt>
      <trkpt lat="43.93916" lon="7.28286">
        <ele>375.2</ele>
        <time>2025-01-18T13:18:57.000Z</time>
      </trkpt>
      <trkpt lat="43.93915" lon="7.2828">
        <ele>375.2</ele>
        <time>2025-01-18T13:18:58.000Z</time>
      </trkpt>
      <trkpt lat="43.93911" lon="7.28268">
        <ele>375.1</ele>
        <time>2025-01-18T13:19:00.000Z</time>
      </trkpt>
      <trkpt lat="43.9391" lon="7.28262">
        <ele>375</ele>
        <time>2025-01-18T13:19:01.000Z</time>
      </trkpt>
      <trkpt lat="43.93909" lon="7.28255">
        <ele>375</ele>
        <time>2025-01-18T13:19:02.000Z</time>
      </trkpt>
      <trkpt lat="43.93907" lon="7.28244">
        <ele>375</ele>
        <time>2025-01-18T13:19:04.000Z</time>
      </trkpt>
      <trkpt lat="43.93905" lon="7.28234">
        <ele>374.9</ele>
        <time>2025-01-18T13:19:06.000Z</time>
      </trkpt>
      <trkpt lat="43.93902" lon="7.28222">
        <ele>374.8</ele>
        <time>2025-01-18T13:19:08.000Z</time>
      </trkpt>
      <trkpt lat="43.93897" lon="7.28213">
        <ele>374.7</ele>
        <time>2025-01-18T13:19:10.000Z</time>
      </trkpt>
      <trkpt lat="43.93892" lon="7.28206">
        <ele>374.7</ele>
        <time>2025-01-18T13:19:12.000Z</time>
      </trkpt>
      <trkpt lat="43.93887" lon="7.282">
        <ele>374.6</ele>
        <time>2025-01-18T13:19:14.000Z</time>
      </trkpt>
      <trkpt lat="43.93881" lon="7.28194">
        <ele>374.5</ele>
        <time>2025-01-18T13:19:17.000Z</time>
      </trkpt>
      <trkpt lat="43.93876" lon="7.28192">
        <ele>374.4</ele>
        <time>2025-01-18T13:19:20.000Z</time>
      </trkpt>
      <trkpt lat="43.93879" lon="7.2819">
        <ele>374.1</ele>
        <time>2025-01-18T13:19:31.000Z</time>
      </trkpt>
      <trkpt lat="43.93879" lon="7.2819">
        <ele>374.1</ele>
        <time>2025-01-18T13:19:32.000Z</time>
      </trkpt>
      <trkpt lat="43.93879" lon="7.2819">
        <ele>374.1</ele>
        <time>2025-01-18T13:19:33.000Z</time>
      </trkpt>
      <trkpt lat="43.93879" lon="7.2819">
        <ele>374</ele>
        <time>2025-01-18T13:19:40.100Z</time>
      </trkpt>
      <trkpt lat="43.93879" lon="7.2819">
        <ele>374</ele>
        <time>2025-01-18T13:19:41.000Z</time>
      </trkpt>
      <trkpt lat="43.93879" lon="7.2819">
        <ele>374</ele>
        <time>2025-01-18T13:19:41.000Z</time>
      </trkpt>
    </trkseg>
  </trk>
</gpx>